<?xml version="1.0" encoding="UTF-8" standalone="no" ?>
<gpx xmlns="http://www.topografix.com/GPX/1/1" xmlns:xsi="http://www.w3.org/2001/XMLSchema-instance" xsi:schemaLocation="http://www.topografix.com/GPX/1/1 http://www.topografix.com/GPX/1/1/gpx.xsd" version="1.1" creator="VisuGPX - https://www.visugpx.com">
  <metadata>
    <name>036SG73-7478289</name>
    <desc><![CDATA[03
]]></desc>
  </metadata>
  <trk>
    <name><![CDATA[036SG73-7478289]]></name>
    <trkseg>
      <trkpt lat="46.6995" lon="-1.93379">
        <ele>4</ele>
        <time>2018-03-20T21:52:34Z</time>
      </trkpt>
      <trkpt lat="46.69949" lon="-1.93379">
        <ele>4</ele>
        <time>2018-03-20T21:53:34Z</time>
      </trkpt>
      <trkpt lat="46.69944" lon="-1.93381">
        <ele>4</ele>
        <time>2018-03-20T21:54:34Z</time>
      </trkpt>
      <trkpt lat="46.69935" lon="-1.93382">
        <ele>4</ele>
        <time>2018-03-20T21:55:34Z</time>
      </trkpt>
      <trkpt lat="46.69925" lon="-1.93383">
        <ele>4</ele>
        <time>2018-03-20T21:56:34Z</time>
      </trkpt>
      <trkpt lat="46.69922" lon="-1.93383">
        <ele>4</ele>
        <time>2018-03-20T21:57:34Z</time>
      </trkpt>
      <trkpt lat="46.69915" lon="-1.93383">
        <ele>4</ele>
        <time>2018-03-20T21:58:34Z</time>
      </trkpt>
      <trkpt lat="46.69915" lon="-1.93384">
        <ele>4</ele>
        <time>2018-03-20T21:59:34Z</time>
      </trkpt>
      <trkpt lat="46.69913" lon="-1.93385">
        <ele>4</ele>
        <time>2018-03-20T22:00:34Z</time>
      </trkpt>
      <trkpt lat="46.69912" lon="-1.93386">
        <ele>4</ele>
        <time>2018-03-20T22:01:34Z</time>
      </trkpt>
      <trkpt lat="46.69911" lon="-1.93386">
        <ele>4</ele>
        <time>2018-03-20T22:02:34Z</time>
      </trkpt>
      <trkpt lat="46.69909" lon="-1.93385">
        <ele>4</ele>
        <time>2018-03-20T22:03:34Z</time>
      </trkpt>
      <trkpt lat="46.69908" lon="-1.93383">
        <ele>4</ele>
        <time>2018-03-20T22:04:34Z</time>
      </trkpt>
      <trkpt lat="46.69901" lon="-1.93383">
        <ele>5</ele>
        <time>2018-03-20T22:05:34Z</time>
      </trkpt>
      <trkpt lat="46.69898" lon="-1.93383">
        <ele>5</ele>
        <time>2018-03-20T22:06:34Z</time>
      </trkpt>
      <trkpt lat="46.69892" lon="-1.93385">
        <ele>5</ele>
        <time>2018-03-20T22:07:34Z</time>
      </trkpt>
      <trkpt lat="46.69824" lon="-1.93411">
        <ele>5</ele>
        <time>2018-03-20T22:08:34Z</time>
      </trkpt>
      <trkpt lat="46.69806" lon="-1.93419">
        <ele>5</ele>
        <time>2018-03-20T22:09:34Z</time>
      </trkpt>
      <trkpt lat="46.69798" lon="-1.93421">
        <ele>5</ele>
        <time>2018-03-20T22:10:34Z</time>
      </trkpt>
      <trkpt lat="46.69797" lon="-1.93421">
        <ele>5</ele>
        <time>2018-03-20T22:11:34Z</time>
      </trkpt>
      <trkpt lat="46.69793" lon="-1.9342">
        <ele>5</ele>
        <time>2018-03-20T22:12:34Z</time>
      </trkpt>
      <trkpt lat="46.69793" lon="-1.93421">
        <ele>5</ele>
        <time>2018-03-20T22:13:34Z</time>
      </trkpt>
      <trkpt lat="46.69793" lon="-1.93422">
        <ele>5</ele>
        <time>2018-03-20T22:14:34Z</time>
      </trkpt>
      <trkpt lat="46.69793" lon="-1.93423">
        <ele>5</ele>
        <time>2018-03-20T22:15:34Z</time>
      </trkpt>
      <trkpt lat="46.69793" lon="-1.93424">
        <ele>5</ele>
        <time>2018-03-20T22:16:34Z</time>
      </trkpt>
      <trkpt lat="46.69792" lon="-1.93425">
        <ele>5</ele>
        <time>2018-03-20T22:17:34Z</time>
      </trkpt>
      <trkpt lat="46.69792" lon="-1.93426">
        <ele>5</ele>
        <time>2018-03-20T22:18:34Z</time>
      </trkpt>
      <trkpt lat="46.69791" lon="-1.93426">
        <ele>5</ele>
        <time>2018-03-20T22:19:34Z</time>
      </trkpt>
      <trkpt lat="46.69791" lon="-1.93427">
        <ele>5</ele>
        <time>2018-03-20T22:20:34Z</time>
      </trkpt>
      <trkpt lat="46.6979" lon="-1.93427">
        <ele>5</ele>
        <time>2018-03-20T22:21:34Z</time>
      </trkpt>
      <trkpt lat="46.6979" lon="-1.93428">
        <ele>5</ele>
        <time>2018-03-20T22:22:34Z</time>
      </trkpt>
      <trkpt lat="46.69789" lon="-1.93428">
        <ele>5</ele>
        <time>2018-03-20T22:23:34Z</time>
      </trkpt>
      <trkpt lat="46.69788" lon="-1.93428">
        <ele>5</ele>
        <time>2018-03-20T22:24:34Z</time>
      </trkpt>
      <trkpt lat="46.69788" lon="-1.93427">
        <ele>5</ele>
        <time>2018-03-20T22:25:34Z</time>
      </trkpt>
      <trkpt lat="46.69787" lon="-1.93427">
        <ele>5</ele>
        <time>2018-03-20T22:26:34Z</time>
      </trkpt>
      <trkpt lat="46.69787" lon="-1.93426">
        <ele>5</ele>
        <time>2018-03-20T22:27:34Z</time>
      </trkpt>
      <trkpt lat="46.69786" lon="-1.93426">
        <ele>5</ele>
        <time>2018-03-20T22:28:34Z</time>
      </trkpt>
      <trkpt lat="46.69786" lon="-1.93425">
        <ele>5</ele>
        <time>2018-03-20T22:29:34Z</time>
      </trkpt>
      <trkpt lat="46.69786" lon="-1.93424">
        <ele>5</ele>
        <time>2018-03-20T22:30:34Z</time>
      </trkpt>
      <trkpt lat="46.69785" lon="-1.93424">
        <ele>5</ele>
        <time>2018-03-20T22:31:34Z</time>
      </trkpt>
      <trkpt lat="46.69785" lon="-1.93423">
        <ele>5</ele>
        <time>2018-03-20T22:32:34Z</time>
      </trkpt>
      <trkpt lat="46.69785" lon="-1.93422">
        <ele>5</ele>
        <time>2018-03-20T22:33:34Z</time>
      </trkpt>
      <trkpt lat="46.69779" lon="-1.9342">
        <ele>5</ele>
        <time>2018-03-20T22:34:34Z</time>
      </trkpt>
      <trkpt lat="46.69776" lon="-1.9342">
        <ele>5</ele>
        <time>2018-03-20T22:35:34Z</time>
      </trkpt>
      <trkpt lat="46.69772" lon="-1.9342">
        <ele>5</ele>
        <time>2018-03-20T22:36:34Z</time>
      </trkpt>
      <trkpt lat="46.69762" lon="-1.93423">
        <ele>5</ele>
        <time>2018-03-20T22:37:34Z</time>
      </trkpt>
      <trkpt lat="46.69759" lon="-1.93424">
        <ele>5</ele>
        <time>2018-03-20T22:38:34Z</time>
      </trkpt>
      <trkpt lat="46.69721" lon="-1.93434">
        <ele>5</ele>
        <time>2018-03-20T22:39:34Z</time>
      </trkpt>
      <trkpt lat="46.69714" lon="-1.93435">
        <ele>5</ele>
        <time>2018-03-20T22:40:34Z</time>
      </trkpt>
      <trkpt lat="46.69697" lon="-1.93436">
        <ele>5</ele>
        <time>2018-03-20T22:41:34Z</time>
      </trkpt>
      <trkpt lat="46.69685" lon="-1.93435">
        <ele>5</ele>
        <time>2018-03-20T22:42:34Z</time>
      </trkpt>
      <trkpt lat="46.69633" lon="-1.93423">
        <ele>5</ele>
        <time>2018-03-20T22:43:34Z</time>
      </trkpt>
      <trkpt lat="46.69633" lon="-1.93423">
        <ele>5</ele>
        <time>2018-03-20T22:44:34Z</time>
      </trkpt>
      <trkpt lat="46.69633" lon="-1.93424">
        <ele>4</ele>
        <time>2018-03-20T22:45:34Z</time>
      </trkpt>
      <trkpt lat="46.69633" lon="-1.93425">
        <ele>4</ele>
        <time>2018-03-20T22:46:34Z</time>
      </trkpt>
      <trkpt lat="46.69633" lon="-1.93426">
        <ele>4</ele>
        <time>2018-03-20T22:47:34Z</time>
      </trkpt>
      <trkpt lat="46.69633" lon="-1.93427">
        <ele>4</ele>
        <time>2018-03-20T22:48:34Z</time>
      </trkpt>
      <trkpt lat="46.69633" lon="-1.93428">
        <ele>4</ele>
        <time>2018-03-20T22:49:34Z</time>
      </trkpt>
      <trkpt lat="46.69633" lon="-1.93429">
        <ele>4</ele>
        <time>2018-03-20T22:50:34Z</time>
      </trkpt>
      <trkpt lat="46.69633" lon="-1.9343">
        <ele>4</ele>
        <time>2018-03-20T22:51:34Z</time>
      </trkpt>
      <trkpt lat="46.69632" lon="-1.9343">
        <ele>4</ele>
        <time>2018-03-20T22:52:34Z</time>
      </trkpt>
      <trkpt lat="46.69632" lon="-1.93431">
        <ele>4</ele>
        <time>2018-03-20T22:53:34Z</time>
      </trkpt>
      <trkpt lat="46.69632" lon="-1.93432">
        <ele>4</ele>
        <time>2018-03-20T22:54:34Z</time>
      </trkpt>
      <trkpt lat="46.69631" lon="-1.93432">
        <ele>4</ele>
        <time>2018-03-20T22:55:34Z</time>
      </trkpt>
      <trkpt lat="46.69631" lon="-1.93433">
        <ele>4</ele>
        <time>2018-03-20T22:56:34Z</time>
      </trkpt>
      <trkpt lat="46.69631" lon="-1.93434">
        <ele>4</ele>
        <time>2018-03-20T22:57:34Z</time>
      </trkpt>
      <trkpt lat="46.6963" lon="-1.93434">
        <ele>4</ele>
        <time>2018-03-20T22:58:34Z</time>
      </trkpt>
      <trkpt lat="46.6963" lon="-1.93435">
        <ele>4</ele>
        <time>2018-03-20T22:59:34Z</time>
      </trkpt>
      <trkpt lat="46.69629" lon="-1.93435">
        <ele>4</ele>
        <time>2018-03-20T23:00:34Z</time>
      </trkpt>
      <trkpt lat="46.69629" lon="-1.93436">
        <ele>4</ele>
        <time>2018-03-20T23:01:34Z</time>
      </trkpt>
      <trkpt lat="46.69628" lon="-1.93436">
        <ele>4</ele>
        <time>2018-03-20T23:02:34Z</time>
      </trkpt>
      <trkpt lat="46.69627" lon="-1.93436">
        <ele>4</ele>
        <time>2018-03-20T23:03:34Z</time>
      </trkpt>
      <trkpt lat="46.69627" lon="-1.93437">
        <ele>4</ele>
        <time>2018-03-20T23:04:34Z</time>
      </trkpt>
      <trkpt lat="46.69626" lon="-1.93437">
        <ele>4</ele>
        <time>2018-03-20T23:05:34Z</time>
      </trkpt>
      <trkpt lat="46.69625" lon="-1.93437">
        <ele>4</ele>
        <time>2018-03-20T23:06:34Z</time>
      </trkpt>
      <trkpt lat="46.69624" lon="-1.93437">
        <ele>4</ele>
        <time>2018-03-20T23:07:34Z</time>
      </trkpt>
      <trkpt lat="46.69623" lon="-1.93437">
        <ele>4</ele>
        <time>2018-03-20T23:08:34Z</time>
      </trkpt>
      <trkpt lat="46.69622" lon="-1.93436">
        <ele>4</ele>
        <time>2018-03-20T23:09:34Z</time>
      </trkpt>
      <trkpt lat="46.69621" lon="-1.93436">
        <ele>4</ele>
        <time>2018-03-20T23:10:34Z</time>
      </trkpt>
      <trkpt lat="46.6962" lon="-1.93435">
        <ele>4</ele>
        <time>2018-03-20T23:11:34Z</time>
      </trkpt>
      <trkpt lat="46.69619" lon="-1.93434">
        <ele>4</ele>
        <time>2018-03-20T23:12:34Z</time>
      </trkpt>
      <trkpt lat="46.69619" lon="-1.93433">
        <ele>4</ele>
        <time>2018-03-20T23:13:34Z</time>
      </trkpt>
      <trkpt lat="46.69618" lon="-1.93433">
        <ele>4</ele>
        <time>2018-03-20T23:14:34Z</time>
      </trkpt>
      <trkpt lat="46.69618" lon="-1.93432">
        <ele>4</ele>
        <time>2018-03-20T23:15:34Z</time>
      </trkpt>
      <trkpt lat="46.69618" lon="-1.93431">
        <ele>4</ele>
        <time>2018-03-20T23:16:34Z</time>
      </trkpt>
      <trkpt lat="46.69617" lon="-1.93431">
        <ele>4</ele>
        <time>2018-03-20T23:17:34Z</time>
      </trkpt>
      <trkpt lat="46.69617" lon="-1.9343">
        <ele>4</ele>
        <time>2018-03-20T23:18:34Z</time>
      </trkpt>
      <trkpt lat="46.69617" lon="-1.93429">
        <ele>4</ele>
        <time>2018-03-20T23:19:34Z</time>
      </trkpt>
      <trkpt lat="46.69617" lon="-1.93428">
        <ele>4</ele>
        <time>2018-03-20T23:20:34Z</time>
      </trkpt>
      <trkpt lat="46.69616" lon="-1.93428">
        <ele>4</ele>
        <time>2018-03-20T23:21:34Z</time>
      </trkpt>
      <trkpt lat="46.69616" lon="-1.93427">
        <ele>4</ele>
        <time>2018-03-20T23:22:34Z</time>
      </trkpt>
      <trkpt lat="46.69616" lon="-1.93426">
        <ele>4</ele>
        <time>2018-03-20T23:23:34Z</time>
      </trkpt>
      <trkpt lat="46.69616" lon="-1.93425">
        <ele>4</ele>
        <time>2018-03-20T23:24:34Z</time>
      </trkpt>
      <trkpt lat="46.69616" lon="-1.93424">
        <ele>4</ele>
        <time>2018-03-20T23:25:34Z</time>
      </trkpt>
      <trkpt lat="46.69616" lon="-1.93423">
        <ele>4</ele>
        <time>2018-03-20T23:26:34Z</time>
      </trkpt>
      <trkpt lat="46.69616" lon="-1.93422">
        <ele>4</ele>
        <time>2018-03-20T23:27:34Z</time>
      </trkpt>
      <trkpt lat="46.69616" lon="-1.93421">
        <ele>4</ele>
        <time>2018-03-20T23:28:34Z</time>
      </trkpt>
      <trkpt lat="46.69617" lon="-1.93421">
        <ele>4</ele>
        <time>2018-03-20T23:29:34Z</time>
      </trkpt>
      <trkpt lat="46.69617" lon="-1.9342">
        <ele>4</ele>
        <time>2018-03-20T23:30:34Z</time>
      </trkpt>
      <trkpt lat="46.69607" lon="-1.93416">
        <ele>4</ele>
        <time>2018-03-20T23:31:34Z</time>
      </trkpt>
      <trkpt lat="46.69587" lon="-1.93404">
        <ele>4</ele>
        <time>2018-03-20T23:32:34Z</time>
      </trkpt>
      <trkpt lat="46.69551" lon="-1.93388">
        <ele>4</ele>
        <time>2018-03-20T23:33:34Z</time>
      </trkpt>
      <trkpt lat="46.69518" lon="-1.93374">
        <ele>4</ele>
        <time>2018-03-20T23:34:34Z</time>
      </trkpt>
      <trkpt lat="46.69507" lon="-1.9337">
        <ele>4</ele>
        <time>2018-03-20T23:35:34Z</time>
      </trkpt>
      <trkpt lat="46.69503" lon="-1.93368">
        <ele>4</ele>
        <time>2018-03-20T23:36:34Z</time>
      </trkpt>
      <trkpt lat="46.69498" lon="-1.93366">
        <ele>4</ele>
        <time>2018-03-20T23:37:34Z</time>
      </trkpt>
      <trkpt lat="46.6946" lon="-1.93349">
        <ele>4</ele>
        <time>2018-03-20T23:38:34Z</time>
      </trkpt>
      <trkpt lat="46.69431" lon="-1.93336">
        <ele>4</ele>
        <time>2018-03-20T23:39:34Z</time>
      </trkpt>
      <trkpt lat="46.69426" lon="-1.93334">
        <ele>4</ele>
        <time>2018-03-20T23:40:34Z</time>
      </trkpt>
      <trkpt lat="46.69421" lon="-1.93333">
        <ele>4</ele>
        <time>2018-03-20T23:41:34Z</time>
      </trkpt>
      <trkpt lat="46.69416" lon="-1.93331">
        <ele>4</ele>
        <time>2018-03-20T23:42:34Z</time>
      </trkpt>
      <trkpt lat="46.69405" lon="-1.9333">
        <ele>4</ele>
        <time>2018-03-20T23:43:34Z</time>
      </trkpt>
      <trkpt lat="46.69394" lon="-1.93333">
        <ele>4</ele>
        <time>2018-03-20T23:44:34Z</time>
      </trkpt>
      <trkpt lat="46.69394" lon="-1.93333">
        <ele>4</ele>
        <time>2018-03-20T23:45:34Z</time>
      </trkpt>
      <trkpt lat="46.69394" lon="-1.93334">
        <ele>4</ele>
        <time>2018-03-20T23:46:34Z</time>
      </trkpt>
      <trkpt lat="46.69394" lon="-1.93335">
        <ele>4</ele>
        <time>2018-03-20T23:47:34Z</time>
      </trkpt>
      <trkpt lat="46.69393" lon="-1.93335">
        <ele>4</ele>
        <time>2018-03-20T23:48:34Z</time>
      </trkpt>
      <trkpt lat="46.69393" lon="-1.93336">
        <ele>4</ele>
        <time>2018-03-20T23:49:34Z</time>
      </trkpt>
      <trkpt lat="46.69392" lon="-1.93336">
        <ele>4</ele>
        <time>2018-03-20T23:50:34Z</time>
      </trkpt>
      <trkpt lat="46.69392" lon="-1.93337">
        <ele>4</ele>
        <time>2018-03-20T23:51:34Z</time>
      </trkpt>
      <trkpt lat="46.69391" lon="-1.93337">
        <ele>4</ele>
        <time>2018-03-20T23:52:34Z</time>
      </trkpt>
      <trkpt lat="46.6939" lon="-1.93338">
        <ele>4</ele>
        <time>2018-03-20T23:53:34Z</time>
      </trkpt>
      <trkpt lat="46.69389" lon="-1.93338">
        <ele>4</ele>
        <time>2018-03-20T23:54:34Z</time>
      </trkpt>
      <trkpt lat="46.69388" lon="-1.93338">
        <ele>4</ele>
        <time>2018-03-20T23:55:34Z</time>
      </trkpt>
      <trkpt lat="46.69387" lon="-1.93338">
        <ele>4</ele>
        <time>2018-03-20T23:56:34Z</time>
      </trkpt>
      <trkpt lat="46.69386" lon="-1.93338">
        <ele>4</ele>
        <time>2018-03-20T23:57:34Z</time>
      </trkpt>
      <trkpt lat="46.69385" lon="-1.93338">
        <ele>4</ele>
        <time>2018-03-20T23:58:34Z</time>
      </trkpt>
      <trkpt lat="46.69384" lon="-1.93338">
        <ele>4</ele>
        <time>2018-03-20T23:59:34Z</time>
      </trkpt>
      <trkpt lat="46.69384" lon="-1.93337">
        <ele>4</ele>
        <time>2018-03-21T00:00:34Z</time>
      </trkpt>
      <trkpt lat="46.69383" lon="-1.93337">
        <ele>4</ele>
        <time>2018-03-21T00:01:34Z</time>
      </trkpt>
      <trkpt lat="46.69383" lon="-1.93336">
        <ele>4</ele>
        <time>2018-03-21T00:02:34Z</time>
      </trkpt>
      <trkpt lat="46.69382" lon="-1.93336">
        <ele>4</ele>
        <time>2018-03-21T00:03:34Z</time>
      </trkpt>
      <trkpt lat="46.69382" lon="-1.93335">
        <ele>4</ele>
        <time>2018-03-21T00:04:34Z</time>
      </trkpt>
      <trkpt lat="46.69381" lon="-1.93335">
        <ele>4</ele>
        <time>2018-03-21T00:05:34Z</time>
      </trkpt>
      <trkpt lat="46.69381" lon="-1.93334">
        <ele>4</ele>
        <time>2018-03-21T00:06:34Z</time>
      </trkpt>
      <trkpt lat="46.6938" lon="-1.93333">
        <ele>4</ele>
        <time>2018-03-21T00:07:34Z</time>
      </trkpt>
      <trkpt lat="46.6938" lon="-1.93332">
        <ele>4</ele>
        <time>2018-03-21T00:08:34Z</time>
      </trkpt>
      <trkpt lat="46.69379" lon="-1.93332">
        <ele>4</ele>
        <time>2018-03-21T00:09:34Z</time>
      </trkpt>
      <trkpt lat="46.69379" lon="-1.93331">
        <ele>4</ele>
        <time>2018-03-21T00:10:34Z</time>
      </trkpt>
      <trkpt lat="46.69379" lon="-1.9333">
        <ele>4</ele>
        <time>2018-03-21T00:11:34Z</time>
      </trkpt>
      <trkpt lat="46.69379" lon="-1.93329">
        <ele>4</ele>
        <time>2018-03-21T00:12:34Z</time>
      </trkpt>
      <trkpt lat="46.69376" lon="-1.93327">
        <ele>4</ele>
        <time>2018-03-21T00:13:34Z</time>
      </trkpt>
      <trkpt lat="46.69367" lon="-1.93325">
        <ele>4</ele>
        <time>2018-03-21T00:14:34Z</time>
      </trkpt>
      <trkpt lat="46.69363" lon="-1.93325">
        <ele>4</ele>
        <time>2018-03-21T00:15:34Z</time>
      </trkpt>
      <trkpt lat="46.69356" lon="-1.93325">
        <ele>4</ele>
        <time>2018-03-21T00:16:34Z</time>
      </trkpt>
      <trkpt lat="46.69353" lon="-1.93324">
        <ele>4</ele>
        <time>2018-03-21T00:17:34Z</time>
      </trkpt>
      <trkpt lat="46.69315" lon="-1.93317">
        <ele>4</ele>
        <time>2018-03-21T00:18:34Z</time>
      </trkpt>
      <trkpt lat="46.69286" lon="-1.93313">
        <ele>4</ele>
        <time>2018-03-21T00:19:34Z</time>
      </trkpt>
      <trkpt lat="46.6924" lon="-1.93303">
        <ele>3</ele>
        <time>2018-03-21T00:20:34Z</time>
      </trkpt>
      <trkpt lat="46.69218" lon="-1.933">
        <ele>3</ele>
        <time>2018-03-21T00:21:34Z</time>
      </trkpt>
      <trkpt lat="46.69217" lon="-1.933">
        <ele>3</ele>
        <time>2018-03-21T00:22:34Z</time>
      </trkpt>
      <trkpt lat="46.69209" lon="-1.93298">
        <ele>3</ele>
        <time>2018-03-21T00:23:34Z</time>
      </trkpt>
      <trkpt lat="46.69203" lon="-1.93298">
        <ele>3</ele>
        <time>2018-03-21T00:24:34Z</time>
      </trkpt>
      <trkpt lat="46.69197" lon="-1.93299">
        <ele>3</ele>
        <time>2018-03-21T00:25:34Z</time>
      </trkpt>
      <trkpt lat="46.69182" lon="-1.93301">
        <ele>3</ele>
        <time>2018-03-21T00:26:34Z</time>
      </trkpt>
      <trkpt lat="46.69182" lon="-1.93301">
        <ele>3</ele>
        <time>2018-03-21T00:27:34Z</time>
      </trkpt>
      <trkpt lat="46.6918" lon="-1.93305">
        <ele>3</ele>
        <time>2018-03-21T00:28:34Z</time>
      </trkpt>
      <trkpt lat="46.69177" lon="-1.93307">
        <ele>3</ele>
        <time>2018-03-21T00:29:34Z</time>
      </trkpt>
      <trkpt lat="46.69173" lon="-1.93307">
        <ele>3</ele>
        <time>2018-03-21T00:30:34Z</time>
      </trkpt>
      <trkpt lat="46.69169" lon="-1.93306">
        <ele>3</ele>
        <time>2018-03-21T00:31:34Z</time>
      </trkpt>
      <trkpt lat="46.69167" lon="-1.93304">
        <ele>3</ele>
        <time>2018-03-21T00:32:34Z</time>
      </trkpt>
      <trkpt lat="46.69165" lon="-1.93301">
        <ele>3</ele>
        <time>2018-03-21T00:33:34Z</time>
      </trkpt>
      <trkpt lat="46.69164" lon="-1.93298">
        <ele>3</ele>
        <time>2018-03-21T00:34:34Z</time>
      </trkpt>
      <trkpt lat="46.69163" lon="-1.93296">
        <ele>3</ele>
        <time>2018-03-21T00:35:34Z</time>
      </trkpt>
      <trkpt lat="46.69163" lon="-1.93293">
        <ele>2</ele>
        <time>2018-03-21T00:36:34Z</time>
      </trkpt>
      <trkpt lat="46.69163" lon="-1.93289">
        <ele>2</ele>
        <time>2018-03-21T00:37:34Z</time>
      </trkpt>
      <trkpt lat="46.69165" lon="-1.93285">
        <ele>2</ele>
        <time>2018-03-21T00:38:34Z</time>
      </trkpt>
      <trkpt lat="46.69169" lon="-1.9328">
        <ele>2</ele>
        <time>2018-03-21T00:39:34Z</time>
      </trkpt>
      <trkpt lat="46.69166" lon="-1.93273">
        <ele>2</ele>
        <time>2018-03-21T00:40:34Z</time>
      </trkpt>
      <trkpt lat="46.69166" lon="-1.93263">
        <ele>2</ele>
        <time>2018-03-21T00:41:34Z</time>
      </trkpt>
      <trkpt lat="46.69167" lon="-1.93252">
        <ele>2</ele>
        <time>2018-03-21T00:42:34Z</time>
      </trkpt>
      <trkpt lat="46.69169" lon="-1.93244">
        <ele>2</ele>
        <time>2018-03-21T00:43:34Z</time>
      </trkpt>
      <trkpt lat="46.69177" lon="-1.93193">
        <ele>4</ele>
        <time>2018-03-21T00:44:34Z</time>
      </trkpt>
      <trkpt lat="46.69179" lon="-1.9318">
        <ele>4</ele>
        <time>2018-03-21T00:45:34Z</time>
      </trkpt>
      <trkpt lat="46.69182" lon="-1.93159">
        <ele>4</ele>
        <time>2018-03-21T00:46:34Z</time>
      </trkpt>
      <trkpt lat="46.69183" lon="-1.9315">
        <ele>4</ele>
        <time>2018-03-21T00:47:34Z</time>
      </trkpt>
      <trkpt lat="46.69186" lon="-1.93138">
        <ele>4</ele>
        <time>2018-03-21T00:48:34Z</time>
      </trkpt>
      <trkpt lat="46.69187" lon="-1.93134">
        <ele>4</ele>
        <time>2018-03-21T00:49:34Z</time>
      </trkpt>
      <trkpt lat="46.6919" lon="-1.93125">
        <ele>4</ele>
        <time>2018-03-21T00:50:34Z</time>
      </trkpt>
      <trkpt lat="46.69194" lon="-1.93117">
        <ele>4</ele>
        <time>2018-03-21T00:51:34Z</time>
      </trkpt>
      <trkpt lat="46.69201" lon="-1.93103">
        <ele>4</ele>
        <time>2018-03-21T00:52:34Z</time>
      </trkpt>
      <trkpt lat="46.6921" lon="-1.93085">
        <ele>5</ele>
        <time>2018-03-21T00:53:34Z</time>
      </trkpt>
      <trkpt lat="46.69219" lon="-1.93065">
        <ele>5</ele>
        <time>2018-03-21T00:54:34Z</time>
      </trkpt>
      <trkpt lat="46.69224" lon="-1.93053">
        <ele>5</ele>
        <time>2018-03-21T00:55:34Z</time>
      </trkpt>
      <trkpt lat="46.69224" lon="-1.93053">
        <ele>5</ele>
        <time>2018-03-21T00:56:34Z</time>
      </trkpt>
      <trkpt lat="46.69217" lon="-1.93046">
        <ele>5</ele>
        <time>2018-03-21T00:57:34Z</time>
      </trkpt>
      <trkpt lat="46.69194" lon="-1.93026">
        <ele>5</ele>
        <time>2018-03-21T00:58:34Z</time>
      </trkpt>
      <trkpt lat="46.69175" lon="-1.93009">
        <ele>4</ele>
        <time>2018-03-21T00:59:34Z</time>
      </trkpt>
      <trkpt lat="46.6917" lon="-1.93005">
        <ele>4</ele>
        <time>2018-03-21T01:00:34Z</time>
      </trkpt>
      <trkpt lat="46.69154" lon="-1.92991">
        <ele>4</ele>
        <time>2018-03-21T01:01:34Z</time>
      </trkpt>
      <trkpt lat="46.69133" lon="-1.92971">
        <ele>4</ele>
        <time>2018-03-21T01:02:34Z</time>
      </trkpt>
      <trkpt lat="46.69107" lon="-1.92948">
        <ele>4</ele>
        <time>2018-03-21T01:03:34Z</time>
      </trkpt>
      <trkpt lat="46.69095" lon="-1.92938">
        <ele>4</ele>
        <time>2018-03-21T01:04:34Z</time>
      </trkpt>
      <trkpt lat="46.69068" lon="-1.92907">
        <ele>4</ele>
        <time>2018-03-21T01:05:34Z</time>
      </trkpt>
      <trkpt lat="46.69055" lon="-1.9289">
        <ele>4</ele>
        <time>2018-03-21T01:06:34Z</time>
      </trkpt>
      <trkpt lat="46.69038" lon="-1.92867">
        <ele>4</ele>
        <time>2018-03-21T01:07:34Z</time>
      </trkpt>
      <trkpt lat="46.69014" lon="-1.92836">
        <ele>4</ele>
        <time>2018-03-21T01:08:34Z</time>
      </trkpt>
      <trkpt lat="46.68993" lon="-1.92806">
        <ele>4</ele>
        <time>2018-03-21T01:09:34Z</time>
      </trkpt>
      <trkpt lat="46.68992" lon="-1.92805">
        <ele>4</ele>
        <time>2018-03-21T01:10:34Z</time>
      </trkpt>
      <trkpt lat="46.68977" lon="-1.92784">
        <ele>4</ele>
        <time>2018-03-21T01:11:34Z</time>
      </trkpt>
      <trkpt lat="46.68969" lon="-1.92774">
        <ele>4</ele>
        <time>2018-03-21T01:12:34Z</time>
      </trkpt>
      <trkpt lat="46.68965" lon="-1.92769">
        <ele>4</ele>
        <time>2018-03-21T01:13:34Z</time>
      </trkpt>
      <trkpt lat="46.68955" lon="-1.92755">
        <ele>4</ele>
        <time>2018-03-21T01:14:34Z</time>
      </trkpt>
      <trkpt lat="46.68947" lon="-1.92747">
        <ele>4</ele>
        <time>2018-03-21T01:15:34Z</time>
      </trkpt>
      <trkpt lat="46.68936" lon="-1.92737">
        <ele>4</ele>
        <time>2018-03-21T01:16:34Z</time>
      </trkpt>
      <trkpt lat="46.68926" lon="-1.9273">
        <ele>4</ele>
        <time>2018-03-21T01:17:34Z</time>
      </trkpt>
      <trkpt lat="46.68913" lon="-1.92723">
        <ele>4</ele>
        <time>2018-03-21T01:18:34Z</time>
      </trkpt>
      <trkpt lat="46.68897" lon="-1.92716">
        <ele>4</ele>
        <time>2018-03-21T01:19:34Z</time>
      </trkpt>
      <trkpt lat="46.68881" lon="-1.92711">
        <ele>5</ele>
        <time>2018-03-21T01:20:34Z</time>
      </trkpt>
      <trkpt lat="46.68869" lon="-1.92706">
        <ele>5</ele>
        <time>2018-03-21T01:21:34Z</time>
      </trkpt>
      <trkpt lat="46.6886" lon="-1.92704">
        <ele>6</ele>
        <time>2018-03-21T01:22:34Z</time>
      </trkpt>
      <trkpt lat="46.68859" lon="-1.92704">
        <ele>6</ele>
        <time>2018-03-21T01:23:34Z</time>
      </trkpt>
      <trkpt lat="46.68851" lon="-1.92698">
        <ele>6</ele>
        <time>2018-03-21T01:24:34Z</time>
      </trkpt>
      <trkpt lat="46.68851" lon="-1.92698">
        <ele>6</ele>
        <time>2018-03-21T01:25:34Z</time>
      </trkpt>
      <trkpt lat="46.68851" lon="-1.92699">
        <ele>6</ele>
        <time>2018-03-21T01:26:34Z</time>
      </trkpt>
      <trkpt lat="46.6885" lon="-1.92699">
        <ele>6</ele>
        <time>2018-03-21T01:27:34Z</time>
      </trkpt>
      <trkpt lat="46.68849" lon="-1.927">
        <ele>6</ele>
        <time>2018-03-21T01:28:34Z</time>
      </trkpt>
      <trkpt lat="46.68848" lon="-1.927">
        <ele>6</ele>
        <time>2018-03-21T01:29:34Z</time>
      </trkpt>
      <trkpt lat="46.68848" lon="-1.92701">
        <ele>6</ele>
        <time>2018-03-21T01:30:34Z</time>
      </trkpt>
      <trkpt lat="46.68847" lon="-1.92701">
        <ele>6</ele>
        <time>2018-03-21T01:31:34Z</time>
      </trkpt>
      <trkpt lat="46.68846" lon="-1.92701">
        <ele>6</ele>
        <time>2018-03-21T01:32:34Z</time>
      </trkpt>
      <trkpt lat="46.68845" lon="-1.92701">
        <ele>6</ele>
        <time>2018-03-21T01:33:34Z</time>
      </trkpt>
      <trkpt lat="46.68844" lon="-1.92701">
        <ele>7</ele>
        <time>2018-03-21T01:34:34Z</time>
      </trkpt>
      <trkpt lat="46.68844" lon="-1.927">
        <ele>7</ele>
        <time>2018-03-21T01:35:34Z</time>
      </trkpt>
      <trkpt lat="46.68843" lon="-1.927">
        <ele>7</ele>
        <time>2018-03-21T01:36:34Z</time>
      </trkpt>
      <trkpt lat="46.68842" lon="-1.92699">
        <ele>7</ele>
        <time>2018-03-21T01:37:34Z</time>
      </trkpt>
      <trkpt lat="46.68837" lon="-1.927">
        <ele>7</ele>
        <time>2018-03-21T01:38:34Z</time>
      </trkpt>
      <trkpt lat="46.68833" lon="-1.92701">
        <ele>7</ele>
        <time>2018-03-21T01:39:34Z</time>
      </trkpt>
      <trkpt lat="46.68828" lon="-1.927">
        <ele>7</ele>
        <time>2018-03-21T01:40:34Z</time>
      </trkpt>
      <trkpt lat="46.68827" lon="-1.927">
        <ele>7</ele>
        <time>2018-03-21T01:41:34Z</time>
      </trkpt>
      <trkpt lat="46.68827" lon="-1.92701">
        <ele>7</ele>
        <time>2018-03-21T01:42:34Z</time>
      </trkpt>
      <trkpt lat="46.68826" lon="-1.92701">
        <ele>7</ele>
        <time>2018-03-21T01:43:34Z</time>
      </trkpt>
      <trkpt lat="46.68826" lon="-1.92702">
        <ele>7</ele>
        <time>2018-03-21T01:44:34Z</time>
      </trkpt>
      <trkpt lat="46.68825" lon="-1.92702">
        <ele>7</ele>
        <time>2018-03-21T01:45:34Z</time>
      </trkpt>
      <trkpt lat="46.68825" lon="-1.92703">
        <ele>7</ele>
        <time>2018-03-21T01:46:34Z</time>
      </trkpt>
      <trkpt lat="46.68824" lon="-1.92703">
        <ele>7</ele>
        <time>2018-03-21T01:47:34Z</time>
      </trkpt>
      <trkpt lat="46.68823" lon="-1.92703">
        <ele>7</ele>
        <time>2018-03-21T01:48:34Z</time>
      </trkpt>
      <trkpt lat="46.68822" lon="-1.92703">
        <ele>7</ele>
        <time>2018-03-21T01:49:34Z</time>
      </trkpt>
      <trkpt lat="46.68821" lon="-1.92703">
        <ele>7</ele>
        <time>2018-03-21T01:50:34Z</time>
      </trkpt>
      <trkpt lat="46.68821" lon="-1.92702">
        <ele>7</ele>
        <time>2018-03-21T01:51:34Z</time>
      </trkpt>
      <trkpt lat="46.6882" lon="-1.92702">
        <ele>7</ele>
        <time>2018-03-21T01:52:34Z</time>
      </trkpt>
      <trkpt lat="46.6882" lon="-1.92701">
        <ele>7</ele>
        <time>2018-03-21T01:53:34Z</time>
      </trkpt>
      <trkpt lat="46.68819" lon="-1.92701">
        <ele>7</ele>
        <time>2018-03-21T01:54:34Z</time>
      </trkpt>
      <trkpt lat="46.68819" lon="-1.927">
        <ele>7</ele>
        <time>2018-03-21T01:55:34Z</time>
      </trkpt>
      <trkpt lat="46.68818" lon="-1.927">
        <ele>7</ele>
        <time>2018-03-21T01:56:34Z</time>
      </trkpt>
      <trkpt lat="46.68818" lon="-1.92699">
        <ele>7</ele>
        <time>2018-03-21T01:57:34Z</time>
      </trkpt>
      <trkpt lat="46.68818" lon="-1.92698">
        <ele>7</ele>
        <time>2018-03-21T01:58:34Z</time>
      </trkpt>
      <trkpt lat="46.68817" lon="-1.92698">
        <ele>7</ele>
        <time>2018-03-21T01:59:34Z</time>
      </trkpt>
      <trkpt lat="46.68817" lon="-1.92697">
        <ele>7</ele>
        <time>2018-03-21T02:00:34Z</time>
      </trkpt>
      <trkpt lat="46.68817" lon="-1.92696">
        <ele>7</ele>
        <time>2018-03-21T02:01:34Z</time>
      </trkpt>
      <trkpt lat="46.68817" lon="-1.92695">
        <ele>7</ele>
        <time>2018-03-21T02:02:34Z</time>
      </trkpt>
      <trkpt lat="46.68817" lon="-1.92694">
        <ele>7</ele>
        <time>2018-03-21T02:03:34Z</time>
      </trkpt>
      <trkpt lat="46.68817" lon="-1.92693">
        <ele>7</ele>
        <time>2018-03-21T02:04:34Z</time>
      </trkpt>
      <trkpt lat="46.68817" lon="-1.92692">
        <ele>7</ele>
        <time>2018-03-21T02:05:34Z</time>
      </trkpt>
      <trkpt lat="46.68817" lon="-1.92691">
        <ele>7</ele>
        <time>2018-03-21T02:06:34Z</time>
      </trkpt>
      <trkpt lat="46.68817" lon="-1.9269">
        <ele>7</ele>
        <time>2018-03-21T02:07:34Z</time>
      </trkpt>
      <trkpt lat="46.68804" lon="-1.92685">
        <ele>7</ele>
        <time>2018-03-21T02:08:34Z</time>
      </trkpt>
      <trkpt lat="46.68787" lon="-1.9268">
        <ele>8</ele>
        <time>2018-03-21T02:09:34Z</time>
      </trkpt>
      <trkpt lat="46.68776" lon="-1.92676">
        <ele>8</ele>
        <time>2018-03-21T02:10:34Z</time>
      </trkpt>
      <trkpt lat="46.6876" lon="-1.92669">
        <ele>8</ele>
        <time>2018-03-21T02:11:34Z</time>
      </trkpt>
      <trkpt lat="46.68759" lon="-1.92668">
        <ele>8</ele>
        <time>2018-03-21T02:12:34Z</time>
      </trkpt>
      <trkpt lat="46.68733" lon="-1.92654">
        <ele>8</ele>
        <time>2018-03-21T02:13:34Z</time>
      </trkpt>
      <trkpt lat="46.68732" lon="-1.92654">
        <ele>8</ele>
        <time>2018-03-21T02:14:34Z</time>
      </trkpt>
      <trkpt lat="46.68707" lon="-1.92638">
        <ele>9</ele>
        <time>2018-03-21T02:15:34Z</time>
      </trkpt>
      <trkpt lat="46.68669" lon="-1.92615">
        <ele>10</ele>
        <time>2018-03-21T02:16:34Z</time>
      </trkpt>
      <trkpt lat="46.68651" lon="-1.92602">
        <ele>10</ele>
        <time>2018-03-21T02:17:34Z</time>
      </trkpt>
      <trkpt lat="46.68644" lon="-1.92596">
        <ele>10</ele>
        <time>2018-03-21T02:18:34Z</time>
      </trkpt>
      <trkpt lat="46.68635" lon="-1.92588">
        <ele>10</ele>
        <time>2018-03-21T02:19:34Z</time>
      </trkpt>
      <trkpt lat="46.68634" lon="-1.92586">
        <ele>10</ele>
        <time>2018-03-21T02:20:34Z</time>
      </trkpt>
      <trkpt lat="46.68629" lon="-1.9258">
        <ele>10</ele>
        <time>2018-03-21T02:21:34Z</time>
      </trkpt>
      <trkpt lat="46.68625" lon="-1.92575">
        <ele>10</ele>
        <time>2018-03-21T02:22:34Z</time>
      </trkpt>
      <trkpt lat="46.68616" lon="-1.92563">
        <ele>10</ele>
        <time>2018-03-21T02:23:34Z</time>
      </trkpt>
      <trkpt lat="46.68605" lon="-1.92548">
        <ele>10</ele>
        <time>2018-03-21T02:24:34Z</time>
      </trkpt>
      <trkpt lat="46.68594" lon="-1.92534">
        <ele>10</ele>
        <time>2018-03-21T02:25:34Z</time>
      </trkpt>
      <trkpt lat="46.68589" lon="-1.92528">
        <ele>10</ele>
        <time>2018-03-21T02:26:34Z</time>
      </trkpt>
      <trkpt lat="46.68567" lon="-1.925">
        <ele>10</ele>
        <time>2018-03-21T02:27:34Z</time>
      </trkpt>
      <trkpt lat="46.68549" lon="-1.92476">
        <ele>10</ele>
        <time>2018-03-21T02:28:34Z</time>
      </trkpt>
      <trkpt lat="46.68538" lon="-1.92464">
        <ele>10</ele>
        <time>2018-03-21T02:29:34Z</time>
      </trkpt>
      <trkpt lat="46.68532" lon="-1.92456">
        <ele>10</ele>
        <time>2018-03-21T02:30:34Z</time>
      </trkpt>
      <trkpt lat="46.68528" lon="-1.9245">
        <ele>10</ele>
        <time>2018-03-21T02:31:34Z</time>
      </trkpt>
      <trkpt lat="46.68514" lon="-1.92436">
        <ele>10</ele>
        <time>2018-03-21T02:32:34Z</time>
      </trkpt>
      <trkpt lat="46.68505" lon="-1.92428">
        <ele>10</ele>
        <time>2018-03-21T02:33:34Z</time>
      </trkpt>
      <trkpt lat="46.68495" lon="-1.9242">
        <ele>10</ele>
        <time>2018-03-21T02:34:34Z</time>
      </trkpt>
      <trkpt lat="46.68487" lon="-1.92415">
        <ele>10</ele>
        <time>2018-03-21T02:35:34Z</time>
      </trkpt>
      <trkpt lat="46.68481" lon="-1.92411">
        <ele>10</ele>
        <time>2018-03-21T02:36:34Z</time>
      </trkpt>
      <trkpt lat="46.68472" lon="-1.92408">
        <ele>10</ele>
        <time>2018-03-21T02:37:34Z</time>
      </trkpt>
      <trkpt lat="46.68463" lon="-1.92406">
        <ele>10</ele>
        <time>2018-03-21T02:38:34Z</time>
      </trkpt>
      <trkpt lat="46.68454" lon="-1.92404">
        <ele>10</ele>
        <time>2018-03-21T02:39:34Z</time>
      </trkpt>
      <trkpt lat="46.68447" lon="-1.92403">
        <ele>10</ele>
        <time>2018-03-21T02:40:34Z</time>
      </trkpt>
      <trkpt lat="46.68435" lon="-1.924">
        <ele>10</ele>
        <time>2018-03-21T02:41:34Z</time>
      </trkpt>
      <trkpt lat="46.68426" lon="-1.92396">
        <ele>10</ele>
        <time>2018-03-21T02:42:34Z</time>
      </trkpt>
      <trkpt lat="46.68413" lon="-1.92388">
        <ele>10</ele>
        <time>2018-03-21T02:43:34Z</time>
      </trkpt>
      <trkpt lat="46.68403" lon="-1.9238">
        <ele>10</ele>
        <time>2018-03-21T02:44:34Z</time>
      </trkpt>
      <trkpt lat="46.68389" lon="-1.92363">
        <ele>10</ele>
        <time>2018-03-21T02:45:34Z</time>
      </trkpt>
      <trkpt lat="46.6838" lon="-1.92351">
        <ele>10</ele>
        <time>2018-03-21T02:46:34Z</time>
      </trkpt>
      <trkpt lat="46.68377" lon="-1.92346">
        <ele>10</ele>
        <time>2018-03-21T02:47:34Z</time>
      </trkpt>
      <trkpt lat="46.6837" lon="-1.92334">
        <ele>10</ele>
        <time>2018-03-21T02:48:34Z</time>
      </trkpt>
      <trkpt lat="46.68355" lon="-1.92305">
        <ele>10</ele>
        <time>2018-03-21T02:49:34Z</time>
      </trkpt>
      <trkpt lat="46.6833" lon="-1.92261">
        <ele>9</ele>
        <time>2018-03-21T02:50:34Z</time>
      </trkpt>
      <trkpt lat="46.6832" lon="-1.92245">
        <ele>9</ele>
        <time>2018-03-21T02:51:34Z</time>
      </trkpt>
      <trkpt lat="46.68306" lon="-1.92219">
        <ele>9</ele>
        <time>2018-03-21T02:52:34Z</time>
      </trkpt>
      <trkpt lat="46.68291" lon="-1.92193">
        <ele>8</ele>
        <time>2018-03-21T02:53:34Z</time>
      </trkpt>
      <trkpt lat="46.68286" lon="-1.92186">
        <ele>8</ele>
        <time>2018-03-21T02:54:34Z</time>
      </trkpt>
      <trkpt lat="46.68277" lon="-1.92172">
        <ele>8</ele>
        <time>2018-03-21T02:55:34Z</time>
      </trkpt>
      <trkpt lat="46.68267" lon="-1.92157">
        <ele>7</ele>
        <time>2018-03-21T02:56:34Z</time>
      </trkpt>
      <trkpt lat="46.68255" lon="-1.9214">
        <ele>7</ele>
        <time>2018-03-21T02:57:34Z</time>
      </trkpt>
      <trkpt lat="46.6823" lon="-1.92107">
        <ele>7</ele>
        <time>2018-03-21T02:58:34Z</time>
      </trkpt>
      <trkpt lat="46.68227" lon="-1.92103">
        <ele>7</ele>
        <time>2018-03-21T02:59:34Z</time>
      </trkpt>
      <trkpt lat="46.68224" lon="-1.92098">
        <ele>7</ele>
        <time>2018-03-21T03:00:34Z</time>
      </trkpt>
      <trkpt lat="46.68224" lon="-1.92097">
        <ele>7</ele>
        <time>2018-03-21T03:01:34Z</time>
      </trkpt>
      <trkpt lat="46.6822" lon="-1.92091">
        <ele>7</ele>
        <time>2018-03-21T03:02:34Z</time>
      </trkpt>
      <trkpt lat="46.68208" lon="-1.92073">
        <ele>7</ele>
        <time>2018-03-21T03:03:34Z</time>
      </trkpt>
      <trkpt lat="46.68198" lon="-1.92057">
        <ele>7</ele>
        <time>2018-03-21T03:04:34Z</time>
      </trkpt>
      <trkpt lat="46.68174" lon="-1.92025">
        <ele>8</ele>
        <time>2018-03-21T03:05:34Z</time>
      </trkpt>
      <trkpt lat="46.68158" lon="-1.92003">
        <ele>8</ele>
        <time>2018-03-21T03:06:34Z</time>
      </trkpt>
      <trkpt lat="46.68115" lon="-1.91941">
        <ele>8</ele>
        <time>2018-03-21T03:07:34Z</time>
      </trkpt>
      <trkpt lat="46.68083" lon="-1.91897">
        <ele>8</ele>
        <time>2018-03-21T03:08:34Z</time>
      </trkpt>
      <trkpt lat="46.68057" lon="-1.91858">
        <ele>8</ele>
        <time>2018-03-21T03:09:34Z</time>
      </trkpt>
      <trkpt lat="46.68041" lon="-1.91836">
        <ele>8</ele>
        <time>2018-03-21T03:10:34Z</time>
      </trkpt>
      <trkpt lat="46.68033" lon="-1.91825">
        <ele>8</ele>
        <time>2018-03-21T03:11:34Z</time>
      </trkpt>
      <trkpt lat="46.68022" lon="-1.91808">
        <ele>8</ele>
        <time>2018-03-21T03:12:34Z</time>
      </trkpt>
      <trkpt lat="46.68" lon="-1.91776">
        <ele>8</ele>
        <time>2018-03-21T03:13:34Z</time>
      </trkpt>
      <trkpt lat="46.67972" lon="-1.91737">
        <ele>7</ele>
        <time>2018-03-21T03:14:34Z</time>
      </trkpt>
      <trkpt lat="46.67947" lon="-1.91703">
        <ele>7</ele>
        <time>2018-03-21T03:15:34Z</time>
      </trkpt>
      <trkpt lat="46.67928" lon="-1.91675">
        <ele>7</ele>
        <time>2018-03-21T03:16:34Z</time>
      </trkpt>
      <trkpt lat="46.67898" lon="-1.91633">
        <ele>7</ele>
        <time>2018-03-21T03:17:34Z</time>
      </trkpt>
      <trkpt lat="46.67883" lon="-1.91611">
        <ele>6</ele>
        <time>2018-03-21T03:18:34Z</time>
      </trkpt>
      <trkpt lat="46.67864" lon="-1.91583">
        <ele>6</ele>
        <time>2018-03-21T03:19:34Z</time>
      </trkpt>
      <trkpt lat="46.6784" lon="-1.91552">
        <ele>6</ele>
        <time>2018-03-21T03:20:34Z</time>
      </trkpt>
      <trkpt lat="46.67831" lon="-1.91538">
        <ele>6</ele>
        <time>2018-03-21T03:21:34Z</time>
      </trkpt>
      <trkpt lat="46.67783" lon="-1.91471">
        <ele>6</ele>
        <time>2018-03-21T03:22:34Z</time>
      </trkpt>
      <trkpt lat="46.67747" lon="-1.9142">
        <ele>6</ele>
        <time>2018-03-21T03:23:34Z</time>
      </trkpt>
      <trkpt lat="46.67743" lon="-1.91414">
        <ele>6</ele>
        <time>2018-03-21T03:24:34Z</time>
      </trkpt>
      <trkpt lat="46.67704" lon="-1.91358">
        <ele>5</ele>
        <time>2018-03-21T03:25:34Z</time>
      </trkpt>
      <trkpt lat="46.67662" lon="-1.91298">
        <ele>5</ele>
        <time>2018-03-21T03:26:34Z</time>
      </trkpt>
      <trkpt lat="46.67634" lon="-1.91261">
        <ele>5</ele>
        <time>2018-03-21T03:27:34Z</time>
      </trkpt>
      <trkpt lat="46.67612" lon="-1.91228">
        <ele>5</ele>
        <time>2018-03-21T03:28:34Z</time>
      </trkpt>
      <trkpt lat="46.67587" lon="-1.91194">
        <ele>6</ele>
        <time>2018-03-21T03:29:34Z</time>
      </trkpt>
      <trkpt lat="46.67578" lon="-1.91181">
        <ele>6</ele>
        <time>2018-03-21T03:30:34Z</time>
      </trkpt>
      <trkpt lat="46.67546" lon="-1.91137">
        <ele>5</ele>
        <time>2018-03-21T03:31:34Z</time>
      </trkpt>
      <trkpt lat="46.67518" lon="-1.91097">
        <ele>5</ele>
        <time>2018-03-21T03:32:34Z</time>
      </trkpt>
      <trkpt lat="46.6749" lon="-1.9106">
        <ele>5</ele>
        <time>2018-03-21T03:33:34Z</time>
      </trkpt>
      <trkpt lat="46.67469" lon="-1.9103">
        <ele>4</ele>
        <time>2018-03-21T03:34:34Z</time>
      </trkpt>
      <trkpt lat="46.67456" lon="-1.9101">
        <ele>4</ele>
        <time>2018-03-21T03:35:34Z</time>
      </trkpt>
      <trkpt lat="46.67452" lon="-1.91005">
        <ele>4</ele>
        <time>2018-03-21T03:36:34Z</time>
      </trkpt>
      <trkpt lat="46.67446" lon="-1.90996">
        <ele>4</ele>
        <time>2018-03-21T03:37:34Z</time>
      </trkpt>
      <trkpt lat="46.6744" lon="-1.90984">
        <ele>4</ele>
        <time>2018-03-21T03:38:34Z</time>
      </trkpt>
      <trkpt lat="46.67435" lon="-1.90971">
        <ele>3</ele>
        <time>2018-03-21T03:39:34Z</time>
      </trkpt>
      <trkpt lat="46.67435" lon="-1.90971">
        <ele>3</ele>
        <time>2018-03-21T03:40:34Z</time>
      </trkpt>
      <trkpt lat="46.67432" lon="-1.90969">
        <ele>3</ele>
        <time>2018-03-21T03:41:34Z</time>
      </trkpt>
      <trkpt lat="46.6743" lon="-1.90968">
        <ele>3</ele>
        <time>2018-03-21T03:42:34Z</time>
      </trkpt>
      <trkpt lat="46.67429" lon="-1.90967">
        <ele>3</ele>
        <time>2018-03-21T03:43:34Z</time>
      </trkpt>
      <trkpt lat="46.67427" lon="-1.90965">
        <ele>3</ele>
        <time>2018-03-21T03:44:34Z</time>
      </trkpt>
      <trkpt lat="46.67426" lon="-1.90964">
        <ele>3</ele>
        <time>2018-03-21T03:45:34Z</time>
      </trkpt>
      <trkpt lat="46.67424" lon="-1.90962">
        <ele>3</ele>
        <time>2018-03-21T03:46:34Z</time>
      </trkpt>
      <trkpt lat="46.67423" lon="-1.9096">
        <ele>3</ele>
        <time>2018-03-21T03:47:34Z</time>
      </trkpt>
      <trkpt lat="46.67422" lon="-1.90958">
        <ele>3</ele>
        <time>2018-03-21T03:48:34Z</time>
      </trkpt>
      <trkpt lat="46.67421" lon="-1.90956">
        <ele>3</ele>
        <time>2018-03-21T03:49:34Z</time>
      </trkpt>
      <trkpt lat="46.6742" lon="-1.90953">
        <ele>3</ele>
        <time>2018-03-21T03:50:34Z</time>
      </trkpt>
      <trkpt lat="46.6742" lon="-1.90951">
        <ele>3</ele>
        <time>2018-03-21T03:51:34Z</time>
      </trkpt>
      <trkpt lat="46.6742" lon="-1.9095">
        <ele>3</ele>
        <time>2018-03-21T03:52:34Z</time>
      </trkpt>
      <trkpt lat="46.67419" lon="-1.9095">
        <ele>3</ele>
        <time>2018-03-21T03:53:34Z</time>
      </trkpt>
      <trkpt lat="46.67419" lon="-1.90949">
        <ele>3</ele>
        <time>2018-03-21T03:54:34Z</time>
      </trkpt>
      <trkpt lat="46.67419" lon="-1.90948">
        <ele>3</ele>
        <time>2018-03-21T03:55:34Z</time>
      </trkpt>
      <trkpt lat="46.67419" lon="-1.90947">
        <ele>3</ele>
        <time>2018-03-21T03:56:34Z</time>
      </trkpt>
      <trkpt lat="46.67419" lon="-1.90946">
        <ele>3</ele>
        <time>2018-03-21T03:57:34Z</time>
      </trkpt>
      <trkpt lat="46.67414" lon="-1.90938">
        <ele>3</ele>
        <time>2018-03-21T03:58:34Z</time>
      </trkpt>
      <trkpt lat="46.67409" lon="-1.90932">
        <ele>3</ele>
        <time>2018-03-21T03:59:34Z</time>
      </trkpt>
      <trkpt lat="46.67407" lon="-1.90929">
        <ele>3</ele>
        <time>2018-03-21T04:00:34Z</time>
      </trkpt>
      <trkpt lat="46.67405" lon="-1.90925">
        <ele>3</ele>
        <time>2018-03-21T04:01:34Z</time>
      </trkpt>
      <trkpt lat="46.67398" lon="-1.90917">
        <ele>3</ele>
        <time>2018-03-21T04:02:34Z</time>
      </trkpt>
      <trkpt lat="46.67384" lon="-1.90901">
        <ele>3</ele>
        <time>2018-03-21T04:03:34Z</time>
      </trkpt>
      <trkpt lat="46.67344" lon="-1.90854">
        <ele>2</ele>
        <time>2018-03-21T04:04:34Z</time>
      </trkpt>
      <trkpt lat="46.67339" lon="-1.90844">
        <ele>2</ele>
        <time>2018-03-21T04:05:34Z</time>
      </trkpt>
      <trkpt lat="46.67336" lon="-1.9084">
        <ele>2</ele>
        <time>2018-03-21T04:06:34Z</time>
      </trkpt>
      <trkpt lat="46.67333" lon="-1.90837">
        <ele>2</ele>
        <time>2018-03-21T04:07:34Z</time>
      </trkpt>
      <trkpt lat="46.6733" lon="-1.90833">
        <ele>2</ele>
        <time>2018-03-21T04:08:34Z</time>
      </trkpt>
      <trkpt lat="46.67327" lon="-1.90829">
        <ele>2</ele>
        <time>2018-03-21T04:09:34Z</time>
      </trkpt>
      <trkpt lat="46.67323" lon="-1.90824">
        <ele>2</ele>
        <time>2018-03-21T04:10:34Z</time>
      </trkpt>
      <trkpt lat="46.6732" lon="-1.90819">
        <ele>2</ele>
        <time>2018-03-21T04:11:34Z</time>
      </trkpt>
      <trkpt lat="46.67313" lon="-1.9081">
        <ele>2</ele>
        <time>2018-03-21T04:12:34Z</time>
      </trkpt>
      <trkpt lat="46.67301" lon="-1.90794">
        <ele>2</ele>
        <time>2018-03-21T04:13:34Z</time>
      </trkpt>
      <trkpt lat="46.67282" lon="-1.90767">
        <ele>3</ele>
        <time>2018-03-21T04:14:34Z</time>
      </trkpt>
      <trkpt lat="46.67255" lon="-1.90729">
        <ele>3</ele>
        <time>2018-03-21T04:15:34Z</time>
      </trkpt>
      <trkpt lat="46.67226" lon="-1.90688">
        <ele>4</ele>
        <time>2018-03-21T04:16:34Z</time>
      </trkpt>
      <trkpt lat="46.67205" lon="-1.90658">
        <ele>4</ele>
        <time>2018-03-21T04:17:34Z</time>
      </trkpt>
      <trkpt lat="46.67166" lon="-1.90604">
        <ele>5</ele>
        <time>2018-03-21T04:18:34Z</time>
      </trkpt>
      <trkpt lat="46.67105" lon="-1.90518">
        <ele>5</ele>
        <time>2018-03-21T04:19:34Z</time>
      </trkpt>
      <trkpt lat="46.67097" lon="-1.90511">
        <ele>5</ele>
        <time>2018-03-21T04:20:34Z</time>
      </trkpt>
      <trkpt lat="46.67055" lon="-1.90456">
        <ele>5</ele>
        <time>2018-03-21T04:21:34Z</time>
      </trkpt>
      <trkpt lat="46.67046" lon="-1.90444">
        <ele>5</ele>
        <time>2018-03-21T04:22:34Z</time>
      </trkpt>
      <trkpt lat="46.67037" lon="-1.9043">
        <ele>5</ele>
        <time>2018-03-21T04:23:34Z</time>
      </trkpt>
      <trkpt lat="46.67034" lon="-1.90427">
        <ele>5</ele>
        <time>2018-03-21T04:24:34Z</time>
      </trkpt>
      <trkpt lat="46.67019" lon="-1.90408">
        <ele>5</ele>
        <time>2018-03-21T04:25:34Z</time>
      </trkpt>
      <trkpt lat="46.67018" lon="-1.90407">
        <ele>5</ele>
        <time>2018-03-21T04:26:34Z</time>
      </trkpt>
      <trkpt lat="46.67017" lon="-1.90406">
        <ele>5</ele>
        <time>2018-03-21T04:27:34Z</time>
      </trkpt>
      <trkpt lat="46.67016" lon="-1.90404">
        <ele>5</ele>
        <time>2018-03-21T04:28:34Z</time>
      </trkpt>
      <trkpt lat="46.67014" lon="-1.90402">
        <ele>5</ele>
        <time>2018-03-21T04:29:34Z</time>
      </trkpt>
      <trkpt lat="46.67012" lon="-1.90399">
        <ele>5</ele>
        <time>2018-03-21T04:30:34Z</time>
      </trkpt>
      <trkpt lat="46.66999" lon="-1.9038">
        <ele>5</ele>
        <time>2018-03-21T04:31:34Z</time>
      </trkpt>
      <trkpt lat="46.66997" lon="-1.90377">
        <ele>5</ele>
        <time>2018-03-21T04:32:34Z</time>
      </trkpt>
      <trkpt lat="46.66995" lon="-1.90374">
        <ele>5</ele>
        <time>2018-03-21T04:33:34Z</time>
      </trkpt>
      <trkpt lat="46.66993" lon="-1.90372">
        <ele>5</ele>
        <time>2018-03-21T04:34:34Z</time>
      </trkpt>
      <trkpt lat="46.66982" lon="-1.90356">
        <ele>5</ele>
        <time>2018-03-21T04:35:34Z</time>
      </trkpt>
      <trkpt lat="46.66982" lon="-1.90356">
        <ele>5</ele>
        <time>2018-03-21T04:36:34Z</time>
      </trkpt>
      <trkpt lat="46.66981" lon="-1.90356">
        <ele>5</ele>
        <time>2018-03-21T04:37:34Z</time>
      </trkpt>
      <trkpt lat="46.66979" lon="-1.90355">
        <ele>5</ele>
        <time>2018-03-21T04:38:34Z</time>
      </trkpt>
      <trkpt lat="46.66978" lon="-1.90355">
        <ele>5</ele>
        <time>2018-03-21T04:39:34Z</time>
      </trkpt>
      <trkpt lat="46.66977" lon="-1.90354">
        <ele>5</ele>
        <time>2018-03-21T04:40:34Z</time>
      </trkpt>
      <trkpt lat="46.66976" lon="-1.90353">
        <ele>5</ele>
        <time>2018-03-21T04:41:34Z</time>
      </trkpt>
      <trkpt lat="46.66975" lon="-1.90352">
        <ele>5</ele>
        <time>2018-03-21T04:42:34Z</time>
      </trkpt>
      <trkpt lat="46.66974" lon="-1.90351">
        <ele>5</ele>
        <time>2018-03-21T04:43:34Z</time>
      </trkpt>
      <trkpt lat="46.66973" lon="-1.9035">
        <ele>5</ele>
        <time>2018-03-21T04:44:34Z</time>
      </trkpt>
      <trkpt lat="46.66972" lon="-1.90349">
        <ele>5</ele>
        <time>2018-03-21T04:45:34Z</time>
      </trkpt>
      <trkpt lat="46.66971" lon="-1.90348">
        <ele>5</ele>
        <time>2018-03-21T04:46:34Z</time>
      </trkpt>
      <trkpt lat="46.6697" lon="-1.90346">
        <ele>5</ele>
        <time>2018-03-21T04:47:34Z</time>
      </trkpt>
      <trkpt lat="46.66969" lon="-1.90345">
        <ele>5</ele>
        <time>2018-03-21T04:48:34Z</time>
      </trkpt>
      <trkpt lat="46.66969" lon="-1.90343">
        <ele>5</ele>
        <time>2018-03-21T04:49:34Z</time>
      </trkpt>
      <trkpt lat="46.66968" lon="-1.90341">
        <ele>5</ele>
        <time>2018-03-21T04:50:34Z</time>
      </trkpt>
      <trkpt lat="46.66968" lon="-1.9034">
        <ele>5</ele>
        <time>2018-03-21T04:51:34Z</time>
      </trkpt>
      <trkpt lat="46.66967" lon="-1.90338">
        <ele>5</ele>
        <time>2018-03-21T04:52:34Z</time>
      </trkpt>
      <trkpt lat="46.66967" lon="-1.90335">
        <ele>5</ele>
        <time>2018-03-21T04:53:34Z</time>
      </trkpt>
      <trkpt lat="46.66963" lon="-1.90329">
        <ele>5</ele>
        <time>2018-03-21T04:54:34Z</time>
      </trkpt>
      <trkpt lat="46.66956" lon="-1.90318">
        <ele>5</ele>
        <time>2018-03-21T04:55:34Z</time>
      </trkpt>
      <trkpt lat="46.66936" lon="-1.90291">
        <ele>5</ele>
        <time>2018-03-21T04:56:34Z</time>
      </trkpt>
      <trkpt lat="46.66926" lon="-1.90283">
        <ele>5</ele>
        <time>2018-03-21T04:57:34Z</time>
      </trkpt>
      <trkpt lat="46.66922" lon="-1.90279">
        <ele>5</ele>
        <time>2018-03-21T04:58:34Z</time>
      </trkpt>
      <trkpt lat="46.66917" lon="-1.90275">
        <ele>5</ele>
        <time>2018-03-21T04:59:34Z</time>
      </trkpt>
      <trkpt lat="46.66913" lon="-1.90272">
        <ele>5</ele>
        <time>2018-03-21T05:00:34Z</time>
      </trkpt>
      <trkpt lat="46.66908" lon="-1.90269">
        <ele>5</ele>
        <time>2018-03-21T05:01:34Z</time>
      </trkpt>
      <trkpt lat="46.66902" lon="-1.90265">
        <ele>5</ele>
        <time>2018-03-21T05:02:34Z</time>
      </trkpt>
      <trkpt lat="46.66895" lon="-1.90261">
        <ele>5</ele>
        <time>2018-03-21T05:03:34Z</time>
      </trkpt>
      <trkpt lat="46.66891" lon="-1.90258">
        <ele>5</ele>
        <time>2018-03-21T05:04:34Z</time>
      </trkpt>
      <trkpt lat="46.66887" lon="-1.90256">
        <ele>5</ele>
        <time>2018-03-21T05:05:34Z</time>
      </trkpt>
      <trkpt lat="46.66883" lon="-1.90253">
        <ele>5</ele>
        <time>2018-03-21T05:06:34Z</time>
      </trkpt>
      <trkpt lat="46.66878" lon="-1.90251">
        <ele>5</ele>
        <time>2018-03-21T05:07:34Z</time>
      </trkpt>
      <trkpt lat="46.66874" lon="-1.90248">
        <ele>5</ele>
        <time>2018-03-21T05:08:34Z</time>
      </trkpt>
      <trkpt lat="46.66868" lon="-1.90245">
        <ele>5</ele>
        <time>2018-03-21T05:09:34Z</time>
      </trkpt>
      <trkpt lat="46.66863" lon="-1.90243">
        <ele>5</ele>
        <time>2018-03-21T05:10:34Z</time>
      </trkpt>
      <trkpt lat="46.66848" lon="-1.90237">
        <ele>5</ele>
        <time>2018-03-21T05:11:34Z</time>
      </trkpt>
      <trkpt lat="46.66842" lon="-1.90237">
        <ele>5</ele>
        <time>2018-03-21T05:12:34Z</time>
      </trkpt>
      <trkpt lat="46.66834" lon="-1.90235">
        <ele>5</ele>
        <time>2018-03-21T05:13:34Z</time>
      </trkpt>
      <trkpt lat="46.66812" lon="-1.9023">
        <ele>5</ele>
        <time>2018-03-21T05:14:34Z</time>
      </trkpt>
      <trkpt lat="46.66774" lon="-1.90221">
        <ele>5</ele>
        <time>2018-03-21T05:15:34Z</time>
      </trkpt>
      <trkpt lat="46.66754" lon="-1.90216">
        <ele>5</ele>
        <time>2018-03-21T05:16:34Z</time>
      </trkpt>
      <trkpt lat="46.66747" lon="-1.90214">
        <ele>5</ele>
        <time>2018-03-21T05:17:34Z</time>
      </trkpt>
      <trkpt lat="46.66649" lon="-1.9019">
        <ele>5</ele>
        <time>2018-03-21T05:18:34Z</time>
      </trkpt>
      <trkpt lat="46.66644" lon="-1.90186">
        <ele>5</ele>
        <time>2018-03-21T05:19:34Z</time>
      </trkpt>
      <trkpt lat="46.66598" lon="-1.90175">
        <ele>4</ele>
        <time>2018-03-21T05:20:34Z</time>
      </trkpt>
      <trkpt lat="46.66556" lon="-1.90164">
        <ele>3</ele>
        <time>2018-03-21T05:21:34Z</time>
      </trkpt>
      <trkpt lat="46.66457" lon="-1.90141">
        <ele>3</ele>
        <time>2018-03-21T05:22:34Z</time>
      </trkpt>
      <trkpt lat="46.66365" lon="-1.90118">
        <ele>1</ele>
        <time>2018-03-21T05:23:34Z</time>
      </trkpt>
      <trkpt lat="46.6636" lon="-1.90117">
        <ele>1</ele>
        <time>2018-03-21T05:24:34Z</time>
      </trkpt>
      <trkpt lat="46.66354" lon="-1.90116">
        <ele>1</ele>
        <time>2018-03-21T05:25:34Z</time>
      </trkpt>
      <trkpt lat="46.66342" lon="-1.90113">
        <ele>1</ele>
        <time>2018-03-21T05:26:34Z</time>
      </trkpt>
      <trkpt lat="46.66335" lon="-1.90111">
        <ele>1</ele>
        <time>2018-03-21T05:27:34Z</time>
      </trkpt>
      <trkpt lat="46.66328" lon="-1.90109">
        <ele>1</ele>
        <time>2018-03-21T05:28:34Z</time>
      </trkpt>
      <trkpt lat="46.66301" lon="-1.90103">
        <ele>1</ele>
        <time>2018-03-21T05:29:34Z</time>
      </trkpt>
      <trkpt lat="46.66278" lon="-1.90097">
        <ele>2</ele>
        <time>2018-03-21T05:30:34Z</time>
      </trkpt>
      <trkpt lat="46.66265" lon="-1.90094">
        <ele>2</ele>
        <time>2018-03-21T05:31:34Z</time>
      </trkpt>
      <trkpt lat="46.66258" lon="-1.90092">
        <ele>2</ele>
        <time>2018-03-21T05:32:34Z</time>
      </trkpt>
      <trkpt lat="46.66254" lon="-1.90091">
        <ele>2</ele>
        <time>2018-03-21T05:33:34Z</time>
      </trkpt>
      <trkpt lat="46.66251" lon="-1.90089">
        <ele>2</ele>
        <time>2018-03-21T05:34:34Z</time>
      </trkpt>
      <trkpt lat="46.66244" lon="-1.90087">
        <ele>2</ele>
        <time>2018-03-21T05:35:34Z</time>
      </trkpt>
      <trkpt lat="46.66237" lon="-1.90084">
        <ele>2</ele>
        <time>2018-03-21T05:36:34Z</time>
      </trkpt>
      <trkpt lat="46.66229" lon="-1.9008">
        <ele>3</ele>
        <time>2018-03-21T05:37:34Z</time>
      </trkpt>
      <trkpt lat="46.66223" lon="-1.90077">
        <ele>3</ele>
        <time>2018-03-21T05:38:34Z</time>
      </trkpt>
      <trkpt lat="46.66216" lon="-1.90073">
        <ele>3</ele>
        <time>2018-03-21T05:39:34Z</time>
      </trkpt>
      <trkpt lat="46.66205" lon="-1.90067">
        <ele>3</ele>
        <time>2018-03-21T05:40:34Z</time>
      </trkpt>
      <trkpt lat="46.66183" lon="-1.90053">
        <ele>4</ele>
        <time>2018-03-21T05:41:34Z</time>
      </trkpt>
      <trkpt lat="46.6615" lon="-1.90033">
        <ele>5</ele>
        <time>2018-03-21T05:42:34Z</time>
      </trkpt>
      <trkpt lat="46.66116" lon="-1.90011">
        <ele>6</ele>
        <time>2018-03-21T05:43:34Z</time>
      </trkpt>
      <trkpt lat="46.6609" lon="-1.89996">
        <ele>7</ele>
        <time>2018-03-21T05:44:34Z</time>
      </trkpt>
      <trkpt lat="46.66074" lon="-1.89986">
        <ele>7</ele>
        <time>2018-03-21T05:45:34Z</time>
      </trkpt>
      <trkpt lat="46.66028" lon="-1.89956">
        <ele>8</ele>
        <time>2018-03-21T05:46:34Z</time>
      </trkpt>
      <trkpt lat="46.65975" lon="-1.89922">
        <ele>7</ele>
        <time>2018-03-21T05:47:34Z</time>
      </trkpt>
      <trkpt lat="46.65958" lon="-1.89911">
        <ele>6</ele>
        <time>2018-03-21T05:48:34Z</time>
      </trkpt>
      <trkpt lat="46.65944" lon="-1.89901">
        <ele>7</ele>
        <time>2018-03-21T05:49:34Z</time>
      </trkpt>
      <trkpt lat="46.65878" lon="-1.8986">
        <ele>7</ele>
        <time>2018-03-21T05:50:34Z</time>
      </trkpt>
      <trkpt lat="46.65759" lon="-1.89784">
        <ele>8</ele>
        <time>2018-03-21T05:51:34Z</time>
      </trkpt>
      <trkpt lat="46.65631" lon="-1.89698">
        <ele>8</ele>
        <time>2018-03-21T05:52:34Z</time>
      </trkpt>
      <trkpt lat="46.65546" lon="-1.89643">
        <ele>7</ele>
        <time>2018-03-21T05:53:34Z</time>
      </trkpt>
      <trkpt lat="46.65541" lon="-1.89641">
        <ele>7</ele>
        <time>2018-03-21T05:54:34Z</time>
      </trkpt>
      <trkpt lat="46.65489" lon="-1.89605">
        <ele>7</ele>
        <time>2018-03-21T05:55:34Z</time>
      </trkpt>
      <trkpt lat="46.65461" lon="-1.89586">
        <ele>8</ele>
        <time>2018-03-21T05:56:34Z</time>
      </trkpt>
      <trkpt lat="46.65438" lon="-1.89566">
        <ele>7</ele>
        <time>2018-03-21T05:57:34Z</time>
      </trkpt>
      <trkpt lat="46.65434" lon="-1.89563">
        <ele>7</ele>
        <time>2018-03-21T05:58:34Z</time>
      </trkpt>
      <trkpt lat="46.65366" lon="-1.89503">
        <ele>6</ele>
        <time>2018-03-21T05:59:34Z</time>
      </trkpt>
      <trkpt lat="46.65299" lon="-1.8943">
        <ele>6</ele>
        <time>2018-03-21T06:00:34Z</time>
      </trkpt>
      <trkpt lat="46.65293" lon="-1.8942">
        <ele>6</ele>
        <time>2018-03-21T06:01:34Z</time>
      </trkpt>
      <trkpt lat="46.65265" lon="-1.89391">
        <ele>6</ele>
        <time>2018-03-21T06:02:34Z</time>
      </trkpt>
      <trkpt lat="46.6525" lon="-1.89376">
        <ele>6</ele>
        <time>2018-03-21T06:03:34Z</time>
      </trkpt>
      <trkpt lat="46.65231" lon="-1.89359">
        <ele>7</ele>
        <time>2018-03-21T06:04:34Z</time>
      </trkpt>
      <trkpt lat="46.65215" lon="-1.89348">
        <ele>8</ele>
        <time>2018-03-21T06:05:34Z</time>
      </trkpt>
      <trkpt lat="46.65193" lon="-1.89334">
        <ele>9</ele>
        <time>2018-03-21T06:06:34Z</time>
      </trkpt>
      <trkpt lat="46.65156" lon="-1.89313">
        <ele>11</ele>
        <time>2018-03-21T06:07:34Z</time>
      </trkpt>
      <trkpt lat="46.65124" lon="-1.89296">
        <ele>12</ele>
        <time>2018-03-21T06:08:34Z</time>
      </trkpt>
      <trkpt lat="46.65045" lon="-1.89253">
        <ele>13</ele>
        <time>2018-03-21T06:09:34Z</time>
      </trkpt>
      <trkpt lat="46.65005" lon="-1.89232">
        <ele>14</ele>
        <time>2018-03-21T06:10:34Z</time>
      </trkpt>
      <trkpt lat="46.6496" lon="-1.89207">
        <ele>15</ele>
        <time>2018-03-21T06:11:34Z</time>
      </trkpt>
      <trkpt lat="46.6489" lon="-1.89171">
        <ele>16</ele>
        <time>2018-03-21T06:12:34Z</time>
      </trkpt>
      <trkpt lat="46.6486" lon="-1.89155">
        <ele>17</ele>
        <time>2018-03-21T06:13:34Z</time>
      </trkpt>
      <trkpt lat="46.64822" lon="-1.89134">
        <ele>17</ele>
        <time>2018-03-21T06:14:34Z</time>
      </trkpt>
      <trkpt lat="46.64788" lon="-1.89116">
        <ele>18</ele>
        <time>2018-03-21T06:15:34Z</time>
      </trkpt>
      <trkpt lat="46.64754" lon="-1.89098">
        <ele>18</ele>
        <time>2018-03-21T06:16:34Z</time>
      </trkpt>
      <trkpt lat="46.64722" lon="-1.8908">
        <ele>18</ele>
        <time>2018-03-21T06:17:34Z</time>
      </trkpt>
      <trkpt lat="46.64692" lon="-1.89065">
        <ele>17</ele>
        <time>2018-03-21T06:18:34Z</time>
      </trkpt>
      <trkpt lat="46.64673" lon="-1.89055">
        <ele>17</ele>
        <time>2018-03-21T06:19:34Z</time>
      </trkpt>
      <trkpt lat="46.64665" lon="-1.89053">
        <ele>17</ele>
        <time>2018-03-21T06:20:34Z</time>
      </trkpt>
      <trkpt lat="46.64655" lon="-1.89047">
        <ele>17</ele>
        <time>2018-03-21T06:21:34Z</time>
      </trkpt>
      <trkpt lat="46.64646" lon="-1.89042">
        <ele>16</ele>
        <time>2018-03-21T06:22:34Z</time>
      </trkpt>
      <trkpt lat="46.64639" lon="-1.89039">
        <ele>16</ele>
        <time>2018-03-21T06:23:34Z</time>
      </trkpt>
      <trkpt lat="46.64632" lon="-1.89035">
        <ele>16</ele>
        <time>2018-03-21T06:24:34Z</time>
      </trkpt>
      <trkpt lat="46.64623" lon="-1.8903">
        <ele>16</ele>
        <time>2018-03-21T06:25:34Z</time>
      </trkpt>
      <trkpt lat="46.64619" lon="-1.89028">
        <ele>16</ele>
        <time>2018-03-21T06:26:34Z</time>
      </trkpt>
      <trkpt lat="46.64616" lon="-1.89026">
        <ele>16</ele>
        <time>2018-03-21T06:27:34Z</time>
      </trkpt>
      <trkpt lat="46.64614" lon="-1.89025">
        <ele>16</ele>
        <time>2018-03-21T06:28:34Z</time>
      </trkpt>
      <trkpt lat="46.64604" lon="-1.8902">
        <ele>16</ele>
        <time>2018-03-21T06:29:34Z</time>
      </trkpt>
      <trkpt lat="46.64604" lon="-1.8902">
        <ele>16</ele>
        <time>2018-03-21T06:30:34Z</time>
      </trkpt>
      <trkpt lat="46.64603" lon="-1.8902">
        <ele>16</ele>
        <time>2018-03-21T06:31:34Z</time>
      </trkpt>
      <trkpt lat="46.64603" lon="-1.89021">
        <ele>16</ele>
        <time>2018-03-21T06:32:34Z</time>
      </trkpt>
      <trkpt lat="46.64602" lon="-1.89021">
        <ele>16</ele>
        <time>2018-03-21T06:33:34Z</time>
      </trkpt>
      <trkpt lat="46.64601" lon="-1.89021">
        <ele>16</ele>
        <time>2018-03-21T06:34:34Z</time>
      </trkpt>
      <trkpt lat="46.646" lon="-1.89021">
        <ele>16</ele>
        <time>2018-03-21T06:35:34Z</time>
      </trkpt>
      <trkpt lat="46.64599" lon="-1.89021">
        <ele>16</ele>
        <time>2018-03-21T06:36:34Z</time>
      </trkpt>
      <trkpt lat="46.64598" lon="-1.89021">
        <ele>16</ele>
        <time>2018-03-21T06:37:34Z</time>
      </trkpt>
      <trkpt lat="46.64597" lon="-1.8902">
        <ele>16</ele>
        <time>2018-03-21T06:38:34Z</time>
      </trkpt>
      <trkpt lat="46.64596" lon="-1.8902">
        <ele>16</ele>
        <time>2018-03-21T06:39:34Z</time>
      </trkpt>
      <trkpt lat="46.64587" lon="-1.89023">
        <ele>16</ele>
        <time>2018-03-21T06:40:34Z</time>
      </trkpt>
      <trkpt lat="46.64578" lon="-1.89025">
        <ele>16</ele>
        <time>2018-03-21T06:41:34Z</time>
      </trkpt>
      <trkpt lat="46.64578" lon="-1.89025">
        <ele>16</ele>
        <time>2018-03-21T06:42:34Z</time>
      </trkpt>
      <trkpt lat="46.64572" lon="-1.89028">
        <ele>16</ele>
        <time>2018-03-21T06:43:34Z</time>
      </trkpt>
      <trkpt lat="46.64567" lon="-1.89029">
        <ele>16</ele>
        <time>2018-03-21T06:44:34Z</time>
      </trkpt>
      <trkpt lat="46.6455" lon="-1.8903">
        <ele>16</ele>
        <time>2018-03-21T06:45:34Z</time>
      </trkpt>
      <trkpt lat="46.64538" lon="-1.89032">
        <ele>16</ele>
        <time>2018-03-21T06:46:34Z</time>
      </trkpt>
      <trkpt lat="46.64531" lon="-1.89032">
        <ele>16</ele>
        <time>2018-03-21T06:47:34Z</time>
      </trkpt>
      <trkpt lat="46.64521" lon="-1.89032">
        <ele>16</ele>
        <time>2018-03-21T06:48:34Z</time>
      </trkpt>
      <trkpt lat="46.64508" lon="-1.8903">
        <ele>16</ele>
        <time>2018-03-21T06:49:34Z</time>
      </trkpt>
      <trkpt lat="46.64492" lon="-1.89026">
        <ele>16</ele>
        <time>2018-03-21T06:50:34Z</time>
      </trkpt>
      <trkpt lat="46.64478" lon="-1.89024">
        <ele>16</ele>
        <time>2018-03-21T06:51:34Z</time>
      </trkpt>
      <trkpt lat="46.64476" lon="-1.89024">
        <ele>16</ele>
        <time>2018-03-21T06:52:34Z</time>
      </trkpt>
      <trkpt lat="46.64463" lon="-1.89023">
        <ele>16</ele>
        <time>2018-03-21T06:53:34Z</time>
      </trkpt>
      <trkpt lat="46.64446" lon="-1.89023">
        <ele>16</ele>
        <time>2018-03-21T06:54:34Z</time>
      </trkpt>
      <trkpt lat="46.64431" lon="-1.89023">
        <ele>16</ele>
        <time>2018-03-21T06:55:34Z</time>
      </trkpt>
      <trkpt lat="46.6442" lon="-1.89024">
        <ele>16</ele>
        <time>2018-03-21T06:56:34Z</time>
      </trkpt>
      <trkpt lat="46.64411" lon="-1.89025">
        <ele>16</ele>
        <time>2018-03-21T06:57:34Z</time>
      </trkpt>
      <trkpt lat="46.64389" lon="-1.89028">
        <ele>16</ele>
        <time>2018-03-21T06:58:34Z</time>
      </trkpt>
      <trkpt lat="46.64363" lon="-1.89032">
        <ele>15</ele>
        <time>2018-03-21T06:59:34Z</time>
      </trkpt>
      <trkpt lat="46.64346" lon="-1.89036">
        <ele>15</ele>
        <time>2018-03-21T07:00:34Z</time>
      </trkpt>
      <trkpt lat="46.64322" lon="-1.89039">
        <ele>15</ele>
        <time>2018-03-21T07:01:34Z</time>
      </trkpt>
      <trkpt lat="46.64302" lon="-1.89042">
        <ele>15</ele>
        <time>2018-03-21T07:02:34Z</time>
      </trkpt>
      <trkpt lat="46.64288" lon="-1.89044">
        <ele>15</ele>
        <time>2018-03-21T07:03:34Z</time>
      </trkpt>
      <trkpt lat="46.64272" lon="-1.89045">
        <ele>15</ele>
        <time>2018-03-21T07:04:34Z</time>
      </trkpt>
      <trkpt lat="46.64266" lon="-1.89045">
        <ele>15</ele>
        <time>2018-03-21T07:05:34Z</time>
      </trkpt>
      <trkpt lat="46.64254" lon="-1.89044">
        <ele>15</ele>
        <time>2018-03-21T07:06:34Z</time>
      </trkpt>
      <trkpt lat="46.64241" lon="-1.89043">
        <ele>15</ele>
        <time>2018-03-21T07:07:34Z</time>
      </trkpt>
      <trkpt lat="46.64238" lon="-1.89043">
        <ele>15</ele>
        <time>2018-03-21T07:08:34Z</time>
      </trkpt>
      <trkpt lat="46.64233" lon="-1.89042">
        <ele>15</ele>
        <time>2018-03-21T07:09:34Z</time>
      </trkpt>
      <trkpt lat="46.64228" lon="-1.89041">
        <ele>15</ele>
        <time>2018-03-21T07:10:34Z</time>
      </trkpt>
      <trkpt lat="46.64223" lon="-1.89041">
        <ele>15</ele>
        <time>2018-03-21T07:11:34Z</time>
      </trkpt>
      <trkpt lat="46.6422" lon="-1.89043">
        <ele>14</ele>
        <time>2018-03-21T07:12:34Z</time>
      </trkpt>
      <trkpt lat="46.6422" lon="-1.89043">
        <ele>14</ele>
        <time>2018-03-21T07:13:34Z</time>
      </trkpt>
      <trkpt lat="46.64217" lon="-1.8905">
        <ele>14</ele>
        <time>2018-03-21T07:14:34Z</time>
      </trkpt>
      <trkpt lat="46.64214" lon="-1.89064">
        <ele>14</ele>
        <time>2018-03-21T07:15:34Z</time>
      </trkpt>
      <trkpt lat="46.6421" lon="-1.89074">
        <ele>14</ele>
        <time>2018-03-21T07:16:34Z</time>
      </trkpt>
      <trkpt lat="46.64204" lon="-1.89084">
        <ele>14</ele>
        <time>2018-03-21T07:17:34Z</time>
      </trkpt>
      <trkpt lat="46.64198" lon="-1.89091">
        <ele>14</ele>
        <time>2018-03-21T07:18:34Z</time>
      </trkpt>
      <trkpt lat="46.64193" lon="-1.89095">
        <ele>14</ele>
        <time>2018-03-21T07:19:34Z</time>
      </trkpt>
      <trkpt lat="46.64188" lon="-1.89101">
        <ele>14</ele>
        <time>2018-03-21T07:20:34Z</time>
      </trkpt>
      <trkpt lat="46.64187" lon="-1.89101">
        <ele>13</ele>
        <time>2018-03-21T07:21:34Z</time>
      </trkpt>
      <trkpt lat="46.64175" lon="-1.8911">
        <ele>13</ele>
        <time>2018-03-21T07:22:34Z</time>
      </trkpt>
      <trkpt lat="46.64161" lon="-1.89123">
        <ele>13</ele>
        <time>2018-03-21T07:23:34Z</time>
      </trkpt>
      <trkpt lat="46.64147" lon="-1.89136">
        <ele>13</ele>
        <time>2018-03-21T07:24:34Z</time>
      </trkpt>
      <trkpt lat="46.64135" lon="-1.89148">
        <ele>13</ele>
        <time>2018-03-21T07:25:34Z</time>
      </trkpt>
      <trkpt lat="46.64133" lon="-1.89149">
        <ele>13</ele>
        <time>2018-03-21T07:26:34Z</time>
      </trkpt>
      <trkpt lat="46.64126" lon="-1.8916">
        <ele>13</ele>
        <time>2018-03-21T07:27:34Z</time>
      </trkpt>
      <trkpt lat="46.64121" lon="-1.8917">
        <ele>12</ele>
        <time>2018-03-21T07:28:34Z</time>
      </trkpt>
      <trkpt lat="46.64107" lon="-1.892">
        <ele>12</ele>
        <time>2018-03-21T07:29:34Z</time>
      </trkpt>
      <trkpt lat="46.64078" lon="-1.89253">
        <ele>11</ele>
        <time>2018-03-21T07:30:34Z</time>
      </trkpt>
      <trkpt lat="46.64061" lon="-1.89283">
        <ele>11</ele>
        <time>2018-03-21T07:31:34Z</time>
      </trkpt>
      <trkpt lat="46.64056" lon="-1.89296">
        <ele>10</ele>
        <time>2018-03-21T07:32:34Z</time>
      </trkpt>
      <trkpt lat="46.64043" lon="-1.89336">
        <ele>10</ele>
        <time>2018-03-21T07:33:34Z</time>
      </trkpt>
      <trkpt lat="46.64032" lon="-1.89371">
        <ele>9</ele>
        <time>2018-03-21T07:34:34Z</time>
      </trkpt>
      <trkpt lat="46.64014" lon="-1.89408">
        <ele>8</ele>
        <time>2018-03-21T07:35:34Z</time>
      </trkpt>
      <trkpt lat="46.64001" lon="-1.89419">
        <ele>7</ele>
        <time>2018-03-21T07:36:34Z</time>
      </trkpt>
      <trkpt lat="46.63993" lon="-1.8942">
        <ele>7</ele>
        <time>2018-03-21T07:37:34Z</time>
      </trkpt>
      <trkpt lat="46.6398" lon="-1.89421">
        <ele>6</ele>
        <time>2018-03-21T07:38:34Z</time>
      </trkpt>
      <trkpt lat="46.63967" lon="-1.89421">
        <ele>6</ele>
        <time>2018-03-21T07:39:34Z</time>
      </trkpt>
      <trkpt lat="46.63967" lon="-1.89421">
        <ele>6</ele>
        <time>2018-03-21T07:40:34Z</time>
      </trkpt>
      <trkpt lat="46.6395" lon="-1.89424">
        <ele>6</ele>
        <time>2018-03-21T07:41:34Z</time>
      </trkpt>
      <trkpt lat="46.63935" lon="-1.89424">
        <ele>5</ele>
        <time>2018-03-21T07:42:34Z</time>
      </trkpt>
      <trkpt lat="46.63925" lon="-1.89422">
        <ele>5</ele>
        <time>2018-03-21T07:43:34Z</time>
      </trkpt>
      <trkpt lat="46.63919" lon="-1.89416">
        <ele>5</ele>
        <time>2018-03-21T07:44:34Z</time>
      </trkpt>
      <trkpt lat="46.63915" lon="-1.89412">
        <ele>5</ele>
        <time>2018-03-21T07:45:34Z</time>
      </trkpt>
      <trkpt lat="46.6391" lon="-1.89405">
        <ele>5</ele>
        <time>2018-03-21T07:46:34Z</time>
      </trkpt>
      <trkpt lat="46.63888" lon="-1.89374">
        <ele>6</ele>
        <time>2018-03-21T07:47:34Z</time>
      </trkpt>
      <trkpt lat="46.63884" lon="-1.89368">
        <ele>6</ele>
        <time>2018-03-21T07:48:34Z</time>
      </trkpt>
      <trkpt lat="46.63865" lon="-1.89341">
        <ele>7</ele>
        <time>2018-03-21T07:49:34Z</time>
      </trkpt>
      <trkpt lat="46.63852" lon="-1.89324">
        <ele>7</ele>
        <time>2018-03-21T07:50:34Z</time>
      </trkpt>
      <trkpt lat="46.63847" lon="-1.89315">
        <ele>7</ele>
        <time>2018-03-21T07:51:34Z</time>
      </trkpt>
      <trkpt lat="46.63831" lon="-1.89294">
        <ele>7</ele>
        <time>2018-03-21T07:52:34Z</time>
      </trkpt>
      <trkpt lat="46.63817" lon="-1.89276">
        <ele>7</ele>
        <time>2018-03-21T07:53:34Z</time>
      </trkpt>
      <trkpt lat="46.63807" lon="-1.89261">
        <ele>7</ele>
        <time>2018-03-21T07:54:34Z</time>
      </trkpt>
      <trkpt lat="46.63802" lon="-1.89252">
        <ele>8</ele>
        <time>2018-03-21T07:55:34Z</time>
      </trkpt>
      <trkpt lat="46.63789" lon="-1.89237">
        <ele>8</ele>
        <time>2018-03-21T07:56:34Z</time>
      </trkpt>
      <trkpt lat="46.6374" lon="-1.892">
        <ele>9</ele>
        <time>2018-03-21T07:57:34Z</time>
      </trkpt>
      <trkpt lat="46.63718" lon="-1.89185">
        <ele>8</ele>
        <time>2018-03-21T07:58:34Z</time>
      </trkpt>
      <trkpt lat="46.63712" lon="-1.89179">
        <ele>9</ele>
        <time>2018-03-21T07:59:34Z</time>
      </trkpt>
      <trkpt lat="46.63686" lon="-1.89162">
        <ele>9</ele>
        <time>2018-03-21T08:00:34Z</time>
      </trkpt>
      <trkpt lat="46.63657" lon="-1.89143">
        <ele>9</ele>
        <time>2018-03-21T08:01:34Z</time>
      </trkpt>
      <trkpt lat="46.63632" lon="-1.89124">
        <ele>8</ele>
        <time>2018-03-21T08:02:34Z</time>
      </trkpt>
      <trkpt lat="46.6363" lon="-1.89123">
        <ele>8</ele>
        <time>2018-03-21T08:03:34Z</time>
      </trkpt>
      <trkpt lat="46.63629" lon="-1.89121">
        <ele>8</ele>
        <time>2018-03-21T08:04:34Z</time>
      </trkpt>
      <trkpt lat="46.63619" lon="-1.89114">
        <ele>8</ele>
        <time>2018-03-21T08:05:34Z</time>
      </trkpt>
      <trkpt lat="46.63543" lon="-1.89061">
        <ele>6</ele>
        <time>2018-03-21T08:06:34Z</time>
      </trkpt>
      <trkpt lat="46.63536" lon="-1.89053">
        <ele>6</ele>
        <time>2018-03-21T08:07:34Z</time>
      </trkpt>
      <trkpt lat="46.63534" lon="-1.89049">
        <ele>6</ele>
        <time>2018-03-21T08:08:34Z</time>
      </trkpt>
      <trkpt lat="46.6353" lon="-1.89043">
        <ele>6</ele>
        <time>2018-03-21T08:09:34Z</time>
      </trkpt>
      <trkpt lat="46.63524" lon="-1.89032">
        <ele>6</ele>
        <time>2018-03-21T08:10:34Z</time>
      </trkpt>
      <trkpt lat="46.6352" lon="-1.89022">
        <ele>6</ele>
        <time>2018-03-21T08:11:34Z</time>
      </trkpt>
      <trkpt lat="46.63518" lon="-1.89017">
        <ele>6</ele>
        <time>2018-03-21T08:12:34Z</time>
      </trkpt>
      <trkpt lat="46.63504" lon="-1.88984">
        <ele>7</ele>
        <time>2018-03-21T08:13:34Z</time>
      </trkpt>
      <trkpt lat="46.63494" lon="-1.88958">
        <ele>8</ele>
        <time>2018-03-21T08:14:34Z</time>
      </trkpt>
      <trkpt lat="46.63479" lon="-1.88922">
        <ele>8</ele>
        <time>2018-03-21T08:15:34Z</time>
      </trkpt>
      <trkpt lat="46.63465" lon="-1.88888">
        <ele>8</ele>
        <time>2018-03-21T08:16:34Z</time>
      </trkpt>
      <trkpt lat="46.63453" lon="-1.88859">
        <ele>8</ele>
        <time>2018-03-21T08:17:34Z</time>
      </trkpt>
      <trkpt lat="46.63442" lon="-1.88833">
        <ele>8</ele>
        <time>2018-03-21T08:18:34Z</time>
      </trkpt>
      <trkpt lat="46.63433" lon="-1.88811">
        <ele>7</ele>
        <time>2018-03-21T08:19:34Z</time>
      </trkpt>
      <trkpt lat="46.63423" lon="-1.88789">
        <ele>7</ele>
        <time>2018-03-21T08:20:34Z</time>
      </trkpt>
      <trkpt lat="46.6342" lon="-1.88781">
        <ele>7</ele>
        <time>2018-03-21T08:21:34Z</time>
      </trkpt>
      <trkpt lat="46.63413" lon="-1.88765">
        <ele>7</ele>
        <time>2018-03-21T08:22:34Z</time>
      </trkpt>
      <trkpt lat="46.63406" lon="-1.88754">
        <ele>7</ele>
        <time>2018-03-21T08:23:34Z</time>
      </trkpt>
      <trkpt lat="46.63396" lon="-1.88741">
        <ele>7</ele>
        <time>2018-03-21T08:24:34Z</time>
      </trkpt>
      <trkpt lat="46.63385" lon="-1.8873">
        <ele>7</ele>
        <time>2018-03-21T08:25:34Z</time>
      </trkpt>
      <trkpt lat="46.63368" lon="-1.88714">
        <ele>7</ele>
        <time>2018-03-21T08:26:34Z</time>
      </trkpt>
      <trkpt lat="46.63344" lon="-1.88693">
        <ele>7</ele>
        <time>2018-03-21T08:27:34Z</time>
      </trkpt>
      <trkpt lat="46.63322" lon="-1.8867">
        <ele>7</ele>
        <time>2018-03-21T08:28:34Z</time>
      </trkpt>
      <trkpt lat="46.63312" lon="-1.88658">
        <ele>6</ele>
        <time>2018-03-21T08:29:34Z</time>
      </trkpt>
      <trkpt lat="46.63303" lon="-1.88642">
        <ele>6</ele>
        <time>2018-03-21T08:30:34Z</time>
      </trkpt>
      <trkpt lat="46.63292" lon="-1.88623">
        <ele>6</ele>
        <time>2018-03-21T08:31:34Z</time>
      </trkpt>
      <trkpt lat="46.63289" lon="-1.88618">
        <ele>6</ele>
        <time>2018-03-21T08:32:34Z</time>
      </trkpt>
      <trkpt lat="46.6328" lon="-1.88599">
        <ele>6</ele>
        <time>2018-03-21T08:33:34Z</time>
      </trkpt>
      <trkpt lat="46.63273" lon="-1.88585">
        <ele>6</ele>
        <time>2018-03-21T08:34:34Z</time>
      </trkpt>
      <trkpt lat="46.63268" lon="-1.88575">
        <ele>6</ele>
        <time>2018-03-21T08:35:34Z</time>
      </trkpt>
      <trkpt lat="46.63263" lon="-1.88567">
        <ele>6</ele>
        <time>2018-03-21T08:36:34Z</time>
      </trkpt>
      <trkpt lat="46.63252" lon="-1.88548">
        <ele>6</ele>
        <time>2018-03-21T08:37:34Z</time>
      </trkpt>
      <trkpt lat="46.63234" lon="-1.88515">
        <ele>6</ele>
        <time>2018-03-21T08:38:34Z</time>
      </trkpt>
      <trkpt lat="46.6322" lon="-1.88488">
        <ele>6</ele>
        <time>2018-03-21T08:39:34Z</time>
      </trkpt>
      <trkpt lat="46.63208" lon="-1.88464">
        <ele>6</ele>
        <time>2018-03-21T08:40:34Z</time>
      </trkpt>
      <trkpt lat="46.632" lon="-1.88448">
        <ele>6</ele>
        <time>2018-03-21T08:41:34Z</time>
      </trkpt>
      <trkpt lat="46.63195" lon="-1.88434">
        <ele>6</ele>
        <time>2018-03-21T08:42:34Z</time>
      </trkpt>
      <trkpt lat="46.6319" lon="-1.88402">
        <ele>6</ele>
        <time>2018-03-21T08:43:34Z</time>
      </trkpt>
      <trkpt lat="46.63183" lon="-1.88351">
        <ele>6</ele>
        <time>2018-03-21T08:44:34Z</time>
      </trkpt>
      <trkpt lat="46.63176" lon="-1.88306">
        <ele>6</ele>
        <time>2018-03-21T08:45:34Z</time>
      </trkpt>
      <trkpt lat="46.63173" lon="-1.88287">
        <ele>6</ele>
        <time>2018-03-21T08:46:34Z</time>
      </trkpt>
      <trkpt lat="46.63168" lon="-1.88249">
        <ele>7</ele>
        <time>2018-03-21T08:47:34Z</time>
      </trkpt>
      <trkpt lat="46.63164" lon="-1.8822">
        <ele>8</ele>
        <time>2018-03-21T08:48:34Z</time>
      </trkpt>
      <trkpt lat="46.63161" lon="-1.88202">
        <ele>8</ele>
        <time>2018-03-21T08:49:34Z</time>
      </trkpt>
      <trkpt lat="46.63157" lon="-1.8817">
        <ele>9</ele>
        <time>2018-03-21T08:50:34Z</time>
      </trkpt>
      <trkpt lat="46.63154" lon="-1.88152">
        <ele>9</ele>
        <time>2018-03-21T08:51:34Z</time>
      </trkpt>
      <trkpt lat="46.63151" lon="-1.88138">
        <ele>9</ele>
        <time>2018-03-21T08:52:34Z</time>
      </trkpt>
      <trkpt lat="46.63146" lon="-1.88123">
        <ele>9</ele>
        <time>2018-03-21T08:53:34Z</time>
      </trkpt>
      <trkpt lat="46.63146" lon="-1.88123">
        <ele>9</ele>
        <time>2018-03-21T08:54:34Z</time>
      </trkpt>
      <trkpt lat="46.63139" lon="-1.8811">
        <ele>9</ele>
        <time>2018-03-21T08:55:34Z</time>
      </trkpt>
      <trkpt lat="46.63126" lon="-1.88085">
        <ele>9</ele>
        <time>2018-03-21T08:56:34Z</time>
      </trkpt>
      <trkpt lat="46.63118" lon="-1.88071">
        <ele>9</ele>
        <time>2018-03-21T08:57:34Z</time>
      </trkpt>
      <trkpt lat="46.63104" lon="-1.88049">
        <ele>10</ele>
        <time>2018-03-21T08:58:34Z</time>
      </trkpt>
      <trkpt lat="46.63085" lon="-1.88018">
        <ele>12</ele>
        <time>2018-03-21T08:59:34Z</time>
      </trkpt>
      <trkpt lat="46.63075" lon="-1.88003">
        <ele>12</ele>
        <time>2018-03-21T09:00:34Z</time>
      </trkpt>
      <trkpt lat="46.63066" lon="-1.87991">
        <ele>11</ele>
        <time>2018-03-21T09:01:34Z</time>
      </trkpt>
      <trkpt lat="46.63059" lon="-1.8798">
        <ele>11</ele>
        <time>2018-03-21T09:02:34Z</time>
      </trkpt>
      <trkpt lat="46.6305" lon="-1.87961">
        <ele>10</ele>
        <time>2018-03-21T09:03:34Z</time>
      </trkpt>
      <trkpt lat="46.63043" lon="-1.87942">
        <ele>10</ele>
        <time>2018-03-21T09:04:34Z</time>
      </trkpt>
      <trkpt lat="46.63032" lon="-1.87907">
        <ele>10</ele>
        <time>2018-03-21T09:05:34Z</time>
      </trkpt>
      <trkpt lat="46.63022" lon="-1.87871">
        <ele>10</ele>
        <time>2018-03-21T09:06:34Z</time>
      </trkpt>
      <trkpt lat="46.63022" lon="-1.87869">
        <ele>10</ele>
        <time>2018-03-21T09:07:34Z</time>
      </trkpt>
      <trkpt lat="46.63013" lon="-1.87838">
        <ele>10</ele>
        <time>2018-03-21T09:08:34Z</time>
      </trkpt>
      <trkpt lat="46.63001" lon="-1.87801">
        <ele>10</ele>
        <time>2018-03-21T09:09:34Z</time>
      </trkpt>
      <trkpt lat="46.62994" lon="-1.87775">
        <ele>10</ele>
        <time>2018-03-21T09:10:34Z</time>
      </trkpt>
      <trkpt lat="46.62989" lon="-1.87763">
        <ele>10</ele>
        <time>2018-03-21T09:11:34Z</time>
      </trkpt>
      <trkpt lat="46.62988" lon="-1.87761">
        <ele>10</ele>
        <time>2018-03-21T09:12:34Z</time>
      </trkpt>
      <trkpt lat="46.62984" lon="-1.87753">
        <ele>9</ele>
        <time>2018-03-21T09:13:34Z</time>
      </trkpt>
      <trkpt lat="46.62975" lon="-1.87736">
        <ele>9</ele>
        <time>2018-03-21T09:14:34Z</time>
      </trkpt>
      <trkpt lat="46.62969" lon="-1.87725">
        <ele>9</ele>
        <time>2018-03-21T09:15:34Z</time>
      </trkpt>
      <trkpt lat="46.62955" lon="-1.87701">
        <ele>9</ele>
        <time>2018-03-21T09:16:34Z</time>
      </trkpt>
      <trkpt lat="46.62903" lon="-1.87611">
        <ele>8</ele>
        <time>2018-03-21T09:17:34Z</time>
      </trkpt>
      <trkpt lat="46.62898" lon="-1.87599">
        <ele>8</ele>
        <time>2018-03-21T09:18:34Z</time>
      </trkpt>
      <trkpt lat="46.62897" lon="-1.87596">
        <ele>8</ele>
        <time>2018-03-21T09:19:34Z</time>
      </trkpt>
      <trkpt lat="46.62886" lon="-1.87578">
        <ele>8</ele>
        <time>2018-03-21T09:20:34Z</time>
      </trkpt>
      <trkpt lat="46.62875" lon="-1.87559">
        <ele>8</ele>
        <time>2018-03-21T09:21:34Z</time>
      </trkpt>
      <trkpt lat="46.62872" lon="-1.87553">
        <ele>8</ele>
        <time>2018-03-21T09:22:34Z</time>
      </trkpt>
      <trkpt lat="46.62856" lon="-1.87526">
        <ele>8</ele>
        <time>2018-03-21T09:23:34Z</time>
      </trkpt>
      <trkpt lat="46.62846" lon="-1.87513">
        <ele>9</ele>
        <time>2018-03-21T09:24:34Z</time>
      </trkpt>
      <trkpt lat="46.62837" lon="-1.87501">
        <ele>9</ele>
        <time>2018-03-21T09:25:34Z</time>
      </trkpt>
      <trkpt lat="46.62821" lon="-1.87488">
        <ele>9</ele>
        <time>2018-03-21T09:26:34Z</time>
      </trkpt>
      <trkpt lat="46.62802" lon="-1.87477">
        <ele>9</ele>
        <time>2018-03-21T09:27:34Z</time>
      </trkpt>
      <trkpt lat="46.62783" lon="-1.87467">
        <ele>9</ele>
        <time>2018-03-21T09:28:34Z</time>
      </trkpt>
      <trkpt lat="46.62763" lon="-1.87455">
        <ele>9</ele>
        <time>2018-03-21T09:29:34Z</time>
      </trkpt>
      <trkpt lat="46.62744" lon="-1.87442">
        <ele>9</ele>
        <time>2018-03-21T09:30:34Z</time>
      </trkpt>
      <trkpt lat="46.62725" lon="-1.87429">
        <ele>8</ele>
        <time>2018-03-21T09:31:34Z</time>
      </trkpt>
      <trkpt lat="46.62713" lon="-1.87419">
        <ele>8</ele>
        <time>2018-03-21T09:32:34Z</time>
      </trkpt>
      <trkpt lat="46.62711" lon="-1.87416">
        <ele>8</ele>
        <time>2018-03-21T09:33:34Z</time>
      </trkpt>
      <trkpt lat="46.62691" lon="-1.87387">
        <ele>7</ele>
        <time>2018-03-21T09:34:34Z</time>
      </trkpt>
      <trkpt lat="46.62679" lon="-1.87374">
        <ele>7</ele>
        <time>2018-03-21T09:35:34Z</time>
      </trkpt>
      <trkpt lat="46.62668" lon="-1.87368">
        <ele>6</ele>
        <time>2018-03-21T09:36:34Z</time>
      </trkpt>
      <trkpt lat="46.62665" lon="-1.87367">
        <ele>6</ele>
        <time>2018-03-21T09:37:34Z</time>
      </trkpt>
      <trkpt lat="46.62658" lon="-1.87364">
        <ele>6</ele>
        <time>2018-03-21T09:38:34Z</time>
      </trkpt>
      <trkpt lat="46.62646" lon="-1.87362">
        <ele>7</ele>
        <time>2018-03-21T09:39:34Z</time>
      </trkpt>
      <trkpt lat="46.62635" lon="-1.87358">
        <ele>7</ele>
        <time>2018-03-21T09:40:34Z</time>
      </trkpt>
      <trkpt lat="46.62626" lon="-1.87354">
        <ele>7</ele>
        <time>2018-03-21T09:41:34Z</time>
      </trkpt>
      <trkpt lat="46.62626" lon="-1.87354">
        <ele>7</ele>
        <time>2018-03-21T09:42:34Z</time>
      </trkpt>
      <trkpt lat="46.62626" lon="-1.87355">
        <ele>7</ele>
        <time>2018-03-21T09:43:34Z</time>
      </trkpt>
      <trkpt lat="46.62625" lon="-1.87355">
        <ele>7</ele>
        <time>2018-03-21T09:44:34Z</time>
      </trkpt>
      <trkpt lat="46.62625" lon="-1.87356">
        <ele>7</ele>
        <time>2018-03-21T09:45:34Z</time>
      </trkpt>
      <trkpt lat="46.62624" lon="-1.87356">
        <ele>7</ele>
        <time>2018-03-21T09:46:34Z</time>
      </trkpt>
      <trkpt lat="46.62624" lon="-1.87357">
        <ele>7</ele>
        <time>2018-03-21T09:47:34Z</time>
      </trkpt>
      <trkpt lat="46.62623" lon="-1.87357">
        <ele>7</ele>
        <time>2018-03-21T09:48:34Z</time>
      </trkpt>
      <trkpt lat="46.62622" lon="-1.87357">
        <ele>7</ele>
        <time>2018-03-21T09:49:34Z</time>
      </trkpt>
      <trkpt lat="46.62621" lon="-1.87357">
        <ele>7</ele>
        <time>2018-03-21T09:50:34Z</time>
      </trkpt>
      <trkpt lat="46.6262" lon="-1.87357">
        <ele>7</ele>
        <time>2018-03-21T09:51:34Z</time>
      </trkpt>
      <trkpt lat="46.6262" lon="-1.87356">
        <ele>7</ele>
        <time>2018-03-21T09:52:34Z</time>
      </trkpt>
      <trkpt lat="46.62619" lon="-1.87356">
        <ele>7</ele>
        <time>2018-03-21T09:53:34Z</time>
      </trkpt>
      <trkpt lat="46.62619" lon="-1.87355">
        <ele>7</ele>
        <time>2018-03-21T09:54:34Z</time>
      </trkpt>
      <trkpt lat="46.62618" lon="-1.87355">
        <ele>7</ele>
        <time>2018-03-21T09:55:34Z</time>
      </trkpt>
      <trkpt lat="46.62618" lon="-1.87354">
        <ele>7</ele>
        <time>2018-03-21T09:56:34Z</time>
      </trkpt>
      <trkpt lat="46.62618" lon="-1.87353">
        <ele>7</ele>
        <time>2018-03-21T09:57:34Z</time>
      </trkpt>
      <trkpt lat="46.62606" lon="-1.87359">
        <ele>7</ele>
        <time>2018-03-21T09:58:34Z</time>
      </trkpt>
      <trkpt lat="46.62599" lon="-1.87362">
        <ele>7</ele>
        <time>2018-03-21T09:59:34Z</time>
      </trkpt>
      <trkpt lat="46.62586" lon="-1.87364">
        <ele>8</ele>
        <time>2018-03-21T10:00:34Z</time>
      </trkpt>
      <trkpt lat="46.62579" lon="-1.87365">
        <ele>8</ele>
        <time>2018-03-21T10:01:34Z</time>
      </trkpt>
      <trkpt lat="46.62579" lon="-1.87365">
        <ele>8</ele>
        <time>2018-03-21T10:02:34Z</time>
      </trkpt>
      <trkpt lat="46.62568" lon="-1.87368">
        <ele>7</ele>
        <time>2018-03-21T10:03:34Z</time>
      </trkpt>
      <trkpt lat="46.62552" lon="-1.87366">
        <ele>7</ele>
        <time>2018-03-21T10:04:34Z</time>
      </trkpt>
      <trkpt lat="46.62533" lon="-1.87363">
        <ele>7</ele>
        <time>2018-03-21T10:05:34Z</time>
      </trkpt>
      <trkpt lat="46.62515" lon="-1.87359">
        <ele>7</ele>
        <time>2018-03-21T10:06:34Z</time>
      </trkpt>
      <trkpt lat="46.62506" lon="-1.87357">
        <ele>7</ele>
        <time>2018-03-21T10:07:34Z</time>
      </trkpt>
      <trkpt lat="46.62483" lon="-1.87359">
        <ele>7</ele>
        <time>2018-03-21T10:08:34Z</time>
      </trkpt>
      <trkpt lat="46.6247" lon="-1.87361">
        <ele>7</ele>
        <time>2018-03-21T10:09:34Z</time>
      </trkpt>
      <trkpt lat="46.6246" lon="-1.87361">
        <ele>7</ele>
        <time>2018-03-21T10:10:34Z</time>
      </trkpt>
      <trkpt lat="46.62451" lon="-1.87362">
        <ele>7</ele>
        <time>2018-03-21T10:11:34Z</time>
      </trkpt>
      <trkpt lat="46.62443" lon="-1.87362">
        <ele>7</ele>
        <time>2018-03-21T10:12:34Z</time>
      </trkpt>
      <trkpt lat="46.62428" lon="-1.87358">
        <ele>7</ele>
        <time>2018-03-21T10:13:34Z</time>
      </trkpt>
      <trkpt lat="46.62422" lon="-1.87356">
        <ele>7</ele>
        <time>2018-03-21T10:14:34Z</time>
      </trkpt>
      <trkpt lat="46.62416" lon="-1.87355">
        <ele>7</ele>
        <time>2018-03-21T10:15:34Z</time>
      </trkpt>
      <trkpt lat="46.62411" lon="-1.87353">
        <ele>7</ele>
        <time>2018-03-21T10:16:34Z</time>
      </trkpt>
      <trkpt lat="46.62406" lon="-1.87352">
        <ele>7</ele>
        <time>2018-03-21T10:17:34Z</time>
      </trkpt>
      <trkpt lat="46.62404" lon="-1.87351">
        <ele>7</ele>
        <time>2018-03-21T10:18:34Z</time>
      </trkpt>
      <trkpt lat="46.624" lon="-1.87352">
        <ele>7</ele>
        <time>2018-03-21T10:19:34Z</time>
      </trkpt>
      <trkpt lat="46.62398" lon="-1.87352">
        <ele>7</ele>
        <time>2018-03-21T10:20:34Z</time>
      </trkpt>
      <trkpt lat="46.62397" lon="-1.87352">
        <ele>7</ele>
        <time>2018-03-21T10:21:34Z</time>
      </trkpt>
      <trkpt lat="46.62391" lon="-1.8735">
        <ele>7</ele>
        <time>2018-03-21T10:22:34Z</time>
      </trkpt>
      <trkpt lat="46.62379" lon="-1.87345">
        <ele>7</ele>
        <time>2018-03-21T10:23:34Z</time>
      </trkpt>
      <trkpt lat="46.62375" lon="-1.87344">
        <ele>7</ele>
        <time>2018-03-21T10:24:34Z</time>
      </trkpt>
      <trkpt lat="46.62329" lon="-1.87324">
        <ele>8</ele>
        <time>2018-03-21T10:25:34Z</time>
      </trkpt>
      <trkpt lat="46.62309" lon="-1.87316">
        <ele>7</ele>
        <time>2018-03-21T10:26:34Z</time>
      </trkpt>
      <trkpt lat="46.62295" lon="-1.87309">
        <ele>7</ele>
        <time>2018-03-21T10:27:34Z</time>
      </trkpt>
      <trkpt lat="46.62279" lon="-1.87297">
        <ele>6</ele>
        <time>2018-03-21T10:28:34Z</time>
      </trkpt>
      <trkpt lat="46.62267" lon="-1.8729">
        <ele>6</ele>
        <time>2018-03-21T10:29:34Z</time>
      </trkpt>
      <trkpt lat="46.62237" lon="-1.87268">
        <ele>7</ele>
        <time>2018-03-21T10:30:34Z</time>
      </trkpt>
      <trkpt lat="46.62209" lon="-1.87249">
        <ele>8</ele>
        <time>2018-03-21T10:31:34Z</time>
      </trkpt>
      <trkpt lat="46.62191" lon="-1.87236">
        <ele>8</ele>
        <time>2018-03-21T10:32:34Z</time>
      </trkpt>
      <trkpt lat="46.62178" lon="-1.87228">
        <ele>8</ele>
        <time>2018-03-21T10:33:34Z</time>
      </trkpt>
      <trkpt lat="46.62178" lon="-1.87228">
        <ele>8</ele>
        <time>2018-03-21T10:34:34Z</time>
      </trkpt>
      <trkpt lat="46.62171" lon="-1.87222">
        <ele>8</ele>
        <time>2018-03-21T10:35:34Z</time>
      </trkpt>
      <trkpt lat="46.62156" lon="-1.87213">
        <ele>8</ele>
        <time>2018-03-21T10:36:34Z</time>
      </trkpt>
      <trkpt lat="46.62144" lon="-1.87208">
        <ele>8</ele>
        <time>2018-03-21T10:37:34Z</time>
      </trkpt>
      <trkpt lat="46.62133" lon="-1.87206">
        <ele>8</ele>
        <time>2018-03-21T10:38:34Z</time>
      </trkpt>
      <trkpt lat="46.62126" lon="-1.87206">
        <ele>8</ele>
        <time>2018-03-21T10:39:34Z</time>
      </trkpt>
      <trkpt lat="46.62111" lon="-1.87211">
        <ele>7</ele>
        <time>2018-03-21T10:40:34Z</time>
      </trkpt>
      <trkpt lat="46.62098" lon="-1.87217">
        <ele>7</ele>
        <time>2018-03-21T10:41:34Z</time>
      </trkpt>
      <trkpt lat="46.62091" lon="-1.8722">
        <ele>7</ele>
        <time>2018-03-21T10:42:34Z</time>
      </trkpt>
      <trkpt lat="46.62087" lon="-1.87223">
        <ele>6</ele>
        <time>2018-03-21T10:43:34Z</time>
      </trkpt>
      <trkpt lat="46.6207" lon="-1.87232">
        <ele>6</ele>
        <time>2018-03-21T10:44:34Z</time>
      </trkpt>
      <trkpt lat="46.62061" lon="-1.87235">
        <ele>6</ele>
        <time>2018-03-21T10:45:34Z</time>
      </trkpt>
      <trkpt lat="46.62053" lon="-1.87238">
        <ele>6</ele>
        <time>2018-03-21T10:46:34Z</time>
      </trkpt>
      <trkpt lat="46.62043" lon="-1.87238">
        <ele>6</ele>
        <time>2018-03-21T10:47:34Z</time>
      </trkpt>
      <trkpt lat="46.62032" lon="-1.87236">
        <ele>6</ele>
        <time>2018-03-21T10:48:34Z</time>
      </trkpt>
      <trkpt lat="46.62022" lon="-1.8723">
        <ele>6</ele>
        <time>2018-03-21T10:49:34Z</time>
      </trkpt>
      <trkpt lat="46.6201" lon="-1.87223">
        <ele>6</ele>
        <time>2018-03-21T10:50:34Z</time>
      </trkpt>
      <trkpt lat="46.61985" lon="-1.87208">
        <ele>6</ele>
        <time>2018-03-21T10:51:34Z</time>
      </trkpt>
      <trkpt lat="46.61973" lon="-1.87201">
        <ele>6</ele>
        <time>2018-03-21T10:52:34Z</time>
      </trkpt>
      <trkpt lat="46.61957" lon="-1.87192">
        <ele>6</ele>
        <time>2018-03-21T10:53:34Z</time>
      </trkpt>
      <trkpt lat="46.61936" lon="-1.87179">
        <ele>7</ele>
        <time>2018-03-21T10:54:34Z</time>
      </trkpt>
      <trkpt lat="46.61925" lon="-1.87172">
        <ele>7</ele>
        <time>2018-03-21T10:55:34Z</time>
      </trkpt>
      <trkpt lat="46.61923" lon="-1.8717">
        <ele>7</ele>
        <time>2018-03-21T10:56:34Z</time>
      </trkpt>
      <trkpt lat="46.61919" lon="-1.87168">
        <ele>7</ele>
        <time>2018-03-21T10:57:34Z</time>
      </trkpt>
      <trkpt lat="46.61915" lon="-1.87165">
        <ele>7</ele>
        <time>2018-03-21T10:58:34Z</time>
      </trkpt>
      <trkpt lat="46.61912" lon="-1.87162">
        <ele>7</ele>
        <time>2018-03-21T10:59:34Z</time>
      </trkpt>
      <trkpt lat="46.61912" lon="-1.87162">
        <ele>7</ele>
        <time>2018-03-21T11:00:34Z</time>
      </trkpt>
      <trkpt lat="46.61911" lon="-1.87162">
        <ele>7</ele>
        <time>2018-03-21T11:01:34Z</time>
      </trkpt>
      <trkpt lat="46.61911" lon="-1.87163">
        <ele>7</ele>
        <time>2018-03-21T11:02:34Z</time>
      </trkpt>
      <trkpt lat="46.6191" lon="-1.87163">
        <ele>7</ele>
        <time>2018-03-21T11:03:34Z</time>
      </trkpt>
      <trkpt lat="46.61909" lon="-1.87163">
        <ele>7</ele>
        <time>2018-03-21T11:04:34Z</time>
      </trkpt>
      <trkpt lat="46.61908" lon="-1.87163">
        <ele>7</ele>
        <time>2018-03-21T11:05:34Z</time>
      </trkpt>
      <trkpt lat="46.61907" lon="-1.87162">
        <ele>7</ele>
        <time>2018-03-21T11:06:34Z</time>
      </trkpt>
      <trkpt lat="46.61906" lon="-1.87162">
        <ele>7</ele>
        <time>2018-03-21T11:07:34Z</time>
      </trkpt>
      <trkpt lat="46.61905" lon="-1.87161">
        <ele>7</ele>
        <time>2018-03-21T11:08:34Z</time>
      </trkpt>
      <trkpt lat="46.61904" lon="-1.87161">
        <ele>6</ele>
        <time>2018-03-21T11:09:34Z</time>
      </trkpt>
      <trkpt lat="46.61904" lon="-1.8716">
        <ele>7</ele>
        <time>2018-03-21T11:10:34Z</time>
      </trkpt>
      <trkpt lat="46.61903" lon="-1.87159">
        <ele>6</ele>
        <time>2018-03-21T11:11:34Z</time>
      </trkpt>
      <trkpt lat="46.61903" lon="-1.87158">
        <ele>6</ele>
        <time>2018-03-21T11:12:34Z</time>
      </trkpt>
      <trkpt lat="46.61902" lon="-1.87158">
        <ele>6</ele>
        <time>2018-03-21T11:13:34Z</time>
      </trkpt>
      <trkpt lat="46.61902" lon="-1.87157">
        <ele>6</ele>
        <time>2018-03-21T11:14:34Z</time>
      </trkpt>
      <trkpt lat="46.61902" lon="-1.87156">
        <ele>6</ele>
        <time>2018-03-21T11:15:34Z</time>
      </trkpt>
      <trkpt lat="46.61901" lon="-1.87156">
        <ele>6</ele>
        <time>2018-03-21T11:16:34Z</time>
      </trkpt>
      <trkpt lat="46.61901" lon="-1.87155">
        <ele>6</ele>
        <time>2018-03-21T11:17:34Z</time>
      </trkpt>
      <trkpt lat="46.61901" lon="-1.87154">
        <ele>6</ele>
        <time>2018-03-21T11:18:34Z</time>
      </trkpt>
      <trkpt lat="46.61901" lon="-1.87153">
        <ele>7</ele>
        <time>2018-03-21T11:19:34Z</time>
      </trkpt>
      <trkpt lat="46.61901" lon="-1.87152">
        <ele>7</ele>
        <time>2018-03-21T11:20:34Z</time>
      </trkpt>
      <trkpt lat="46.619" lon="-1.87152">
        <ele>6</ele>
        <time>2018-03-21T11:21:34Z</time>
      </trkpt>
      <trkpt lat="46.619" lon="-1.87151">
        <ele>7</ele>
        <time>2018-03-21T11:22:34Z</time>
      </trkpt>
      <trkpt lat="46.619" lon="-1.8715">
        <ele>7</ele>
        <time>2018-03-21T11:23:34Z</time>
      </trkpt>
      <trkpt lat="46.619" lon="-1.87149">
        <ele>7</ele>
        <time>2018-03-21T11:24:34Z</time>
      </trkpt>
      <trkpt lat="46.61861" lon="-1.87113">
        <ele>6</ele>
        <time>2018-03-21T11:25:34Z</time>
      </trkpt>
      <trkpt lat="46.61842" lon="-1.87096">
        <ele>7</ele>
        <time>2018-03-21T11:26:34Z</time>
      </trkpt>
      <trkpt lat="46.61833" lon="-1.87088">
        <ele>7</ele>
        <time>2018-03-21T11:27:34Z</time>
      </trkpt>
      <trkpt lat="46.6183" lon="-1.87085">
        <ele>7</ele>
        <time>2018-03-21T11:28:34Z</time>
      </trkpt>
      <trkpt lat="46.61819" lon="-1.87074">
        <ele>7</ele>
        <time>2018-03-21T11:29:34Z</time>
      </trkpt>
      <trkpt lat="46.61805" lon="-1.87061">
        <ele>7</ele>
        <time>2018-03-21T11:30:34Z</time>
      </trkpt>
      <trkpt lat="46.61785" lon="-1.87042">
        <ele>7</ele>
        <time>2018-03-21T11:31:34Z</time>
      </trkpt>
      <trkpt lat="46.61766" lon="-1.87024">
        <ele>7</ele>
        <time>2018-03-21T11:32:34Z</time>
      </trkpt>
      <trkpt lat="46.61759" lon="-1.87018">
        <ele>7</ele>
        <time>2018-03-21T11:33:34Z</time>
      </trkpt>
      <trkpt lat="46.61745" lon="-1.87005">
        <ele>4</ele>
        <time>2018-03-21T11:34:34Z</time>
      </trkpt>
      <trkpt lat="46.61736" lon="-1.86996">
        <ele>7</ele>
        <time>2018-03-21T11:35:34Z</time>
      </trkpt>
      <trkpt lat="46.61729" lon="-1.86988">
        <ele>6</ele>
        <time>2018-03-21T11:36:34Z</time>
      </trkpt>
      <trkpt lat="46.61696" lon="-1.86948">
        <ele>5</ele>
        <time>2018-03-21T11:37:34Z</time>
      </trkpt>
      <trkpt lat="46.61688" lon="-1.86935">
        <ele>5</ele>
        <time>2018-03-21T11:38:34Z</time>
      </trkpt>
      <trkpt lat="46.61677" lon="-1.8691">
        <ele>5</ele>
        <time>2018-03-21T11:39:34Z</time>
      </trkpt>
      <trkpt lat="46.61669" lon="-1.86889">
        <ele>4</ele>
        <time>2018-03-21T11:40:34Z</time>
      </trkpt>
      <trkpt lat="46.61662" lon="-1.86867">
        <ele>4</ele>
        <time>2018-03-21T11:41:34Z</time>
      </trkpt>
      <trkpt lat="46.61654" lon="-1.86833">
        <ele>4</ele>
        <time>2018-03-21T11:42:34Z</time>
      </trkpt>
      <trkpt lat="46.61647" lon="-1.86798">
        <ele>4</ele>
        <time>2018-03-21T11:43:34Z</time>
      </trkpt>
      <trkpt lat="46.61641" lon="-1.86767">
        <ele>4</ele>
        <time>2018-03-21T11:44:34Z</time>
      </trkpt>
      <trkpt lat="46.61636" lon="-1.86737">
        <ele>4</ele>
        <time>2018-03-21T11:45:34Z</time>
      </trkpt>
      <trkpt lat="46.6163" lon="-1.8671">
        <ele>4</ele>
        <time>2018-03-21T11:46:34Z</time>
      </trkpt>
      <trkpt lat="46.61627" lon="-1.86689">
        <ele>4</ele>
        <time>2018-03-21T11:47:34Z</time>
      </trkpt>
      <trkpt lat="46.61625" lon="-1.86671">
        <ele>4</ele>
        <time>2018-03-21T11:48:34Z</time>
      </trkpt>
      <trkpt lat="46.61624" lon="-1.86662">
        <ele>4</ele>
        <time>2018-03-21T11:49:34Z</time>
      </trkpt>
      <trkpt lat="46.61625" lon="-1.86645">
        <ele>4</ele>
        <time>2018-03-21T11:50:34Z</time>
      </trkpt>
      <trkpt lat="46.61625" lon="-1.86643">
        <ele>4</ele>
        <time>2018-03-21T11:51:34Z</time>
      </trkpt>
      <trkpt lat="46.61626" lon="-1.8662">
        <ele>5</ele>
        <time>2018-03-21T11:52:34Z</time>
      </trkpt>
      <trkpt lat="46.6163" lon="-1.86577">
        <ele>5</ele>
        <time>2018-03-21T11:53:34Z</time>
      </trkpt>
      <trkpt lat="46.61631" lon="-1.86562">
        <ele>6</ele>
        <time>2018-03-21T11:54:34Z</time>
      </trkpt>
      <trkpt lat="46.61632" lon="-1.86547">
        <ele>6</ele>
        <time>2018-03-21T11:55:34Z</time>
      </trkpt>
      <trkpt lat="46.61632" lon="-1.86541">
        <ele>6</ele>
        <time>2018-03-21T11:56:34Z</time>
      </trkpt>
      <trkpt lat="46.61632" lon="-1.86529">
        <ele>6</ele>
        <time>2018-03-21T11:57:34Z</time>
      </trkpt>
      <trkpt lat="46.61635" lon="-1.86494">
        <ele>7</ele>
        <time>2018-03-21T11:58:34Z</time>
      </trkpt>
      <trkpt lat="46.61637" lon="-1.86463">
        <ele>7</ele>
        <time>2018-03-21T11:59:34Z</time>
      </trkpt>
      <trkpt lat="46.61638" lon="-1.86454">
        <ele>7</ele>
        <time>2018-03-21T12:00:34Z</time>
      </trkpt>
      <trkpt lat="46.61638" lon="-1.86452">
        <ele>7</ele>
        <time>2018-03-21T12:01:34Z</time>
      </trkpt>
      <trkpt lat="46.6164" lon="-1.86447">
        <ele>7</ele>
        <time>2018-03-21T12:02:34Z</time>
      </trkpt>
      <trkpt lat="46.61641" lon="-1.86444">
        <ele>8</ele>
        <time>2018-03-21T12:03:34Z</time>
      </trkpt>
      <trkpt lat="46.61646" lon="-1.86434">
        <ele>8</ele>
        <time>2018-03-21T12:04:34Z</time>
      </trkpt>
      <trkpt lat="46.61653" lon="-1.86424">
        <ele>8</ele>
        <time>2018-03-21T12:05:34Z</time>
      </trkpt>
      <trkpt lat="46.61664" lon="-1.86415">
        <ele>9</ele>
        <time>2018-03-21T12:06:34Z</time>
      </trkpt>
      <trkpt lat="46.61677" lon="-1.86407">
        <ele>9</ele>
        <time>2018-03-21T12:07:34Z</time>
      </trkpt>
      <trkpt lat="46.61677" lon="-1.86407">
        <ele>9</ele>
        <time>2018-03-21T12:08:34Z</time>
      </trkpt>
      <trkpt lat="46.61691" lon="-1.86396">
        <ele>9</ele>
        <time>2018-03-21T12:09:34Z</time>
      </trkpt>
      <trkpt lat="46.61703" lon="-1.86388">
        <ele>9</ele>
        <time>2018-03-21T12:10:34Z</time>
      </trkpt>
      <trkpt lat="46.61723" lon="-1.86374">
        <ele>8</ele>
        <time>2018-03-21T12:11:34Z</time>
      </trkpt>
      <trkpt lat="46.61725" lon="-1.86373">
        <ele>8</ele>
        <time>2018-03-21T12:12:34Z</time>
      </trkpt>
      <trkpt lat="46.61739" lon="-1.86363">
        <ele>8</ele>
        <time>2018-03-21T12:13:34Z</time>
      </trkpt>
      <trkpt lat="46.61747" lon="-1.86358">
        <ele>8</ele>
        <time>2018-03-21T12:14:34Z</time>
      </trkpt>
      <trkpt lat="46.61754" lon="-1.86353">
        <ele>8</ele>
        <time>2018-03-21T12:15:34Z</time>
      </trkpt>
      <trkpt lat="46.61754" lon="-1.86353">
        <ele>8</ele>
        <time>2018-03-21T12:16:34Z</time>
      </trkpt>
      <trkpt lat="46.6176" lon="-1.86343">
        <ele>8</ele>
        <time>2018-03-21T12:17:34Z</time>
      </trkpt>
      <trkpt lat="46.61763" lon="-1.86334">
        <ele>8</ele>
        <time>2018-03-21T12:18:34Z</time>
      </trkpt>
      <trkpt lat="46.61764" lon="-1.8633">
        <ele>8</ele>
        <time>2018-03-21T12:19:34Z</time>
      </trkpt>
      <trkpt lat="46.61765" lon="-1.86325">
        <ele>8</ele>
        <time>2018-03-21T12:20:34Z</time>
      </trkpt>
      <trkpt lat="46.61765" lon="-1.8632">
        <ele>8</ele>
        <time>2018-03-21T12:21:34Z</time>
      </trkpt>
      <trkpt lat="46.61766" lon="-1.86307">
        <ele>8</ele>
        <time>2018-03-21T12:22:34Z</time>
      </trkpt>
      <trkpt lat="46.61766" lon="-1.86296">
        <ele>8</ele>
        <time>2018-03-21T12:23:34Z</time>
      </trkpt>
      <trkpt lat="46.61764" lon="-1.86258">
        <ele>8</ele>
        <time>2018-03-21T12:24:34Z</time>
      </trkpt>
      <trkpt lat="46.61764" lon="-1.86243">
        <ele>8</ele>
        <time>2018-03-21T12:25:34Z</time>
      </trkpt>
      <trkpt lat="46.61763" lon="-1.86228">
        <ele>8</ele>
        <time>2018-03-21T12:26:34Z</time>
      </trkpt>
      <trkpt lat="46.61761" lon="-1.86215">
        <ele>8</ele>
        <time>2018-03-21T12:27:34Z</time>
      </trkpt>
      <trkpt lat="46.6176" lon="-1.86208">
        <ele>8</ele>
        <time>2018-03-21T12:28:34Z</time>
      </trkpt>
      <trkpt lat="46.61756" lon="-1.86197">
        <ele>8</ele>
        <time>2018-03-21T12:29:34Z</time>
      </trkpt>
      <trkpt lat="46.61752" lon="-1.86188">
        <ele>8</ele>
        <time>2018-03-21T12:30:34Z</time>
      </trkpt>
      <trkpt lat="46.61744" lon="-1.86173">
        <ele>8</ele>
        <time>2018-03-21T12:31:34Z</time>
      </trkpt>
      <trkpt lat="46.61736" lon="-1.86158">
        <ele>8</ele>
        <time>2018-03-21T12:32:34Z</time>
      </trkpt>
      <trkpt lat="46.61722" lon="-1.86132">
        <ele>8</ele>
        <time>2018-03-21T12:33:34Z</time>
      </trkpt>
      <trkpt lat="46.61707" lon="-1.86101">
        <ele>8</ele>
        <time>2018-03-21T12:34:34Z</time>
      </trkpt>
      <trkpt lat="46.61695" lon="-1.86079">
        <ele>8</ele>
        <time>2018-03-21T12:35:34Z</time>
      </trkpt>
      <trkpt lat="46.61685" lon="-1.86063">
        <ele>8</ele>
        <time>2018-03-21T12:36:34Z</time>
      </trkpt>
      <trkpt lat="46.6168" lon="-1.86054">
        <ele>8</ele>
        <time>2018-03-21T12:37:34Z</time>
      </trkpt>
      <trkpt lat="46.61672" lon="-1.86042">
        <ele>8</ele>
        <time>2018-03-21T12:38:34Z</time>
      </trkpt>
      <trkpt lat="46.61669" lon="-1.86038">
        <ele>8</ele>
        <time>2018-03-21T12:39:34Z</time>
      </trkpt>
      <trkpt lat="46.61653" lon="-1.86016">
        <ele>8</ele>
        <time>2018-03-21T12:40:34Z</time>
      </trkpt>
      <trkpt lat="46.61643" lon="-1.86003">
        <ele>7</ele>
        <time>2018-03-21T12:41:34Z</time>
      </trkpt>
      <trkpt lat="46.61642" lon="-1.86002">
        <ele>7</ele>
        <time>2018-03-21T12:42:34Z</time>
      </trkpt>
      <trkpt lat="46.61624" lon="-1.85975">
        <ele>7</ele>
        <time>2018-03-21T12:43:34Z</time>
      </trkpt>
      <trkpt lat="46.61617" lon="-1.85966">
        <ele>7</ele>
        <time>2018-03-21T12:44:34Z</time>
      </trkpt>
      <trkpt lat="46.61601" lon="-1.85945">
        <ele>7</ele>
        <time>2018-03-21T12:45:34Z</time>
      </trkpt>
      <trkpt lat="46.61588" lon="-1.85926">
        <ele>7</ele>
        <time>2018-03-21T12:46:34Z</time>
      </trkpt>
      <trkpt lat="46.61577" lon="-1.8591">
        <ele>7</ele>
        <time>2018-03-21T12:47:34Z</time>
      </trkpt>
      <trkpt lat="46.61565" lon="-1.85887">
        <ele>7</ele>
        <time>2018-03-21T12:48:34Z</time>
      </trkpt>
      <trkpt lat="46.61554" lon="-1.85862">
        <ele>7</ele>
        <time>2018-03-21T12:49:34Z</time>
      </trkpt>
      <trkpt lat="46.61552" lon="-1.85855">
        <ele>7</ele>
        <time>2018-03-21T12:50:34Z</time>
      </trkpt>
      <trkpt lat="46.61549" lon="-1.85849">
        <ele>7</ele>
        <time>2018-03-21T12:51:34Z</time>
      </trkpt>
      <trkpt lat="46.61546" lon="-1.85843">
        <ele>7</ele>
        <time>2018-03-21T12:52:34Z</time>
      </trkpt>
      <trkpt lat="46.61543" lon="-1.85837">
        <ele>7</ele>
        <time>2018-03-21T12:53:34Z</time>
      </trkpt>
      <trkpt lat="46.61539" lon="-1.8583">
        <ele>7</ele>
        <time>2018-03-21T12:54:34Z</time>
      </trkpt>
      <trkpt lat="46.61535" lon="-1.85823">
        <ele>7</ele>
        <time>2018-03-21T12:55:34Z</time>
      </trkpt>
      <trkpt lat="46.61529" lon="-1.85815">
        <ele>7</ele>
        <time>2018-03-21T12:56:34Z</time>
      </trkpt>
      <trkpt lat="46.6152" lon="-1.85809">
        <ele>7</ele>
        <time>2018-03-21T12:57:34Z</time>
      </trkpt>
      <trkpt lat="46.61518" lon="-1.85808">
        <ele>7</ele>
        <time>2018-03-21T12:58:34Z</time>
      </trkpt>
      <trkpt lat="46.61514" lon="-1.85807">
        <ele>7</ele>
        <time>2018-03-21T12:59:34Z</time>
      </trkpt>
      <trkpt lat="46.61506" lon="-1.85805">
        <ele>7</ele>
        <time>2018-03-21T13:00:34Z</time>
      </trkpt>
      <trkpt lat="46.61506" lon="-1.85805">
        <ele>7</ele>
        <time>2018-03-21T13:01:34Z</time>
      </trkpt>
      <trkpt lat="46.61503" lon="-1.85806">
        <ele>7</ele>
        <time>2018-03-21T13:02:34Z</time>
      </trkpt>
      <trkpt lat="46.61502" lon="-1.85807">
        <ele>7</ele>
        <time>2018-03-21T13:03:34Z</time>
      </trkpt>
      <trkpt lat="46.61499" lon="-1.85807">
        <ele>7</ele>
        <time>2018-03-21T13:04:34Z</time>
      </trkpt>
      <trkpt lat="46.61497" lon="-1.85807">
        <ele>7</ele>
        <time>2018-03-21T13:05:34Z</time>
      </trkpt>
      <trkpt lat="46.61496" lon="-1.85807">
        <ele>7</ele>
        <time>2018-03-21T13:06:34Z</time>
      </trkpt>
      <trkpt lat="46.61493" lon="-1.85805">
        <ele>7</ele>
        <time>2018-03-21T13:07:34Z</time>
      </trkpt>
      <trkpt lat="46.61492" lon="-1.85804">
        <ele>7</ele>
        <time>2018-03-21T13:08:34Z</time>
      </trkpt>
      <trkpt lat="46.6149" lon="-1.85802">
        <ele>7</ele>
        <time>2018-03-21T13:09:34Z</time>
      </trkpt>
      <trkpt lat="46.61489" lon="-1.858">
        <ele>8</ele>
        <time>2018-03-21T13:10:34Z</time>
      </trkpt>
      <trkpt lat="46.61488" lon="-1.85798">
        <ele>8</ele>
        <time>2018-03-21T13:11:34Z</time>
      </trkpt>
      <trkpt lat="46.61487" lon="-1.85796">
        <ele>8</ele>
        <time>2018-03-21T13:12:34Z</time>
      </trkpt>
      <trkpt lat="46.61486" lon="-1.85792">
        <ele>8</ele>
        <time>2018-03-21T13:13:34Z</time>
      </trkpt>
      <trkpt lat="46.61485" lon="-1.85788">
        <ele>8</ele>
        <time>2018-03-21T13:14:34Z</time>
      </trkpt>
      <trkpt lat="46.61486" lon="-1.85783">
        <ele>8</ele>
        <time>2018-03-21T13:15:34Z</time>
      </trkpt>
      <trkpt lat="46.61486" lon="-1.85781">
        <ele>8</ele>
        <time>2018-03-21T13:16:34Z</time>
      </trkpt>
      <trkpt lat="46.61486" lon="-1.85779">
        <ele>8</ele>
        <time>2018-03-21T13:17:34Z</time>
      </trkpt>
      <trkpt lat="46.61487" lon="-1.85778">
        <ele>8</ele>
        <time>2018-03-21T13:18:34Z</time>
      </trkpt>
      <trkpt lat="46.61488" lon="-1.85775">
        <ele>8</ele>
        <time>2018-03-21T13:19:34Z</time>
      </trkpt>
      <trkpt lat="46.6149" lon="-1.85772">
        <ele>8</ele>
        <time>2018-03-21T13:20:34Z</time>
      </trkpt>
      <trkpt lat="46.61493" lon="-1.85769">
        <ele>8</ele>
        <time>2018-03-21T13:21:34Z</time>
      </trkpt>
      <trkpt lat="46.61493" lon="-1.8575">
        <ele>8</ele>
        <time>2018-03-21T13:22:34Z</time>
      </trkpt>
      <trkpt lat="46.61494" lon="-1.85729">
        <ele>8</ele>
        <time>2018-03-21T13:23:34Z</time>
      </trkpt>
      <trkpt lat="46.61492" lon="-1.85716">
        <ele>9</ele>
        <time>2018-03-21T13:24:34Z</time>
      </trkpt>
      <trkpt lat="46.61489" lon="-1.85696">
        <ele>9</ele>
        <time>2018-03-21T13:25:34Z</time>
      </trkpt>
      <trkpt lat="46.61486" lon="-1.8568">
        <ele>9</ele>
        <time>2018-03-21T13:26:34Z</time>
      </trkpt>
      <trkpt lat="46.61483" lon="-1.85661">
        <ele>9</ele>
        <time>2018-03-21T13:27:34Z</time>
      </trkpt>
      <trkpt lat="46.61476" lon="-1.85631">
        <ele>10</ele>
        <time>2018-03-21T13:28:34Z</time>
      </trkpt>
      <trkpt lat="46.61469" lon="-1.85604">
        <ele>10</ele>
        <time>2018-03-21T13:29:34Z</time>
      </trkpt>
      <trkpt lat="46.61462" lon="-1.85579">
        <ele>10</ele>
        <time>2018-03-21T13:30:34Z</time>
      </trkpt>
      <trkpt lat="46.61453" lon="-1.85553">
        <ele>10</ele>
        <time>2018-03-21T13:31:34Z</time>
      </trkpt>
      <trkpt lat="46.61445" lon="-1.85531">
        <ele>11</ele>
        <time>2018-03-21T13:32:34Z</time>
      </trkpt>
      <trkpt lat="46.61438" lon="-1.85514">
        <ele>11</ele>
        <time>2018-03-21T13:33:34Z</time>
      </trkpt>
      <trkpt lat="46.61427" lon="-1.85492">
        <ele>12</ele>
        <time>2018-03-21T13:34:34Z</time>
      </trkpt>
      <trkpt lat="46.61418" lon="-1.85467">
        <ele>13</ele>
        <time>2018-03-21T13:35:34Z</time>
      </trkpt>
      <trkpt lat="46.6141" lon="-1.8544">
        <ele>13</ele>
        <time>2018-03-21T13:36:34Z</time>
      </trkpt>
      <trkpt lat="46.61401" lon="-1.85409">
        <ele>14</ele>
        <time>2018-03-21T13:37:34Z</time>
      </trkpt>
      <trkpt lat="46.61392" lon="-1.85372">
        <ele>14</ele>
        <time>2018-03-21T13:38:34Z</time>
      </trkpt>
      <trkpt lat="46.61384" lon="-1.8534">
        <ele>15</ele>
        <time>2018-03-21T13:39:34Z</time>
      </trkpt>
      <trkpt lat="46.61376" lon="-1.85305">
        <ele>15</ele>
        <time>2018-03-21T13:40:34Z</time>
      </trkpt>
      <trkpt lat="46.61369" lon="-1.85279">
        <ele>15</ele>
        <time>2018-03-21T13:41:34Z</time>
      </trkpt>
      <trkpt lat="46.61362" lon="-1.8526">
        <ele>15</ele>
        <time>2018-03-21T13:42:34Z</time>
      </trkpt>
      <trkpt lat="46.61353" lon="-1.85242">
        <ele>15</ele>
        <time>2018-03-21T13:43:34Z</time>
      </trkpt>
      <trkpt lat="46.61348" lon="-1.85235">
        <ele>16</ele>
        <time>2018-03-21T13:44:34Z</time>
      </trkpt>
      <trkpt lat="46.61332" lon="-1.85213">
        <ele>16</ele>
        <time>2018-03-21T13:45:34Z</time>
      </trkpt>
      <trkpt lat="46.61313" lon="-1.85197">
        <ele>16</ele>
        <time>2018-03-21T13:46:34Z</time>
      </trkpt>
      <trkpt lat="46.61294" lon="-1.85178">
        <ele>16</ele>
        <time>2018-03-21T13:47:34Z</time>
      </trkpt>
      <trkpt lat="46.61273" lon="-1.85149">
        <ele>17</ele>
        <time>2018-03-21T13:48:34Z</time>
      </trkpt>
      <trkpt lat="46.61258" lon="-1.85125">
        <ele>17</ele>
        <time>2018-03-21T13:49:34Z</time>
      </trkpt>
      <trkpt lat="46.61247" lon="-1.85103">
        <ele>18</ele>
        <time>2018-03-21T13:50:34Z</time>
      </trkpt>
      <trkpt lat="46.61236" lon="-1.85081">
        <ele>18</ele>
        <time>2018-03-21T13:51:34Z</time>
      </trkpt>
      <trkpt lat="46.61222" lon="-1.85059">
        <ele>18</ele>
        <time>2018-03-21T13:52:34Z</time>
      </trkpt>
      <trkpt lat="46.61204" lon="-1.85035">
        <ele>19</ele>
        <time>2018-03-21T13:53:34Z</time>
      </trkpt>
      <trkpt lat="46.61188" lon="-1.85018">
        <ele>19</ele>
        <time>2018-03-21T13:54:34Z</time>
      </trkpt>
      <trkpt lat="46.61167" lon="-1.84994">
        <ele>19</ele>
        <time>2018-03-21T13:55:34Z</time>
      </trkpt>
      <trkpt lat="46.61152" lon="-1.84973">
        <ele>20</ele>
        <time>2018-03-21T13:56:34Z</time>
      </trkpt>
      <trkpt lat="46.61149" lon="-1.84967">
        <ele>21</ele>
        <time>2018-03-21T13:57:34Z</time>
      </trkpt>
      <trkpt lat="46.61144" lon="-1.84955">
        <ele>21</ele>
        <time>2018-03-21T13:58:34Z</time>
      </trkpt>
      <trkpt lat="46.61139" lon="-1.84937">
        <ele>21</ele>
        <time>2018-03-21T13:59:34Z</time>
      </trkpt>
      <trkpt lat="46.61138" lon="-1.84922">
        <ele>22</ele>
        <time>2018-03-21T14:00:34Z</time>
      </trkpt>
      <trkpt lat="46.61136" lon="-1.84903">
        <ele>22</ele>
        <time>2018-03-21T14:01:34Z</time>
      </trkpt>
      <trkpt lat="46.61135" lon="-1.8487">
        <ele>21</ele>
        <time>2018-03-21T14:02:34Z</time>
      </trkpt>
      <trkpt lat="46.61134" lon="-1.84843">
        <ele>20</ele>
        <time>2018-03-21T14:03:34Z</time>
      </trkpt>
      <trkpt lat="46.61135" lon="-1.84824">
        <ele>20</ele>
        <time>2018-03-21T14:04:34Z</time>
      </trkpt>
      <trkpt lat="46.61131" lon="-1.84811">
        <ele>20</ele>
        <time>2018-03-21T14:05:34Z</time>
      </trkpt>
      <trkpt lat="46.61128" lon="-1.84805">
        <ele>20</ele>
        <time>2018-03-21T14:06:34Z</time>
      </trkpt>
      <trkpt lat="46.61128" lon="-1.84805">
        <ele>20</ele>
        <time>2018-03-21T14:07:34Z</time>
      </trkpt>
      <trkpt lat="46.61126" lon="-1.84805">
        <ele>20</ele>
        <time>2018-03-21T14:08:34Z</time>
      </trkpt>
      <trkpt lat="46.61124" lon="-1.84805">
        <ele>20</ele>
        <time>2018-03-21T14:09:34Z</time>
      </trkpt>
      <trkpt lat="46.61122" lon="-1.84805">
        <ele>20</ele>
        <time>2018-03-21T14:10:34Z</time>
      </trkpt>
      <trkpt lat="46.6112" lon="-1.84804">
        <ele>20</ele>
        <time>2018-03-21T14:11:34Z</time>
      </trkpt>
      <trkpt lat="46.61118" lon="-1.84803">
        <ele>20</ele>
        <time>2018-03-21T14:12:34Z</time>
      </trkpt>
      <trkpt lat="46.61117" lon="-1.84802">
        <ele>20</ele>
        <time>2018-03-21T14:13:34Z</time>
      </trkpt>
      <trkpt lat="46.61115" lon="-1.84801">
        <ele>20</ele>
        <time>2018-03-21T14:14:34Z</time>
      </trkpt>
      <trkpt lat="46.61113" lon="-1.848">
        <ele>20</ele>
        <time>2018-03-21T14:15:34Z</time>
      </trkpt>
      <trkpt lat="46.61113" lon="-1.84799">
        <ele>20</ele>
        <time>2018-03-21T14:16:34Z</time>
      </trkpt>
      <trkpt lat="46.61112" lon="-1.84798">
        <ele>20</ele>
        <time>2018-03-21T14:17:34Z</time>
      </trkpt>
      <trkpt lat="46.61111" lon="-1.84797">
        <ele>20</ele>
        <time>2018-03-21T14:18:34Z</time>
      </trkpt>
      <trkpt lat="46.6111" lon="-1.84796">
        <ele>20</ele>
        <time>2018-03-21T14:19:34Z</time>
      </trkpt>
      <trkpt lat="46.6111" lon="-1.84795">
        <ele>20</ele>
        <time>2018-03-21T14:20:34Z</time>
      </trkpt>
      <trkpt lat="46.61109" lon="-1.84794">
        <ele>20</ele>
        <time>2018-03-21T14:21:34Z</time>
      </trkpt>
      <trkpt lat="46.61108" lon="-1.84793">
        <ele>20</ele>
        <time>2018-03-21T14:22:34Z</time>
      </trkpt>
      <trkpt lat="46.61108" lon="-1.84792">
        <ele>20</ele>
        <time>2018-03-21T14:23:34Z</time>
      </trkpt>
      <trkpt lat="46.61107" lon="-1.84789">
        <ele>20</ele>
        <time>2018-03-21T14:24:34Z</time>
      </trkpt>
      <trkpt lat="46.61106" lon="-1.84787">
        <ele>20</ele>
        <time>2018-03-21T14:25:34Z</time>
      </trkpt>
      <trkpt lat="46.61105" lon="-1.84784">
        <ele>20</ele>
        <time>2018-03-21T14:26:34Z</time>
      </trkpt>
      <trkpt lat="46.61104" lon="-1.84781">
        <ele>20</ele>
        <time>2018-03-21T14:27:34Z</time>
      </trkpt>
      <trkpt lat="46.61104" lon="-1.84778">
        <ele>20</ele>
        <time>2018-03-21T14:28:34Z</time>
      </trkpt>
      <trkpt lat="46.61104" lon="-1.84775">
        <ele>20</ele>
        <time>2018-03-21T14:29:34Z</time>
      </trkpt>
      <trkpt lat="46.61104" lon="-1.84772">
        <ele>20</ele>
        <time>2018-03-21T14:30:34Z</time>
      </trkpt>
      <trkpt lat="46.61104" lon="-1.84769">
        <ele>20</ele>
        <time>2018-03-21T14:31:34Z</time>
      </trkpt>
      <trkpt lat="46.61104" lon="-1.84766">
        <ele>20</ele>
        <time>2018-03-21T14:32:34Z</time>
      </trkpt>
      <trkpt lat="46.61105" lon="-1.84763">
        <ele>20</ele>
        <time>2018-03-21T14:33:34Z</time>
      </trkpt>
      <trkpt lat="46.61106" lon="-1.8476">
        <ele>20</ele>
        <time>2018-03-21T14:34:34Z</time>
      </trkpt>
      <trkpt lat="46.61107" lon="-1.84758">
        <ele>20</ele>
        <time>2018-03-21T14:35:34Z</time>
      </trkpt>
      <trkpt lat="46.61108" lon="-1.84754">
        <ele>20</ele>
        <time>2018-03-21T14:36:34Z</time>
      </trkpt>
      <trkpt lat="46.61106" lon="-1.84746">
        <ele>20</ele>
        <time>2018-03-21T14:37:34Z</time>
      </trkpt>
      <trkpt lat="46.61105" lon="-1.8474">
        <ele>20</ele>
        <time>2018-03-21T14:38:34Z</time>
      </trkpt>
      <trkpt lat="46.611" lon="-1.84726">
        <ele>19</ele>
        <time>2018-03-21T14:39:34Z</time>
      </trkpt>
      <trkpt lat="46.61089" lon="-1.84707">
        <ele>19</ele>
        <time>2018-03-21T14:40:34Z</time>
      </trkpt>
      <trkpt lat="46.61083" lon="-1.84699">
        <ele>19</ele>
        <time>2018-03-21T14:41:34Z</time>
      </trkpt>
      <trkpt lat="46.61077" lon="-1.84693">
        <ele>19</ele>
        <time>2018-03-21T14:42:34Z</time>
      </trkpt>
      <trkpt lat="46.61072" lon="-1.84688">
        <ele>19</ele>
        <time>2018-03-21T14:43:34Z</time>
      </trkpt>
      <trkpt lat="46.61062" lon="-1.84679">
        <ele>19</ele>
        <time>2018-03-21T14:44:34Z</time>
      </trkpt>
      <trkpt lat="46.6105" lon="-1.8467">
        <ele>19</ele>
        <time>2018-03-21T14:45:34Z</time>
      </trkpt>
      <trkpt lat="46.61021" lon="-1.84645">
        <ele>19</ele>
        <time>2018-03-21T14:46:34Z</time>
      </trkpt>
      <trkpt lat="46.60999" lon="-1.84627">
        <ele>19</ele>
        <time>2018-03-21T14:47:34Z</time>
      </trkpt>
      <trkpt lat="46.60984" lon="-1.84615">
        <ele>18</ele>
        <time>2018-03-21T14:48:34Z</time>
      </trkpt>
      <trkpt lat="46.60963" lon="-1.84597">
        <ele>18</ele>
        <time>2018-03-21T14:49:34Z</time>
      </trkpt>
      <trkpt lat="46.60943" lon="-1.8458">
        <ele>16</ele>
        <time>2018-03-21T14:50:34Z</time>
      </trkpt>
      <trkpt lat="46.60936" lon="-1.84575">
        <ele>16</ele>
        <time>2018-03-21T14:51:34Z</time>
      </trkpt>
      <trkpt lat="46.60929" lon="-1.84568">
        <ele>16</ele>
        <time>2018-03-21T14:52:34Z</time>
      </trkpt>
      <trkpt lat="46.60922" lon="-1.84564">
        <ele>15</ele>
        <time>2018-03-21T14:53:34Z</time>
      </trkpt>
      <trkpt lat="46.60916" lon="-1.84559">
        <ele>15</ele>
        <time>2018-03-21T14:54:34Z</time>
      </trkpt>
      <trkpt lat="46.6091" lon="-1.84554">
        <ele>15</ele>
        <time>2018-03-21T14:55:34Z</time>
      </trkpt>
      <trkpt lat="46.60904" lon="-1.84548">
        <ele>14</ele>
        <time>2018-03-21T14:56:34Z</time>
      </trkpt>
      <trkpt lat="46.60883" lon="-1.84524">
        <ele>13</ele>
        <time>2018-03-21T14:57:34Z</time>
      </trkpt>
      <trkpt lat="46.60873" lon="-1.84511">
        <ele>13</ele>
        <time>2018-03-21T14:58:34Z</time>
      </trkpt>
      <trkpt lat="46.60862" lon="-1.84495">
        <ele>12</ele>
        <time>2018-03-21T14:59:34Z</time>
      </trkpt>
      <trkpt lat="46.60854" lon="-1.84485">
        <ele>12</ele>
        <time>2018-03-21T15:00:34Z</time>
      </trkpt>
      <trkpt lat="46.6084" lon="-1.84461">
        <ele>11</ele>
        <time>2018-03-21T15:01:34Z</time>
      </trkpt>
      <trkpt lat="46.60831" lon="-1.84444">
        <ele>11</ele>
        <time>2018-03-21T15:02:34Z</time>
      </trkpt>
      <trkpt lat="46.60824" lon="-1.84429">
        <ele>10</ele>
        <time>2018-03-21T15:03:34Z</time>
      </trkpt>
      <trkpt lat="46.60819" lon="-1.84416">
        <ele>9</ele>
        <time>2018-03-21T15:04:34Z</time>
      </trkpt>
      <trkpt lat="46.60817" lon="-1.84408">
        <ele>9</ele>
        <time>2018-03-21T15:05:34Z</time>
      </trkpt>
      <trkpt lat="46.60816" lon="-1.84403">
        <ele>9</ele>
        <time>2018-03-21T15:06:34Z</time>
      </trkpt>
      <trkpt lat="46.60813" lon="-1.84385">
        <ele>9</ele>
        <time>2018-03-21T15:07:34Z</time>
      </trkpt>
      <trkpt lat="46.60786" lon="-1.84277">
        <ele>7</ele>
        <time>2018-03-21T15:08:34Z</time>
      </trkpt>
      <trkpt lat="46.60743" lon="-1.84111">
        <ele>4</ele>
        <time>2018-03-21T15:09:34Z</time>
      </trkpt>
      <trkpt lat="46.60738" lon="-1.84102">
        <ele>4</ele>
        <time>2018-03-21T15:10:34Z</time>
      </trkpt>
      <trkpt lat="46.60723" lon="-1.84051">
        <ele>8</ele>
        <time>2018-03-21T15:11:34Z</time>
      </trkpt>
      <trkpt lat="46.60718" lon="-1.84029">
        <ele>8</ele>
        <time>2018-03-21T15:12:34Z</time>
      </trkpt>
      <trkpt lat="46.60718" lon="-1.84027">
        <ele>8</ele>
        <time>2018-03-21T15:13:34Z</time>
      </trkpt>
      <trkpt lat="46.60707" lon="-1.83989">
        <ele>11</ele>
        <time>2018-03-21T15:14:34Z</time>
      </trkpt>
      <trkpt lat="46.60701" lon="-1.83966">
        <ele>13</ele>
        <time>2018-03-21T15:15:34Z</time>
      </trkpt>
      <trkpt lat="46.60695" lon="-1.8394">
        <ele>15</ele>
        <time>2018-03-21T15:16:34Z</time>
      </trkpt>
      <trkpt lat="46.60685" lon="-1.83895">
        <ele>18</ele>
        <time>2018-03-21T15:17:34Z</time>
      </trkpt>
      <trkpt lat="46.60685" lon="-1.83884">
        <ele>18</ele>
        <time>2018-03-21T15:18:34Z</time>
      </trkpt>
      <trkpt lat="46.60681" lon="-1.83865">
        <ele>18</ele>
        <time>2018-03-21T15:19:34Z</time>
      </trkpt>
      <trkpt lat="46.60674" lon="-1.83841">
        <ele>18</ele>
        <time>2018-03-21T15:20:34Z</time>
      </trkpt>
      <trkpt lat="46.60669" lon="-1.83823">
        <ele>18</ele>
        <time>2018-03-21T15:21:34Z</time>
      </trkpt>
      <trkpt lat="46.60664" lon="-1.83802">
        <ele>18</ele>
        <time>2018-03-21T15:22:34Z</time>
      </trkpt>
      <trkpt lat="46.60655" lon="-1.83766">
        <ele>17</ele>
        <time>2018-03-21T15:23:34Z</time>
      </trkpt>
      <trkpt lat="46.60651" lon="-1.83748">
        <ele>17</ele>
        <time>2018-03-21T15:24:34Z</time>
      </trkpt>
      <trkpt lat="46.60646" lon="-1.83728">
        <ele>17</ele>
        <time>2018-03-21T15:25:34Z</time>
      </trkpt>
      <trkpt lat="46.6064" lon="-1.83701">
        <ele>17</ele>
        <time>2018-03-21T15:26:34Z</time>
      </trkpt>
      <trkpt lat="46.60631" lon="-1.83667">
        <ele>18</ele>
        <time>2018-03-21T15:27:34Z</time>
      </trkpt>
      <trkpt lat="46.60624" lon="-1.83638">
        <ele>18</ele>
        <time>2018-03-21T15:28:34Z</time>
      </trkpt>
      <trkpt lat="46.60617" lon="-1.8361">
        <ele>18</ele>
        <time>2018-03-21T15:29:34Z</time>
      </trkpt>
      <trkpt lat="46.60612" lon="-1.83592">
        <ele>18</ele>
        <time>2018-03-21T15:30:34Z</time>
      </trkpt>
      <trkpt lat="46.6061" lon="-1.83585">
        <ele>18</ele>
        <time>2018-03-21T15:31:34Z</time>
      </trkpt>
      <trkpt lat="46.60609" lon="-1.83583">
        <ele>18</ele>
        <time>2018-03-21T15:32:34Z</time>
      </trkpt>
      <trkpt lat="46.60606" lon="-1.83575">
        <ele>18</ele>
        <time>2018-03-21T15:33:34Z</time>
      </trkpt>
      <trkpt lat="46.60601" lon="-1.8355">
        <ele>19</ele>
        <time>2018-03-21T15:34:34Z</time>
      </trkpt>
      <trkpt lat="46.606" lon="-1.83549">
        <ele>19</ele>
        <time>2018-03-21T15:35:34Z</time>
      </trkpt>
      <trkpt lat="46.60599" lon="-1.83548">
        <ele>19</ele>
        <time>2018-03-21T15:36:34Z</time>
      </trkpt>
      <trkpt lat="46.60598" lon="-1.83547">
        <ele>19</ele>
        <time>2018-03-21T15:37:34Z</time>
      </trkpt>
      <trkpt lat="46.60597" lon="-1.83546">
        <ele>19</ele>
        <time>2018-03-21T15:38:34Z</time>
      </trkpt>
      <trkpt lat="46.60597" lon="-1.83545">
        <ele>19</ele>
        <time>2018-03-21T15:39:34Z</time>
      </trkpt>
      <trkpt lat="46.60596" lon="-1.83545">
        <ele>19</ele>
        <time>2018-03-21T15:40:34Z</time>
      </trkpt>
      <trkpt lat="46.60596" lon="-1.83544">
        <ele>19</ele>
        <time>2018-03-21T15:41:34Z</time>
      </trkpt>
      <trkpt lat="46.60596" lon="-1.83543">
        <ele>19</ele>
        <time>2018-03-21T15:42:34Z</time>
      </trkpt>
      <trkpt lat="46.60595" lon="-1.83542">
        <ele>19</ele>
        <time>2018-03-21T15:43:34Z</time>
      </trkpt>
      <trkpt lat="46.60595" lon="-1.83541">
        <ele>19</ele>
        <time>2018-03-21T15:44:34Z</time>
      </trkpt>
      <trkpt lat="46.60595" lon="-1.8354">
        <ele>19</ele>
        <time>2018-03-21T15:45:34Z</time>
      </trkpt>
      <trkpt lat="46.60594" lon="-1.8354">
        <ele>19</ele>
        <time>2018-03-21T15:46:34Z</time>
      </trkpt>
      <trkpt lat="46.60594" lon="-1.83539">
        <ele>19</ele>
        <time>2018-03-21T15:47:34Z</time>
      </trkpt>
      <trkpt lat="46.60594" lon="-1.83538">
        <ele>19</ele>
        <time>2018-03-21T15:48:34Z</time>
      </trkpt>
      <trkpt lat="46.60594" lon="-1.83537">
        <ele>19</ele>
        <time>2018-03-21T15:49:34Z</time>
      </trkpt>
      <trkpt lat="46.60594" lon="-1.83536">
        <ele>19</ele>
        <time>2018-03-21T15:50:34Z</time>
      </trkpt>
      <trkpt lat="46.60594" lon="-1.83535">
        <ele>19</ele>
        <time>2018-03-21T15:51:34Z</time>
      </trkpt>
      <trkpt lat="46.60594" lon="-1.83534">
        <ele>19</ele>
        <time>2018-03-21T15:52:34Z</time>
      </trkpt>
      <trkpt lat="46.60594" lon="-1.83533">
        <ele>19</ele>
        <time>2018-03-21T15:53:34Z</time>
      </trkpt>
      <trkpt lat="46.60594" lon="-1.83532">
        <ele>19</ele>
        <time>2018-03-21T15:54:34Z</time>
      </trkpt>
      <trkpt lat="46.60594" lon="-1.83531">
        <ele>19</ele>
        <time>2018-03-21T15:55:34Z</time>
      </trkpt>
      <trkpt lat="46.60595" lon="-1.8353">
        <ele>19</ele>
        <time>2018-03-21T15:56:34Z</time>
      </trkpt>
      <trkpt lat="46.60595" lon="-1.83529">
        <ele>19</ele>
        <time>2018-03-21T15:57:34Z</time>
      </trkpt>
      <trkpt lat="46.60595" lon="-1.83528">
        <ele>19</ele>
        <time>2018-03-21T15:58:34Z</time>
      </trkpt>
      <trkpt lat="46.60596" lon="-1.83527">
        <ele>19</ele>
        <time>2018-03-21T15:59:34Z</time>
      </trkpt>
      <trkpt lat="46.60596" lon="-1.83526">
        <ele>19</ele>
        <time>2018-03-21T16:00:34Z</time>
      </trkpt>
      <trkpt lat="46.60597" lon="-1.83525">
        <ele>20</ele>
        <time>2018-03-21T16:01:34Z</time>
      </trkpt>
      <trkpt lat="46.60597" lon="-1.83524">
        <ele>20</ele>
        <time>2018-03-21T16:02:34Z</time>
      </trkpt>
      <trkpt lat="46.60592" lon="-1.83501">
        <ele>20</ele>
        <time>2018-03-21T16:03:34Z</time>
      </trkpt>
      <trkpt lat="46.60591" lon="-1.83491">
        <ele>20</ele>
        <time>2018-03-21T16:04:34Z</time>
      </trkpt>
      <trkpt lat="46.6059" lon="-1.83484">
        <ele>20</ele>
        <time>2018-03-21T16:05:34Z</time>
      </trkpt>
      <trkpt lat="46.60583" lon="-1.83452">
        <ele>20</ele>
        <time>2018-03-21T16:06:34Z</time>
      </trkpt>
      <trkpt lat="46.60575" lon="-1.83408">
        <ele>20</ele>
        <time>2018-03-21T16:07:34Z</time>
      </trkpt>
      <trkpt lat="46.60568" lon="-1.83373">
        <ele>20</ele>
        <time>2018-03-21T16:08:34Z</time>
      </trkpt>
      <trkpt lat="46.60567" lon="-1.83367">
        <ele>20</ele>
        <time>2018-03-21T16:09:34Z</time>
      </trkpt>
      <trkpt lat="46.60564" lon="-1.83348">
        <ele>20</ele>
        <time>2018-03-21T16:10:34Z</time>
      </trkpt>
      <trkpt lat="46.60561" lon="-1.83337">
        <ele>21</ele>
        <time>2018-03-21T16:11:34Z</time>
      </trkpt>
      <trkpt lat="46.60561" lon="-1.83337">
        <ele>21</ele>
        <time>2018-03-21T16:12:34Z</time>
      </trkpt>
      <trkpt lat="46.60553" lon="-1.83325">
        <ele>20</ele>
        <time>2018-03-21T16:13:34Z</time>
      </trkpt>
      <trkpt lat="46.60541" lon="-1.83305">
        <ele>20</ele>
        <time>2018-03-21T16:14:34Z</time>
      </trkpt>
      <trkpt lat="46.60537" lon="-1.83298">
        <ele>19</ele>
        <time>2018-03-21T16:15:34Z</time>
      </trkpt>
      <trkpt lat="46.60534" lon="-1.83295">
        <ele>19</ele>
        <time>2018-03-21T16:16:34Z</time>
      </trkpt>
      <trkpt lat="46.60531" lon="-1.83291">
        <ele>19</ele>
        <time>2018-03-21T16:17:34Z</time>
      </trkpt>
      <trkpt lat="46.60524" lon="-1.83284">
        <ele>19</ele>
        <time>2018-03-21T16:18:34Z</time>
      </trkpt>
      <trkpt lat="46.60516" lon="-1.83278">
        <ele>18</ele>
        <time>2018-03-21T16:19:34Z</time>
      </trkpt>
      <trkpt lat="46.60506" lon="-1.83271">
        <ele>18</ele>
        <time>2018-03-21T16:20:34Z</time>
      </trkpt>
      <trkpt lat="46.60488" lon="-1.83261">
        <ele>17</ele>
        <time>2018-03-21T16:21:34Z</time>
      </trkpt>
      <trkpt lat="46.60463" lon="-1.83245">
        <ele>17</ele>
        <time>2018-03-21T16:22:34Z</time>
      </trkpt>
      <trkpt lat="46.60447" lon="-1.83233">
        <ele>16</ele>
        <time>2018-03-21T16:23:34Z</time>
      </trkpt>
      <trkpt lat="46.60435" lon="-1.83222">
        <ele>16</ele>
        <time>2018-03-21T16:24:34Z</time>
      </trkpt>
      <trkpt lat="46.60429" lon="-1.83214">
        <ele>16</ele>
        <time>2018-03-21T16:25:34Z</time>
      </trkpt>
      <trkpt lat="46.60424" lon="-1.83207">
        <ele>16</ele>
        <time>2018-03-21T16:26:34Z</time>
      </trkpt>
      <trkpt lat="46.60419" lon="-1.83197">
        <ele>16</ele>
        <time>2018-03-21T16:27:34Z</time>
      </trkpt>
      <trkpt lat="46.60413" lon="-1.83185">
        <ele>16</ele>
        <time>2018-03-21T16:28:34Z</time>
      </trkpt>
      <trkpt lat="46.60406" lon="-1.83164">
        <ele>16</ele>
        <time>2018-03-21T16:29:34Z</time>
      </trkpt>
      <trkpt lat="46.60399" lon="-1.8314">
        <ele>16</ele>
        <time>2018-03-21T16:30:34Z</time>
      </trkpt>
      <trkpt lat="46.60394" lon="-1.83125">
        <ele>17</ele>
        <time>2018-03-21T16:31:34Z</time>
      </trkpt>
      <trkpt lat="46.6039" lon="-1.83111">
        <ele>17</ele>
        <time>2018-03-21T16:32:34Z</time>
      </trkpt>
      <trkpt lat="46.60376" lon="-1.8307">
        <ele>18</ele>
        <time>2018-03-21T16:33:34Z</time>
      </trkpt>
      <trkpt lat="46.6037" lon="-1.83056">
        <ele>18</ele>
        <time>2018-03-21T16:34:34Z</time>
      </trkpt>
      <trkpt lat="46.60366" lon="-1.83044">
        <ele>18</ele>
        <time>2018-03-21T16:35:34Z</time>
      </trkpt>
      <trkpt lat="46.60362" lon="-1.83033">
        <ele>19</ele>
        <time>2018-03-21T16:36:34Z</time>
      </trkpt>
      <trkpt lat="46.6036" lon="-1.8302">
        <ele>19</ele>
        <time>2018-03-21T16:37:34Z</time>
      </trkpt>
      <trkpt lat="46.60359" lon="-1.83012">
        <ele>19</ele>
        <time>2018-03-21T16:38:34Z</time>
      </trkpt>
      <trkpt lat="46.60358" lon="-1.83006">
        <ele>19</ele>
        <time>2018-03-21T16:39:34Z</time>
      </trkpt>
      <trkpt lat="46.60358" lon="-1.83006">
        <ele>19</ele>
        <time>2018-03-21T16:40:34Z</time>
      </trkpt>
      <trkpt lat="46.60357" lon="-1.83006">
        <ele>19</ele>
        <time>2018-03-21T16:41:34Z</time>
      </trkpt>
      <trkpt lat="46.60357" lon="-1.83007">
        <ele>19</ele>
        <time>2018-03-21T16:42:34Z</time>
      </trkpt>
      <trkpt lat="46.60356" lon="-1.83007">
        <ele>19</ele>
        <time>2018-03-21T16:43:34Z</time>
      </trkpt>
      <trkpt lat="46.60355" lon="-1.83007">
        <ele>19</ele>
        <time>2018-03-21T16:44:34Z</time>
      </trkpt>
      <trkpt lat="46.60354" lon="-1.83006">
        <ele>19</ele>
        <time>2018-03-21T16:45:34Z</time>
      </trkpt>
      <trkpt lat="46.60353" lon="-1.83006">
        <ele>19</ele>
        <time>2018-03-21T16:46:34Z</time>
      </trkpt>
      <trkpt lat="46.60352" lon="-1.83006">
        <ele>19</ele>
        <time>2018-03-21T16:47:34Z</time>
      </trkpt>
      <trkpt lat="46.60352" lon="-1.83005">
        <ele>19</ele>
        <time>2018-03-21T16:48:34Z</time>
      </trkpt>
      <trkpt lat="46.60351" lon="-1.83005">
        <ele>19</ele>
        <time>2018-03-21T16:49:34Z</time>
      </trkpt>
      <trkpt lat="46.60351" lon="-1.83004">
        <ele>19</ele>
        <time>2018-03-21T16:50:34Z</time>
      </trkpt>
      <trkpt lat="46.6035" lon="-1.83004">
        <ele>19</ele>
        <time>2018-03-21T16:51:34Z</time>
      </trkpt>
      <trkpt lat="46.6035" lon="-1.83003">
        <ele>19</ele>
        <time>2018-03-21T16:52:34Z</time>
      </trkpt>
      <trkpt lat="46.60349" lon="-1.83003">
        <ele>19</ele>
        <time>2018-03-21T16:53:34Z</time>
      </trkpt>
      <trkpt lat="46.60349" lon="-1.83002">
        <ele>19</ele>
        <time>2018-03-21T16:54:34Z</time>
      </trkpt>
      <trkpt lat="46.60344" lon="-1.83001">
        <ele>19</ele>
        <time>2018-03-21T16:55:34Z</time>
      </trkpt>
      <trkpt lat="46.6034" lon="-1.83">
        <ele>19</ele>
        <time>2018-03-21T16:56:34Z</time>
      </trkpt>
      <trkpt lat="46.60335" lon="-1.82998">
        <ele>19</ele>
        <time>2018-03-21T16:57:34Z</time>
      </trkpt>
      <trkpt lat="46.60322" lon="-1.82995">
        <ele>19</ele>
        <time>2018-03-21T16:58:34Z</time>
      </trkpt>
      <trkpt lat="46.60319" lon="-1.82994">
        <ele>19</ele>
        <time>2018-03-21T16:59:34Z</time>
      </trkpt>
      <trkpt lat="46.60312" lon="-1.82994">
        <ele>18</ele>
        <time>2018-03-21T17:00:34Z</time>
      </trkpt>
      <trkpt lat="46.60303" lon="-1.82995">
        <ele>18</ele>
        <time>2018-03-21T17:01:34Z</time>
      </trkpt>
      <trkpt lat="46.6029" lon="-1.82997">
        <ele>18</ele>
        <time>2018-03-21T17:02:34Z</time>
      </trkpt>
      <trkpt lat="46.60268" lon="-1.83001">
        <ele>17</ele>
        <time>2018-03-21T17:03:34Z</time>
      </trkpt>
      <trkpt lat="46.60261" lon="-1.83003">
        <ele>17</ele>
        <time>2018-03-21T17:04:34Z</time>
      </trkpt>
      <trkpt lat="46.60251" lon="-1.83007">
        <ele>17</ele>
        <time>2018-03-21T17:05:34Z</time>
      </trkpt>
      <trkpt lat="46.6024" lon="-1.83014">
        <ele>17</ele>
        <time>2018-03-21T17:06:34Z</time>
      </trkpt>
      <trkpt lat="46.60213" lon="-1.83031">
        <ele>17</ele>
        <time>2018-03-21T17:07:34Z</time>
      </trkpt>
      <trkpt lat="46.60188" lon="-1.83048">
        <ele>17</ele>
        <time>2018-03-21T17:08:34Z</time>
      </trkpt>
      <trkpt lat="46.60164" lon="-1.83065">
        <ele>16</ele>
        <time>2018-03-21T17:09:34Z</time>
      </trkpt>
      <trkpt lat="46.60151" lon="-1.83073">
        <ele>16</ele>
        <time>2018-03-21T17:10:34Z</time>
      </trkpt>
      <trkpt lat="46.60137" lon="-1.83081">
        <ele>15</ele>
        <time>2018-03-21T17:11:34Z</time>
      </trkpt>
      <trkpt lat="46.60123" lon="-1.83087">
        <ele>15</ele>
        <time>2018-03-21T17:12:34Z</time>
      </trkpt>
      <trkpt lat="46.60116" lon="-1.83089">
        <ele>15</ele>
        <time>2018-03-21T17:13:34Z</time>
      </trkpt>
      <trkpt lat="46.60098" lon="-1.83094">
        <ele>14</ele>
        <time>2018-03-21T17:14:34Z</time>
      </trkpt>
      <trkpt lat="46.60078" lon="-1.83094">
        <ele>14</ele>
        <time>2018-03-21T17:15:34Z</time>
      </trkpt>
      <trkpt lat="46.60045" lon="-1.83092">
        <ele>12</ele>
        <time>2018-03-21T17:16:34Z</time>
      </trkpt>
      <trkpt lat="46.60038" lon="-1.83091">
        <ele>12</ele>
        <time>2018-03-21T17:17:34Z</time>
      </trkpt>
      <trkpt lat="46.60027" lon="-1.8309">
        <ele>12</ele>
        <time>2018-03-21T17:18:34Z</time>
      </trkpt>
      <trkpt lat="46.60002" lon="-1.83088">
        <ele>11</ele>
        <time>2018-03-21T17:19:34Z</time>
      </trkpt>
      <trkpt lat="46.59975" lon="-1.83086">
        <ele>10</ele>
        <time>2018-03-21T17:20:34Z</time>
      </trkpt>
      <trkpt lat="46.59961" lon="-1.83087">
        <ele>10</ele>
        <time>2018-03-21T17:21:34Z</time>
      </trkpt>
      <trkpt lat="46.59937" lon="-1.8309">
        <ele>9</ele>
        <time>2018-03-21T17:22:34Z</time>
      </trkpt>
      <trkpt lat="46.59914" lon="-1.83098">
        <ele>9</ele>
        <time>2018-03-21T17:23:34Z</time>
      </trkpt>
      <trkpt lat="46.59891" lon="-1.83106">
        <ele>8</ele>
        <time>2018-03-21T17:24:34Z</time>
      </trkpt>
      <trkpt lat="46.59864" lon="-1.83116">
        <ele>7</ele>
        <time>2018-03-21T17:25:34Z</time>
      </trkpt>
      <trkpt lat="46.59836" lon="-1.83129">
        <ele>6</ele>
        <time>2018-03-21T17:26:34Z</time>
      </trkpt>
      <trkpt lat="46.59806" lon="-1.83144">
        <ele>5</ele>
        <time>2018-03-21T17:27:34Z</time>
      </trkpt>
      <trkpt lat="46.59792" lon="-1.83152">
        <ele>5</ele>
        <time>2018-03-21T17:28:34Z</time>
      </trkpt>
      <trkpt lat="46.59777" lon="-1.83161">
        <ele>5</ele>
        <time>2018-03-21T17:29:34Z</time>
      </trkpt>
      <trkpt lat="46.59774" lon="-1.83162">
        <ele>5</ele>
        <time>2018-03-21T17:30:34Z</time>
      </trkpt>
      <trkpt lat="46.59759" lon="-1.83171">
        <ele>5</ele>
        <time>2018-03-21T17:31:34Z</time>
      </trkpt>
      <trkpt lat="46.59742" lon="-1.83179">
        <ele>5</ele>
        <time>2018-03-21T17:32:34Z</time>
      </trkpt>
      <trkpt lat="46.59733" lon="-1.83185">
        <ele>5</ele>
        <time>2018-03-21T17:33:34Z</time>
      </trkpt>
      <trkpt lat="46.59719" lon="-1.83192">
        <ele>4</ele>
        <time>2018-03-21T17:34:34Z</time>
      </trkpt>
      <trkpt lat="46.59696" lon="-1.83207">
        <ele>4</ele>
        <time>2018-03-21T17:35:34Z</time>
      </trkpt>
      <trkpt lat="46.59667" lon="-1.83226">
        <ele>4</ele>
        <time>2018-03-21T17:36:34Z</time>
      </trkpt>
      <trkpt lat="46.59628" lon="-1.83252">
        <ele>4</ele>
        <time>2018-03-21T17:37:34Z</time>
      </trkpt>
      <trkpt lat="46.59574" lon="-1.83287">
        <ele>4</ele>
        <time>2018-03-21T17:38:34Z</time>
      </trkpt>
      <trkpt lat="46.59573" lon="-1.83288">
        <ele>4</ele>
        <time>2018-03-21T17:39:34Z</time>
      </trkpt>
      <trkpt lat="46.59539" lon="-1.83311">
        <ele>4</ele>
        <time>2018-03-21T17:40:34Z</time>
      </trkpt>
      <trkpt lat="46.59527" lon="-1.83316">
        <ele>3</ele>
        <time>2018-03-21T17:41:34Z</time>
      </trkpt>
      <trkpt lat="46.59525" lon="-1.83318">
        <ele>3</ele>
        <time>2018-03-21T17:42:34Z</time>
      </trkpt>
      <trkpt lat="46.59518" lon="-1.83322">
        <ele>3</ele>
        <time>2018-03-21T17:43:34Z</time>
      </trkpt>
      <trkpt lat="46.59518" lon="-1.83322">
        <ele>3</ele>
        <time>2018-03-21T17:44:34Z</time>
      </trkpt>
      <trkpt lat="46.59489" lon="-1.83342">
        <ele>3</ele>
        <time>2018-03-21T17:45:34Z</time>
      </trkpt>
      <trkpt lat="46.59483" lon="-1.83345">
        <ele>3</ele>
        <time>2018-03-21T17:46:34Z</time>
      </trkpt>
      <trkpt lat="46.59481" lon="-1.83347">
        <ele>2</ele>
        <time>2018-03-21T17:47:34Z</time>
      </trkpt>
      <trkpt lat="46.5946" lon="-1.8336">
        <ele>2</ele>
        <time>2018-03-21T17:48:34Z</time>
      </trkpt>
      <trkpt lat="46.59444" lon="-1.8337">
        <ele>2</ele>
        <time>2018-03-21T17:49:34Z</time>
      </trkpt>
      <trkpt lat="46.59444" lon="-1.83371">
        <ele>2</ele>
        <time>2018-03-21T17:50:34Z</time>
      </trkpt>
      <trkpt lat="46.59439" lon="-1.83374">
        <ele>2</ele>
        <time>2018-03-21T17:51:34Z</time>
      </trkpt>
      <trkpt lat="46.59433" lon="-1.83375">
        <ele>2</ele>
        <time>2018-03-21T17:52:34Z</time>
      </trkpt>
      <trkpt lat="46.59425" lon="-1.83376">
        <ele>2</ele>
        <time>2018-03-21T17:53:34Z</time>
      </trkpt>
      <trkpt lat="46.59415" lon="-1.83374">
        <ele>2</ele>
        <time>2018-03-21T17:54:34Z</time>
      </trkpt>
      <trkpt lat="46.59404" lon="-1.83368">
        <ele>2</ele>
        <time>2018-03-21T17:55:34Z</time>
      </trkpt>
      <trkpt lat="46.59394" lon="-1.83361">
        <ele>2</ele>
        <time>2018-03-21T17:56:34Z</time>
      </trkpt>
      <trkpt lat="46.59382" lon="-1.83355">
        <ele>2</ele>
        <time>2018-03-21T17:57:34Z</time>
      </trkpt>
      <trkpt lat="46.59373" lon="-1.8335">
        <ele>2</ele>
        <time>2018-03-21T17:58:34Z</time>
      </trkpt>
      <trkpt lat="46.59357" lon="-1.83342">
        <ele>2</ele>
        <time>2018-03-21T17:59:34Z</time>
      </trkpt>
      <trkpt lat="46.59343" lon="-1.83336">
        <ele>2</ele>
        <time>2018-03-21T18:00:34Z</time>
      </trkpt>
      <trkpt lat="46.59325" lon="-1.8333">
        <ele>2</ele>
        <time>2018-03-21T18:01:34Z</time>
      </trkpt>
      <trkpt lat="46.59305" lon="-1.83323">
        <ele>2</ele>
        <time>2018-03-21T18:02:34Z</time>
      </trkpt>
      <trkpt lat="46.59287" lon="-1.83319">
        <ele>2</ele>
        <time>2018-03-21T18:03:34Z</time>
      </trkpt>
      <trkpt lat="46.59273" lon="-1.83318">
        <ele>2</ele>
        <time>2018-03-21T18:04:34Z</time>
      </trkpt>
      <trkpt lat="46.5926" lon="-1.83318">
        <ele>2</ele>
        <time>2018-03-21T18:05:34Z</time>
      </trkpt>
      <trkpt lat="46.5925" lon="-1.83319">
        <ele>2</ele>
        <time>2018-03-21T18:06:34Z</time>
      </trkpt>
      <trkpt lat="46.59239" lon="-1.83321">
        <ele>2</ele>
        <time>2018-03-21T18:07:34Z</time>
      </trkpt>
      <trkpt lat="46.59227" lon="-1.83323">
        <ele>2</ele>
        <time>2018-03-21T18:08:34Z</time>
      </trkpt>
      <trkpt lat="46.59218" lon="-1.83322">
        <ele>2</ele>
        <time>2018-03-21T18:09:34Z</time>
      </trkpt>
      <trkpt lat="46.59208" lon="-1.83322">
        <ele>3</ele>
        <time>2018-03-21T18:10:34Z</time>
      </trkpt>
      <trkpt lat="46.592" lon="-1.8332">
        <ele>3</ele>
        <time>2018-03-21T18:11:34Z</time>
      </trkpt>
      <trkpt lat="46.59197" lon="-1.8332">
        <ele>3</ele>
        <time>2018-03-21T18:12:34Z</time>
      </trkpt>
      <trkpt lat="46.59183" lon="-1.83316">
        <ele>3</ele>
        <time>2018-03-21T18:13:34Z</time>
      </trkpt>
      <trkpt lat="46.5918" lon="-1.83315">
        <ele>3</ele>
        <time>2018-03-21T18:14:34Z</time>
      </trkpt>
      <trkpt lat="46.59167" lon="-1.8331">
        <ele>4</ele>
        <time>2018-03-21T18:15:34Z</time>
      </trkpt>
      <trkpt lat="46.59152" lon="-1.83305">
        <ele>4</ele>
        <time>2018-03-21T18:16:34Z</time>
      </trkpt>
      <trkpt lat="46.59104" lon="-1.83289">
        <ele>6</ele>
        <time>2018-03-21T18:17:34Z</time>
      </trkpt>
      <trkpt lat="46.59038" lon="-1.83265">
        <ele>8</ele>
        <time>2018-03-21T18:18:34Z</time>
      </trkpt>
      <trkpt lat="46.59026" lon="-1.83261">
        <ele>9</ele>
        <time>2018-03-21T18:19:34Z</time>
      </trkpt>
      <trkpt lat="46.58982" lon="-1.83247">
        <ele>9</ele>
        <time>2018-03-21T18:20:34Z</time>
      </trkpt>
      <trkpt lat="46.58924" lon="-1.83227">
        <ele>10</ele>
        <time>2018-03-21T18:21:34Z</time>
      </trkpt>
      <trkpt lat="46.58882" lon="-1.83213">
        <ele>10</ele>
        <time>2018-03-21T18:22:34Z</time>
      </trkpt>
      <trkpt lat="46.58877" lon="-1.83211">
        <ele>9</ele>
        <time>2018-03-21T18:23:34Z</time>
      </trkpt>
      <trkpt lat="46.58849" lon="-1.83199">
        <ele>8</ele>
        <time>2018-03-21T18:24:34Z</time>
      </trkpt>
      <trkpt lat="46.58838" lon="-1.83193">
        <ele>8</ele>
        <time>2018-03-21T18:25:34Z</time>
      </trkpt>
      <trkpt lat="46.58829" lon="-1.83184">
        <ele>7</ele>
        <time>2018-03-21T18:26:34Z</time>
      </trkpt>
      <trkpt lat="46.58817" lon="-1.83173">
        <ele>7</ele>
        <time>2018-03-21T18:27:34Z</time>
      </trkpt>
      <trkpt lat="46.58808" lon="-1.83158">
        <ele>7</ele>
        <time>2018-03-21T18:28:34Z</time>
      </trkpt>
      <trkpt lat="46.58802" lon="-1.83149">
        <ele>7</ele>
        <time>2018-03-21T18:29:34Z</time>
      </trkpt>
      <trkpt lat="46.58793" lon="-1.83129">
        <ele>7</ele>
        <time>2018-03-21T18:30:34Z</time>
      </trkpt>
      <trkpt lat="46.58783" lon="-1.83109">
        <ele>6</ele>
        <time>2018-03-21T18:31:34Z</time>
      </trkpt>
      <trkpt lat="46.58772" lon="-1.83083">
        <ele>6</ele>
        <time>2018-03-21T18:32:34Z</time>
      </trkpt>
      <trkpt lat="46.58759" lon="-1.83057">
        <ele>7</ele>
        <time>2018-03-21T18:33:34Z</time>
      </trkpt>
      <trkpt lat="46.58742" lon="-1.83022">
        <ele>8</ele>
        <time>2018-03-21T18:34:34Z</time>
      </trkpt>
      <trkpt lat="46.58725" lon="-1.8299">
        <ele>9</ele>
        <time>2018-03-21T18:35:34Z</time>
      </trkpt>
      <trkpt lat="46.5871" lon="-1.82964">
        <ele>10</ele>
        <time>2018-03-21T18:36:34Z</time>
      </trkpt>
      <trkpt lat="46.58701" lon="-1.8295">
        <ele>11</ele>
        <time>2018-03-21T18:37:34Z</time>
      </trkpt>
      <trkpt lat="46.58694" lon="-1.82943">
        <ele>11</ele>
        <time>2018-03-21T18:38:34Z</time>
      </trkpt>
      <trkpt lat="46.58685" lon="-1.82933">
        <ele>12</ele>
        <time>2018-03-21T18:39:34Z</time>
      </trkpt>
      <trkpt lat="46.5868" lon="-1.82928">
        <ele>12</ele>
        <time>2018-03-21T18:40:34Z</time>
      </trkpt>
      <trkpt lat="46.58673" lon="-1.82918">
        <ele>12</ele>
        <time>2018-03-21T18:41:34Z</time>
      </trkpt>
      <trkpt lat="46.58667" lon="-1.82912">
        <ele>13</ele>
        <time>2018-03-21T18:42:34Z</time>
      </trkpt>
      <trkpt lat="46.58661" lon="-1.82906">
        <ele>13</ele>
        <time>2018-03-21T18:43:34Z</time>
      </trkpt>
      <trkpt lat="46.5865" lon="-1.82895">
        <ele>13</ele>
        <time>2018-03-21T18:44:34Z</time>
      </trkpt>
      <trkpt lat="46.58638" lon="-1.82883">
        <ele>12</ele>
        <time>2018-03-21T18:45:34Z</time>
      </trkpt>
      <trkpt lat="46.58624" lon="-1.8287">
        <ele>12</ele>
        <time>2018-03-21T18:46:34Z</time>
      </trkpt>
      <trkpt lat="46.58597" lon="-1.82858">
        <ele>12</ele>
        <time>2018-03-21T18:47:34Z</time>
      </trkpt>
      <trkpt lat="46.58572" lon="-1.82846">
        <ele>12</ele>
        <time>2018-03-21T18:48:34Z</time>
      </trkpt>
      <trkpt lat="46.58558" lon="-1.82838">
        <ele>12</ele>
        <time>2018-03-21T18:49:34Z</time>
      </trkpt>
      <trkpt lat="46.58558" lon="-1.82838">
        <ele>12</ele>
        <time>2018-03-21T18:50:34Z</time>
      </trkpt>
      <trkpt lat="46.58541" lon="-1.82827">
        <ele>11</ele>
        <time>2018-03-21T18:51:34Z</time>
      </trkpt>
      <trkpt lat="46.58531" lon="-1.82818">
        <ele>11</ele>
        <time>2018-03-21T18:52:34Z</time>
      </trkpt>
      <trkpt lat="46.58514" lon="-1.82801">
        <ele>10</ele>
        <time>2018-03-21T18:53:34Z</time>
      </trkpt>
      <trkpt lat="46.58497" lon="-1.82781">
        <ele>9</ele>
        <time>2018-03-21T18:54:34Z</time>
      </trkpt>
      <trkpt lat="46.58479" lon="-1.8276">
        <ele>8</ele>
        <time>2018-03-21T18:55:34Z</time>
      </trkpt>
      <trkpt lat="46.58472" lon="-1.82752">
        <ele>7</ele>
        <time>2018-03-21T18:56:34Z</time>
      </trkpt>
      <trkpt lat="46.58468" lon="-1.82747">
        <ele>7</ele>
        <time>2018-03-21T18:57:34Z</time>
      </trkpt>
      <trkpt lat="46.58452" lon="-1.82728">
        <ele>7</ele>
        <time>2018-03-21T18:58:34Z</time>
      </trkpt>
      <trkpt lat="46.58434" lon="-1.82707">
        <ele>6</ele>
        <time>2018-03-21T18:59:34Z</time>
      </trkpt>
      <trkpt lat="46.58412" lon="-1.82682">
        <ele>6</ele>
        <time>2018-03-21T19:00:34Z</time>
      </trkpt>
      <trkpt lat="46.58409" lon="-1.82678">
        <ele>6</ele>
        <time>2018-03-21T19:01:34Z</time>
      </trkpt>
      <trkpt lat="46.584" lon="-1.8267">
        <ele>6</ele>
        <time>2018-03-21T19:02:34Z</time>
      </trkpt>
      <trkpt lat="46.58393" lon="-1.8266">
        <ele>6</ele>
        <time>2018-03-21T19:03:34Z</time>
      </trkpt>
      <trkpt lat="46.58374" lon="-1.82637">
        <ele>7</ele>
        <time>2018-03-21T19:04:34Z</time>
      </trkpt>
      <trkpt lat="46.58352" lon="-1.82614">
        <ele>7</ele>
        <time>2018-03-21T19:05:34Z</time>
      </trkpt>
      <trkpt lat="46.58323" lon="-1.82579">
        <ele>8</ele>
        <time>2018-03-21T19:06:34Z</time>
      </trkpt>
      <trkpt lat="46.5829" lon="-1.82541">
        <ele>8</ele>
        <time>2018-03-21T19:07:34Z</time>
      </trkpt>
      <trkpt lat="46.58249" lon="-1.82493">
        <ele>9</ele>
        <time>2018-03-21T19:08:34Z</time>
      </trkpt>
      <trkpt lat="46.58232" lon="-1.82473">
        <ele>9</ele>
        <time>2018-03-21T19:09:34Z</time>
      </trkpt>
      <trkpt lat="46.58206" lon="-1.82442">
        <ele>10</ele>
        <time>2018-03-21T19:10:34Z</time>
      </trkpt>
      <trkpt lat="46.58189" lon="-1.82426">
        <ele>11</ele>
        <time>2018-03-21T19:11:34Z</time>
      </trkpt>
      <trkpt lat="46.58176" lon="-1.82414">
        <ele>11</ele>
        <time>2018-03-21T19:12:34Z</time>
      </trkpt>
      <trkpt lat="46.58164" lon="-1.82406">
        <ele>12</ele>
        <time>2018-03-21T19:13:34Z</time>
      </trkpt>
      <trkpt lat="46.58154" lon="-1.824">
        <ele>12</ele>
        <time>2018-03-21T19:14:34Z</time>
      </trkpt>
      <trkpt lat="46.58144" lon="-1.82394">
        <ele>12</ele>
        <time>2018-03-21T19:15:34Z</time>
      </trkpt>
      <trkpt lat="46.5813" lon="-1.8239">
        <ele>12</ele>
        <time>2018-03-21T19:16:34Z</time>
      </trkpt>
      <trkpt lat="46.58114" lon="-1.82384">
        <ele>12</ele>
        <time>2018-03-21T19:17:34Z</time>
      </trkpt>
      <trkpt lat="46.58096" lon="-1.82377">
        <ele>12</ele>
        <time>2018-03-21T19:18:34Z</time>
      </trkpt>
      <trkpt lat="46.58066" lon="-1.82367">
        <ele>11</ele>
        <time>2018-03-21T19:19:34Z</time>
      </trkpt>
      <trkpt lat="46.58021" lon="-1.82352">
        <ele>10</ele>
        <time>2018-03-21T19:20:34Z</time>
      </trkpt>
      <trkpt lat="46.57969" lon="-1.82334">
        <ele>10</ele>
        <time>2018-03-21T19:21:34Z</time>
      </trkpt>
      <trkpt lat="46.57932" lon="-1.82322">
        <ele>11</ele>
        <time>2018-03-21T19:22:34Z</time>
      </trkpt>
      <trkpt lat="46.57913" lon="-1.82317">
        <ele>11</ele>
        <time>2018-03-21T19:23:34Z</time>
      </trkpt>
      <trkpt lat="46.57889" lon="-1.82311">
        <ele>11</ele>
        <time>2018-03-21T19:24:34Z</time>
      </trkpt>
      <trkpt lat="46.57868" lon="-1.82304">
        <ele>11</ele>
        <time>2018-03-21T19:25:34Z</time>
      </trkpt>
      <trkpt lat="46.57846" lon="-1.82299">
        <ele>10</ele>
        <time>2018-03-21T19:26:34Z</time>
      </trkpt>
      <trkpt lat="46.57825" lon="-1.82295">
        <ele>10</ele>
        <time>2018-03-21T19:27:34Z</time>
      </trkpt>
      <trkpt lat="46.57807" lon="-1.82293">
        <ele>10</ele>
        <time>2018-03-21T19:28:34Z</time>
      </trkpt>
      <trkpt lat="46.57793" lon="-1.82291">
        <ele>10</ele>
        <time>2018-03-21T19:29:34Z</time>
      </trkpt>
      <trkpt lat="46.57776" lon="-1.8229">
        <ele>10</ele>
        <time>2018-03-21T19:30:34Z</time>
      </trkpt>
      <trkpt lat="46.57752" lon="-1.8229">
        <ele>10</ele>
        <time>2018-03-21T19:31:34Z</time>
      </trkpt>
      <trkpt lat="46.57736" lon="-1.8229">
        <ele>10</ele>
        <time>2018-03-21T19:32:34Z</time>
      </trkpt>
      <trkpt lat="46.57726" lon="-1.82291">
        <ele>10</ele>
        <time>2018-03-21T19:33:34Z</time>
      </trkpt>
      <trkpt lat="46.57687" lon="-1.82294">
        <ele>11</ele>
        <time>2018-03-21T19:34:34Z</time>
      </trkpt>
      <trkpt lat="46.57636" lon="-1.82299">
        <ele>12</ele>
        <time>2018-03-21T19:35:34Z</time>
      </trkpt>
      <trkpt lat="46.57631" lon="-1.823">
        <ele>12</ele>
        <time>2018-03-21T19:36:34Z</time>
      </trkpt>
      <trkpt lat="46.5763" lon="-1.823">
        <ele>12</ele>
        <time>2018-03-21T19:37:34Z</time>
      </trkpt>
      <trkpt lat="46.57625" lon="-1.82301">
        <ele>12</ele>
        <time>2018-03-21T19:38:34Z</time>
      </trkpt>
      <trkpt lat="46.57618" lon="-1.82301">
        <ele>12</ele>
        <time>2018-03-21T19:39:34Z</time>
      </trkpt>
      <trkpt lat="46.57582" lon="-1.82304">
        <ele>13</ele>
        <time>2018-03-21T19:40:34Z</time>
      </trkpt>
      <trkpt lat="46.5756" lon="-1.82306">
        <ele>13</ele>
        <time>2018-03-21T19:41:34Z</time>
      </trkpt>
      <trkpt lat="46.57491" lon="-1.82313">
        <ele>13</ele>
        <time>2018-03-21T19:42:34Z</time>
      </trkpt>
      <trkpt lat="46.57416" lon="-1.8232">
        <ele>13</ele>
        <time>2018-03-21T19:43:34Z</time>
      </trkpt>
      <trkpt lat="46.57385" lon="-1.82323">
        <ele>13</ele>
        <time>2018-03-21T19:44:34Z</time>
      </trkpt>
      <trkpt lat="46.57364" lon="-1.82325">
        <ele>13</ele>
        <time>2018-03-21T19:45:34Z</time>
      </trkpt>
      <trkpt lat="46.57347" lon="-1.82326">
        <ele>13</ele>
        <time>2018-03-21T19:46:34Z</time>
      </trkpt>
      <trkpt lat="46.5733" lon="-1.82327">
        <ele>13</ele>
        <time>2018-03-21T19:47:34Z</time>
      </trkpt>
      <trkpt lat="46.57315" lon="-1.82327">
        <ele>13</ele>
        <time>2018-03-21T19:48:34Z</time>
      </trkpt>
      <trkpt lat="46.57301" lon="-1.82325">
        <ele>12</ele>
        <time>2018-03-21T19:49:34Z</time>
      </trkpt>
      <trkpt lat="46.57284" lon="-1.82322">
        <ele>12</ele>
        <time>2018-03-21T19:50:34Z</time>
      </trkpt>
      <trkpt lat="46.5727" lon="-1.82318">
        <ele>12</ele>
        <time>2018-03-21T19:51:34Z</time>
      </trkpt>
      <trkpt lat="46.57256" lon="-1.82312">
        <ele>12</ele>
        <time>2018-03-21T19:52:34Z</time>
      </trkpt>
      <trkpt lat="46.57254" lon="-1.82311">
        <ele>12</ele>
        <time>2018-03-21T19:53:34Z</time>
      </trkpt>
      <trkpt lat="46.57242" lon="-1.82306">
        <ele>12</ele>
        <time>2018-03-21T19:54:34Z</time>
      </trkpt>
      <trkpt lat="46.57224" lon="-1.82297">
        <ele>12</ele>
        <time>2018-03-21T19:55:34Z</time>
      </trkpt>
      <trkpt lat="46.57207" lon="-1.82284">
        <ele>12</ele>
        <time>2018-03-21T19:56:34Z</time>
      </trkpt>
      <trkpt lat="46.57182" lon="-1.82265">
        <ele>12</ele>
        <time>2018-03-21T19:57:34Z</time>
      </trkpt>
      <trkpt lat="46.57167" lon="-1.82252">
        <ele>12</ele>
        <time>2018-03-21T19:58:34Z</time>
      </trkpt>
      <trkpt lat="46.57145" lon="-1.82234">
        <ele>12</ele>
        <time>2018-03-21T19:59:34Z</time>
      </trkpt>
      <trkpt lat="46.57145" lon="-1.82234">
        <ele>12</ele>
        <time>2018-03-21T20:00:34Z</time>
      </trkpt>
      <trkpt lat="46.57116" lon="-1.82209">
        <ele>11</ele>
        <time>2018-03-21T20:01:34Z</time>
      </trkpt>
      <trkpt lat="46.57081" lon="-1.82179">
        <ele>9</ele>
        <time>2018-03-21T20:02:34Z</time>
      </trkpt>
      <trkpt lat="46.57032" lon="-1.82138">
        <ele>10</ele>
        <time>2018-03-21T20:03:34Z</time>
      </trkpt>
      <trkpt lat="46.5701" lon="-1.82118">
        <ele>10</ele>
        <time>2018-03-21T20:04:34Z</time>
      </trkpt>
      <trkpt lat="46.56995" lon="-1.82105">
        <ele>10</ele>
        <time>2018-03-21T20:05:34Z</time>
      </trkpt>
      <trkpt lat="46.56918" lon="-1.82046">
        <ele>12</ele>
        <time>2018-03-21T20:06:34Z</time>
      </trkpt>
      <trkpt lat="46.56833" lon="-1.81994">
        <ele>13</ele>
        <time>2018-03-21T20:07:34Z</time>
      </trkpt>
      <trkpt lat="46.5681" lon="-1.81976">
        <ele>12</ele>
        <time>2018-03-21T20:08:34Z</time>
      </trkpt>
      <trkpt lat="46.56783" lon="-1.81952">
        <ele>11</ele>
        <time>2018-03-21T20:09:34Z</time>
      </trkpt>
      <trkpt lat="46.56761" lon="-1.81932">
        <ele>11</ele>
        <time>2018-03-21T20:10:34Z</time>
      </trkpt>
      <trkpt lat="46.56741" lon="-1.81914">
        <ele>12</ele>
        <time>2018-03-21T20:11:34Z</time>
      </trkpt>
      <trkpt lat="46.56685" lon="-1.81861">
        <ele>15</ele>
        <time>2018-03-21T20:12:34Z</time>
      </trkpt>
      <trkpt lat="46.56651" lon="-1.8183">
        <ele>16</ele>
        <time>2018-03-21T20:13:34Z</time>
      </trkpt>
      <trkpt lat="46.5663" lon="-1.8181">
        <ele>16</ele>
        <time>2018-03-21T20:14:34Z</time>
      </trkpt>
      <trkpt lat="46.5658" lon="-1.8176">
        <ele>13</ele>
        <time>2018-03-21T20:15:34Z</time>
      </trkpt>
      <trkpt lat="46.56516" lon="-1.81693">
        <ele>14</ele>
        <time>2018-03-21T20:16:34Z</time>
      </trkpt>
      <trkpt lat="46.56475" lon="-1.8165">
        <ele>13</ele>
        <time>2018-03-21T20:17:34Z</time>
      </trkpt>
      <trkpt lat="46.56457" lon="-1.81632">
        <ele>13</ele>
        <time>2018-03-21T20:18:34Z</time>
      </trkpt>
      <trkpt lat="46.56436" lon="-1.81612">
        <ele>13</ele>
        <time>2018-03-21T20:19:34Z</time>
      </trkpt>
      <trkpt lat="46.56421" lon="-1.81598">
        <ele>13</ele>
        <time>2018-03-21T20:20:34Z</time>
      </trkpt>
      <trkpt lat="46.56384" lon="-1.8156">
        <ele>14</ele>
        <time>2018-03-21T20:21:34Z</time>
      </trkpt>
      <trkpt lat="46.56339" lon="-1.81516">
        <ele>14</ele>
        <time>2018-03-21T20:22:34Z</time>
      </trkpt>
      <trkpt lat="46.56287" lon="-1.81463">
        <ele>17</ele>
        <time>2018-03-21T20:23:34Z</time>
      </trkpt>
      <trkpt lat="46.56276" lon="-1.8145">
        <ele>17</ele>
        <time>2018-03-21T20:24:34Z</time>
      </trkpt>
      <trkpt lat="46.56267" lon="-1.81441">
        <ele>18</ele>
        <time>2018-03-21T20:25:34Z</time>
      </trkpt>
      <trkpt lat="46.56258" lon="-1.81431">
        <ele>18</ele>
        <time>2018-03-21T20:26:34Z</time>
      </trkpt>
      <trkpt lat="46.56247" lon="-1.81417">
        <ele>18</ele>
        <time>2018-03-21T20:27:34Z</time>
      </trkpt>
      <trkpt lat="46.56238" lon="-1.81405">
        <ele>19</ele>
        <time>2018-03-21T20:28:34Z</time>
      </trkpt>
      <trkpt lat="46.56228" lon="-1.81392">
        <ele>19</ele>
        <time>2018-03-21T20:29:34Z</time>
      </trkpt>
      <trkpt lat="46.56218" lon="-1.81378">
        <ele>19</ele>
        <time>2018-03-21T20:30:34Z</time>
      </trkpt>
      <trkpt lat="46.56197" lon="-1.8135">
        <ele>20</ele>
        <time>2018-03-21T20:31:34Z</time>
      </trkpt>
      <trkpt lat="46.56163" lon="-1.81304">
        <ele>20</ele>
        <time>2018-03-21T20:32:34Z</time>
      </trkpt>
      <trkpt lat="46.56142" lon="-1.81277">
        <ele>19</ele>
        <time>2018-03-21T20:33:34Z</time>
      </trkpt>
      <trkpt lat="46.56073" lon="-1.81192">
        <ele>14</ele>
        <time>2018-03-21T20:34:34Z</time>
      </trkpt>
      <trkpt lat="46.56052" lon="-1.81165">
        <ele>14</ele>
        <time>2018-03-21T20:35:34Z</time>
      </trkpt>
      <trkpt lat="46.55959" lon="-1.81063">
        <ele>13</ele>
        <time>2018-03-21T20:36:34Z</time>
      </trkpt>
      <trkpt lat="46.55932" lon="-1.81034">
        <ele>12</ele>
        <time>2018-03-21T20:37:34Z</time>
      </trkpt>
      <trkpt lat="46.55915" lon="-1.81015">
        <ele>11</ele>
        <time>2018-03-21T20:38:34Z</time>
      </trkpt>
      <trkpt lat="46.55903" lon="-1.81003">
        <ele>11</ele>
        <time>2018-03-21T20:39:34Z</time>
      </trkpt>
      <trkpt lat="46.55898" lon="-1.80999">
        <ele>10</ele>
        <time>2018-03-21T20:40:34Z</time>
      </trkpt>
      <trkpt lat="46.55891" lon="-1.80997">
        <ele>10</ele>
        <time>2018-03-21T20:41:34Z</time>
      </trkpt>
      <trkpt lat="46.55883" lon="-1.80996">
        <ele>11</ele>
        <time>2018-03-21T20:42:34Z</time>
      </trkpt>
      <trkpt lat="46.55875" lon="-1.80995">
        <ele>11</ele>
        <time>2018-03-21T20:43:34Z</time>
      </trkpt>
      <trkpt lat="46.55868" lon="-1.80996">
        <ele>11</ele>
        <time>2018-03-21T20:44:34Z</time>
      </trkpt>
      <trkpt lat="46.5586" lon="-1.80999">
        <ele>11</ele>
        <time>2018-03-21T20:45:34Z</time>
      </trkpt>
      <trkpt lat="46.55853" lon="-1.81002">
        <ele>12</ele>
        <time>2018-03-21T20:46:34Z</time>
      </trkpt>
      <trkpt lat="46.55847" lon="-1.81005">
        <ele>12</ele>
        <time>2018-03-21T20:47:34Z</time>
      </trkpt>
      <trkpt lat="46.55842" lon="-1.81011">
        <ele>12</ele>
        <time>2018-03-21T20:48:34Z</time>
      </trkpt>
      <trkpt lat="46.55826" lon="-1.81029">
        <ele>12</ele>
        <time>2018-03-21T20:49:34Z</time>
      </trkpt>
      <trkpt lat="46.55803" lon="-1.81067">
        <ele>13</ele>
        <time>2018-03-21T20:50:34Z</time>
      </trkpt>
      <trkpt lat="46.55785" lon="-1.81096">
        <ele>13</ele>
        <time>2018-03-21T20:51:34Z</time>
      </trkpt>
      <trkpt lat="46.55767" lon="-1.81124">
        <ele>13</ele>
        <time>2018-03-21T20:52:34Z</time>
      </trkpt>
      <trkpt lat="46.55762" lon="-1.81132">
        <ele>13</ele>
        <time>2018-03-21T20:53:34Z</time>
      </trkpt>
      <trkpt lat="46.55757" lon="-1.81139">
        <ele>13</ele>
        <time>2018-03-21T20:54:34Z</time>
      </trkpt>
      <trkpt lat="46.55751" lon="-1.81145">
        <ele>13</ele>
        <time>2018-03-21T20:55:34Z</time>
      </trkpt>
      <trkpt lat="46.55746" lon="-1.8115">
        <ele>12</ele>
        <time>2018-03-21T20:56:34Z</time>
      </trkpt>
      <trkpt lat="46.55742" lon="-1.81153">
        <ele>12</ele>
        <time>2018-03-21T20:57:34Z</time>
      </trkpt>
      <trkpt lat="46.55738" lon="-1.81155">
        <ele>12</ele>
        <time>2018-03-21T20:58:34Z</time>
      </trkpt>
      <trkpt lat="46.55734" lon="-1.81156">
        <ele>12</ele>
        <time>2018-03-21T20:59:34Z</time>
      </trkpt>
      <trkpt lat="46.55731" lon="-1.81156">
        <ele>12</ele>
        <time>2018-03-21T21:00:34Z</time>
      </trkpt>
      <trkpt lat="46.55727" lon="-1.81156">
        <ele>12</ele>
        <time>2018-03-21T21:01:34Z</time>
      </trkpt>
      <trkpt lat="46.55722" lon="-1.81154">
        <ele>12</ele>
        <time>2018-03-21T21:02:34Z</time>
      </trkpt>
      <trkpt lat="46.55707" lon="-1.81147">
        <ele>11</ele>
        <time>2018-03-21T21:03:34Z</time>
      </trkpt>
      <trkpt lat="46.55688" lon="-1.81138">
        <ele>10</ele>
        <time>2018-03-21T21:04:34Z</time>
      </trkpt>
      <trkpt lat="46.55684" lon="-1.81138">
        <ele>10</ele>
        <time>2018-03-21T21:05:34Z</time>
      </trkpt>
      <trkpt lat="46.55681" lon="-1.81138">
        <ele>10</ele>
        <time>2018-03-21T21:06:34Z</time>
      </trkpt>
      <trkpt lat="46.55674" lon="-1.81135">
        <ele>10</ele>
        <time>2018-03-21T21:07:34Z</time>
      </trkpt>
      <trkpt lat="46.55664" lon="-1.81131">
        <ele>9</ele>
        <time>2018-03-21T21:08:34Z</time>
      </trkpt>
      <trkpt lat="46.55659" lon="-1.81129">
        <ele>9</ele>
        <time>2018-03-21T21:09:34Z</time>
      </trkpt>
      <trkpt lat="46.5565" lon="-1.81125">
        <ele>8</ele>
        <time>2018-03-21T21:10:34Z</time>
      </trkpt>
      <trkpt lat="46.55635" lon="-1.81118">
        <ele>8</ele>
        <time>2018-03-21T21:11:34Z</time>
      </trkpt>
      <trkpt lat="46.55633" lon="-1.81118">
        <ele>7</ele>
        <time>2018-03-21T21:12:34Z</time>
      </trkpt>
      <trkpt lat="46.55606" lon="-1.81104">
        <ele>6</ele>
        <time>2018-03-21T21:13:34Z</time>
      </trkpt>
      <trkpt lat="46.55596" lon="-1.811">
        <ele>6</ele>
        <time>2018-03-21T21:14:34Z</time>
      </trkpt>
      <trkpt lat="46.55589" lon="-1.81095">
        <ele>5</ele>
        <time>2018-03-21T21:15:34Z</time>
      </trkpt>
      <trkpt lat="46.55573" lon="-1.81088">
        <ele>5</ele>
        <time>2018-03-21T21:16:34Z</time>
      </trkpt>
      <trkpt lat="46.55543" lon="-1.81075">
        <ele>6</ele>
        <time>2018-03-21T21:17:34Z</time>
      </trkpt>
      <trkpt lat="46.55527" lon="-1.81068">
        <ele>6</ele>
        <time>2018-03-21T21:18:34Z</time>
      </trkpt>
      <trkpt lat="46.55515" lon="-1.81062">
        <ele>6</ele>
        <time>2018-03-21T21:19:34Z</time>
      </trkpt>
      <trkpt lat="46.55496" lon="-1.81054">
        <ele>6</ele>
        <time>2018-03-21T21:20:34Z</time>
      </trkpt>
      <trkpt lat="46.55474" lon="-1.81043">
        <ele>6</ele>
        <time>2018-03-21T21:21:34Z</time>
      </trkpt>
      <trkpt lat="46.55467" lon="-1.81039">
        <ele>6</ele>
        <time>2018-03-21T21:22:34Z</time>
      </trkpt>
      <trkpt lat="46.55459" lon="-1.81033">
        <ele>6</ele>
        <time>2018-03-21T21:23:34Z</time>
      </trkpt>
      <trkpt lat="46.55452" lon="-1.81026">
        <ele>6</ele>
        <time>2018-03-21T21:24:34Z</time>
      </trkpt>
      <trkpt lat="46.55441" lon="-1.81013">
        <ele>6</ele>
        <time>2018-03-21T21:25:34Z</time>
      </trkpt>
      <trkpt lat="46.55434" lon="-1.81003">
        <ele>6</ele>
        <time>2018-03-21T21:26:34Z</time>
      </trkpt>
      <trkpt lat="46.55432" lon="-1.80998">
        <ele>6</ele>
        <time>2018-03-21T21:27:34Z</time>
      </trkpt>
      <trkpt lat="46.55428" lon="-1.80992">
        <ele>6</ele>
        <time>2018-03-21T21:28:34Z</time>
      </trkpt>
      <trkpt lat="46.55425" lon="-1.80985">
        <ele>6</ele>
        <time>2018-03-21T21:29:34Z</time>
      </trkpt>
      <trkpt lat="46.5542" lon="-1.80974">
        <ele>6</ele>
        <time>2018-03-21T21:30:34Z</time>
      </trkpt>
      <trkpt lat="46.55416" lon="-1.80962">
        <ele>6</ele>
        <time>2018-03-21T21:31:34Z</time>
      </trkpt>
      <trkpt lat="46.5541" lon="-1.80942">
        <ele>5</ele>
        <time>2018-03-21T21:32:34Z</time>
      </trkpt>
      <trkpt lat="46.55404" lon="-1.80923">
        <ele>5</ele>
        <time>2018-03-21T21:33:34Z</time>
      </trkpt>
      <trkpt lat="46.554" lon="-1.80911">
        <ele>5</ele>
        <time>2018-03-21T21:34:34Z</time>
      </trkpt>
      <trkpt lat="46.55399" lon="-1.80908">
        <ele>5</ele>
        <time>2018-03-21T21:35:34Z</time>
      </trkpt>
      <trkpt lat="46.5539" lon="-1.80885">
        <ele>5</ele>
        <time>2018-03-21T21:36:34Z</time>
      </trkpt>
      <trkpt lat="46.55387" lon="-1.80877">
        <ele>5</ele>
        <time>2018-03-21T21:37:34Z</time>
      </trkpt>
      <trkpt lat="46.55382" lon="-1.80865">
        <ele>5</ele>
        <time>2018-03-21T21:38:34Z</time>
      </trkpt>
      <trkpt lat="46.55376" lon="-1.80853">
        <ele>5</ele>
        <time>2018-03-21T21:39:34Z</time>
      </trkpt>
      <trkpt lat="46.55371" lon="-1.80844">
        <ele>4</ele>
        <time>2018-03-21T21:40:34Z</time>
      </trkpt>
      <trkpt lat="46.55362" lon="-1.80828">
        <ele>4</ele>
        <time>2018-03-21T21:41:34Z</time>
      </trkpt>
      <trkpt lat="46.55352" lon="-1.80813">
        <ele>4</ele>
        <time>2018-03-21T21:42:34Z</time>
      </trkpt>
      <trkpt lat="46.55338" lon="-1.80794">
        <ele>5</ele>
        <time>2018-03-21T21:43:34Z</time>
      </trkpt>
      <trkpt lat="46.55335" lon="-1.80791">
        <ele>5</ele>
        <time>2018-03-21T21:44:34Z</time>
      </trkpt>
      <trkpt lat="46.55326" lon="-1.8078">
        <ele>5</ele>
        <time>2018-03-21T21:45:34Z</time>
      </trkpt>
      <trkpt lat="46.55317" lon="-1.80771">
        <ele>5</ele>
        <time>2018-03-21T21:46:34Z</time>
      </trkpt>
      <trkpt lat="46.55307" lon="-1.8076">
        <ele>5</ele>
        <time>2018-03-21T21:47:34Z</time>
      </trkpt>
      <trkpt lat="46.55285" lon="-1.80738">
        <ele>4</ele>
        <time>2018-03-21T21:48:34Z</time>
      </trkpt>
      <trkpt lat="46.55267" lon="-1.80721">
        <ele>4</ele>
        <time>2018-03-21T21:49:34Z</time>
      </trkpt>
      <trkpt lat="46.55245" lon="-1.807">
        <ele>4</ele>
        <time>2018-03-21T21:50:34Z</time>
      </trkpt>
      <trkpt lat="46.55232" lon="-1.80688">
        <ele>4</ele>
        <time>2018-03-21T21:51:34Z</time>
      </trkpt>
      <trkpt lat="46.55219" lon="-1.80677">
        <ele>4</ele>
        <time>2018-03-21T21:52:34Z</time>
      </trkpt>
      <trkpt lat="46.55209" lon="-1.80669">
        <ele>4</ele>
        <time>2018-03-21T21:53:34Z</time>
      </trkpt>
      <trkpt lat="46.55201" lon="-1.80664">
        <ele>4</ele>
        <time>2018-03-21T21:54:34Z</time>
      </trkpt>
      <trkpt lat="46.55194" lon="-1.8066">
        <ele>4</ele>
        <time>2018-03-21T21:55:34Z</time>
      </trkpt>
      <trkpt lat="46.55187" lon="-1.80657">
        <ele>4</ele>
        <time>2018-03-21T21:56:34Z</time>
      </trkpt>
      <trkpt lat="46.55178" lon="-1.80654">
        <ele>4</ele>
        <time>2018-03-21T21:57:34Z</time>
      </trkpt>
      <trkpt lat="46.55169" lon="-1.80651">
        <ele>4</ele>
        <time>2018-03-21T21:58:34Z</time>
      </trkpt>
      <trkpt lat="46.55158" lon="-1.80647">
        <ele>5</ele>
        <time>2018-03-21T21:59:34Z</time>
      </trkpt>
      <trkpt lat="46.55152" lon="-1.80647">
        <ele>5</ele>
        <time>2018-03-21T22:00:34Z</time>
      </trkpt>
      <trkpt lat="46.55134" lon="-1.80645">
        <ele>5</ele>
        <time>2018-03-21T22:01:34Z</time>
      </trkpt>
      <trkpt lat="46.55123" lon="-1.80644">
        <ele>5</ele>
        <time>2018-03-21T22:02:34Z</time>
      </trkpt>
      <trkpt lat="46.55112" lon="-1.80644">
        <ele>5</ele>
        <time>2018-03-21T22:03:34Z</time>
      </trkpt>
      <trkpt lat="46.55096" lon="-1.80645">
        <ele>5</ele>
        <time>2018-03-21T22:04:34Z</time>
      </trkpt>
      <trkpt lat="46.55073" lon="-1.80649">
        <ele>5</ele>
        <time>2018-03-21T22:05:34Z</time>
      </trkpt>
      <trkpt lat="46.55071" lon="-1.8065">
        <ele>5</ele>
        <time>2018-03-21T22:06:34Z</time>
      </trkpt>
      <trkpt lat="46.55051" lon="-1.80654">
        <ele>6</ele>
        <time>2018-03-21T22:07:34Z</time>
      </trkpt>
      <trkpt lat="46.55037" lon="-1.80656">
        <ele>6</ele>
        <time>2018-03-21T22:08:34Z</time>
      </trkpt>
      <trkpt lat="46.55019" lon="-1.80656">
        <ele>6</ele>
        <time>2018-03-21T22:09:34Z</time>
      </trkpt>
      <trkpt lat="46.55003" lon="-1.80656">
        <ele>6</ele>
        <time>2018-03-21T22:10:34Z</time>
      </trkpt>
      <trkpt lat="46.54987" lon="-1.80654">
        <ele>6</ele>
        <time>2018-03-21T22:11:34Z</time>
      </trkpt>
      <trkpt lat="46.54974" lon="-1.80651">
        <ele>6</ele>
        <time>2018-03-21T22:12:34Z</time>
      </trkpt>
      <trkpt lat="46.54957" lon="-1.80644">
        <ele>6</ele>
        <time>2018-03-21T22:13:34Z</time>
      </trkpt>
      <trkpt lat="46.54946" lon="-1.80638">
        <ele>6</ele>
        <time>2018-03-21T22:14:34Z</time>
      </trkpt>
      <trkpt lat="46.54939" lon="-1.80635">
        <ele>6</ele>
        <time>2018-03-21T22:15:34Z</time>
      </trkpt>
      <trkpt lat="46.54931" lon="-1.80631">
        <ele>6</ele>
        <time>2018-03-21T22:16:34Z</time>
      </trkpt>
      <trkpt lat="46.54913" lon="-1.80622">
        <ele>6</ele>
        <time>2018-03-21T22:17:34Z</time>
      </trkpt>
      <trkpt lat="46.54903" lon="-1.80616">
        <ele>6</ele>
        <time>2018-03-21T22:18:34Z</time>
      </trkpt>
      <trkpt lat="46.54887" lon="-1.80604">
        <ele>5</ele>
        <time>2018-03-21T22:19:34Z</time>
      </trkpt>
      <trkpt lat="46.54886" lon="-1.80603">
        <ele>5</ele>
        <time>2018-03-21T22:20:34Z</time>
      </trkpt>
      <trkpt lat="46.54865" lon="-1.80585">
        <ele>5</ele>
        <time>2018-03-21T22:21:34Z</time>
      </trkpt>
      <trkpt lat="46.54847" lon="-1.80572">
        <ele>5</ele>
        <time>2018-03-21T22:22:34Z</time>
      </trkpt>
      <trkpt lat="46.54828" lon="-1.80554">
        <ele>5</ele>
        <time>2018-03-21T22:23:34Z</time>
      </trkpt>
      <trkpt lat="46.54812" lon="-1.80541">
        <ele>6</ele>
        <time>2018-03-21T22:24:34Z</time>
      </trkpt>
      <trkpt lat="46.54798" lon="-1.80528">
        <ele>6</ele>
        <time>2018-03-21T22:25:34Z</time>
      </trkpt>
      <trkpt lat="46.54786" lon="-1.80518">
        <ele>5</ele>
        <time>2018-03-21T22:26:34Z</time>
      </trkpt>
      <trkpt lat="46.54767" lon="-1.80503">
        <ele>5</ele>
        <time>2018-03-21T22:27:34Z</time>
      </trkpt>
      <trkpt lat="46.54754" lon="-1.80493">
        <ele>5</ele>
        <time>2018-03-21T22:28:34Z</time>
      </trkpt>
      <trkpt lat="46.54748" lon="-1.80489">
        <ele>5</ele>
        <time>2018-03-21T22:29:34Z</time>
      </trkpt>
      <trkpt lat="46.54722" lon="-1.8047">
        <ele>6</ele>
        <time>2018-03-21T22:30:34Z</time>
      </trkpt>
      <trkpt lat="46.54718" lon="-1.80469">
        <ele>6</ele>
        <time>2018-03-21T22:31:34Z</time>
      </trkpt>
      <trkpt lat="46.54716" lon="-1.80468">
        <ele>6</ele>
        <time>2018-03-21T22:32:34Z</time>
      </trkpt>
      <trkpt lat="46.54707" lon="-1.80463">
        <ele>6</ele>
        <time>2018-03-21T22:33:34Z</time>
      </trkpt>
      <trkpt lat="46.54696" lon="-1.80457">
        <ele>6</ele>
        <time>2018-03-21T22:34:34Z</time>
      </trkpt>
      <trkpt lat="46.5469" lon="-1.80455">
        <ele>6</ele>
        <time>2018-03-21T22:35:34Z</time>
      </trkpt>
      <trkpt lat="46.54685" lon="-1.80454">
        <ele>6</ele>
        <time>2018-03-21T22:36:34Z</time>
      </trkpt>
      <trkpt lat="46.54685" lon="-1.80454">
        <ele>6</ele>
        <time>2018-03-21T22:37:34Z</time>
      </trkpt>
      <trkpt lat="46.54685" lon="-1.80455">
        <ele>6</ele>
        <time>2018-03-21T22:38:34Z</time>
      </trkpt>
      <trkpt lat="46.54684" lon="-1.80456">
        <ele>6</ele>
        <time>2018-03-21T22:39:34Z</time>
      </trkpt>
      <trkpt lat="46.54684" lon="-1.80457">
        <ele>6</ele>
        <time>2018-03-21T22:40:34Z</time>
      </trkpt>
      <trkpt lat="46.54683" lon="-1.80457">
        <ele>6</ele>
        <time>2018-03-21T22:41:34Z</time>
      </trkpt>
      <trkpt lat="46.54683" lon="-1.80458">
        <ele>6</ele>
        <time>2018-03-21T22:42:34Z</time>
      </trkpt>
      <trkpt lat="46.54682" lon="-1.80459">
        <ele>6</ele>
        <time>2018-03-21T22:43:34Z</time>
      </trkpt>
      <trkpt lat="46.54681" lon="-1.8046">
        <ele>6</ele>
        <time>2018-03-21T22:44:34Z</time>
      </trkpt>
      <trkpt lat="46.5468" lon="-1.8046">
        <ele>6</ele>
        <time>2018-03-21T22:45:34Z</time>
      </trkpt>
      <trkpt lat="46.54679" lon="-1.8046">
        <ele>6</ele>
        <time>2018-03-21T22:46:34Z</time>
      </trkpt>
      <trkpt lat="46.54678" lon="-1.8046">
        <ele>6</ele>
        <time>2018-03-21T22:47:34Z</time>
      </trkpt>
      <trkpt lat="46.54677" lon="-1.8046">
        <ele>6</ele>
        <time>2018-03-21T22:48:34Z</time>
      </trkpt>
      <trkpt lat="46.54677" lon="-1.80459">
        <ele>6</ele>
        <time>2018-03-21T22:49:34Z</time>
      </trkpt>
      <trkpt lat="46.54676" lon="-1.80459">
        <ele>6</ele>
        <time>2018-03-21T22:50:34Z</time>
      </trkpt>
      <trkpt lat="46.54675" lon="-1.80459">
        <ele>6</ele>
        <time>2018-03-21T22:51:34Z</time>
      </trkpt>
      <trkpt lat="46.54675" lon="-1.80458">
        <ele>6</ele>
        <time>2018-03-21T22:52:34Z</time>
      </trkpt>
      <trkpt lat="46.54674" lon="-1.80457">
        <ele>6</ele>
        <time>2018-03-21T22:53:34Z</time>
      </trkpt>
      <trkpt lat="46.54673" lon="-1.80456">
        <ele>6</ele>
        <time>2018-03-21T22:54:34Z</time>
      </trkpt>
      <trkpt lat="46.54672" lon="-1.80455">
        <ele>6</ele>
        <time>2018-03-21T22:55:34Z</time>
      </trkpt>
      <trkpt lat="46.54672" lon="-1.80454">
        <ele>6</ele>
        <time>2018-03-21T22:56:34Z</time>
      </trkpt>
      <trkpt lat="46.54671" lon="-1.80453">
        <ele>6</ele>
        <time>2018-03-21T22:57:34Z</time>
      </trkpt>
      <trkpt lat="46.54671" lon="-1.80452">
        <ele>6</ele>
        <time>2018-03-21T22:58:34Z</time>
      </trkpt>
      <trkpt lat="46.54671" lon="-1.80451">
        <ele>6</ele>
        <time>2018-03-21T22:59:34Z</time>
      </trkpt>
      <trkpt lat="46.5467" lon="-1.8045">
        <ele>6</ele>
        <time>2018-03-21T23:00:34Z</time>
      </trkpt>
      <trkpt lat="46.5467" lon="-1.80449">
        <ele>6</ele>
        <time>2018-03-21T23:01:34Z</time>
      </trkpt>
      <trkpt lat="46.5467" lon="-1.80448">
        <ele>6</ele>
        <time>2018-03-21T23:02:34Z</time>
      </trkpt>
      <trkpt lat="46.5467" lon="-1.80447">
        <ele>6</ele>
        <time>2018-03-21T23:03:34Z</time>
      </trkpt>
      <trkpt lat="46.5467" lon="-1.80446">
        <ele>6</ele>
        <time>2018-03-21T23:04:34Z</time>
      </trkpt>
      <trkpt lat="46.5467" lon="-1.80445">
        <ele>6</ele>
        <time>2018-03-21T23:05:34Z</time>
      </trkpt>
      <trkpt lat="46.5467" lon="-1.80444">
        <ele>6</ele>
        <time>2018-03-21T23:06:34Z</time>
      </trkpt>
      <trkpt lat="46.5467" lon="-1.80443">
        <ele>6</ele>
        <time>2018-03-21T23:07:34Z</time>
      </trkpt>
      <trkpt lat="46.5467" lon="-1.80442">
        <ele>6</ele>
        <time>2018-03-21T23:08:34Z</time>
      </trkpt>
      <trkpt lat="46.54671" lon="-1.80442">
        <ele>6</ele>
        <time>2018-03-21T23:09:34Z</time>
      </trkpt>
      <trkpt lat="46.54671" lon="-1.80441">
        <ele>6</ele>
        <time>2018-03-21T23:10:34Z</time>
      </trkpt>
      <trkpt lat="46.54671" lon="-1.8044">
        <ele>6</ele>
        <time>2018-03-21T23:11:34Z</time>
      </trkpt>
      <trkpt lat="46.54664" lon="-1.80424">
        <ele>6</ele>
        <time>2018-03-21T23:12:34Z</time>
      </trkpt>
      <trkpt lat="46.5466" lon="-1.80419">
        <ele>6</ele>
        <time>2018-03-21T23:13:34Z</time>
      </trkpt>
      <trkpt lat="46.54657" lon="-1.80416">
        <ele>6</ele>
        <time>2018-03-21T23:14:34Z</time>
      </trkpt>
      <trkpt lat="46.54652" lon="-1.80411">
        <ele>6</ele>
        <time>2018-03-21T23:15:34Z</time>
      </trkpt>
      <trkpt lat="46.54646" lon="-1.80408">
        <ele>6</ele>
        <time>2018-03-21T23:16:34Z</time>
      </trkpt>
      <trkpt lat="46.54636" lon="-1.804">
        <ele>6</ele>
        <time>2018-03-21T23:17:34Z</time>
      </trkpt>
      <trkpt lat="46.54636" lon="-1.804">
        <ele>6</ele>
        <time>2018-03-21T23:18:34Z</time>
      </trkpt>
      <trkpt lat="46.54635" lon="-1.80401">
        <ele>6</ele>
        <time>2018-03-21T23:19:34Z</time>
      </trkpt>
      <trkpt lat="46.54634" lon="-1.80401">
        <ele>6</ele>
        <time>2018-03-21T23:20:34Z</time>
      </trkpt>
      <trkpt lat="46.54634" lon="-1.80402">
        <ele>6</ele>
        <time>2018-03-21T23:21:34Z</time>
      </trkpt>
      <trkpt lat="46.54633" lon="-1.80402">
        <ele>6</ele>
        <time>2018-03-21T23:22:34Z</time>
      </trkpt>
      <trkpt lat="46.54632" lon="-1.80402">
        <ele>6</ele>
        <time>2018-03-21T23:23:34Z</time>
      </trkpt>
      <trkpt lat="46.54631" lon="-1.80402">
        <ele>6</ele>
        <time>2018-03-21T23:24:34Z</time>
      </trkpt>
      <trkpt lat="46.5463" lon="-1.80402">
        <ele>6</ele>
        <time>2018-03-21T23:25:34Z</time>
      </trkpt>
      <trkpt lat="46.54629" lon="-1.80402">
        <ele>6</ele>
        <time>2018-03-21T23:26:34Z</time>
      </trkpt>
      <trkpt lat="46.54629" lon="-1.80401">
        <ele>6</ele>
        <time>2018-03-21T23:27:34Z</time>
      </trkpt>
      <trkpt lat="46.54628" lon="-1.80401">
        <ele>6</ele>
        <time>2018-03-21T23:28:34Z</time>
      </trkpt>
      <trkpt lat="46.54628" lon="-1.804">
        <ele>6</ele>
        <time>2018-03-21T23:29:34Z</time>
      </trkpt>
      <trkpt lat="46.54627" lon="-1.804">
        <ele>6</ele>
        <time>2018-03-21T23:30:34Z</time>
      </trkpt>
      <trkpt lat="46.54627" lon="-1.80399">
        <ele>6</ele>
        <time>2018-03-21T23:31:34Z</time>
      </trkpt>
      <trkpt lat="46.54626" lon="-1.80398">
        <ele>6</ele>
        <time>2018-03-21T23:32:34Z</time>
      </trkpt>
      <trkpt lat="46.54626" lon="-1.80397">
        <ele>6</ele>
        <time>2018-03-21T23:33:34Z</time>
      </trkpt>
      <trkpt lat="46.54626" lon="-1.80396">
        <ele>6</ele>
        <time>2018-03-21T23:34:34Z</time>
      </trkpt>
      <trkpt lat="46.54625" lon="-1.80396">
        <ele>6</ele>
        <time>2018-03-21T23:35:34Z</time>
      </trkpt>
      <trkpt lat="46.54625" lon="-1.80395">
        <ele>6</ele>
        <time>2018-03-21T23:36:34Z</time>
      </trkpt>
      <trkpt lat="46.54625" lon="-1.80394">
        <ele>6</ele>
        <time>2018-03-21T23:37:34Z</time>
      </trkpt>
      <trkpt lat="46.54625" lon="-1.80393">
        <ele>6</ele>
        <time>2018-03-21T23:38:34Z</time>
      </trkpt>
      <trkpt lat="46.54625" lon="-1.80392">
        <ele>6</ele>
        <time>2018-03-21T23:39:34Z</time>
      </trkpt>
      <trkpt lat="46.54625" lon="-1.80391">
        <ele>6</ele>
        <time>2018-03-21T23:40:34Z</time>
      </trkpt>
      <trkpt lat="46.54618" lon="-1.80384">
        <ele>6</ele>
        <time>2018-03-21T23:41:34Z</time>
      </trkpt>
      <trkpt lat="46.54612" lon="-1.80378">
        <ele>6</ele>
        <time>2018-03-21T23:42:34Z</time>
      </trkpt>
      <trkpt lat="46.54601" lon="-1.80367">
        <ele>6</ele>
        <time>2018-03-21T23:43:34Z</time>
      </trkpt>
      <trkpt lat="46.54594" lon="-1.80359">
        <ele>6</ele>
        <time>2018-03-21T23:44:34Z</time>
      </trkpt>
      <trkpt lat="46.54591" lon="-1.80356">
        <ele>6</ele>
        <time>2018-03-21T23:45:34Z</time>
      </trkpt>
      <trkpt lat="46.54582" lon="-1.80348">
        <ele>6</ele>
        <time>2018-03-21T23:46:34Z</time>
      </trkpt>
      <trkpt lat="46.54558" lon="-1.8033">
        <ele>6</ele>
        <time>2018-03-21T23:47:34Z</time>
      </trkpt>
      <trkpt lat="46.54536" lon="-1.80314">
        <ele>6</ele>
        <time>2018-03-21T23:48:34Z</time>
      </trkpt>
      <trkpt lat="46.54519" lon="-1.80301">
        <ele>6</ele>
        <time>2018-03-21T23:49:34Z</time>
      </trkpt>
      <trkpt lat="46.54514" lon="-1.80297">
        <ele>6</ele>
        <time>2018-03-21T23:50:34Z</time>
      </trkpt>
      <trkpt lat="46.54508" lon="-1.80293">
        <ele>6</ele>
        <time>2018-03-21T23:51:34Z</time>
      </trkpt>
      <trkpt lat="46.54503" lon="-1.8029">
        <ele>6</ele>
        <time>2018-03-21T23:52:34Z</time>
      </trkpt>
      <trkpt lat="46.54497" lon="-1.80286">
        <ele>6</ele>
        <time>2018-03-21T23:53:34Z</time>
      </trkpt>
      <trkpt lat="46.54492" lon="-1.80283">
        <ele>6</ele>
        <time>2018-03-21T23:54:34Z</time>
      </trkpt>
      <trkpt lat="46.54486" lon="-1.80279">
        <ele>6</ele>
        <time>2018-03-21T23:55:34Z</time>
      </trkpt>
      <trkpt lat="46.5448" lon="-1.80276">
        <ele>6</ele>
        <time>2018-03-21T23:56:34Z</time>
      </trkpt>
      <trkpt lat="46.54475" lon="-1.80273">
        <ele>6</ele>
        <time>2018-03-21T23:57:34Z</time>
      </trkpt>
      <trkpt lat="46.54474" lon="-1.80272">
        <ele>6</ele>
        <time>2018-03-21T23:58:34Z</time>
      </trkpt>
      <trkpt lat="46.54473" lon="-1.80272">
        <ele>6</ele>
        <time>2018-03-21T23:59:34Z</time>
      </trkpt>
      <trkpt lat="46.54472" lon="-1.80271">
        <ele>6</ele>
        <time>2018-03-22T00:00:34Z</time>
      </trkpt>
      <trkpt lat="46.54471" lon="-1.80271">
        <ele>6</ele>
        <time>2018-03-22T00:01:34Z</time>
      </trkpt>
      <trkpt lat="46.5447" lon="-1.8027">
        <ele>6</ele>
        <time>2018-03-22T00:02:34Z</time>
      </trkpt>
      <trkpt lat="46.54469" lon="-1.8027">
        <ele>6</ele>
        <time>2018-03-22T00:03:34Z</time>
      </trkpt>
      <trkpt lat="46.54468" lon="-1.80269">
        <ele>6</ele>
        <time>2018-03-22T00:04:34Z</time>
      </trkpt>
      <trkpt lat="46.54459" lon="-1.80264">
        <ele>5</ele>
        <time>2018-03-22T00:05:34Z</time>
      </trkpt>
      <trkpt lat="46.54454" lon="-1.80261">
        <ele>5</ele>
        <time>2018-03-22T00:06:34Z</time>
      </trkpt>
      <trkpt lat="46.54451" lon="-1.80257">
        <ele>5</ele>
        <time>2018-03-22T00:07:34Z</time>
      </trkpt>
      <trkpt lat="46.54443" lon="-1.80248">
        <ele>5</ele>
        <time>2018-03-22T00:08:34Z</time>
      </trkpt>
      <trkpt lat="46.54441" lon="-1.80246">
        <ele>5</ele>
        <time>2018-03-22T00:09:34Z</time>
      </trkpt>
      <trkpt lat="46.54436" lon="-1.80236">
        <ele>5</ele>
        <time>2018-03-22T00:10:34Z</time>
      </trkpt>
      <trkpt lat="46.54425" lon="-1.80218">
        <ele>5</ele>
        <time>2018-03-22T00:11:34Z</time>
      </trkpt>
      <trkpt lat="46.54407" lon="-1.80188">
        <ele>4</ele>
        <time>2018-03-22T00:12:34Z</time>
      </trkpt>
      <trkpt lat="46.544" lon="-1.80178">
        <ele>4</ele>
        <time>2018-03-22T00:13:34Z</time>
      </trkpt>
      <trkpt lat="46.54392" lon="-1.80166">
        <ele>4</ele>
        <time>2018-03-22T00:14:34Z</time>
      </trkpt>
      <trkpt lat="46.54391" lon="-1.80164">
        <ele>4</ele>
        <time>2018-03-22T00:15:34Z</time>
      </trkpt>
      <trkpt lat="46.54384" lon="-1.80153">
        <ele>4</ele>
        <time>2018-03-22T00:16:34Z</time>
      </trkpt>
      <trkpt lat="46.54374" lon="-1.80139">
        <ele>4</ele>
        <time>2018-03-22T00:17:34Z</time>
      </trkpt>
      <trkpt lat="46.54366" lon="-1.80125">
        <ele>4</ele>
        <time>2018-03-22T00:18:34Z</time>
      </trkpt>
      <trkpt lat="46.54356" lon="-1.80111">
        <ele>4</ele>
        <time>2018-03-22T00:19:34Z</time>
      </trkpt>
      <trkpt lat="46.54352" lon="-1.80105">
        <ele>4</ele>
        <time>2018-03-22T00:20:34Z</time>
      </trkpt>
      <trkpt lat="46.54344" lon="-1.80092">
        <ele>4</ele>
        <time>2018-03-22T00:21:34Z</time>
      </trkpt>
      <trkpt lat="46.54331" lon="-1.80071">
        <ele>4</ele>
        <time>2018-03-22T00:22:34Z</time>
      </trkpt>
      <trkpt lat="46.54328" lon="-1.80066">
        <ele>4</ele>
        <time>2018-03-22T00:23:34Z</time>
      </trkpt>
      <trkpt lat="46.54324" lon="-1.8006">
        <ele>4</ele>
        <time>2018-03-22T00:24:34Z</time>
      </trkpt>
      <trkpt lat="46.54321" lon="-1.80053">
        <ele>4</ele>
        <time>2018-03-22T00:25:34Z</time>
      </trkpt>
      <trkpt lat="46.54317" lon="-1.80043">
        <ele>4</ele>
        <time>2018-03-22T00:26:34Z</time>
      </trkpt>
      <trkpt lat="46.54313" lon="-1.80034">
        <ele>4</ele>
        <time>2018-03-22T00:27:34Z</time>
      </trkpt>
      <trkpt lat="46.5431" lon="-1.80025">
        <ele>4</ele>
        <time>2018-03-22T00:28:34Z</time>
      </trkpt>
      <trkpt lat="46.54306" lon="-1.80014">
        <ele>5</ele>
        <time>2018-03-22T00:29:34Z</time>
      </trkpt>
      <trkpt lat="46.54302" lon="-1.80001">
        <ele>5</ele>
        <time>2018-03-22T00:30:34Z</time>
      </trkpt>
      <trkpt lat="46.54299" lon="-1.79989">
        <ele>5</ele>
        <time>2018-03-22T00:31:34Z</time>
      </trkpt>
      <trkpt lat="46.54295" lon="-1.79973">
        <ele>5</ele>
        <time>2018-03-22T00:32:34Z</time>
      </trkpt>
      <trkpt lat="46.5429" lon="-1.79955">
        <ele>5</ele>
        <time>2018-03-22T00:33:34Z</time>
      </trkpt>
      <trkpt lat="46.54286" lon="-1.79938">
        <ele>5</ele>
        <time>2018-03-22T00:34:34Z</time>
      </trkpt>
      <trkpt lat="46.54281" lon="-1.79923">
        <ele>6</ele>
        <time>2018-03-22T00:35:34Z</time>
      </trkpt>
      <trkpt lat="46.54277" lon="-1.79907">
        <ele>6</ele>
        <time>2018-03-22T00:36:34Z</time>
      </trkpt>
      <trkpt lat="46.54272" lon="-1.79892">
        <ele>6</ele>
        <time>2018-03-22T00:37:34Z</time>
      </trkpt>
      <trkpt lat="46.54267" lon="-1.79878">
        <ele>6</ele>
        <time>2018-03-22T00:38:34Z</time>
      </trkpt>
      <trkpt lat="46.54264" lon="-1.7987">
        <ele>6</ele>
        <time>2018-03-22T00:39:34Z</time>
      </trkpt>
      <trkpt lat="46.54261" lon="-1.79862">
        <ele>6</ele>
        <time>2018-03-22T00:40:34Z</time>
      </trkpt>
      <trkpt lat="46.54252" lon="-1.79839">
        <ele>6</ele>
        <time>2018-03-22T00:41:34Z</time>
      </trkpt>
      <trkpt lat="46.54242" lon="-1.79812">
        <ele>6</ele>
        <time>2018-03-22T00:42:34Z</time>
      </trkpt>
      <trkpt lat="46.54228" lon="-1.79778">
        <ele>5</ele>
        <time>2018-03-22T00:43:34Z</time>
      </trkpt>
      <trkpt lat="46.54225" lon="-1.79771">
        <ele>5</ele>
        <time>2018-03-22T00:44:34Z</time>
      </trkpt>
      <trkpt lat="46.54223" lon="-1.79765">
        <ele>5</ele>
        <time>2018-03-22T00:45:34Z</time>
      </trkpt>
      <trkpt lat="46.54216" lon="-1.79744">
        <ele>5</ele>
        <time>2018-03-22T00:46:34Z</time>
      </trkpt>
      <trkpt lat="46.54212" lon="-1.79734">
        <ele>5</ele>
        <time>2018-03-22T00:47:34Z</time>
      </trkpt>
      <trkpt lat="46.5421" lon="-1.79728">
        <ele>5</ele>
        <time>2018-03-22T00:48:34Z</time>
      </trkpt>
      <trkpt lat="46.54203" lon="-1.79708">
        <ele>5</ele>
        <time>2018-03-22T00:49:34Z</time>
      </trkpt>
      <trkpt lat="46.54196" lon="-1.79692">
        <ele>5</ele>
        <time>2018-03-22T00:50:34Z</time>
      </trkpt>
      <trkpt lat="46.54191" lon="-1.79677">
        <ele>5</ele>
        <time>2018-03-22T00:51:34Z</time>
      </trkpt>
      <trkpt lat="46.54183" lon="-1.79661">
        <ele>5</ele>
        <time>2018-03-22T00:52:34Z</time>
      </trkpt>
      <trkpt lat="46.54179" lon="-1.79653">
        <ele>5</ele>
        <time>2018-03-22T00:53:34Z</time>
      </trkpt>
      <trkpt lat="46.54175" lon="-1.79644">
        <ele>5</ele>
        <time>2018-03-22T00:54:34Z</time>
      </trkpt>
      <trkpt lat="46.5417" lon="-1.79637">
        <ele>5</ele>
        <time>2018-03-22T00:55:34Z</time>
      </trkpt>
      <trkpt lat="46.54167" lon="-1.79631">
        <ele>5</ele>
        <time>2018-03-22T00:56:34Z</time>
      </trkpt>
      <trkpt lat="46.54163" lon="-1.79625">
        <ele>5</ele>
        <time>2018-03-22T00:57:34Z</time>
      </trkpt>
      <trkpt lat="46.54153" lon="-1.79613">
        <ele>5</ele>
        <time>2018-03-22T00:58:34Z</time>
      </trkpt>
      <trkpt lat="46.5414" lon="-1.796">
        <ele>5</ele>
        <time>2018-03-22T00:59:34Z</time>
      </trkpt>
      <trkpt lat="46.54131" lon="-1.79591">
        <ele>5</ele>
        <time>2018-03-22T01:00:34Z</time>
      </trkpt>
      <trkpt lat="46.54118" lon="-1.7958">
        <ele>5</ele>
        <time>2018-03-22T01:01:34Z</time>
      </trkpt>
      <trkpt lat="46.54103" lon="-1.79569">
        <ele>5</ele>
        <time>2018-03-22T01:02:34Z</time>
      </trkpt>
      <trkpt lat="46.54088" lon="-1.79559">
        <ele>5</ele>
        <time>2018-03-22T01:03:34Z</time>
      </trkpt>
      <trkpt lat="46.54077" lon="-1.79553">
        <ele>5</ele>
        <time>2018-03-22T01:04:34Z</time>
      </trkpt>
      <trkpt lat="46.54067" lon="-1.79548">
        <ele>5</ele>
        <time>2018-03-22T01:05:34Z</time>
      </trkpt>
      <trkpt lat="46.5406" lon="-1.79545">
        <ele>5</ele>
        <time>2018-03-22T01:06:34Z</time>
      </trkpt>
      <trkpt lat="46.54049" lon="-1.79542">
        <ele>5</ele>
        <time>2018-03-22T01:07:34Z</time>
      </trkpt>
      <trkpt lat="46.5403" lon="-1.79533">
        <ele>6</ele>
        <time>2018-03-22T01:08:34Z</time>
      </trkpt>
      <trkpt lat="46.5403" lon="-1.79533">
        <ele>6</ele>
        <time>2018-03-22T01:09:34Z</time>
      </trkpt>
      <trkpt lat="46.54029" lon="-1.79534">
        <ele>6</ele>
        <time>2018-03-22T01:10:34Z</time>
      </trkpt>
      <trkpt lat="46.54028" lon="-1.79534">
        <ele>6</ele>
        <time>2018-03-22T01:11:34Z</time>
      </trkpt>
      <trkpt lat="46.54028" lon="-1.79535">
        <ele>6</ele>
        <time>2018-03-22T01:12:34Z</time>
      </trkpt>
      <trkpt lat="46.54027" lon="-1.79535">
        <ele>6</ele>
        <time>2018-03-22T01:13:34Z</time>
      </trkpt>
      <trkpt lat="46.54026" lon="-1.79535">
        <ele>6</ele>
        <time>2018-03-22T01:14:34Z</time>
      </trkpt>
      <trkpt lat="46.54025" lon="-1.79535">
        <ele>6</ele>
        <time>2018-03-22T01:15:34Z</time>
      </trkpt>
      <trkpt lat="46.54024" lon="-1.79535">
        <ele>6</ele>
        <time>2018-03-22T01:16:34Z</time>
      </trkpt>
      <trkpt lat="46.54023" lon="-1.79535">
        <ele>6</ele>
        <time>2018-03-22T01:17:34Z</time>
      </trkpt>
      <trkpt lat="46.54022" lon="-1.79535">
        <ele>6</ele>
        <time>2018-03-22T01:18:34Z</time>
      </trkpt>
      <trkpt lat="46.54022" lon="-1.79534">
        <ele>6</ele>
        <time>2018-03-22T01:19:34Z</time>
      </trkpt>
      <trkpt lat="46.54021" lon="-1.79534">
        <ele>6</ele>
        <time>2018-03-22T01:20:34Z</time>
      </trkpt>
      <trkpt lat="46.54021" lon="-1.79533">
        <ele>6</ele>
        <time>2018-03-22T01:21:34Z</time>
      </trkpt>
      <trkpt lat="46.5402" lon="-1.79533">
        <ele>6</ele>
        <time>2018-03-22T01:22:34Z</time>
      </trkpt>
      <trkpt lat="46.5402" lon="-1.79532">
        <ele>6</ele>
        <time>2018-03-22T01:23:34Z</time>
      </trkpt>
      <trkpt lat="46.54019" lon="-1.79532">
        <ele>6</ele>
        <time>2018-03-22T01:24:34Z</time>
      </trkpt>
      <trkpt lat="46.54019" lon="-1.79531">
        <ele>6</ele>
        <time>2018-03-22T01:25:34Z</time>
      </trkpt>
      <trkpt lat="46.54019" lon="-1.7953">
        <ele>6</ele>
        <time>2018-03-22T01:26:34Z</time>
      </trkpt>
      <trkpt lat="46.54018" lon="-1.7953">
        <ele>6</ele>
        <time>2018-03-22T01:27:34Z</time>
      </trkpt>
      <trkpt lat="46.54018" lon="-1.79529">
        <ele>6</ele>
        <time>2018-03-22T01:28:34Z</time>
      </trkpt>
      <trkpt lat="46.54018" lon="-1.79528">
        <ele>6</ele>
        <time>2018-03-22T01:29:34Z</time>
      </trkpt>
      <trkpt lat="46.54018" lon="-1.79527">
        <ele>6</ele>
        <time>2018-03-22T01:30:34Z</time>
      </trkpt>
      <trkpt lat="46.54018" lon="-1.79526">
        <ele>6</ele>
        <time>2018-03-22T01:31:34Z</time>
      </trkpt>
      <trkpt lat="46.54018" lon="-1.79525">
        <ele>6</ele>
        <time>2018-03-22T01:32:34Z</time>
      </trkpt>
      <trkpt lat="46.54017" lon="-1.79524">
        <ele>6</ele>
        <time>2018-03-22T01:33:34Z</time>
      </trkpt>
      <trkpt lat="46.54017" lon="-1.79523">
        <ele>6</ele>
        <time>2018-03-22T01:34:34Z</time>
      </trkpt>
      <trkpt lat="46.54017" lon="-1.79522">
        <ele>6</ele>
        <time>2018-03-22T01:35:34Z</time>
      </trkpt>
      <trkpt lat="46.54017" lon="-1.79521">
        <ele>6</ele>
        <time>2018-03-22T01:36:34Z</time>
      </trkpt>
      <trkpt lat="46.54017" lon="-1.7952">
        <ele>6</ele>
        <time>2018-03-22T01:37:34Z</time>
      </trkpt>
      <trkpt lat="46.54018" lon="-1.7952">
        <ele>6</ele>
        <time>2018-03-22T01:38:34Z</time>
      </trkpt>
      <trkpt lat="46.54018" lon="-1.79519">
        <ele>6</ele>
        <time>2018-03-22T01:39:34Z</time>
      </trkpt>
      <trkpt lat="46.54018" lon="-1.79518">
        <ele>6</ele>
        <time>2018-03-22T01:40:34Z</time>
      </trkpt>
      <trkpt lat="46.54018" lon="-1.79517">
        <ele>6</ele>
        <time>2018-03-22T01:41:34Z</time>
      </trkpt>
      <trkpt lat="46.54019" lon="-1.79517">
        <ele>6</ele>
        <time>2018-03-22T01:42:34Z</time>
      </trkpt>
      <trkpt lat="46.5401" lon="-1.79485">
        <ele>6</ele>
        <time>2018-03-22T01:43:34Z</time>
      </trkpt>
      <trkpt lat="46.54009" lon="-1.79481">
        <ele>6</ele>
        <time>2018-03-22T01:44:34Z</time>
      </trkpt>
      <trkpt lat="46.54003" lon="-1.79466">
        <ele>6</ele>
        <time>2018-03-22T01:45:34Z</time>
      </trkpt>
      <trkpt lat="46.53996" lon="-1.79445">
        <ele>7</ele>
        <time>2018-03-22T01:46:34Z</time>
      </trkpt>
      <trkpt lat="46.53987" lon="-1.79412">
        <ele>7</ele>
        <time>2018-03-22T01:47:34Z</time>
      </trkpt>
      <trkpt lat="46.53978" lon="-1.7938">
        <ele>7</ele>
        <time>2018-03-22T01:48:34Z</time>
      </trkpt>
      <trkpt lat="46.53956" lon="-1.79306">
        <ele>7</ele>
        <time>2018-03-22T01:49:34Z</time>
      </trkpt>
      <trkpt lat="46.53942" lon="-1.79255">
        <ele>7</ele>
        <time>2018-03-22T01:50:34Z</time>
      </trkpt>
      <trkpt lat="46.53941" lon="-1.79251">
        <ele>7</ele>
        <time>2018-03-22T01:51:34Z</time>
      </trkpt>
      <trkpt lat="46.5394" lon="-1.79247">
        <ele>7</ele>
        <time>2018-03-22T01:52:34Z</time>
      </trkpt>
      <trkpt lat="46.53938" lon="-1.79239">
        <ele>7</ele>
        <time>2018-03-22T01:53:34Z</time>
      </trkpt>
      <trkpt lat="46.53936" lon="-1.79226">
        <ele>8</ele>
        <time>2018-03-22T01:54:34Z</time>
      </trkpt>
      <trkpt lat="46.53934" lon="-1.79212">
        <ele>8</ele>
        <time>2018-03-22T01:55:34Z</time>
      </trkpt>
      <trkpt lat="46.53934" lon="-1.79199">
        <ele>8</ele>
        <time>2018-03-22T01:56:34Z</time>
      </trkpt>
      <trkpt lat="46.53933" lon="-1.79181">
        <ele>8</ele>
        <time>2018-03-22T01:57:34Z</time>
      </trkpt>
      <trkpt lat="46.53932" lon="-1.79156">
        <ele>8</ele>
        <time>2018-03-22T01:58:34Z</time>
      </trkpt>
      <trkpt lat="46.53931" lon="-1.79111">
        <ele>8</ele>
        <time>2018-03-22T01:59:34Z</time>
      </trkpt>
      <trkpt lat="46.53929" lon="-1.79068">
        <ele>9</ele>
        <time>2018-03-22T02:00:34Z</time>
      </trkpt>
      <trkpt lat="46.53928" lon="-1.79022">
        <ele>9</ele>
        <time>2018-03-22T02:01:34Z</time>
      </trkpt>
      <trkpt lat="46.53927" lon="-1.78988">
        <ele>9</ele>
        <time>2018-03-22T02:02:34Z</time>
      </trkpt>
      <trkpt lat="46.53926" lon="-1.78959">
        <ele>9</ele>
        <time>2018-03-22T02:03:34Z</time>
      </trkpt>
      <trkpt lat="46.53924" lon="-1.78934">
        <ele>9</ele>
        <time>2018-03-22T02:04:34Z</time>
      </trkpt>
      <trkpt lat="46.53923" lon="-1.78913">
        <ele>9</ele>
        <time>2018-03-22T02:05:34Z</time>
      </trkpt>
      <trkpt lat="46.53923" lon="-1.78902">
        <ele>9</ele>
        <time>2018-03-22T02:06:34Z</time>
      </trkpt>
      <trkpt lat="46.53922" lon="-1.78893">
        <ele>9</ele>
        <time>2018-03-22T02:07:34Z</time>
      </trkpt>
      <trkpt lat="46.5392" lon="-1.78873">
        <ele>9</ele>
        <time>2018-03-22T02:08:34Z</time>
      </trkpt>
      <trkpt lat="46.53918" lon="-1.78859">
        <ele>9</ele>
        <time>2018-03-22T02:09:34Z</time>
      </trkpt>
      <trkpt lat="46.53916" lon="-1.78841">
        <ele>9</ele>
        <time>2018-03-22T02:10:34Z</time>
      </trkpt>
      <trkpt lat="46.53913" lon="-1.78813">
        <ele>9</ele>
        <time>2018-03-22T02:11:34Z</time>
      </trkpt>
      <trkpt lat="46.53912" lon="-1.78799">
        <ele>10</ele>
        <time>2018-03-22T02:12:34Z</time>
      </trkpt>
      <trkpt lat="46.53909" lon="-1.78758">
        <ele>11</ele>
        <time>2018-03-22T02:13:34Z</time>
      </trkpt>
      <trkpt lat="46.53908" lon="-1.78723">
        <ele>10</ele>
        <time>2018-03-22T02:14:34Z</time>
      </trkpt>
      <trkpt lat="46.53907" lon="-1.78695">
        <ele>10</ele>
        <time>2018-03-22T02:15:34Z</time>
      </trkpt>
      <trkpt lat="46.53907" lon="-1.78648">
        <ele>9</ele>
        <time>2018-03-22T02:16:34Z</time>
      </trkpt>
      <trkpt lat="46.53905" lon="-1.78585">
        <ele>9</ele>
        <time>2018-03-22T02:17:34Z</time>
      </trkpt>
      <trkpt lat="46.53904" lon="-1.78556">
        <ele>9</ele>
        <time>2018-03-22T02:18:34Z</time>
      </trkpt>
      <trkpt lat="46.53902" lon="-1.78529">
        <ele>9</ele>
        <time>2018-03-22T02:19:34Z</time>
      </trkpt>
      <trkpt lat="46.539" lon="-1.78511">
        <ele>9</ele>
        <time>2018-03-22T02:20:34Z</time>
      </trkpt>
      <trkpt lat="46.53895" lon="-1.78485">
        <ele>9</ele>
        <time>2018-03-22T02:21:34Z</time>
      </trkpt>
      <trkpt lat="46.53892" lon="-1.78467">
        <ele>9</ele>
        <time>2018-03-22T02:22:34Z</time>
      </trkpt>
      <trkpt lat="46.53888" lon="-1.78448">
        <ele>9</ele>
        <time>2018-03-22T02:23:34Z</time>
      </trkpt>
      <trkpt lat="46.53879" lon="-1.78416">
        <ele>10</ele>
        <time>2018-03-22T02:24:34Z</time>
      </trkpt>
      <trkpt lat="46.53867" lon="-1.78371">
        <ele>11</ele>
        <time>2018-03-22T02:25:34Z</time>
      </trkpt>
      <trkpt lat="46.5386" lon="-1.78345">
        <ele>12</ele>
        <time>2018-03-22T02:26:34Z</time>
      </trkpt>
      <trkpt lat="46.53858" lon="-1.78331">
        <ele>12</ele>
        <time>2018-03-22T02:27:34Z</time>
      </trkpt>
      <trkpt lat="46.53855" lon="-1.78314">
        <ele>12</ele>
        <time>2018-03-22T02:28:34Z</time>
      </trkpt>
      <trkpt lat="46.53854" lon="-1.78304">
        <ele>12</ele>
        <time>2018-03-22T02:29:34Z</time>
      </trkpt>
      <trkpt lat="46.53852" lon="-1.783">
        <ele>12</ele>
        <time>2018-03-22T02:30:34Z</time>
      </trkpt>
      <trkpt lat="46.53851" lon="-1.78296">
        <ele>12</ele>
        <time>2018-03-22T02:31:34Z</time>
      </trkpt>
      <trkpt lat="46.53849" lon="-1.78289">
        <ele>12</ele>
        <time>2018-03-22T02:32:34Z</time>
      </trkpt>
      <trkpt lat="46.53846" lon="-1.78284">
        <ele>12</ele>
        <time>2018-03-22T02:33:34Z</time>
      </trkpt>
      <trkpt lat="46.53827" lon="-1.78255">
        <ele>12</ele>
        <time>2018-03-22T02:34:34Z</time>
      </trkpt>
      <trkpt lat="46.53819" lon="-1.78241">
        <ele>12</ele>
        <time>2018-03-22T02:35:34Z</time>
      </trkpt>
      <trkpt lat="46.5381" lon="-1.7822">
        <ele>12</ele>
        <time>2018-03-22T02:36:34Z</time>
      </trkpt>
      <trkpt lat="46.53802" lon="-1.78198">
        <ele>12</ele>
        <time>2018-03-22T02:37:34Z</time>
      </trkpt>
      <trkpt lat="46.53787" lon="-1.78173">
        <ele>13</ele>
        <time>2018-03-22T02:38:34Z</time>
      </trkpt>
      <trkpt lat="46.53786" lon="-1.78173">
        <ele>13</ele>
        <time>2018-03-22T02:39:34Z</time>
      </trkpt>
      <trkpt lat="46.53785" lon="-1.78173">
        <ele>13</ele>
        <time>2018-03-22T02:40:34Z</time>
      </trkpt>
      <trkpt lat="46.53784" lon="-1.78173">
        <ele>13</ele>
        <time>2018-03-22T02:41:34Z</time>
      </trkpt>
      <trkpt lat="46.53783" lon="-1.78172">
        <ele>13</ele>
        <time>2018-03-22T02:42:34Z</time>
      </trkpt>
      <trkpt lat="46.53782" lon="-1.78172">
        <ele>13</ele>
        <time>2018-03-22T02:43:34Z</time>
      </trkpt>
      <trkpt lat="46.53782" lon="-1.78171">
        <ele>13</ele>
        <time>2018-03-22T02:44:34Z</time>
      </trkpt>
      <trkpt lat="46.53781" lon="-1.78171">
        <ele>13</ele>
        <time>2018-03-22T02:45:34Z</time>
      </trkpt>
      <trkpt lat="46.5378" lon="-1.7817">
        <ele>13</ele>
        <time>2018-03-22T02:46:34Z</time>
      </trkpt>
      <trkpt lat="46.53779" lon="-1.78169">
        <ele>13</ele>
        <time>2018-03-22T02:47:34Z</time>
      </trkpt>
      <trkpt lat="46.53779" lon="-1.78168">
        <ele>13</ele>
        <time>2018-03-22T02:48:34Z</time>
      </trkpt>
      <trkpt lat="46.53778" lon="-1.78167">
        <ele>13</ele>
        <time>2018-03-22T02:49:34Z</time>
      </trkpt>
      <trkpt lat="46.53777" lon="-1.78166">
        <ele>13</ele>
        <time>2018-03-22T02:50:34Z</time>
      </trkpt>
      <trkpt lat="46.53777" lon="-1.78165">
        <ele>13</ele>
        <time>2018-03-22T02:51:34Z</time>
      </trkpt>
      <trkpt lat="46.53776" lon="-1.78163">
        <ele>13</ele>
        <time>2018-03-22T02:52:34Z</time>
      </trkpt>
      <trkpt lat="46.53776" lon="-1.78162">
        <ele>13</ele>
        <time>2018-03-22T02:53:34Z</time>
      </trkpt>
      <trkpt lat="46.53776" lon="-1.78161">
        <ele>13</ele>
        <time>2018-03-22T02:54:34Z</time>
      </trkpt>
      <trkpt lat="46.53776" lon="-1.7816">
        <ele>13</ele>
        <time>2018-03-22T02:55:34Z</time>
      </trkpt>
      <trkpt lat="46.53776" lon="-1.78159">
        <ele>13</ele>
        <time>2018-03-22T02:56:34Z</time>
      </trkpt>
      <trkpt lat="46.53776" lon="-1.78158">
        <ele>13</ele>
        <time>2018-03-22T02:57:34Z</time>
      </trkpt>
      <trkpt lat="46.53776" lon="-1.78157">
        <ele>13</ele>
        <time>2018-03-22T02:58:34Z</time>
      </trkpt>
      <trkpt lat="46.53776" lon="-1.78156">
        <ele>13</ele>
        <time>2018-03-22T02:59:34Z</time>
      </trkpt>
      <trkpt lat="46.53776" lon="-1.78155">
        <ele>13</ele>
        <time>2018-03-22T03:00:34Z</time>
      </trkpt>
      <trkpt lat="46.53776" lon="-1.78154">
        <ele>13</ele>
        <time>2018-03-22T03:01:34Z</time>
      </trkpt>
      <trkpt lat="46.53777" lon="-1.78153">
        <ele>13</ele>
        <time>2018-03-22T03:02:34Z</time>
      </trkpt>
      <trkpt lat="46.53777" lon="-1.78152">
        <ele>13</ele>
        <time>2018-03-22T03:03:34Z</time>
      </trkpt>
      <trkpt lat="46.53777" lon="-1.78151">
        <ele>13</ele>
        <time>2018-03-22T03:04:34Z</time>
      </trkpt>
      <trkpt lat="46.53777" lon="-1.7815">
        <ele>13</ele>
        <time>2018-03-22T03:05:34Z</time>
      </trkpt>
      <trkpt lat="46.53778" lon="-1.7815">
        <ele>13</ele>
        <time>2018-03-22T03:06:34Z</time>
      </trkpt>
      <trkpt lat="46.53778" lon="-1.78149">
        <ele>13</ele>
        <time>2018-03-22T03:07:34Z</time>
      </trkpt>
      <trkpt lat="46.53778" lon="-1.78148">
        <ele>13</ele>
        <time>2018-03-22T03:08:34Z</time>
      </trkpt>
      <trkpt lat="46.53779" lon="-1.78148">
        <ele>13</ele>
        <time>2018-03-22T03:09:34Z</time>
      </trkpt>
      <trkpt lat="46.53779" lon="-1.78147">
        <ele>13</ele>
        <time>2018-03-22T03:10:34Z</time>
      </trkpt>
      <trkpt lat="46.5378" lon="-1.78147">
        <ele>13</ele>
        <time>2018-03-22T03:11:34Z</time>
      </trkpt>
      <trkpt lat="46.5378" lon="-1.78146">
        <ele>13</ele>
        <time>2018-03-22T03:12:34Z</time>
      </trkpt>
      <trkpt lat="46.53777" lon="-1.78128">
        <ele>13</ele>
        <time>2018-03-22T03:13:34Z</time>
      </trkpt>
      <trkpt lat="46.53776" lon="-1.78125">
        <ele>13</ele>
        <time>2018-03-22T03:14:34Z</time>
      </trkpt>
      <trkpt lat="46.53776" lon="-1.78117">
        <ele>13</ele>
        <time>2018-03-22T03:15:34Z</time>
      </trkpt>
      <trkpt lat="46.5377" lon="-1.78096">
        <ele>13</ele>
        <time>2018-03-22T03:16:34Z</time>
      </trkpt>
      <trkpt lat="46.53765" lon="-1.78073">
        <ele>13</ele>
        <time>2018-03-22T03:17:34Z</time>
      </trkpt>
      <trkpt lat="46.5376" lon="-1.78046">
        <ele>13</ele>
        <time>2018-03-22T03:18:34Z</time>
      </trkpt>
      <trkpt lat="46.53758" lon="-1.78034">
        <ele>13</ele>
        <time>2018-03-22T03:19:34Z</time>
      </trkpt>
      <trkpt lat="46.53757" lon="-1.78024">
        <ele>13</ele>
        <time>2018-03-22T03:20:34Z</time>
      </trkpt>
      <trkpt lat="46.53757" lon="-1.78014">
        <ele>13</ele>
        <time>2018-03-22T03:21:34Z</time>
      </trkpt>
      <trkpt lat="46.53758" lon="-1.78003">
        <ele>13</ele>
        <time>2018-03-22T03:22:34Z</time>
      </trkpt>
      <trkpt lat="46.53759" lon="-1.77984">
        <ele>14</ele>
        <time>2018-03-22T03:23:34Z</time>
      </trkpt>
      <trkpt lat="46.53767" lon="-1.77947">
        <ele>15</ele>
        <time>2018-03-22T03:24:34Z</time>
      </trkpt>
      <trkpt lat="46.53773" lon="-1.77914">
        <ele>15</ele>
        <time>2018-03-22T03:25:34Z</time>
      </trkpt>
      <trkpt lat="46.53775" lon="-1.77902">
        <ele>16</ele>
        <time>2018-03-22T03:26:34Z</time>
      </trkpt>
      <trkpt lat="46.53776" lon="-1.77887">
        <ele>16</ele>
        <time>2018-03-22T03:27:34Z</time>
      </trkpt>
      <trkpt lat="46.53776" lon="-1.77871">
        <ele>16</ele>
        <time>2018-03-22T03:28:34Z</time>
      </trkpt>
      <trkpt lat="46.53776" lon="-1.77854">
        <ele>17</ele>
        <time>2018-03-22T03:29:34Z</time>
      </trkpt>
      <trkpt lat="46.53774" lon="-1.77831">
        <ele>17</ele>
        <time>2018-03-22T03:30:34Z</time>
      </trkpt>
      <trkpt lat="46.53769" lon="-1.77784">
        <ele>19</ele>
        <time>2018-03-22T03:31:34Z</time>
      </trkpt>
      <trkpt lat="46.53764" lon="-1.77743">
        <ele>20</ele>
        <time>2018-03-22T03:32:34Z</time>
      </trkpt>
      <trkpt lat="46.53761" lon="-1.77721">
        <ele>21</ele>
        <time>2018-03-22T03:33:34Z</time>
      </trkpt>
      <trkpt lat="46.53758" lon="-1.77702">
        <ele>21</ele>
        <time>2018-03-22T03:34:34Z</time>
      </trkpt>
      <trkpt lat="46.53747" lon="-1.77641">
        <ele>22</ele>
        <time>2018-03-22T03:35:34Z</time>
      </trkpt>
      <trkpt lat="46.53736" lon="-1.77573">
        <ele>23</ele>
        <time>2018-03-22T03:36:34Z</time>
      </trkpt>
      <trkpt lat="46.53732" lon="-1.77535">
        <ele>24</ele>
        <time>2018-03-22T03:37:34Z</time>
      </trkpt>
      <trkpt lat="46.53729" lon="-1.77515">
        <ele>25</ele>
        <time>2018-03-22T03:38:34Z</time>
      </trkpt>
      <trkpt lat="46.53726" lon="-1.77497">
        <ele>25</ele>
        <time>2018-03-22T03:39:34Z</time>
      </trkpt>
      <trkpt lat="46.53723" lon="-1.77481">
        <ele>25</ele>
        <time>2018-03-22T03:40:34Z</time>
      </trkpt>
      <trkpt lat="46.53717" lon="-1.77459">
        <ele>26</ele>
        <time>2018-03-22T03:41:34Z</time>
      </trkpt>
      <trkpt lat="46.53712" lon="-1.77438">
        <ele>26</ele>
        <time>2018-03-22T03:42:34Z</time>
      </trkpt>
      <trkpt lat="46.53705" lon="-1.77414">
        <ele>27</ele>
        <time>2018-03-22T03:43:34Z</time>
      </trkpt>
      <trkpt lat="46.53702" lon="-1.77403">
        <ele>27</ele>
        <time>2018-03-22T03:44:34Z</time>
      </trkpt>
      <trkpt lat="46.537" lon="-1.77397">
        <ele>27</ele>
        <time>2018-03-22T03:45:34Z</time>
      </trkpt>
      <trkpt lat="46.53696" lon="-1.77388">
        <ele>27</ele>
        <time>2018-03-22T03:46:34Z</time>
      </trkpt>
      <trkpt lat="46.53692" lon="-1.77381">
        <ele>27</ele>
        <time>2018-03-22T03:47:34Z</time>
      </trkpt>
      <trkpt lat="46.5369" lon="-1.77377">
        <ele>27</ele>
        <time>2018-03-22T03:48:34Z</time>
      </trkpt>
      <trkpt lat="46.53672" lon="-1.7735">
        <ele>28</ele>
        <time>2018-03-22T03:49:34Z</time>
      </trkpt>
      <trkpt lat="46.53658" lon="-1.77322">
        <ele>28</ele>
        <time>2018-03-22T03:50:34Z</time>
      </trkpt>
      <trkpt lat="46.53656" lon="-1.77318">
        <ele>28</ele>
        <time>2018-03-22T03:51:34Z</time>
      </trkpt>
      <trkpt lat="46.53653" lon="-1.77313">
        <ele>28</ele>
        <time>2018-03-22T03:52:34Z</time>
      </trkpt>
      <trkpt lat="46.5365" lon="-1.77308">
        <ele>28</ele>
        <time>2018-03-22T03:53:34Z</time>
      </trkpt>
      <trkpt lat="46.53647" lon="-1.77302">
        <ele>28</ele>
        <time>2018-03-22T03:54:34Z</time>
      </trkpt>
      <trkpt lat="46.53645" lon="-1.77294">
        <ele>28</ele>
        <time>2018-03-22T03:55:34Z</time>
      </trkpt>
      <trkpt lat="46.53643" lon="-1.77288">
        <ele>28</ele>
        <time>2018-03-22T03:56:34Z</time>
      </trkpt>
      <trkpt lat="46.53639" lon="-1.77265">
        <ele>28</ele>
        <time>2018-03-22T03:57:34Z</time>
      </trkpt>
      <trkpt lat="46.53633" lon="-1.77243">
        <ele>29</ele>
        <time>2018-03-22T03:58:34Z</time>
      </trkpt>
      <trkpt lat="46.53625" lon="-1.77216">
        <ele>29</ele>
        <time>2018-03-22T03:59:34Z</time>
      </trkpt>
      <trkpt lat="46.53618" lon="-1.77185">
        <ele>28</ele>
        <time>2018-03-22T04:00:34Z</time>
      </trkpt>
      <trkpt lat="46.53615" lon="-1.77172">
        <ele>28</ele>
        <time>2018-03-22T04:01:34Z</time>
      </trkpt>
      <trkpt lat="46.53578" lon="-1.77014">
        <ele>29</ele>
        <time>2018-03-22T04:02:34Z</time>
      </trkpt>
      <trkpt lat="46.53577" lon="-1.77008">
        <ele>29</ele>
        <time>2018-03-22T04:03:34Z</time>
      </trkpt>
      <trkpt lat="46.5357" lon="-1.76977">
        <ele>28</ele>
        <time>2018-03-22T04:04:34Z</time>
      </trkpt>
      <trkpt lat="46.5356" lon="-1.76924">
        <ele>28</ele>
        <time>2018-03-22T04:05:34Z</time>
      </trkpt>
      <trkpt lat="46.53553" lon="-1.76869">
        <ele>28</ele>
        <time>2018-03-22T04:06:34Z</time>
      </trkpt>
      <trkpt lat="46.53549" lon="-1.76844">
        <ele>29</ele>
        <time>2018-03-22T04:07:34Z</time>
      </trkpt>
      <trkpt lat="46.53548" lon="-1.76837">
        <ele>29</ele>
        <time>2018-03-22T04:08:34Z</time>
      </trkpt>
      <trkpt lat="46.53548" lon="-1.76831">
        <ele>29</ele>
        <time>2018-03-22T04:09:34Z</time>
      </trkpt>
      <trkpt lat="46.53545" lon="-1.76819">
        <ele>28</ele>
        <time>2018-03-22T04:10:34Z</time>
      </trkpt>
      <trkpt lat="46.53542" lon="-1.76794">
        <ele>28</ele>
        <time>2018-03-22T04:11:34Z</time>
      </trkpt>
      <trkpt lat="46.53536" lon="-1.76759">
        <ele>28</ele>
        <time>2018-03-22T04:12:34Z</time>
      </trkpt>
      <trkpt lat="46.53533" lon="-1.76743">
        <ele>28</ele>
        <time>2018-03-22T04:13:34Z</time>
      </trkpt>
      <trkpt lat="46.5353" lon="-1.76727">
        <ele>28</ele>
        <time>2018-03-22T04:14:34Z</time>
      </trkpt>
      <trkpt lat="46.53529" lon="-1.76723">
        <ele>28</ele>
        <time>2018-03-22T04:15:34Z</time>
      </trkpt>
      <trkpt lat="46.53526" lon="-1.7671">
        <ele>29</ele>
        <time>2018-03-22T04:16:34Z</time>
      </trkpt>
      <trkpt lat="46.53523" lon="-1.76697">
        <ele>29</ele>
        <time>2018-03-22T04:17:34Z</time>
      </trkpt>
      <trkpt lat="46.5352" lon="-1.76684">
        <ele>29</ele>
        <time>2018-03-22T04:18:34Z</time>
      </trkpt>
      <trkpt lat="46.53518" lon="-1.76675">
        <ele>29</ele>
        <time>2018-03-22T04:19:34Z</time>
      </trkpt>
      <trkpt lat="46.53515" lon="-1.76666">
        <ele>29</ele>
        <time>2018-03-22T04:20:34Z</time>
      </trkpt>
      <trkpt lat="46.53498" lon="-1.76604">
        <ele>28</ele>
        <time>2018-03-22T04:21:34Z</time>
      </trkpt>
      <trkpt lat="46.53483" lon="-1.76562">
        <ele>28</ele>
        <time>2018-03-22T04:22:34Z</time>
      </trkpt>
      <trkpt lat="46.53478" lon="-1.76544">
        <ele>28</ele>
        <time>2018-03-22T04:23:34Z</time>
      </trkpt>
      <trkpt lat="46.53472" lon="-1.76517">
        <ele>29</ele>
        <time>2018-03-22T04:24:34Z</time>
      </trkpt>
      <trkpt lat="46.5347" lon="-1.76505">
        <ele>29</ele>
        <time>2018-03-22T04:25:34Z</time>
      </trkpt>
      <trkpt lat="46.53466" lon="-1.76483">
        <ele>29</ele>
        <time>2018-03-22T04:26:34Z</time>
      </trkpt>
      <trkpt lat="46.53463" lon="-1.76466">
        <ele>29</ele>
        <time>2018-03-22T04:27:34Z</time>
      </trkpt>
      <trkpt lat="46.5346" lon="-1.76439">
        <ele>29</ele>
        <time>2018-03-22T04:28:34Z</time>
      </trkpt>
      <trkpt lat="46.53459" lon="-1.76421">
        <ele>29</ele>
        <time>2018-03-22T04:29:34Z</time>
      </trkpt>
      <trkpt lat="46.53458" lon="-1.7641">
        <ele>29</ele>
        <time>2018-03-22T04:30:34Z</time>
      </trkpt>
      <trkpt lat="46.53458" lon="-1.76406">
        <ele>29</ele>
        <time>2018-03-22T04:31:34Z</time>
      </trkpt>
      <trkpt lat="46.53456" lon="-1.76393">
        <ele>29</ele>
        <time>2018-03-22T04:32:34Z</time>
      </trkpt>
      <trkpt lat="46.53456" lon="-1.76388">
        <ele>29</ele>
        <time>2018-03-22T04:33:34Z</time>
      </trkpt>
      <trkpt lat="46.53456" lon="-1.76377">
        <ele>29</ele>
        <time>2018-03-22T04:34:34Z</time>
      </trkpt>
      <trkpt lat="46.53454" lon="-1.76352">
        <ele>29</ele>
        <time>2018-03-22T04:35:34Z</time>
      </trkpt>
      <trkpt lat="46.53452" lon="-1.76337">
        <ele>29</ele>
        <time>2018-03-22T04:36:34Z</time>
      </trkpt>
      <trkpt lat="46.5345" lon="-1.76316">
        <ele>29</ele>
        <time>2018-03-22T04:37:34Z</time>
      </trkpt>
      <trkpt lat="46.53448" lon="-1.76306">
        <ele>29</ele>
        <time>2018-03-22T04:38:34Z</time>
      </trkpt>
      <trkpt lat="46.53445" lon="-1.76286">
        <ele>29</ele>
        <time>2018-03-22T04:39:34Z</time>
      </trkpt>
      <trkpt lat="46.53441" lon="-1.76265">
        <ele>29</ele>
        <time>2018-03-22T04:40:34Z</time>
      </trkpt>
      <trkpt lat="46.53438" lon="-1.76249">
        <ele>29</ele>
        <time>2018-03-22T04:41:34Z</time>
      </trkpt>
      <trkpt lat="46.53437" lon="-1.76246">
        <ele>29</ele>
        <time>2018-03-22T04:42:34Z</time>
      </trkpt>
      <trkpt lat="46.53435" lon="-1.76241">
        <ele>29</ele>
        <time>2018-03-22T04:43:34Z</time>
      </trkpt>
      <trkpt lat="46.5343" lon="-1.76228">
        <ele>29</ele>
        <time>2018-03-22T04:44:34Z</time>
      </trkpt>
      <trkpt lat="46.53426" lon="-1.76219">
        <ele>29</ele>
        <time>2018-03-22T04:45:34Z</time>
      </trkpt>
      <trkpt lat="46.53422" lon="-1.7621">
        <ele>30</ele>
        <time>2018-03-22T04:46:34Z</time>
      </trkpt>
      <trkpt lat="46.53417" lon="-1.76201">
        <ele>30</ele>
        <time>2018-03-22T04:47:34Z</time>
      </trkpt>
      <trkpt lat="46.53408" lon="-1.76185">
        <ele>30</ele>
        <time>2018-03-22T04:48:34Z</time>
      </trkpt>
      <trkpt lat="46.53402" lon="-1.76177">
        <ele>30</ele>
        <time>2018-03-22T04:49:34Z</time>
      </trkpt>
      <trkpt lat="46.53402" lon="-1.76176">
        <ele>30</ele>
        <time>2018-03-22T04:50:34Z</time>
      </trkpt>
      <trkpt lat="46.53397" lon="-1.76169">
        <ele>29</ele>
        <time>2018-03-22T04:51:34Z</time>
      </trkpt>
      <trkpt lat="46.53396" lon="-1.76168">
        <ele>29</ele>
        <time>2018-03-22T04:52:34Z</time>
      </trkpt>
      <trkpt lat="46.53392" lon="-1.76161">
        <ele>29</ele>
        <time>2018-03-22T04:53:34Z</time>
      </trkpt>
      <trkpt lat="46.53388" lon="-1.76156">
        <ele>29</ele>
        <time>2018-03-22T04:54:34Z</time>
      </trkpt>
      <trkpt lat="46.53386" lon="-1.76152">
        <ele>29</ele>
        <time>2018-03-22T04:55:34Z</time>
      </trkpt>
      <trkpt lat="46.5338" lon="-1.76142">
        <ele>29</ele>
        <time>2018-03-22T04:56:34Z</time>
      </trkpt>
      <trkpt lat="46.53376" lon="-1.76136">
        <ele>29</ele>
        <time>2018-03-22T04:57:34Z</time>
      </trkpt>
      <trkpt lat="46.53366" lon="-1.76119">
        <ele>29</ele>
        <time>2018-03-22T04:58:34Z</time>
      </trkpt>
      <trkpt lat="46.53356" lon="-1.76101">
        <ele>29</ele>
        <time>2018-03-22T04:59:34Z</time>
      </trkpt>
      <trkpt lat="46.53349" lon="-1.76089">
        <ele>28</ele>
        <time>2018-03-22T05:00:34Z</time>
      </trkpt>
      <trkpt lat="46.53343" lon="-1.76076">
        <ele>28</ele>
        <time>2018-03-22T05:01:34Z</time>
      </trkpt>
      <trkpt lat="46.53334" lon="-1.76061">
        <ele>28</ele>
        <time>2018-03-22T05:02:34Z</time>
      </trkpt>
      <trkpt lat="46.53327" lon="-1.76047">
        <ele>28</ele>
        <time>2018-03-22T05:03:34Z</time>
      </trkpt>
      <trkpt lat="46.53319" lon="-1.76031">
        <ele>28</ele>
        <time>2018-03-22T05:04:34Z</time>
      </trkpt>
      <trkpt lat="46.53314" lon="-1.76022">
        <ele>28</ele>
        <time>2018-03-22T05:05:34Z</time>
      </trkpt>
      <trkpt lat="46.53284" lon="-1.75968">
        <ele>29</ele>
        <time>2018-03-22T05:06:34Z</time>
      </trkpt>
      <trkpt lat="46.53275" lon="-1.75952">
        <ele>29</ele>
        <time>2018-03-22T05:07:34Z</time>
      </trkpt>
      <trkpt lat="46.53266" lon="-1.75937">
        <ele>29</ele>
        <time>2018-03-22T05:08:34Z</time>
      </trkpt>
      <trkpt lat="46.53257" lon="-1.75925">
        <ele>30</ele>
        <time>2018-03-22T05:09:34Z</time>
      </trkpt>
      <trkpt lat="46.53246" lon="-1.75914">
        <ele>30</ele>
        <time>2018-03-22T05:10:34Z</time>
      </trkpt>
      <trkpt lat="46.53229" lon="-1.75898">
        <ele>30</ele>
        <time>2018-03-22T05:11:34Z</time>
      </trkpt>
      <trkpt lat="46.53214" lon="-1.75884">
        <ele>30</ele>
        <time>2018-03-22T05:12:34Z</time>
      </trkpt>
      <trkpt lat="46.53198" lon="-1.75871">
        <ele>30</ele>
        <time>2018-03-22T05:13:34Z</time>
      </trkpt>
      <trkpt lat="46.53188" lon="-1.75862">
        <ele>29</ele>
        <time>2018-03-22T05:14:34Z</time>
      </trkpt>
      <trkpt lat="46.53181" lon="-1.75856">
        <ele>29</ele>
        <time>2018-03-22T05:15:34Z</time>
      </trkpt>
      <trkpt lat="46.53172" lon="-1.75848">
        <ele>29</ele>
        <time>2018-03-22T05:16:34Z</time>
      </trkpt>
      <trkpt lat="46.53166" lon="-1.75842">
        <ele>29</ele>
        <time>2018-03-22T05:17:34Z</time>
      </trkpt>
      <trkpt lat="46.53144" lon="-1.7582">
        <ele>29</ele>
        <time>2018-03-22T05:18:34Z</time>
      </trkpt>
      <trkpt lat="46.53128" lon="-1.75806">
        <ele>30</ele>
        <time>2018-03-22T05:19:34Z</time>
      </trkpt>
      <trkpt lat="46.53109" lon="-1.75789">
        <ele>30</ele>
        <time>2018-03-22T05:20:34Z</time>
      </trkpt>
      <trkpt lat="46.53103" lon="-1.75785">
        <ele>31</ele>
        <time>2018-03-22T05:21:34Z</time>
      </trkpt>
      <trkpt lat="46.53079" lon="-1.75766">
        <ele>31</ele>
        <time>2018-03-22T05:22:34Z</time>
      </trkpt>
      <trkpt lat="46.53065" lon="-1.75756">
        <ele>32</ele>
        <time>2018-03-22T05:23:34Z</time>
      </trkpt>
      <trkpt lat="46.53061" lon="-1.75753">
        <ele>32</ele>
        <time>2018-03-22T05:24:34Z</time>
      </trkpt>
      <trkpt lat="46.53058" lon="-1.75751">
        <ele>32</ele>
        <time>2018-03-22T05:25:34Z</time>
      </trkpt>
      <trkpt lat="46.53046" lon="-1.75741">
        <ele>32</ele>
        <time>2018-03-22T05:26:34Z</time>
      </trkpt>
      <trkpt lat="46.5304" lon="-1.75736">
        <ele>32</ele>
        <time>2018-03-22T05:27:34Z</time>
      </trkpt>
      <trkpt lat="46.53032" lon="-1.75729">
        <ele>32</ele>
        <time>2018-03-22T05:28:34Z</time>
      </trkpt>
      <trkpt lat="46.53024" lon="-1.7572">
        <ele>32</ele>
        <time>2018-03-22T05:29:34Z</time>
      </trkpt>
      <trkpt lat="46.53021" lon="-1.75717">
        <ele>32</ele>
        <time>2018-03-22T05:30:34Z</time>
      </trkpt>
      <trkpt lat="46.53018" lon="-1.75712">
        <ele>32</ele>
        <time>2018-03-22T05:31:34Z</time>
      </trkpt>
      <trkpt lat="46.53011" lon="-1.75703">
        <ele>32</ele>
        <time>2018-03-22T05:32:34Z</time>
      </trkpt>
      <trkpt lat="46.53006" lon="-1.75697">
        <ele>32</ele>
        <time>2018-03-22T05:33:34Z</time>
      </trkpt>
      <trkpt lat="46.52994" lon="-1.75678">
        <ele>32</ele>
        <time>2018-03-22T05:34:34Z</time>
      </trkpt>
      <trkpt lat="46.52991" lon="-1.75673">
        <ele>32</ele>
        <time>2018-03-22T05:35:34Z</time>
      </trkpt>
      <trkpt lat="46.52977" lon="-1.75649">
        <ele>33</ele>
        <time>2018-03-22T05:36:34Z</time>
      </trkpt>
      <trkpt lat="46.52965" lon="-1.75628">
        <ele>33</ele>
        <time>2018-03-22T05:37:34Z</time>
      </trkpt>
      <trkpt lat="46.5295" lon="-1.75604">
        <ele>34</ele>
        <time>2018-03-22T05:38:34Z</time>
      </trkpt>
      <trkpt lat="46.52918" lon="-1.75548">
        <ele>35</ele>
        <time>2018-03-22T05:39:34Z</time>
      </trkpt>
      <trkpt lat="46.52916" lon="-1.75543">
        <ele>35</ele>
        <time>2018-03-22T05:40:34Z</time>
      </trkpt>
      <trkpt lat="46.52903" lon="-1.75516">
        <ele>35</ele>
        <time>2018-03-22T05:41:34Z</time>
      </trkpt>
      <trkpt lat="46.52902" lon="-1.75513">
        <ele>35</ele>
        <time>2018-03-22T05:42:34Z</time>
      </trkpt>
      <trkpt lat="46.52894" lon="-1.75495">
        <ele>35</ele>
        <time>2018-03-22T05:43:34Z</time>
      </trkpt>
      <trkpt lat="46.52886" lon="-1.75478">
        <ele>35</ele>
        <time>2018-03-22T05:44:34Z</time>
      </trkpt>
      <trkpt lat="46.52882" lon="-1.75471">
        <ele>35</ele>
        <time>2018-03-22T05:45:34Z</time>
      </trkpt>
      <trkpt lat="46.5287" lon="-1.75443">
        <ele>36</ele>
        <time>2018-03-22T05:46:34Z</time>
      </trkpt>
      <trkpt lat="46.52866" lon="-1.75433">
        <ele>36</ele>
        <time>2018-03-22T05:47:34Z</time>
      </trkpt>
      <trkpt lat="46.52858" lon="-1.75414">
        <ele>37</ele>
        <time>2018-03-22T05:48:34Z</time>
      </trkpt>
      <trkpt lat="46.52854" lon="-1.75407">
        <ele>37</ele>
        <time>2018-03-22T05:49:34Z</time>
      </trkpt>
      <trkpt lat="46.52848" lon="-1.75395">
        <ele>37</ele>
        <time>2018-03-22T05:50:34Z</time>
      </trkpt>
      <trkpt lat="46.52841" lon="-1.75384">
        <ele>37</ele>
        <time>2018-03-22T05:51:34Z</time>
      </trkpt>
      <trkpt lat="46.52837" lon="-1.75378">
        <ele>37</ele>
        <time>2018-03-22T05:52:34Z</time>
      </trkpt>
      <trkpt lat="46.52815" lon="-1.75359">
        <ele>37</ele>
        <time>2018-03-22T05:53:34Z</time>
      </trkpt>
      <trkpt lat="46.52815" lon="-1.75359">
        <ele>37</ele>
        <time>2018-03-22T05:54:34Z</time>
      </trkpt>
      <trkpt lat="46.52814" lon="-1.75359">
        <ele>37</ele>
        <time>2018-03-22T05:55:34Z</time>
      </trkpt>
      <trkpt lat="46.52813" lon="-1.75359">
        <ele>37</ele>
        <time>2018-03-22T05:56:34Z</time>
      </trkpt>
      <trkpt lat="46.52812" lon="-1.75359">
        <ele>37</ele>
        <time>2018-03-22T05:57:34Z</time>
      </trkpt>
      <trkpt lat="46.52811" lon="-1.75359">
        <ele>37</ele>
        <time>2018-03-22T05:58:34Z</time>
      </trkpt>
      <trkpt lat="46.5281" lon="-1.75359">
        <ele>37</ele>
        <time>2018-03-22T05:59:34Z</time>
      </trkpt>
      <trkpt lat="46.52809" lon="-1.75359">
        <ele>37</ele>
        <time>2018-03-22T06:00:34Z</time>
      </trkpt>
      <trkpt lat="46.52808" lon="-1.75359">
        <ele>37</ele>
        <time>2018-03-22T06:01:34Z</time>
      </trkpt>
      <trkpt lat="46.52807" lon="-1.75359">
        <ele>37</ele>
        <time>2018-03-22T06:02:34Z</time>
      </trkpt>
      <trkpt lat="46.52805" lon="-1.75358">
        <ele>37</ele>
        <time>2018-03-22T06:03:34Z</time>
      </trkpt>
      <trkpt lat="46.52803" lon="-1.75357">
        <ele>37</ele>
        <time>2018-03-22T06:04:34Z</time>
      </trkpt>
      <trkpt lat="46.52801" lon="-1.75356">
        <ele>37</ele>
        <time>2018-03-22T06:05:34Z</time>
      </trkpt>
      <trkpt lat="46.52799" lon="-1.75354">
        <ele>37</ele>
        <time>2018-03-22T06:06:34Z</time>
      </trkpt>
      <trkpt lat="46.52797" lon="-1.75352">
        <ele>37</ele>
        <time>2018-03-22T06:07:34Z</time>
      </trkpt>
      <trkpt lat="46.52795" lon="-1.7535">
        <ele>37</ele>
        <time>2018-03-22T06:08:34Z</time>
      </trkpt>
      <trkpt lat="46.52793" lon="-1.75348">
        <ele>37</ele>
        <time>2018-03-22T06:09:34Z</time>
      </trkpt>
      <trkpt lat="46.52791" lon="-1.75345">
        <ele>37</ele>
        <time>2018-03-22T06:10:34Z</time>
      </trkpt>
      <trkpt lat="46.5279" lon="-1.75342">
        <ele>37</ele>
        <time>2018-03-22T06:11:34Z</time>
      </trkpt>
      <trkpt lat="46.52788" lon="-1.75339">
        <ele>36</ele>
        <time>2018-03-22T06:12:34Z</time>
      </trkpt>
      <trkpt lat="46.52787" lon="-1.75336">
        <ele>36</ele>
        <time>2018-03-22T06:13:34Z</time>
      </trkpt>
      <trkpt lat="46.52786" lon="-1.75332">
        <ele>36</ele>
        <time>2018-03-22T06:14:34Z</time>
      </trkpt>
      <trkpt lat="46.52786" lon="-1.75329">
        <ele>36</ele>
        <time>2018-03-22T06:15:34Z</time>
      </trkpt>
      <trkpt lat="46.52785" lon="-1.75325">
        <ele>36</ele>
        <time>2018-03-22T06:16:34Z</time>
      </trkpt>
      <trkpt lat="46.52785" lon="-1.75321">
        <ele>37</ele>
        <time>2018-03-22T06:17:34Z</time>
      </trkpt>
      <trkpt lat="46.52785" lon="-1.75318">
        <ele>37</ele>
        <time>2018-03-22T06:18:34Z</time>
      </trkpt>
      <trkpt lat="46.52786" lon="-1.75314">
        <ele>37</ele>
        <time>2018-03-22T06:19:34Z</time>
      </trkpt>
      <trkpt lat="46.52786" lon="-1.75311">
        <ele>37</ele>
        <time>2018-03-22T06:20:34Z</time>
      </trkpt>
      <trkpt lat="46.52787" lon="-1.75308">
        <ele>37</ele>
        <time>2018-03-22T06:21:34Z</time>
      </trkpt>
      <trkpt lat="46.52788" lon="-1.75305">
        <ele>37</ele>
        <time>2018-03-22T06:22:34Z</time>
      </trkpt>
      <trkpt lat="46.52789" lon="-1.75302">
        <ele>37</ele>
        <time>2018-03-22T06:23:34Z</time>
      </trkpt>
      <trkpt lat="46.5279" lon="-1.75299">
        <ele>37</ele>
        <time>2018-03-22T06:24:34Z</time>
      </trkpt>
      <trkpt lat="46.52791" lon="-1.75296">
        <ele>37</ele>
        <time>2018-03-22T06:25:34Z</time>
      </trkpt>
      <trkpt lat="46.52793" lon="-1.75294">
        <ele>37</ele>
        <time>2018-03-22T06:26:34Z</time>
      </trkpt>
      <trkpt lat="46.52794" lon="-1.75292">
        <ele>37</ele>
        <time>2018-03-22T06:27:34Z</time>
      </trkpt>
      <trkpt lat="46.52795" lon="-1.75291">
        <ele>37</ele>
        <time>2018-03-22T06:28:34Z</time>
      </trkpt>
      <trkpt lat="46.52796" lon="-1.7529">
        <ele>37</ele>
        <time>2018-03-22T06:29:34Z</time>
      </trkpt>
      <trkpt lat="46.52797" lon="-1.75289">
        <ele>37</ele>
        <time>2018-03-22T06:30:34Z</time>
      </trkpt>
      <trkpt lat="46.52798" lon="-1.75288">
        <ele>37</ele>
        <time>2018-03-22T06:31:34Z</time>
      </trkpt>
      <trkpt lat="46.52799" lon="-1.75287">
        <ele>37</ele>
        <time>2018-03-22T06:32:34Z</time>
      </trkpt>
      <trkpt lat="46.528" lon="-1.75286">
        <ele>37</ele>
        <time>2018-03-22T06:33:34Z</time>
      </trkpt>
      <trkpt lat="46.52801" lon="-1.75285">
        <ele>37</ele>
        <time>2018-03-22T06:34:34Z</time>
      </trkpt>
      <trkpt lat="46.52804" lon="-1.75277">
        <ele>38</ele>
        <time>2018-03-22T06:35:34Z</time>
      </trkpt>
      <trkpt lat="46.52806" lon="-1.7527">
        <ele>38</ele>
        <time>2018-03-22T06:36:34Z</time>
      </trkpt>
      <trkpt lat="46.52807" lon="-1.75261">
        <ele>38</ele>
        <time>2018-03-22T06:37:34Z</time>
      </trkpt>
      <trkpt lat="46.52806" lon="-1.7525">
        <ele>38</ele>
        <time>2018-03-22T06:38:34Z</time>
      </trkpt>
      <trkpt lat="46.52805" lon="-1.75241">
        <ele>39</ele>
        <time>2018-03-22T06:39:34Z</time>
      </trkpt>
      <trkpt lat="46.52801" lon="-1.75226">
        <ele>39</ele>
        <time>2018-03-22T06:40:34Z</time>
      </trkpt>
      <trkpt lat="46.5279" lon="-1.75212">
        <ele>39</ele>
        <time>2018-03-22T06:41:34Z</time>
      </trkpt>
      <trkpt lat="46.52782" lon="-1.752">
        <ele>38</ele>
        <time>2018-03-22T06:42:34Z</time>
      </trkpt>
      <trkpt lat="46.52773" lon="-1.75181">
        <ele>39</ele>
        <time>2018-03-22T06:43:34Z</time>
      </trkpt>
      <trkpt lat="46.52766" lon="-1.75162">
        <ele>39</ele>
        <time>2018-03-22T06:44:34Z</time>
      </trkpt>
      <trkpt lat="46.52766" lon="-1.75161">
        <ele>39</ele>
        <time>2018-03-22T06:45:34Z</time>
      </trkpt>
      <trkpt lat="46.52762" lon="-1.75153">
        <ele>39</ele>
        <time>2018-03-22T06:46:34Z</time>
      </trkpt>
      <trkpt lat="46.52757" lon="-1.75138">
        <ele>39</ele>
        <time>2018-03-22T06:47:34Z</time>
      </trkpt>
      <trkpt lat="46.52757" lon="-1.75137">
        <ele>39</ele>
        <time>2018-03-22T06:48:34Z</time>
      </trkpt>
      <trkpt lat="46.52756" lon="-1.75137">
        <ele>39</ele>
        <time>2018-03-22T06:49:34Z</time>
      </trkpt>
      <trkpt lat="46.52755" lon="-1.75137">
        <ele>39</ele>
        <time>2018-03-22T06:50:34Z</time>
      </trkpt>
      <trkpt lat="46.52754" lon="-1.75136">
        <ele>39</ele>
        <time>2018-03-22T06:51:34Z</time>
      </trkpt>
      <trkpt lat="46.52753" lon="-1.75136">
        <ele>38</ele>
        <time>2018-03-22T06:52:34Z</time>
      </trkpt>
      <trkpt lat="46.52753" lon="-1.75135">
        <ele>38</ele>
        <time>2018-03-22T06:53:34Z</time>
      </trkpt>
      <trkpt lat="46.52752" lon="-1.75134">
        <ele>38</ele>
        <time>2018-03-22T06:54:34Z</time>
      </trkpt>
      <trkpt lat="46.52752" lon="-1.75133">
        <ele>38</ele>
        <time>2018-03-22T06:55:34Z</time>
      </trkpt>
      <trkpt lat="46.52751" lon="-1.75133">
        <ele>38</ele>
        <time>2018-03-22T06:56:34Z</time>
      </trkpt>
      <trkpt lat="46.52751" lon="-1.75132">
        <ele>38</ele>
        <time>2018-03-22T06:57:34Z</time>
      </trkpt>
      <trkpt lat="46.52751" lon="-1.75131">
        <ele>38</ele>
        <time>2018-03-22T06:58:34Z</time>
      </trkpt>
      <trkpt lat="46.52751" lon="-1.7513">
        <ele>38</ele>
        <time>2018-03-22T06:59:34Z</time>
      </trkpt>
      <trkpt lat="46.5275" lon="-1.75129">
        <ele>38</ele>
        <time>2018-03-22T07:00:34Z</time>
      </trkpt>
      <trkpt lat="46.5275" lon="-1.75128">
        <ele>38</ele>
        <time>2018-03-22T07:01:34Z</time>
      </trkpt>
      <trkpt lat="46.5275" lon="-1.75127">
        <ele>38</ele>
        <time>2018-03-22T07:02:34Z</time>
      </trkpt>
      <trkpt lat="46.5275" lon="-1.75126">
        <ele>38</ele>
        <time>2018-03-22T07:03:34Z</time>
      </trkpt>
      <trkpt lat="46.5275" lon="-1.75125">
        <ele>39</ele>
        <time>2018-03-22T07:04:34Z</time>
      </trkpt>
      <trkpt lat="46.5275" lon="-1.75124">
        <ele>39</ele>
        <time>2018-03-22T07:05:34Z</time>
      </trkpt>
      <trkpt lat="46.52751" lon="-1.75124">
        <ele>39</ele>
        <time>2018-03-22T07:06:34Z</time>
      </trkpt>
      <trkpt lat="46.52751" lon="-1.75123">
        <ele>39</ele>
        <time>2018-03-22T07:07:34Z</time>
      </trkpt>
      <trkpt lat="46.52751" lon="-1.75122">
        <ele>39</ele>
        <time>2018-03-22T07:08:34Z</time>
      </trkpt>
      <trkpt lat="46.52751" lon="-1.75121">
        <ele>39</ele>
        <time>2018-03-22T07:09:34Z</time>
      </trkpt>
      <trkpt lat="46.52752" lon="-1.7512">
        <ele>39</ele>
        <time>2018-03-22T07:10:34Z</time>
      </trkpt>
      <trkpt lat="46.52749" lon="-1.75101">
        <ele>39</ele>
        <time>2018-03-22T07:11:34Z</time>
      </trkpt>
      <trkpt lat="46.52748" lon="-1.75088">
        <ele>39</ele>
        <time>2018-03-22T07:12:34Z</time>
      </trkpt>
      <trkpt lat="46.52746" lon="-1.75078">
        <ele>39</ele>
        <time>2018-03-22T07:13:34Z</time>
      </trkpt>
      <trkpt lat="46.5274" lon="-1.7505">
        <ele>39</ele>
        <time>2018-03-22T07:14:34Z</time>
      </trkpt>
      <trkpt lat="46.52738" lon="-1.75034">
        <ele>39</ele>
        <time>2018-03-22T07:15:34Z</time>
      </trkpt>
      <trkpt lat="46.52734" lon="-1.74999">
        <ele>38</ele>
        <time>2018-03-22T07:16:34Z</time>
      </trkpt>
      <trkpt lat="46.52732" lon="-1.74991">
        <ele>38</ele>
        <time>2018-03-22T07:17:34Z</time>
      </trkpt>
      <trkpt lat="46.52727" lon="-1.74946">
        <ele>39</ele>
        <time>2018-03-22T07:18:34Z</time>
      </trkpt>
      <trkpt lat="46.52726" lon="-1.74935">
        <ele>39</ele>
        <time>2018-03-22T07:19:34Z</time>
      </trkpt>
      <trkpt lat="46.52723" lon="-1.74917">
        <ele>39</ele>
        <time>2018-03-22T07:20:34Z</time>
      </trkpt>
      <trkpt lat="46.52721" lon="-1.74897">
        <ele>39</ele>
        <time>2018-03-22T07:21:34Z</time>
      </trkpt>
      <trkpt lat="46.52718" lon="-1.74879">
        <ele>39</ele>
        <time>2018-03-22T07:22:34Z</time>
      </trkpt>
      <trkpt lat="46.52716" lon="-1.74871">
        <ele>39</ele>
        <time>2018-03-22T07:23:34Z</time>
      </trkpt>
      <trkpt lat="46.52715" lon="-1.74858">
        <ele>39</ele>
        <time>2018-03-22T07:24:34Z</time>
      </trkpt>
      <trkpt lat="46.52714" lon="-1.74851">
        <ele>39</ele>
        <time>2018-03-22T07:25:34Z</time>
      </trkpt>
      <trkpt lat="46.52712" lon="-1.74844">
        <ele>39</ele>
        <time>2018-03-22T07:26:34Z</time>
      </trkpt>
      <trkpt lat="46.52709" lon="-1.7483">
        <ele>39</ele>
        <time>2018-03-22T07:27:34Z</time>
      </trkpt>
      <trkpt lat="46.52697" lon="-1.7478">
        <ele>38</ele>
        <time>2018-03-22T07:28:34Z</time>
      </trkpt>
      <trkpt lat="46.52683" lon="-1.74728">
        <ele>37</ele>
        <time>2018-03-22T07:29:34Z</time>
      </trkpt>
      <trkpt lat="46.52682" lon="-1.74725">
        <ele>37</ele>
        <time>2018-03-22T07:30:34Z</time>
      </trkpt>
      <trkpt lat="46.52654" lon="-1.74622">
        <ele>35</ele>
        <time>2018-03-22T07:31:34Z</time>
      </trkpt>
      <trkpt lat="46.52644" lon="-1.74571">
        <ele>34</ele>
        <time>2018-03-22T07:32:34Z</time>
      </trkpt>
      <trkpt lat="46.52642" lon="-1.74562">
        <ele>34</ele>
        <time>2018-03-22T07:33:34Z</time>
      </trkpt>
      <trkpt lat="46.52639" lon="-1.7454">
        <ele>34</ele>
        <time>2018-03-22T07:34:34Z</time>
      </trkpt>
      <trkpt lat="46.52638" lon="-1.74528">
        <ele>34</ele>
        <time>2018-03-22T07:35:34Z</time>
      </trkpt>
      <trkpt lat="46.52636" lon="-1.74504">
        <ele>34</ele>
        <time>2018-03-22T07:36:34Z</time>
      </trkpt>
      <trkpt lat="46.52634" lon="-1.74463">
        <ele>34</ele>
        <time>2018-03-22T07:37:34Z</time>
      </trkpt>
      <trkpt lat="46.52634" lon="-1.74443">
        <ele>34</ele>
        <time>2018-03-22T07:38:34Z</time>
      </trkpt>
      <trkpt lat="46.52634" lon="-1.74417">
        <ele>34</ele>
        <time>2018-03-22T07:39:34Z</time>
      </trkpt>
      <trkpt lat="46.52635" lon="-1.7438">
        <ele>34</ele>
        <time>2018-03-22T07:40:34Z</time>
      </trkpt>
      <trkpt lat="46.52635" lon="-1.74353">
        <ele>33</ele>
        <time>2018-03-22T07:41:34Z</time>
      </trkpt>
      <trkpt lat="46.52636" lon="-1.74343">
        <ele>33</ele>
        <time>2018-03-22T07:42:34Z</time>
      </trkpt>
      <trkpt lat="46.52637" lon="-1.74337">
        <ele>33</ele>
        <time>2018-03-22T07:43:34Z</time>
      </trkpt>
      <trkpt lat="46.52638" lon="-1.74314">
        <ele>33</ele>
        <time>2018-03-22T07:44:34Z</time>
      </trkpt>
      <trkpt lat="46.52638" lon="-1.74303">
        <ele>33</ele>
        <time>2018-03-22T07:45:34Z</time>
      </trkpt>
      <trkpt lat="46.52636" lon="-1.7426">
        <ele>34</ele>
        <time>2018-03-22T07:46:34Z</time>
      </trkpt>
      <trkpt lat="46.5263" lon="-1.74207">
        <ele>33</ele>
        <time>2018-03-22T07:47:34Z</time>
      </trkpt>
      <trkpt lat="46.5263" lon="-1.74203">
        <ele>33</ele>
        <time>2018-03-22T07:48:34Z</time>
      </trkpt>
      <trkpt lat="46.52619" lon="-1.74121">
        <ele>32</ele>
        <time>2018-03-22T07:49:34Z</time>
      </trkpt>
      <trkpt lat="46.52608" lon="-1.74038">
        <ele>31</ele>
        <time>2018-03-22T07:50:34Z</time>
      </trkpt>
      <trkpt lat="46.52601" lon="-1.73993">
        <ele>30</ele>
        <time>2018-03-22T07:51:34Z</time>
      </trkpt>
      <trkpt lat="46.52591" lon="-1.7394">
        <ele>30</ele>
        <time>2018-03-22T07:52:34Z</time>
      </trkpt>
      <trkpt lat="46.52574" lon="-1.73867">
        <ele>30</ele>
        <time>2018-03-22T07:53:34Z</time>
      </trkpt>
      <trkpt lat="46.52567" lon="-1.73843">
        <ele>31</ele>
        <time>2018-03-22T07:54:34Z</time>
      </trkpt>
      <trkpt lat="46.5255" lon="-1.73788">
        <ele>31</ele>
        <time>2018-03-22T07:55:34Z</time>
      </trkpt>
      <trkpt lat="46.52548" lon="-1.73784">
        <ele>31</ele>
        <time>2018-03-22T07:56:34Z</time>
      </trkpt>
      <trkpt lat="46.52545" lon="-1.73775">
        <ele>32</ele>
        <time>2018-03-22T07:57:34Z</time>
      </trkpt>
      <trkpt lat="46.52543" lon="-1.73767">
        <ele>32</ele>
        <time>2018-03-22T07:58:34Z</time>
      </trkpt>
      <trkpt lat="46.52541" lon="-1.73761">
        <ele>32</ele>
        <time>2018-03-22T07:59:34Z</time>
      </trkpt>
      <trkpt lat="46.52537" lon="-1.73746">
        <ele>32</ele>
        <time>2018-03-22T08:00:34Z</time>
      </trkpt>
      <trkpt lat="46.52523" lon="-1.73697">
        <ele>33</ele>
        <time>2018-03-22T08:01:34Z</time>
      </trkpt>
      <trkpt lat="46.52522" lon="-1.73696">
        <ele>33</ele>
        <time>2018-03-22T08:02:34Z</time>
      </trkpt>
      <trkpt lat="46.5252" lon="-1.73688">
        <ele>33</ele>
        <time>2018-03-22T08:03:34Z</time>
      </trkpt>
      <trkpt lat="46.52513" lon="-1.73667">
        <ele>34</ele>
        <time>2018-03-22T08:04:34Z</time>
      </trkpt>
      <trkpt lat="46.52512" lon="-1.73667">
        <ele>34</ele>
        <time>2018-03-22T08:05:34Z</time>
      </trkpt>
      <trkpt lat="46.52511" lon="-1.73667">
        <ele>34</ele>
        <time>2018-03-22T08:06:34Z</time>
      </trkpt>
      <trkpt lat="46.52511" lon="-1.73666">
        <ele>34</ele>
        <time>2018-03-22T08:07:34Z</time>
      </trkpt>
      <trkpt lat="46.5251" lon="-1.73666">
        <ele>34</ele>
        <time>2018-03-22T08:08:34Z</time>
      </trkpt>
      <trkpt lat="46.52509" lon="-1.73665">
        <ele>34</ele>
        <time>2018-03-22T08:09:34Z</time>
      </trkpt>
      <trkpt lat="46.52508" lon="-1.73665">
        <ele>34</ele>
        <time>2018-03-22T08:10:34Z</time>
      </trkpt>
      <trkpt lat="46.52508" lon="-1.73664">
        <ele>34</ele>
        <time>2018-03-22T08:11:34Z</time>
      </trkpt>
      <trkpt lat="46.52507" lon="-1.73663">
        <ele>34</ele>
        <time>2018-03-22T08:12:34Z</time>
      </trkpt>
      <trkpt lat="46.52507" lon="-1.73662">
        <ele>34</ele>
        <time>2018-03-22T08:13:34Z</time>
      </trkpt>
      <trkpt lat="46.52506" lon="-1.73662">
        <ele>34</ele>
        <time>2018-03-22T08:14:34Z</time>
      </trkpt>
      <trkpt lat="46.52506" lon="-1.73661">
        <ele>34</ele>
        <time>2018-03-22T08:15:34Z</time>
      </trkpt>
      <trkpt lat="46.52505" lon="-1.7366">
        <ele>34</ele>
        <time>2018-03-22T08:16:34Z</time>
      </trkpt>
      <trkpt lat="46.52505" lon="-1.73659">
        <ele>34</ele>
        <time>2018-03-22T08:17:34Z</time>
      </trkpt>
      <trkpt lat="46.52505" lon="-1.73658">
        <ele>34</ele>
        <time>2018-03-22T08:18:34Z</time>
      </trkpt>
      <trkpt lat="46.52504" lon="-1.73657">
        <ele>34</ele>
        <time>2018-03-22T08:19:34Z</time>
      </trkpt>
      <trkpt lat="46.52504" lon="-1.73656">
        <ele>34</ele>
        <time>2018-03-22T08:20:34Z</time>
      </trkpt>
      <trkpt lat="46.52504" lon="-1.73655">
        <ele>34</ele>
        <time>2018-03-22T08:21:34Z</time>
      </trkpt>
      <trkpt lat="46.52504" lon="-1.73654">
        <ele>34</ele>
        <time>2018-03-22T08:22:34Z</time>
      </trkpt>
      <trkpt lat="46.52504" lon="-1.73653">
        <ele>34</ele>
        <time>2018-03-22T08:23:34Z</time>
      </trkpt>
      <trkpt lat="46.52504" lon="-1.73652">
        <ele>34</ele>
        <time>2018-03-22T08:24:34Z</time>
      </trkpt>
      <trkpt lat="46.52504" lon="-1.73651">
        <ele>34</ele>
        <time>2018-03-22T08:25:34Z</time>
      </trkpt>
      <trkpt lat="46.52504" lon="-1.7365">
        <ele>34</ele>
        <time>2018-03-22T08:26:34Z</time>
      </trkpt>
      <trkpt lat="46.52504" lon="-1.73649">
        <ele>34</ele>
        <time>2018-03-22T08:27:34Z</time>
      </trkpt>
      <trkpt lat="46.52504" lon="-1.73648">
        <ele>34</ele>
        <time>2018-03-22T08:28:34Z</time>
      </trkpt>
      <trkpt lat="46.52504" lon="-1.73647">
        <ele>34</ele>
        <time>2018-03-22T08:29:34Z</time>
      </trkpt>
      <trkpt lat="46.52505" lon="-1.73647">
        <ele>34</ele>
        <time>2018-03-22T08:30:34Z</time>
      </trkpt>
      <trkpt lat="46.52505" lon="-1.73646">
        <ele>34</ele>
        <time>2018-03-22T08:31:34Z</time>
      </trkpt>
      <trkpt lat="46.52505" lon="-1.73645">
        <ele>34</ele>
        <time>2018-03-22T08:32:34Z</time>
      </trkpt>
      <trkpt lat="46.52505" lon="-1.73644">
        <ele>34</ele>
        <time>2018-03-22T08:33:34Z</time>
      </trkpt>
      <trkpt lat="46.52506" lon="-1.73644">
        <ele>34</ele>
        <time>2018-03-22T08:34:34Z</time>
      </trkpt>
      <trkpt lat="46.52506" lon="-1.73643">
        <ele>34</ele>
        <time>2018-03-22T08:35:34Z</time>
      </trkpt>
      <trkpt lat="46.52506" lon="-1.7363">
        <ele>34</ele>
        <time>2018-03-22T08:36:34Z</time>
      </trkpt>
      <trkpt lat="46.52505" lon="-1.7362">
        <ele>34</ele>
        <time>2018-03-22T08:37:34Z</time>
      </trkpt>
      <trkpt lat="46.52503" lon="-1.73608">
        <ele>35</ele>
        <time>2018-03-22T08:38:34Z</time>
      </trkpt>
      <trkpt lat="46.52503" lon="-1.73607">
        <ele>35</ele>
        <time>2018-03-22T08:39:34Z</time>
      </trkpt>
      <trkpt lat="46.52499" lon="-1.73588">
        <ele>35</ele>
        <time>2018-03-22T08:40:34Z</time>
      </trkpt>
      <trkpt lat="46.52496" lon="-1.73571">
        <ele>35</ele>
        <time>2018-03-22T08:41:34Z</time>
      </trkpt>
      <trkpt lat="46.52495" lon="-1.73552">
        <ele>35</ele>
        <time>2018-03-22T08:42:34Z</time>
      </trkpt>
      <trkpt lat="46.52493" lon="-1.73523">
        <ele>36</ele>
        <time>2018-03-22T08:43:34Z</time>
      </trkpt>
      <trkpt lat="46.52492" lon="-1.73483">
        <ele>36</ele>
        <time>2018-03-22T08:44:34Z</time>
      </trkpt>
      <trkpt lat="46.52491" lon="-1.73454">
        <ele>35</ele>
        <time>2018-03-22T08:45:34Z</time>
      </trkpt>
      <trkpt lat="46.5249" lon="-1.73419">
        <ele>35</ele>
        <time>2018-03-22T08:46:34Z</time>
      </trkpt>
      <trkpt lat="46.52489" lon="-1.73394">
        <ele>36</ele>
        <time>2018-03-22T08:47:34Z</time>
      </trkpt>
      <trkpt lat="46.52487" lon="-1.73331">
        <ele>37</ele>
        <time>2018-03-22T08:48:34Z</time>
      </trkpt>
      <trkpt lat="46.52487" lon="-1.73308">
        <ele>37</ele>
        <time>2018-03-22T08:49:34Z</time>
      </trkpt>
      <trkpt lat="46.52488" lon="-1.73275">
        <ele>37</ele>
        <time>2018-03-22T08:50:34Z</time>
      </trkpt>
      <trkpt lat="46.52489" lon="-1.73263">
        <ele>37</ele>
        <time>2018-03-22T08:51:34Z</time>
      </trkpt>
      <trkpt lat="46.5249" lon="-1.73257">
        <ele>37</ele>
        <time>2018-03-22T08:52:34Z</time>
      </trkpt>
      <trkpt lat="46.52494" lon="-1.7323">
        <ele>37</ele>
        <time>2018-03-22T08:53:34Z</time>
      </trkpt>
      <trkpt lat="46.52505" lon="-1.73168">
        <ele>37</ele>
        <time>2018-03-22T08:54:34Z</time>
      </trkpt>
      <trkpt lat="46.52514" lon="-1.73122">
        <ele>37</ele>
        <time>2018-03-22T08:55:34Z</time>
      </trkpt>
      <trkpt lat="46.5252" lon="-1.73091">
        <ele>37</ele>
        <time>2018-03-22T08:56:34Z</time>
      </trkpt>
      <trkpt lat="46.52537" lon="-1.73011">
        <ele>37</ele>
        <time>2018-03-22T08:57:34Z</time>
      </trkpt>
      <trkpt lat="46.52559" lon="-1.72898">
        <ele>38</ele>
        <time>2018-03-22T08:58:34Z</time>
      </trkpt>
      <trkpt lat="46.52575" lon="-1.7282">
        <ele>39</ele>
        <time>2018-03-22T08:59:34Z</time>
      </trkpt>
      <trkpt lat="46.52577" lon="-1.72808">
        <ele>39</ele>
        <time>2018-03-22T09:00:34Z</time>
      </trkpt>
      <trkpt lat="46.52581" lon="-1.72791">
        <ele>39</ele>
        <time>2018-03-22T09:01:34Z</time>
      </trkpt>
      <trkpt lat="46.52598" lon="-1.72698">
        <ele>40</ele>
        <time>2018-03-22T09:02:34Z</time>
      </trkpt>
      <trkpt lat="46.52617" lon="-1.72596">
        <ele>40</ele>
        <time>2018-03-22T09:03:34Z</time>
      </trkpt>
      <trkpt lat="46.52626" lon="-1.72548">
        <ele>40</ele>
        <time>2018-03-22T09:04:34Z</time>
      </trkpt>
      <trkpt lat="46.52638" lon="-1.72483">
        <ele>40</ele>
        <time>2018-03-22T09:05:34Z</time>
      </trkpt>
      <trkpt lat="46.52655" lon="-1.72404">
        <ele>40</ele>
        <time>2018-03-22T09:06:34Z</time>
      </trkpt>
      <trkpt lat="46.52671" lon="-1.72354">
        <ele>39</ele>
        <time>2018-03-22T09:07:34Z</time>
      </trkpt>
      <trkpt lat="46.52694" lon="-1.72292">
        <ele>39</ele>
        <time>2018-03-22T09:08:34Z</time>
      </trkpt>
      <trkpt lat="46.52711" lon="-1.72252">
        <ele>39</ele>
        <time>2018-03-22T09:09:34Z</time>
      </trkpt>
      <trkpt lat="46.52735" lon="-1.72196">
        <ele>39</ele>
        <time>2018-03-22T09:10:34Z</time>
      </trkpt>
      <trkpt lat="46.52758" lon="-1.7214">
        <ele>39</ele>
        <time>2018-03-22T09:11:34Z</time>
      </trkpt>
      <trkpt lat="46.52768" lon="-1.72117">
        <ele>39</ele>
        <time>2018-03-22T09:12:34Z</time>
      </trkpt>
      <trkpt lat="46.52777" lon="-1.72093">
        <ele>38</ele>
        <time>2018-03-22T09:13:34Z</time>
      </trkpt>
      <trkpt lat="46.52797" lon="-1.72038">
        <ele>39</ele>
        <time>2018-03-22T09:14:34Z</time>
      </trkpt>
      <trkpt lat="46.52805" lon="-1.72008">
        <ele>40</ele>
        <time>2018-03-22T09:15:34Z</time>
      </trkpt>
      <trkpt lat="46.52812" lon="-1.71977">
        <ele>41</ele>
        <time>2018-03-22T09:16:34Z</time>
      </trkpt>
      <trkpt lat="46.52821" lon="-1.71929">
        <ele>42</ele>
        <time>2018-03-22T09:17:34Z</time>
      </trkpt>
      <trkpt lat="46.52826" lon="-1.71898">
        <ele>43</ele>
        <time>2018-03-22T09:18:34Z</time>
      </trkpt>
      <trkpt lat="46.52832" lon="-1.71866">
        <ele>42</ele>
        <time>2018-03-22T09:19:34Z</time>
      </trkpt>
      <trkpt lat="46.52836" lon="-1.71841">
        <ele>42</ele>
        <time>2018-03-22T09:20:34Z</time>
      </trkpt>
      <trkpt lat="46.52841" lon="-1.71812">
        <ele>41</ele>
        <time>2018-03-22T09:21:34Z</time>
      </trkpt>
      <trkpt lat="46.52845" lon="-1.71784">
        <ele>41</ele>
        <time>2018-03-22T09:22:34Z</time>
      </trkpt>
      <trkpt lat="46.52857" lon="-1.71708">
        <ele>41</ele>
        <time>2018-03-22T09:23:34Z</time>
      </trkpt>
      <trkpt lat="46.5286" lon="-1.71685">
        <ele>41</ele>
        <time>2018-03-22T09:24:34Z</time>
      </trkpt>
      <trkpt lat="46.52865" lon="-1.71665">
        <ele>41</ele>
        <time>2018-03-22T09:25:34Z</time>
      </trkpt>
      <trkpt lat="46.52873" lon="-1.71635">
        <ele>42</ele>
        <time>2018-03-22T09:26:34Z</time>
      </trkpt>
      <trkpt lat="46.52877" lon="-1.71622">
        <ele>42</ele>
        <time>2018-03-22T09:27:34Z</time>
      </trkpt>
      <trkpt lat="46.52881" lon="-1.71608">
        <ele>42</ele>
        <time>2018-03-22T09:28:34Z</time>
      </trkpt>
      <trkpt lat="46.52885" lon="-1.716">
        <ele>42</ele>
        <time>2018-03-22T09:29:34Z</time>
      </trkpt>
      <trkpt lat="46.52905" lon="-1.71558">
        <ele>42</ele>
        <time>2018-03-22T09:30:34Z</time>
      </trkpt>
      <trkpt lat="46.52922" lon="-1.71526">
        <ele>41</ele>
        <time>2018-03-22T09:31:34Z</time>
      </trkpt>
      <trkpt lat="46.52967" lon="-1.71444">
        <ele>40</ele>
        <time>2018-03-22T09:32:34Z</time>
      </trkpt>
      <trkpt lat="46.53001" lon="-1.71383">
        <ele>40</ele>
        <time>2018-03-22T09:33:34Z</time>
      </trkpt>
      <trkpt lat="46.53045" lon="-1.71303">
        <ele>40</ele>
        <time>2018-03-22T09:34:34Z</time>
      </trkpt>
      <trkpt lat="46.53081" lon="-1.71236">
        <ele>38</ele>
        <time>2018-03-22T09:35:34Z</time>
      </trkpt>
      <trkpt lat="46.53132" lon="-1.71143">
        <ele>37</ele>
        <time>2018-03-22T09:36:34Z</time>
      </trkpt>
      <trkpt lat="46.53186" lon="-1.71046">
        <ele>35</ele>
        <time>2018-03-22T09:37:34Z</time>
      </trkpt>
      <trkpt lat="46.53226" lon="-1.70974">
        <ele>32</ele>
        <time>2018-03-22T09:38:34Z</time>
      </trkpt>
      <trkpt lat="46.53267" lon="-1.70899">
        <ele>32</ele>
        <time>2018-03-22T09:39:34Z</time>
      </trkpt>
      <trkpt lat="46.53288" lon="-1.7086">
        <ele>32</ele>
        <time>2018-03-22T09:40:34Z</time>
      </trkpt>
      <trkpt lat="46.53317" lon="-1.70808">
        <ele>32</ele>
        <time>2018-03-22T09:41:34Z</time>
      </trkpt>
      <trkpt lat="46.53341" lon="-1.70766">
        <ele>33</ele>
        <time>2018-03-22T09:42:34Z</time>
      </trkpt>
      <trkpt lat="46.5337" lon="-1.70712">
        <ele>33</ele>
        <time>2018-03-22T09:43:34Z</time>
      </trkpt>
      <trkpt lat="46.534" lon="-1.70657">
        <ele>35</ele>
        <time>2018-03-22T09:44:34Z</time>
      </trkpt>
      <trkpt lat="46.53433" lon="-1.70598">
        <ele>35</ele>
        <time>2018-03-22T09:45:34Z</time>
      </trkpt>
      <trkpt lat="46.53457" lon="-1.70561">
        <ele>34</ele>
        <time>2018-03-22T09:46:34Z</time>
      </trkpt>
      <trkpt lat="46.53461" lon="-1.70556">
        <ele>34</ele>
        <time>2018-03-22T09:47:34Z</time>
      </trkpt>
      <trkpt lat="46.53504" lon="-1.70497">
        <ele>33</ele>
        <time>2018-03-22T09:48:34Z</time>
      </trkpt>
      <trkpt lat="46.53552" lon="-1.70438">
        <ele>32</ele>
        <time>2018-03-22T09:49:34Z</time>
      </trkpt>
      <trkpt lat="46.53625" lon="-1.70345">
        <ele>29</ele>
        <time>2018-03-22T09:50:34Z</time>
      </trkpt>
      <trkpt lat="46.53715" lon="-1.70232">
        <ele>27</ele>
        <time>2018-03-22T09:51:34Z</time>
      </trkpt>
      <trkpt lat="46.53791" lon="-1.70137">
        <ele>27</ele>
        <time>2018-03-22T09:52:34Z</time>
      </trkpt>
      <trkpt lat="46.5385" lon="-1.70063">
        <ele>28</ele>
        <time>2018-03-22T09:53:34Z</time>
      </trkpt>
      <trkpt lat="46.53888" lon="-1.7002">
        <ele>27</ele>
        <time>2018-03-22T09:54:34Z</time>
      </trkpt>
      <trkpt lat="46.53892" lon="-1.70015">
        <ele>27</ele>
        <time>2018-03-22T09:55:34Z</time>
      </trkpt>
      <trkpt lat="46.53978" lon="-1.69906">
        <ele>25</ele>
        <time>2018-03-22T09:56:34Z</time>
      </trkpt>
      <trkpt lat="46.54028" lon="-1.69843">
        <ele>24</ele>
        <time>2018-03-22T09:57:34Z</time>
      </trkpt>
      <trkpt lat="46.54086" lon="-1.69771">
        <ele>24</ele>
        <time>2018-03-22T09:58:34Z</time>
      </trkpt>
      <trkpt lat="46.54108" lon="-1.69743">
        <ele>25</ele>
        <time>2018-03-22T09:59:34Z</time>
      </trkpt>
      <trkpt lat="46.54118" lon="-1.69729">
        <ele>25</ele>
        <time>2018-03-22T10:00:34Z</time>
      </trkpt>
      <trkpt lat="46.54176" lon="-1.69658">
        <ele>23</ele>
        <time>2018-03-22T10:01:34Z</time>
      </trkpt>
      <trkpt lat="46.54231" lon="-1.69586">
        <ele>22</ele>
        <time>2018-03-22T10:02:34Z</time>
      </trkpt>
      <trkpt lat="46.54331" lon="-1.69463">
        <ele>20</ele>
        <time>2018-03-22T10:03:34Z</time>
      </trkpt>
      <trkpt lat="46.54357" lon="-1.69428">
        <ele>17</ele>
        <time>2018-03-22T10:04:34Z</time>
      </trkpt>
      <trkpt lat="46.54372" lon="-1.69406">
        <ele>16</ele>
        <time>2018-03-22T10:05:34Z</time>
      </trkpt>
      <trkpt lat="46.54385" lon="-1.69384">
        <ele>15</ele>
        <time>2018-03-22T10:06:34Z</time>
      </trkpt>
      <trkpt lat="46.54398" lon="-1.69357">
        <ele>14</ele>
        <time>2018-03-22T10:07:34Z</time>
      </trkpt>
      <trkpt lat="46.5441" lon="-1.69331">
        <ele>14</ele>
        <time>2018-03-22T10:08:34Z</time>
      </trkpt>
      <trkpt lat="46.54422" lon="-1.69293">
        <ele>14</ele>
        <time>2018-03-22T10:09:34Z</time>
      </trkpt>
      <trkpt lat="46.54437" lon="-1.69244">
        <ele>14</ele>
        <time>2018-03-22T10:10:34Z</time>
      </trkpt>
      <trkpt lat="46.54447" lon="-1.69213">
        <ele>14</ele>
        <time>2018-03-22T10:11:34Z</time>
      </trkpt>
      <trkpt lat="46.54448" lon="-1.69209">
        <ele>14</ele>
        <time>2018-03-22T10:12:34Z</time>
      </trkpt>
      <trkpt lat="46.54457" lon="-1.69181">
        <ele>13</ele>
        <time>2018-03-22T10:13:34Z</time>
      </trkpt>
      <trkpt lat="46.54463" lon="-1.69161">
        <ele>13</ele>
        <time>2018-03-22T10:14:34Z</time>
      </trkpt>
      <trkpt lat="46.54472" lon="-1.69129">
        <ele>12</ele>
        <time>2018-03-22T10:15:34Z</time>
      </trkpt>
      <trkpt lat="46.54482" lon="-1.69095">
        <ele>11</ele>
        <time>2018-03-22T10:16:34Z</time>
      </trkpt>
      <trkpt lat="46.54491" lon="-1.69062">
        <ele>11</ele>
        <time>2018-03-22T10:17:34Z</time>
      </trkpt>
      <trkpt lat="46.54497" lon="-1.69033">
        <ele>10</ele>
        <time>2018-03-22T10:18:34Z</time>
      </trkpt>
      <trkpt lat="46.54505" lon="-1.68987">
        <ele>10</ele>
        <time>2018-03-22T10:19:34Z</time>
      </trkpt>
      <trkpt lat="46.5451" lon="-1.68953">
        <ele>10</ele>
        <time>2018-03-22T10:20:34Z</time>
      </trkpt>
      <trkpt lat="46.54515" lon="-1.68923">
        <ele>11</ele>
        <time>2018-03-22T10:21:34Z</time>
      </trkpt>
      <trkpt lat="46.54523" lon="-1.68874">
        <ele>12</ele>
        <time>2018-03-22T10:22:34Z</time>
      </trkpt>
      <trkpt lat="46.54529" lon="-1.68829">
        <ele>14</ele>
        <time>2018-03-22T10:23:34Z</time>
      </trkpt>
      <trkpt lat="46.54538" lon="-1.68775">
        <ele>15</ele>
        <time>2018-03-22T10:24:34Z</time>
      </trkpt>
      <trkpt lat="46.54545" lon="-1.68729">
        <ele>15</ele>
        <time>2018-03-22T10:25:34Z</time>
      </trkpt>
      <trkpt lat="46.54548" lon="-1.68708">
        <ele>15</ele>
        <time>2018-03-22T10:26:34Z</time>
      </trkpt>
      <trkpt lat="46.54553" lon="-1.68679">
        <ele>15</ele>
        <time>2018-03-22T10:27:34Z</time>
      </trkpt>
      <trkpt lat="46.54558" lon="-1.68646">
        <ele>15</ele>
        <time>2018-03-22T10:28:34Z</time>
      </trkpt>
      <trkpt lat="46.54563" lon="-1.68615">
        <ele>15</ele>
        <time>2018-03-22T10:29:34Z</time>
      </trkpt>
      <trkpt lat="46.54566" lon="-1.6859">
        <ele>15</ele>
        <time>2018-03-22T10:30:34Z</time>
      </trkpt>
      <trkpt lat="46.54568" lon="-1.68571">
        <ele>15</ele>
        <time>2018-03-22T10:31:34Z</time>
      </trkpt>
      <trkpt lat="46.54569" lon="-1.68542">
        <ele>15</ele>
        <time>2018-03-22T10:32:34Z</time>
      </trkpt>
      <trkpt lat="46.54569" lon="-1.68526">
        <ele>15</ele>
        <time>2018-03-22T10:33:34Z</time>
      </trkpt>
      <trkpt lat="46.54568" lon="-1.68516">
        <ele>15</ele>
        <time>2018-03-22T10:34:34Z</time>
      </trkpt>
      <trkpt lat="46.54567" lon="-1.68499">
        <ele>15</ele>
        <time>2018-03-22T10:35:34Z</time>
      </trkpt>
      <trkpt lat="46.54566" lon="-1.68483">
        <ele>15</ele>
        <time>2018-03-22T10:36:34Z</time>
      </trkpt>
      <trkpt lat="46.54564" lon="-1.68475">
        <ele>15</ele>
        <time>2018-03-22T10:37:34Z</time>
      </trkpt>
      <trkpt lat="46.54564" lon="-1.68475">
        <ele>15</ele>
        <time>2018-03-22T10:38:34Z</time>
      </trkpt>
      <trkpt lat="46.54562" lon="-1.68459">
        <ele>15</ele>
        <time>2018-03-22T10:39:34Z</time>
      </trkpt>
      <trkpt lat="46.54559" lon="-1.68441">
        <ele>15</ele>
        <time>2018-03-22T10:40:34Z</time>
      </trkpt>
      <trkpt lat="46.54554" lon="-1.68416">
        <ele>15</ele>
        <time>2018-03-22T10:41:34Z</time>
      </trkpt>
      <trkpt lat="46.5455" lon="-1.68389">
        <ele>15</ele>
        <time>2018-03-22T10:42:34Z</time>
      </trkpt>
      <trkpt lat="46.54547" lon="-1.68361">
        <ele>15</ele>
        <time>2018-03-22T10:43:34Z</time>
      </trkpt>
      <trkpt lat="46.54544" lon="-1.68335">
        <ele>15</ele>
        <time>2018-03-22T10:44:34Z</time>
      </trkpt>
      <trkpt lat="46.54544" lon="-1.68308">
        <ele>16</ele>
        <time>2018-03-22T10:45:34Z</time>
      </trkpt>
      <trkpt lat="46.54544" lon="-1.68282">
        <ele>16</ele>
        <time>2018-03-22T10:46:34Z</time>
      </trkpt>
      <trkpt lat="46.54545" lon="-1.68257">
        <ele>17</ele>
        <time>2018-03-22T10:47:34Z</time>
      </trkpt>
      <trkpt lat="46.54546" lon="-1.6824">
        <ele>17</ele>
        <time>2018-03-22T10:48:34Z</time>
      </trkpt>
      <trkpt lat="46.54547" lon="-1.6822">
        <ele>18</ele>
        <time>2018-03-22T10:49:34Z</time>
      </trkpt>
      <trkpt lat="46.54549" lon="-1.68189">
        <ele>19</ele>
        <time>2018-03-22T10:50:34Z</time>
      </trkpt>
      <trkpt lat="46.54553" lon="-1.68137">
        <ele>20</ele>
        <time>2018-03-22T10:51:34Z</time>
      </trkpt>
      <trkpt lat="46.54558" lon="-1.68082">
        <ele>21</ele>
        <time>2018-03-22T10:52:34Z</time>
      </trkpt>
      <trkpt lat="46.5456" lon="-1.68061">
        <ele>22</ele>
        <time>2018-03-22T10:53:34Z</time>
      </trkpt>
      <trkpt lat="46.54562" lon="-1.68038">
        <ele>22</ele>
        <time>2018-03-22T10:54:34Z</time>
      </trkpt>
      <trkpt lat="46.5457" lon="-1.67935">
        <ele>24</ele>
        <time>2018-03-22T10:55:34Z</time>
      </trkpt>
      <trkpt lat="46.54573" lon="-1.67901">
        <ele>24</ele>
        <time>2018-03-22T10:56:34Z</time>
      </trkpt>
      <trkpt lat="46.54574" lon="-1.67884">
        <ele>24</ele>
        <time>2018-03-22T10:57:34Z</time>
      </trkpt>
      <trkpt lat="46.54577" lon="-1.67855">
        <ele>25</ele>
        <time>2018-03-22T10:58:34Z</time>
      </trkpt>
      <trkpt lat="46.54578" lon="-1.67831">
        <ele>25</ele>
        <time>2018-03-22T10:59:34Z</time>
      </trkpt>
      <trkpt lat="46.54578" lon="-1.67818">
        <ele>25</ele>
        <time>2018-03-22T11:00:34Z</time>
      </trkpt>
      <trkpt lat="46.54577" lon="-1.67799">
        <ele>24</ele>
        <time>2018-03-22T11:01:34Z</time>
      </trkpt>
      <trkpt lat="46.54575" lon="-1.67784">
        <ele>24</ele>
        <time>2018-03-22T11:02:34Z</time>
      </trkpt>
      <trkpt lat="46.54572" lon="-1.67776">
        <ele>23</ele>
        <time>2018-03-22T11:03:34Z</time>
      </trkpt>
      <trkpt lat="46.54566" lon="-1.67768">
        <ele>23</ele>
        <time>2018-03-22T11:04:34Z</time>
      </trkpt>
      <trkpt lat="46.54563" lon="-1.67764">
        <ele>23</ele>
        <time>2018-03-22T11:05:34Z</time>
      </trkpt>
      <trkpt lat="46.54563" lon="-1.67764">
        <ele>23</ele>
        <time>2018-03-22T11:06:34Z</time>
      </trkpt>
      <trkpt lat="46.54562" lon="-1.67764">
        <ele>23</ele>
        <time>2018-03-22T11:07:34Z</time>
      </trkpt>
      <trkpt lat="46.54561" lon="-1.67764">
        <ele>23</ele>
        <time>2018-03-22T11:08:34Z</time>
      </trkpt>
      <trkpt lat="46.5456" lon="-1.67764">
        <ele>23</ele>
        <time>2018-03-22T11:09:34Z</time>
      </trkpt>
      <trkpt lat="46.54559" lon="-1.67763">
        <ele>23</ele>
        <time>2018-03-22T11:10:34Z</time>
      </trkpt>
      <trkpt lat="46.54558" lon="-1.67763">
        <ele>23</ele>
        <time>2018-03-22T11:11:34Z</time>
      </trkpt>
      <trkpt lat="46.54558" lon="-1.67762">
        <ele>23</ele>
        <time>2018-03-22T11:12:34Z</time>
      </trkpt>
      <trkpt lat="46.54557" lon="-1.67762">
        <ele>23</ele>
        <time>2018-03-22T11:13:34Z</time>
      </trkpt>
      <trkpt lat="46.54557" lon="-1.67761">
        <ele>23</ele>
        <time>2018-03-22T11:14:34Z</time>
      </trkpt>
      <trkpt lat="46.54556" lon="-1.67761">
        <ele>23</ele>
        <time>2018-03-22T11:15:34Z</time>
      </trkpt>
      <trkpt lat="46.54556" lon="-1.6776">
        <ele>23</ele>
        <time>2018-03-22T11:16:34Z</time>
      </trkpt>
      <trkpt lat="46.54556" lon="-1.67759">
        <ele>23</ele>
        <time>2018-03-22T11:17:34Z</time>
      </trkpt>
      <trkpt lat="46.54555" lon="-1.67759">
        <ele>23</ele>
        <time>2018-03-22T11:18:34Z</time>
      </trkpt>
      <trkpt lat="46.54555" lon="-1.67758">
        <ele>23</ele>
        <time>2018-03-22T11:19:34Z</time>
      </trkpt>
      <trkpt lat="46.54555" lon="-1.67757">
        <ele>23</ele>
        <time>2018-03-22T11:20:34Z</time>
      </trkpt>
      <trkpt lat="46.54554" lon="-1.67757">
        <ele>23</ele>
        <time>2018-03-22T11:21:34Z</time>
      </trkpt>
      <trkpt lat="46.54554" lon="-1.67756">
        <ele>23</ele>
        <time>2018-03-22T11:22:34Z</time>
      </trkpt>
      <trkpt lat="46.54554" lon="-1.67755">
        <ele>23</ele>
        <time>2018-03-22T11:23:34Z</time>
      </trkpt>
      <trkpt lat="46.54554" lon="-1.67754">
        <ele>23</ele>
        <time>2018-03-22T11:24:34Z</time>
      </trkpt>
      <trkpt lat="46.54554" lon="-1.67753">
        <ele>23</ele>
        <time>2018-03-22T11:25:34Z</time>
      </trkpt>
      <trkpt lat="46.54554" lon="-1.67752">
        <ele>23</ele>
        <time>2018-03-22T11:26:34Z</time>
      </trkpt>
      <trkpt lat="46.54554" lon="-1.67751">
        <ele>23</ele>
        <time>2018-03-22T11:27:34Z</time>
      </trkpt>
      <trkpt lat="46.54554" lon="-1.6775">
        <ele>23</ele>
        <time>2018-03-22T11:28:34Z</time>
      </trkpt>
      <trkpt lat="46.54554" lon="-1.67749">
        <ele>23</ele>
        <time>2018-03-22T11:29:34Z</time>
      </trkpt>
      <trkpt lat="46.54554" lon="-1.67748">
        <ele>23</ele>
        <time>2018-03-22T11:30:34Z</time>
      </trkpt>
      <trkpt lat="46.54554" lon="-1.67747">
        <ele>23</ele>
        <time>2018-03-22T11:31:34Z</time>
      </trkpt>
      <trkpt lat="46.54555" lon="-1.67746">
        <ele>23</ele>
        <time>2018-03-22T11:32:34Z</time>
      </trkpt>
      <trkpt lat="46.54555" lon="-1.67745">
        <ele>23</ele>
        <time>2018-03-22T11:33:34Z</time>
      </trkpt>
      <trkpt lat="46.54555" lon="-1.67744">
        <ele>23</ele>
        <time>2018-03-22T11:34:34Z</time>
      </trkpt>
      <trkpt lat="46.54556" lon="-1.67744">
        <ele>23</ele>
        <time>2018-03-22T11:35:34Z</time>
      </trkpt>
      <trkpt lat="46.54556" lon="-1.67743">
        <ele>23</ele>
        <time>2018-03-22T11:36:34Z</time>
      </trkpt>
      <trkpt lat="46.54557" lon="-1.67742">
        <ele>23</ele>
        <time>2018-03-22T11:37:34Z</time>
      </trkpt>
      <trkpt lat="46.54557" lon="-1.67741">
        <ele>23</ele>
        <time>2018-03-22T11:38:34Z</time>
      </trkpt>
      <trkpt lat="46.54558" lon="-1.67741">
        <ele>23</ele>
        <time>2018-03-22T11:39:34Z</time>
      </trkpt>
      <trkpt lat="46.54558" lon="-1.6774">
        <ele>23</ele>
        <time>2018-03-22T11:40:34Z</time>
      </trkpt>
      <trkpt lat="46.54559" lon="-1.67731">
        <ele>23</ele>
        <time>2018-03-22T11:41:34Z</time>
      </trkpt>
      <trkpt lat="46.54562" lon="-1.67722">
        <ele>22</ele>
        <time>2018-03-22T11:42:34Z</time>
      </trkpt>
      <trkpt lat="46.54566" lon="-1.67713">
        <ele>23</ele>
        <time>2018-03-22T11:43:34Z</time>
      </trkpt>
      <trkpt lat="46.54567" lon="-1.677">
        <ele>22</ele>
        <time>2018-03-22T11:44:34Z</time>
      </trkpt>
      <trkpt lat="46.54567" lon="-1.67692">
        <ele>22</ele>
        <time>2018-03-22T11:45:34Z</time>
      </trkpt>
      <trkpt lat="46.54566" lon="-1.67681">
        <ele>22</ele>
        <time>2018-03-22T11:46:34Z</time>
      </trkpt>
      <trkpt lat="46.54564" lon="-1.6767">
        <ele>22</ele>
        <time>2018-03-22T11:47:34Z</time>
      </trkpt>
      <trkpt lat="46.54561" lon="-1.67654">
        <ele>21</ele>
        <time>2018-03-22T11:48:34Z</time>
      </trkpt>
      <trkpt lat="46.54559" lon="-1.6764">
        <ele>21</ele>
        <time>2018-03-22T11:49:34Z</time>
      </trkpt>
      <trkpt lat="46.54559" lon="-1.67639">
        <ele>21</ele>
        <time>2018-03-22T11:50:34Z</time>
      </trkpt>
      <trkpt lat="46.54557" lon="-1.67616">
        <ele>20</ele>
        <time>2018-03-22T11:51:34Z</time>
      </trkpt>
      <trkpt lat="46.54554" lon="-1.6759">
        <ele>19</ele>
        <time>2018-03-22T11:52:34Z</time>
      </trkpt>
      <trkpt lat="46.54553" lon="-1.67582">
        <ele>19</ele>
        <time>2018-03-22T11:53:34Z</time>
      </trkpt>
      <trkpt lat="46.54553" lon="-1.67572">
        <ele>18</ele>
        <time>2018-03-22T11:54:34Z</time>
      </trkpt>
      <trkpt lat="46.54552" lon="-1.67561">
        <ele>18</ele>
        <time>2018-03-22T11:55:34Z</time>
      </trkpt>
      <trkpt lat="46.5455" lon="-1.67537">
        <ele>18</ele>
        <time>2018-03-22T11:56:34Z</time>
      </trkpt>
      <trkpt lat="46.54545" lon="-1.67502">
        <ele>17</ele>
        <time>2018-03-22T11:57:34Z</time>
      </trkpt>
      <trkpt lat="46.54543" lon="-1.67486">
        <ele>17</ele>
        <time>2018-03-22T11:58:34Z</time>
      </trkpt>
      <trkpt lat="46.5454" lon="-1.67462">
        <ele>17</ele>
        <time>2018-03-22T11:59:34Z</time>
      </trkpt>
      <trkpt lat="46.54537" lon="-1.67439">
        <ele>17</ele>
        <time>2018-03-22T12:00:34Z</time>
      </trkpt>
      <trkpt lat="46.54535" lon="-1.67411">
        <ele>17</ele>
        <time>2018-03-22T12:01:34Z</time>
      </trkpt>
      <trkpt lat="46.54534" lon="-1.67406">
        <ele>18</ele>
        <time>2018-03-22T12:02:34Z</time>
      </trkpt>
      <trkpt lat="46.54536" lon="-1.67371">
        <ele>19</ele>
        <time>2018-03-22T12:03:34Z</time>
      </trkpt>
      <trkpt lat="46.54536" lon="-1.67354">
        <ele>20</ele>
        <time>2018-03-22T12:04:34Z</time>
      </trkpt>
      <trkpt lat="46.54538" lon="-1.67345">
        <ele>20</ele>
        <time>2018-03-22T12:05:34Z</time>
      </trkpt>
      <trkpt lat="46.54539" lon="-1.67341">
        <ele>21</ele>
        <time>2018-03-22T12:06:34Z</time>
      </trkpt>
      <trkpt lat="46.54539" lon="-1.67334">
        <ele>21</ele>
        <time>2018-03-22T12:07:34Z</time>
      </trkpt>
      <trkpt lat="46.54539" lon="-1.67327">
        <ele>21</ele>
        <time>2018-03-22T12:08:34Z</time>
      </trkpt>
      <trkpt lat="46.54539" lon="-1.67318">
        <ele>22</ele>
        <time>2018-03-22T12:09:34Z</time>
      </trkpt>
      <trkpt lat="46.54539" lon="-1.67306">
        <ele>22</ele>
        <time>2018-03-22T12:10:34Z</time>
      </trkpt>
      <trkpt lat="46.54539" lon="-1.67302">
        <ele>23</ele>
        <time>2018-03-22T12:11:34Z</time>
      </trkpt>
      <trkpt lat="46.54537" lon="-1.67283">
        <ele>24</ele>
        <time>2018-03-22T12:12:34Z</time>
      </trkpt>
      <trkpt lat="46.54537" lon="-1.6728">
        <ele>24</ele>
        <time>2018-03-22T12:13:34Z</time>
      </trkpt>
      <trkpt lat="46.54533" lon="-1.67258">
        <ele>25</ele>
        <time>2018-03-22T12:14:34Z</time>
      </trkpt>
      <trkpt lat="46.54533" lon="-1.67255">
        <ele>25</ele>
        <time>2018-03-22T12:15:34Z</time>
      </trkpt>
      <trkpt lat="46.54531" lon="-1.67246">
        <ele>26</ele>
        <time>2018-03-22T12:16:34Z</time>
      </trkpt>
      <trkpt lat="46.54527" lon="-1.67232">
        <ele>26</ele>
        <time>2018-03-22T12:17:34Z</time>
      </trkpt>
      <trkpt lat="46.54527" lon="-1.67233">
        <ele>26</ele>
        <time>2018-03-22T12:18:34Z</time>
      </trkpt>
      <trkpt lat="46.54526" lon="-1.67233">
        <ele>26</ele>
        <time>2018-03-22T12:19:34Z</time>
      </trkpt>
      <trkpt lat="46.54525" lon="-1.67233">
        <ele>26</ele>
        <time>2018-03-22T12:20:34Z</time>
      </trkpt>
      <trkpt lat="46.54524" lon="-1.67233">
        <ele>26</ele>
        <time>2018-03-22T12:21:34Z</time>
      </trkpt>
      <trkpt lat="46.54524" lon="-1.67232">
        <ele>26</ele>
        <time>2018-03-22T12:22:34Z</time>
      </trkpt>
      <trkpt lat="46.54523" lon="-1.67232">
        <ele>26</ele>
        <time>2018-03-22T12:23:34Z</time>
      </trkpt>
      <trkpt lat="46.54523" lon="-1.67231">
        <ele>26</ele>
        <time>2018-03-22T12:24:34Z</time>
      </trkpt>
      <trkpt lat="46.54522" lon="-1.67231">
        <ele>26</ele>
        <time>2018-03-22T12:25:34Z</time>
      </trkpt>
      <trkpt lat="46.54522" lon="-1.6723">
        <ele>26</ele>
        <time>2018-03-22T12:26:34Z</time>
      </trkpt>
      <trkpt lat="46.54522" lon="-1.67229">
        <ele>26</ele>
        <time>2018-03-22T12:27:34Z</time>
      </trkpt>
      <trkpt lat="46.54521" lon="-1.67228">
        <ele>26</ele>
        <time>2018-03-22T12:28:34Z</time>
      </trkpt>
      <trkpt lat="46.54521" lon="-1.67227">
        <ele>26</ele>
        <time>2018-03-22T12:29:34Z</time>
      </trkpt>
      <trkpt lat="46.54521" lon="-1.67226">
        <ele>26</ele>
        <time>2018-03-22T12:30:34Z</time>
      </trkpt>
      <trkpt lat="46.54521" lon="-1.67225">
        <ele>26</ele>
        <time>2018-03-22T12:31:34Z</time>
      </trkpt>
      <trkpt lat="46.54521" lon="-1.67224">
        <ele>26</ele>
        <time>2018-03-22T12:32:34Z</time>
      </trkpt>
      <trkpt lat="46.54522" lon="-1.67224">
        <ele>26</ele>
        <time>2018-03-22T12:33:34Z</time>
      </trkpt>
      <trkpt lat="46.54522" lon="-1.67223">
        <ele>26</ele>
        <time>2018-03-22T12:34:34Z</time>
      </trkpt>
      <trkpt lat="46.54522" lon="-1.67222">
        <ele>26</ele>
        <time>2018-03-22T12:35:34Z</time>
      </trkpt>
      <trkpt lat="46.54523" lon="-1.67222">
        <ele>26</ele>
        <time>2018-03-22T12:36:34Z</time>
      </trkpt>
      <trkpt lat="46.54523" lon="-1.67221">
        <ele>26</ele>
        <time>2018-03-22T12:37:34Z</time>
      </trkpt>
      <trkpt lat="46.54523" lon="-1.6722">
        <ele>26</ele>
        <time>2018-03-22T12:38:34Z</time>
      </trkpt>
      <trkpt lat="46.54524" lon="-1.6722">
        <ele>26</ele>
        <time>2018-03-22T12:39:34Z</time>
      </trkpt>
      <trkpt lat="46.54522" lon="-1.67209">
        <ele>27</ele>
        <time>2018-03-22T12:40:34Z</time>
      </trkpt>
      <trkpt lat="46.54518" lon="-1.67191">
        <ele>27</ele>
        <time>2018-03-22T12:41:34Z</time>
      </trkpt>
      <trkpt lat="46.54518" lon="-1.67185">
        <ele>27</ele>
        <time>2018-03-22T12:42:34Z</time>
      </trkpt>
      <trkpt lat="46.54518" lon="-1.67171">
        <ele>27</ele>
        <time>2018-03-22T12:43:34Z</time>
      </trkpt>
      <trkpt lat="46.54519" lon="-1.67145">
        <ele>28</ele>
        <time>2018-03-22T12:44:34Z</time>
      </trkpt>
      <trkpt lat="46.5452" lon="-1.67119">
        <ele>28</ele>
        <time>2018-03-22T12:45:34Z</time>
      </trkpt>
      <trkpt lat="46.5452" lon="-1.67116">
        <ele>28</ele>
        <time>2018-03-22T12:46:34Z</time>
      </trkpt>
      <trkpt lat="46.54522" lon="-1.67092">
        <ele>27</ele>
        <time>2018-03-22T12:47:34Z</time>
      </trkpt>
      <trkpt lat="46.54526" lon="-1.67064">
        <ele>27</ele>
        <time>2018-03-22T12:48:34Z</time>
      </trkpt>
      <trkpt lat="46.54529" lon="-1.6705">
        <ele>26</ele>
        <time>2018-03-22T12:49:34Z</time>
      </trkpt>
      <trkpt lat="46.54529" lon="-1.6705">
        <ele>26</ele>
        <time>2018-03-22T12:50:34Z</time>
      </trkpt>
      <trkpt lat="46.54531" lon="-1.67045">
        <ele>26</ele>
        <time>2018-03-22T12:51:34Z</time>
      </trkpt>
      <trkpt lat="46.54561" lon="-1.67047">
        <ele>26</ele>
        <time>2018-03-22T12:52:34Z</time>
      </trkpt>
      <trkpt lat="46.54591" lon="-1.67044">
        <ele>25</ele>
        <time>2018-03-22T12:53:34Z</time>
      </trkpt>
      <trkpt lat="46.54594" lon="-1.67044">
        <ele>25</ele>
        <time>2018-03-22T12:54:34Z</time>
      </trkpt>
      <trkpt lat="46.54609" lon="-1.67043">
        <ele>24</ele>
        <time>2018-03-22T12:55:34Z</time>
      </trkpt>
      <trkpt lat="46.54626" lon="-1.67042">
        <ele>24</ele>
        <time>2018-03-22T12:56:34Z</time>
      </trkpt>
      <trkpt lat="46.54655" lon="-1.67043">
        <ele>23</ele>
        <time>2018-03-22T12:57:34Z</time>
      </trkpt>
      <trkpt lat="46.54681" lon="-1.67045">
        <ele>22</ele>
        <time>2018-03-22T12:58:34Z</time>
      </trkpt>
      <trkpt lat="46.54708" lon="-1.67049">
        <ele>21</ele>
        <time>2018-03-22T12:59:34Z</time>
      </trkpt>
      <trkpt lat="46.54734" lon="-1.67053">
        <ele>20</ele>
        <time>2018-03-22T13:00:34Z</time>
      </trkpt>
      <trkpt lat="46.54764" lon="-1.6706">
        <ele>19</ele>
        <time>2018-03-22T13:01:34Z</time>
      </trkpt>
      <trkpt lat="46.54799" lon="-1.67068">
        <ele>18</ele>
        <time>2018-03-22T13:02:34Z</time>
      </trkpt>
      <trkpt lat="46.54831" lon="-1.67074">
        <ele>17</ele>
        <time>2018-03-22T13:03:34Z</time>
      </trkpt>
      <trkpt lat="46.54854" lon="-1.67076">
        <ele>17</ele>
        <time>2018-03-22T13:04:34Z</time>
      </trkpt>
      <trkpt lat="46.54876" lon="-1.67073">
        <ele>16</ele>
        <time>2018-03-22T13:05:34Z</time>
      </trkpt>
      <trkpt lat="46.54887" lon="-1.67071">
        <ele>16</ele>
        <time>2018-03-22T13:06:34Z</time>
      </trkpt>
      <trkpt lat="46.54893" lon="-1.67069">
        <ele>16</ele>
        <time>2018-03-22T13:07:34Z</time>
      </trkpt>
      <trkpt lat="46.54896" lon="-1.67068">
        <ele>16</ele>
        <time>2018-03-22T13:08:34Z</time>
      </trkpt>
      <trkpt lat="46.54908" lon="-1.67063">
        <ele>16</ele>
        <time>2018-03-22T13:09:34Z</time>
      </trkpt>
      <trkpt lat="46.54918" lon="-1.67056">
        <ele>15</ele>
        <time>2018-03-22T13:10:34Z</time>
      </trkpt>
      <trkpt lat="46.54933" lon="-1.67045">
        <ele>15</ele>
        <time>2018-03-22T13:11:34Z</time>
      </trkpt>
      <trkpt lat="46.54943" lon="-1.67034">
        <ele>14</ele>
        <time>2018-03-22T13:12:34Z</time>
      </trkpt>
      <trkpt lat="46.54971" lon="-1.67005">
        <ele>13</ele>
        <time>2018-03-22T13:13:34Z</time>
      </trkpt>
      <trkpt lat="46.55008" lon="-1.66966">
        <ele>14</ele>
        <time>2018-03-22T13:14:34Z</time>
      </trkpt>
      <trkpt lat="46.55049" lon="-1.66923">
        <ele>14</ele>
        <time>2018-03-22T13:15:34Z</time>
      </trkpt>
      <trkpt lat="46.55079" lon="-1.66893">
        <ele>13</ele>
        <time>2018-03-22T13:16:34Z</time>
      </trkpt>
      <trkpt lat="46.55091" lon="-1.66883">
        <ele>13</ele>
        <time>2018-03-22T13:17:34Z</time>
      </trkpt>
      <trkpt lat="46.55101" lon="-1.66877">
        <ele>13</ele>
        <time>2018-03-22T13:18:34Z</time>
      </trkpt>
      <trkpt lat="46.55112" lon="-1.66873">
        <ele>13</ele>
        <time>2018-03-22T13:19:34Z</time>
      </trkpt>
      <trkpt lat="46.5512" lon="-1.66874">
        <ele>12</ele>
        <time>2018-03-22T13:20:34Z</time>
      </trkpt>
      <trkpt lat="46.55132" lon="-1.66875">
        <ele>12</ele>
        <time>2018-03-22T13:21:34Z</time>
      </trkpt>
      <trkpt lat="46.5514" lon="-1.66876">
        <ele>12</ele>
        <time>2018-03-22T13:22:34Z</time>
      </trkpt>
      <trkpt lat="46.55149" lon="-1.66877">
        <ele>12</ele>
        <time>2018-03-22T13:23:34Z</time>
      </trkpt>
      <trkpt lat="46.55176" lon="-1.6688">
        <ele>11</ele>
        <time>2018-03-22T13:24:34Z</time>
      </trkpt>
      <trkpt lat="46.55205" lon="-1.66886">
        <ele>13</ele>
        <time>2018-03-22T13:25:34Z</time>
      </trkpt>
      <trkpt lat="46.55245" lon="-1.66891">
        <ele>14</ele>
        <time>2018-03-22T13:26:34Z</time>
      </trkpt>
      <trkpt lat="46.55265" lon="-1.66895">
        <ele>15</ele>
        <time>2018-03-22T13:27:34Z</time>
      </trkpt>
      <trkpt lat="46.55271" lon="-1.66896">
        <ele>16</ele>
        <time>2018-03-22T13:28:34Z</time>
      </trkpt>
      <trkpt lat="46.55288" lon="-1.66902">
        <ele>17</ele>
        <time>2018-03-22T13:29:34Z</time>
      </trkpt>
      <trkpt lat="46.55298" lon="-1.66908">
        <ele>17</ele>
        <time>2018-03-22T13:30:34Z</time>
      </trkpt>
      <trkpt lat="46.55304" lon="-1.66911">
        <ele>18</ele>
        <time>2018-03-22T13:31:34Z</time>
      </trkpt>
      <trkpt lat="46.55316" lon="-1.66921">
        <ele>18</ele>
        <time>2018-03-22T13:32:34Z</time>
      </trkpt>
      <trkpt lat="46.55337" lon="-1.66942">
        <ele>19</ele>
        <time>2018-03-22T13:33:34Z</time>
      </trkpt>
      <trkpt lat="46.55357" lon="-1.66964">
        <ele>20</ele>
        <time>2018-03-22T13:34:34Z</time>
      </trkpt>
      <trkpt lat="46.55376" lon="-1.66986">
        <ele>21</ele>
        <time>2018-03-22T13:35:34Z</time>
      </trkpt>
      <trkpt lat="46.55394" lon="-1.67009">
        <ele>23</ele>
        <time>2018-03-22T13:36:34Z</time>
      </trkpt>
      <trkpt lat="46.55399" lon="-1.67017">
        <ele>23</ele>
        <time>2018-03-22T13:37:34Z</time>
      </trkpt>
      <trkpt lat="46.55422" lon="-1.67045">
        <ele>24</ele>
        <time>2018-03-22T13:38:34Z</time>
      </trkpt>
      <trkpt lat="46.55435" lon="-1.67058">
        <ele>25</ele>
        <time>2018-03-22T13:39:34Z</time>
      </trkpt>
      <trkpt lat="46.55446" lon="-1.67071">
        <ele>26</ele>
        <time>2018-03-22T13:40:34Z</time>
      </trkpt>
      <trkpt lat="46.55474" lon="-1.67085">
        <ele>27</ele>
        <time>2018-03-22T13:41:34Z</time>
      </trkpt>
      <trkpt lat="46.55488" lon="-1.67087">
        <ele>28</ele>
        <time>2018-03-22T13:42:34Z</time>
      </trkpt>
      <trkpt lat="46.55506" lon="-1.67089">
        <ele>29</ele>
        <time>2018-03-22T13:43:34Z</time>
      </trkpt>
      <trkpt lat="46.55529" lon="-1.67088">
        <ele>30</ele>
        <time>2018-03-22T13:44:34Z</time>
      </trkpt>
      <trkpt lat="46.5558" lon="-1.67084">
        <ele>31</ele>
        <time>2018-03-22T13:45:34Z</time>
      </trkpt>
      <trkpt lat="46.55582" lon="-1.67084">
        <ele>31</ele>
        <time>2018-03-22T13:46:34Z</time>
      </trkpt>
      <trkpt lat="46.55618" lon="-1.67081">
        <ele>31</ele>
        <time>2018-03-22T13:47:34Z</time>
      </trkpt>
      <trkpt lat="46.55658" lon="-1.67078">
        <ele>31</ele>
        <time>2018-03-22T13:48:34Z</time>
      </trkpt>
      <trkpt lat="46.55702" lon="-1.67075">
        <ele>31</ele>
        <time>2018-03-22T13:49:34Z</time>
      </trkpt>
      <trkpt lat="46.5571" lon="-1.67075">
        <ele>31</ele>
        <time>2018-03-22T13:50:34Z</time>
      </trkpt>
      <trkpt lat="46.55728" lon="-1.67075">
        <ele>32</ele>
        <time>2018-03-22T13:51:34Z</time>
      </trkpt>
      <trkpt lat="46.55756" lon="-1.67077">
        <ele>32</ele>
        <time>2018-03-22T13:52:34Z</time>
      </trkpt>
      <trkpt lat="46.558" lon="-1.67082">
        <ele>33</ele>
        <time>2018-03-22T13:53:34Z</time>
      </trkpt>
      <trkpt lat="46.55848" lon="-1.6709">
        <ele>33</ele>
        <time>2018-03-22T13:54:34Z</time>
      </trkpt>
      <trkpt lat="46.55898" lon="-1.67098">
        <ele>34</ele>
        <time>2018-03-22T13:55:34Z</time>
      </trkpt>
      <trkpt lat="46.55935" lon="-1.67105">
        <ele>34</ele>
        <time>2018-03-22T13:56:34Z</time>
      </trkpt>
      <trkpt lat="46.55956" lon="-1.67111">
        <ele>34</ele>
        <time>2018-03-22T13:57:34Z</time>
      </trkpt>
      <trkpt lat="46.55959" lon="-1.67112">
        <ele>35</ele>
        <time>2018-03-22T13:58:34Z</time>
      </trkpt>
      <trkpt lat="46.55979" lon="-1.67118">
        <ele>35</ele>
        <time>2018-03-22T13:59:34Z</time>
      </trkpt>
      <trkpt lat="46.56011" lon="-1.67128">
        <ele>35</ele>
        <time>2018-03-22T14:00:34Z</time>
      </trkpt>
      <trkpt lat="46.56041" lon="-1.67139">
        <ele>35</ele>
        <time>2018-03-22T14:01:34Z</time>
      </trkpt>
      <trkpt lat="46.56064" lon="-1.67148">
        <ele>35</ele>
        <time>2018-03-22T14:02:34Z</time>
      </trkpt>
      <trkpt lat="46.56072" lon="-1.6715">
        <ele>35</ele>
        <time>2018-03-22T14:03:34Z</time>
      </trkpt>
      <trkpt lat="46.56124" lon="-1.6717">
        <ele>35</ele>
        <time>2018-03-22T14:04:34Z</time>
      </trkpt>
      <trkpt lat="46.56169" lon="-1.67186">
        <ele>36</ele>
        <time>2018-03-22T14:05:34Z</time>
      </trkpt>
      <trkpt lat="46.56187" lon="-1.67192">
        <ele>36</ele>
        <time>2018-03-22T14:06:34Z</time>
      </trkpt>
      <trkpt lat="46.56227" lon="-1.67204">
        <ele>36</ele>
        <time>2018-03-22T14:07:34Z</time>
      </trkpt>
      <trkpt lat="46.56251" lon="-1.67209">
        <ele>37</ele>
        <time>2018-03-22T14:08:34Z</time>
      </trkpt>
      <trkpt lat="46.56303" lon="-1.67218">
        <ele>37</ele>
        <time>2018-03-22T14:09:34Z</time>
      </trkpt>
      <trkpt lat="46.56335" lon="-1.67223">
        <ele>37</ele>
        <time>2018-03-22T14:10:34Z</time>
      </trkpt>
      <trkpt lat="46.56358" lon="-1.67225">
        <ele>37</ele>
        <time>2018-03-22T14:11:34Z</time>
      </trkpt>
      <trkpt lat="46.5639" lon="-1.67229">
        <ele>37</ele>
        <time>2018-03-22T14:12:34Z</time>
      </trkpt>
      <trkpt lat="46.56445" lon="-1.67235">
        <ele>37</ele>
        <time>2018-03-22T14:13:34Z</time>
      </trkpt>
      <trkpt lat="46.56476" lon="-1.6724">
        <ele>37</ele>
        <time>2018-03-22T14:14:34Z</time>
      </trkpt>
      <trkpt lat="46.5651" lon="-1.67243">
        <ele>37</ele>
        <time>2018-03-22T14:15:34Z</time>
      </trkpt>
      <trkpt lat="46.5656" lon="-1.6725">
        <ele>37</ele>
        <time>2018-03-22T14:16:34Z</time>
      </trkpt>
      <trkpt lat="46.56613" lon="-1.67258">
        <ele>37</ele>
        <time>2018-03-22T14:17:34Z</time>
      </trkpt>
      <trkpt lat="46.56665" lon="-1.67264">
        <ele>38</ele>
        <time>2018-03-22T14:18:34Z</time>
      </trkpt>
      <trkpt lat="46.56685" lon="-1.67267">
        <ele>38</ele>
        <time>2018-03-22T14:19:34Z</time>
      </trkpt>
      <trkpt lat="46.56733" lon="-1.67274">
        <ele>37</ele>
        <time>2018-03-22T14:20:34Z</time>
      </trkpt>
      <trkpt lat="46.56763" lon="-1.67279">
        <ele>37</ele>
        <time>2018-03-22T14:21:34Z</time>
      </trkpt>
      <trkpt lat="46.5677" lon="-1.6728">
        <ele>36</ele>
        <time>2018-03-22T14:22:34Z</time>
      </trkpt>
      <trkpt lat="46.56773" lon="-1.67281">
        <ele>36</ele>
        <time>2018-03-22T14:23:34Z</time>
      </trkpt>
      <trkpt lat="46.56774" lon="-1.67283">
        <ele>36</ele>
        <time>2018-03-22T14:24:34Z</time>
      </trkpt>
      <trkpt lat="46.56776" lon="-1.67284">
        <ele>36</ele>
        <time>2018-03-22T14:25:34Z</time>
      </trkpt>
      <trkpt lat="46.56777" lon="-1.67286">
        <ele>36</ele>
        <time>2018-03-22T14:26:34Z</time>
      </trkpt>
      <trkpt lat="46.56777" lon="-1.67286">
        <ele>36</ele>
        <time>2018-03-22T14:27:34Z</time>
      </trkpt>
      <trkpt lat="46.56781" lon="-1.67282">
        <ele>36</ele>
        <time>2018-03-22T14:28:34Z</time>
      </trkpt>
      <trkpt lat="46.56793" lon="-1.67273">
        <ele>35</ele>
        <time>2018-03-22T14:29:34Z</time>
      </trkpt>
      <trkpt lat="46.56817" lon="-1.67263">
        <ele>35</ele>
        <time>2018-03-22T14:30:34Z</time>
      </trkpt>
      <trkpt lat="46.56846" lon="-1.67255">
        <ele>34</ele>
        <time>2018-03-22T14:31:34Z</time>
      </trkpt>
      <trkpt lat="46.56878" lon="-1.67249">
        <ele>33</ele>
        <time>2018-03-22T14:32:34Z</time>
      </trkpt>
      <trkpt lat="46.56922" lon="-1.6724">
        <ele>32</ele>
        <time>2018-03-22T14:33:34Z</time>
      </trkpt>
      <trkpt lat="46.56954" lon="-1.67233">
        <ele>31</ele>
        <time>2018-03-22T14:34:34Z</time>
      </trkpt>
      <trkpt lat="46.56961" lon="-1.67232">
        <ele>31</ele>
        <time>2018-03-22T14:35:34Z</time>
      </trkpt>
      <trkpt lat="46.56992" lon="-1.67224">
        <ele>30</ele>
        <time>2018-03-22T14:36:34Z</time>
      </trkpt>
      <trkpt lat="46.57013" lon="-1.67216">
        <ele>29</ele>
        <time>2018-03-22T14:37:34Z</time>
      </trkpt>
      <trkpt lat="46.57031" lon="-1.67207">
        <ele>29</ele>
        <time>2018-03-22T14:38:34Z</time>
      </trkpt>
      <trkpt lat="46.5705" lon="-1.67194">
        <ele>27</ele>
        <time>2018-03-22T14:39:34Z</time>
      </trkpt>
      <trkpt lat="46.57067" lon="-1.67179">
        <ele>26</ele>
        <time>2018-03-22T14:40:34Z</time>
      </trkpt>
      <trkpt lat="46.57088" lon="-1.67154">
        <ele>25</ele>
        <time>2018-03-22T14:41:34Z</time>
      </trkpt>
      <trkpt lat="46.57115" lon="-1.67121">
        <ele>24</ele>
        <time>2018-03-22T14:42:34Z</time>
      </trkpt>
      <trkpt lat="46.5713" lon="-1.67103">
        <ele>24</ele>
        <time>2018-03-22T14:43:34Z</time>
      </trkpt>
      <trkpt lat="46.57139" lon="-1.67094">
        <ele>23</ele>
        <time>2018-03-22T14:44:34Z</time>
      </trkpt>
      <trkpt lat="46.5715" lon="-1.67081">
        <ele>23</ele>
        <time>2018-03-22T14:45:34Z</time>
      </trkpt>
      <trkpt lat="46.57166" lon="-1.67063">
        <ele>24</ele>
        <time>2018-03-22T14:46:34Z</time>
      </trkpt>
      <trkpt lat="46.57181" lon="-1.67049">
        <ele>24</ele>
        <time>2018-03-22T14:47:34Z</time>
      </trkpt>
      <trkpt lat="46.57193" lon="-1.67038">
        <ele>25</ele>
        <time>2018-03-22T14:48:34Z</time>
      </trkpt>
      <trkpt lat="46.57195" lon="-1.67036">
        <ele>25</ele>
        <time>2018-03-22T14:49:34Z</time>
      </trkpt>
      <trkpt lat="46.57197" lon="-1.67034">
        <ele>25</ele>
        <time>2018-03-22T14:50:34Z</time>
      </trkpt>
      <trkpt lat="46.57214" lon="-1.67021">
        <ele>25</ele>
        <time>2018-03-22T14:51:34Z</time>
      </trkpt>
      <trkpt lat="46.57226" lon="-1.67012">
        <ele>26</ele>
        <time>2018-03-22T14:52:34Z</time>
      </trkpt>
      <trkpt lat="46.57241" lon="-1.67002">
        <ele>26</ele>
        <time>2018-03-22T14:53:34Z</time>
      </trkpt>
      <trkpt lat="46.57245" lon="-1.66999">
        <ele>26</ele>
        <time>2018-03-22T14:54:34Z</time>
      </trkpt>
      <trkpt lat="46.57249" lon="-1.66995">
        <ele>26</ele>
        <time>2018-03-22T14:55:34Z</time>
      </trkpt>
      <trkpt lat="46.57254" lon="-1.66992">
        <ele>26</ele>
        <time>2018-03-22T14:56:34Z</time>
      </trkpt>
      <trkpt lat="46.57255" lon="-1.6699">
        <ele>26</ele>
        <time>2018-03-22T14:57:34Z</time>
      </trkpt>
      <trkpt lat="46.57276" lon="-1.66974">
        <ele>26</ele>
        <time>2018-03-22T14:58:34Z</time>
      </trkpt>
      <trkpt lat="46.57321" lon="-1.66938">
        <ele>25</ele>
        <time>2018-03-22T14:59:34Z</time>
      </trkpt>
      <trkpt lat="46.57364" lon="-1.66903">
        <ele>24</ele>
        <time>2018-03-22T15:00:34Z</time>
      </trkpt>
      <trkpt lat="46.574" lon="-1.66873">
        <ele>22</ele>
        <time>2018-03-22T15:01:34Z</time>
      </trkpt>
      <trkpt lat="46.57426" lon="-1.66852">
        <ele>20</ele>
        <time>2018-03-22T15:02:34Z</time>
      </trkpt>
      <trkpt lat="46.57452" lon="-1.66832">
        <ele>18</ele>
        <time>2018-03-22T15:03:34Z</time>
      </trkpt>
      <trkpt lat="46.57475" lon="-1.66813">
        <ele>16</ele>
        <time>2018-03-22T15:04:34Z</time>
      </trkpt>
      <trkpt lat="46.57485" lon="-1.668">
        <ele>16</ele>
        <time>2018-03-22T15:05:34Z</time>
      </trkpt>
      <trkpt lat="46.57496" lon="-1.66781">
        <ele>15</ele>
        <time>2018-03-22T15:06:34Z</time>
      </trkpt>
      <trkpt lat="46.57508" lon="-1.66756">
        <ele>16</ele>
        <time>2018-03-22T15:07:34Z</time>
      </trkpt>
      <trkpt lat="46.57515" lon="-1.66734">
        <ele>15</ele>
        <time>2018-03-22T15:08:34Z</time>
      </trkpt>
      <trkpt lat="46.5752" lon="-1.66716">
        <ele>14</ele>
        <time>2018-03-22T15:09:34Z</time>
      </trkpt>
      <trkpt lat="46.57523" lon="-1.66704">
        <ele>14</ele>
        <time>2018-03-22T15:10:34Z</time>
      </trkpt>
      <trkpt lat="46.57525" lon="-1.66694">
        <ele>13</ele>
        <time>2018-03-22T15:11:34Z</time>
      </trkpt>
      <trkpt lat="46.57527" lon="-1.66685">
        <ele>13</ele>
        <time>2018-03-22T15:12:34Z</time>
      </trkpt>
      <trkpt lat="46.5753" lon="-1.66671">
        <ele>12</ele>
        <time>2018-03-22T15:13:34Z</time>
      </trkpt>
      <trkpt lat="46.57538" lon="-1.66637">
        <ele>12</ele>
        <time>2018-03-22T15:14:34Z</time>
      </trkpt>
      <trkpt lat="46.57547" lon="-1.66605">
        <ele>12</ele>
        <time>2018-03-22T15:15:34Z</time>
      </trkpt>
      <trkpt lat="46.57553" lon="-1.66587">
        <ele>13</ele>
        <time>2018-03-22T15:16:34Z</time>
      </trkpt>
      <trkpt lat="46.57561" lon="-1.6657">
        <ele>14</ele>
        <time>2018-03-22T15:17:34Z</time>
      </trkpt>
      <trkpt lat="46.57571" lon="-1.66555">
        <ele>15</ele>
        <time>2018-03-22T15:18:34Z</time>
      </trkpt>
      <trkpt lat="46.57576" lon="-1.6655">
        <ele>15</ele>
        <time>2018-03-22T15:19:34Z</time>
      </trkpt>
      <trkpt lat="46.57586" lon="-1.66538">
        <ele>16</ele>
        <time>2018-03-22T15:20:34Z</time>
      </trkpt>
      <trkpt lat="46.57601" lon="-1.66521">
        <ele>16</ele>
        <time>2018-03-22T15:21:34Z</time>
      </trkpt>
      <trkpt lat="46.57617" lon="-1.66504">
        <ele>16</ele>
        <time>2018-03-22T15:22:34Z</time>
      </trkpt>
      <trkpt lat="46.57634" lon="-1.66486">
        <ele>16</ele>
        <time>2018-03-22T15:23:34Z</time>
      </trkpt>
      <trkpt lat="46.57651" lon="-1.66465">
        <ele>17</ele>
        <time>2018-03-22T15:24:34Z</time>
      </trkpt>
      <trkpt lat="46.57664" lon="-1.66442">
        <ele>18</ele>
        <time>2018-03-22T15:25:34Z</time>
      </trkpt>
      <trkpt lat="46.57678" lon="-1.66417">
        <ele>20</ele>
        <time>2018-03-22T15:26:34Z</time>
      </trkpt>
      <trkpt lat="46.5769" lon="-1.66392">
        <ele>21</ele>
        <time>2018-03-22T15:27:34Z</time>
      </trkpt>
      <trkpt lat="46.57699" lon="-1.66367">
        <ele>21</ele>
        <time>2018-03-22T15:28:34Z</time>
      </trkpt>
      <trkpt lat="46.57705" lon="-1.66346">
        <ele>22</ele>
        <time>2018-03-22T15:29:34Z</time>
      </trkpt>
      <trkpt lat="46.57709" lon="-1.66334">
        <ele>22</ele>
        <time>2018-03-22T15:30:34Z</time>
      </trkpt>
      <trkpt lat="46.57712" lon="-1.66319">
        <ele>23</ele>
        <time>2018-03-22T15:31:34Z</time>
      </trkpt>
      <trkpt lat="46.5772" lon="-1.66273">
        <ele>26</ele>
        <time>2018-03-22T15:32:34Z</time>
      </trkpt>
      <trkpt lat="46.57737" lon="-1.66167">
        <ele>33</ele>
        <time>2018-03-22T15:33:34Z</time>
      </trkpt>
      <trkpt lat="46.57747" lon="-1.66112">
        <ele>34</ele>
        <time>2018-03-22T15:34:34Z</time>
      </trkpt>
      <trkpt lat="46.5776" lon="-1.66027">
        <ele>36</ele>
        <time>2018-03-22T15:35:34Z</time>
      </trkpt>
      <trkpt lat="46.57778" lon="-1.65925">
        <ele>35</ele>
        <time>2018-03-22T15:36:34Z</time>
      </trkpt>
      <trkpt lat="46.57797" lon="-1.65812">
        <ele>35</ele>
        <time>2018-03-22T15:37:34Z</time>
      </trkpt>
      <trkpt lat="46.57798" lon="-1.65804">
        <ele>36</ele>
        <time>2018-03-22T15:38:34Z</time>
      </trkpt>
      <trkpt lat="46.57803" lon="-1.65773">
        <ele>36</ele>
        <time>2018-03-22T15:39:34Z</time>
      </trkpt>
      <trkpt lat="46.57812" lon="-1.65726">
        <ele>37</ele>
        <time>2018-03-22T15:40:34Z</time>
      </trkpt>
      <trkpt lat="46.5782" lon="-1.65694">
        <ele>38</ele>
        <time>2018-03-22T15:41:34Z</time>
      </trkpt>
      <trkpt lat="46.57826" lon="-1.65674">
        <ele>39</ele>
        <time>2018-03-22T15:42:34Z</time>
      </trkpt>
      <trkpt lat="46.57835" lon="-1.65649">
        <ele>39</ele>
        <time>2018-03-22T15:43:34Z</time>
      </trkpt>
      <trkpt lat="46.57851" lon="-1.65611">
        <ele>39</ele>
        <time>2018-03-22T15:44:34Z</time>
      </trkpt>
      <trkpt lat="46.5787" lon="-1.65563">
        <ele>39</ele>
        <time>2018-03-22T15:45:34Z</time>
      </trkpt>
      <trkpt lat="46.5788" lon="-1.65538">
        <ele>39</ele>
        <time>2018-03-22T15:46:34Z</time>
      </trkpt>
      <trkpt lat="46.57901" lon="-1.65487">
        <ele>40</ele>
        <time>2018-03-22T15:47:34Z</time>
      </trkpt>
      <trkpt lat="46.57915" lon="-1.65448">
        <ele>39</ele>
        <time>2018-03-22T15:48:34Z</time>
      </trkpt>
      <trkpt lat="46.57931" lon="-1.65406">
        <ele>39</ele>
        <time>2018-03-22T15:49:34Z</time>
      </trkpt>
      <trkpt lat="46.57938" lon="-1.65387">
        <ele>39</ele>
        <time>2018-03-22T15:50:34Z</time>
      </trkpt>
      <trkpt lat="46.57942" lon="-1.65372">
        <ele>39</ele>
        <time>2018-03-22T15:51:34Z</time>
      </trkpt>
      <trkpt lat="46.57947" lon="-1.65349">
        <ele>40</ele>
        <time>2018-03-22T15:52:34Z</time>
      </trkpt>
      <trkpt lat="46.57953" lon="-1.65317">
        <ele>40</ele>
        <time>2018-03-22T15:53:34Z</time>
      </trkpt>
      <trkpt lat="46.57954" lon="-1.65305">
        <ele>40</ele>
        <time>2018-03-22T15:54:34Z</time>
      </trkpt>
      <trkpt lat="46.57958" lon="-1.65279">
        <ele>41</ele>
        <time>2018-03-22T15:55:34Z</time>
      </trkpt>
      <trkpt lat="46.57964" lon="-1.65242">
        <ele>41</ele>
        <time>2018-03-22T15:56:34Z</time>
      </trkpt>
      <trkpt lat="46.57969" lon="-1.65219">
        <ele>41</ele>
        <time>2018-03-22T15:57:34Z</time>
      </trkpt>
      <trkpt lat="46.57971" lon="-1.65212">
        <ele>41</ele>
        <time>2018-03-22T15:58:34Z</time>
      </trkpt>
      <trkpt lat="46.57978" lon="-1.6519">
        <ele>41</ele>
        <time>2018-03-22T15:59:34Z</time>
      </trkpt>
      <trkpt lat="46.57985" lon="-1.65172">
        <ele>41</ele>
        <time>2018-03-22T16:00:34Z</time>
      </trkpt>
      <trkpt lat="46.57996" lon="-1.65149">
        <ele>41</ele>
        <time>2018-03-22T16:01:34Z</time>
      </trkpt>
      <trkpt lat="46.58012" lon="-1.65126">
        <ele>40</ele>
        <time>2018-03-22T16:02:34Z</time>
      </trkpt>
      <trkpt lat="46.58035" lon="-1.65094">
        <ele>40</ele>
        <time>2018-03-22T16:03:34Z</time>
      </trkpt>
      <trkpt lat="46.58051" lon="-1.65074">
        <ele>39</ele>
        <time>2018-03-22T16:04:34Z</time>
      </trkpt>
      <trkpt lat="46.58073" lon="-1.65046">
        <ele>39</ele>
        <time>2018-03-22T16:05:34Z</time>
      </trkpt>
      <trkpt lat="46.58114" lon="-1.64994">
        <ele>38</ele>
        <time>2018-03-22T16:06:34Z</time>
      </trkpt>
      <trkpt lat="46.58149" lon="-1.64949">
        <ele>39</ele>
        <time>2018-03-22T16:07:34Z</time>
      </trkpt>
      <trkpt lat="46.58158" lon="-1.64938">
        <ele>39</ele>
        <time>2018-03-22T16:08:34Z</time>
      </trkpt>
      <trkpt lat="46.5817" lon="-1.64923">
        <ele>40</ele>
        <time>2018-03-22T16:09:34Z</time>
      </trkpt>
      <trkpt lat="46.58185" lon="-1.64908">
        <ele>40</ele>
        <time>2018-03-22T16:10:34Z</time>
      </trkpt>
      <trkpt lat="46.582" lon="-1.64895">
        <ele>40</ele>
        <time>2018-03-22T16:11:34Z</time>
      </trkpt>
      <trkpt lat="46.58215" lon="-1.64886">
        <ele>39</ele>
        <time>2018-03-22T16:12:34Z</time>
      </trkpt>
      <trkpt lat="46.58231" lon="-1.64877">
        <ele>39</ele>
        <time>2018-03-22T16:13:34Z</time>
      </trkpt>
      <trkpt lat="46.58248" lon="-1.64871">
        <ele>39</ele>
        <time>2018-03-22T16:14:34Z</time>
      </trkpt>
      <trkpt lat="46.58265" lon="-1.64865">
        <ele>39</ele>
        <time>2018-03-22T16:15:34Z</time>
      </trkpt>
      <trkpt lat="46.5829" lon="-1.64857">
        <ele>39</ele>
        <time>2018-03-22T16:16:34Z</time>
      </trkpt>
      <trkpt lat="46.5832" lon="-1.64847">
        <ele>39</ele>
        <time>2018-03-22T16:17:34Z</time>
      </trkpt>
      <trkpt lat="46.5837" lon="-1.64831">
        <ele>40</ele>
        <time>2018-03-22T16:18:34Z</time>
      </trkpt>
      <trkpt lat="46.58373" lon="-1.6483">
        <ele>40</ele>
        <time>2018-03-22T16:19:34Z</time>
      </trkpt>
      <trkpt lat="46.58434" lon="-1.64811">
        <ele>41</ele>
        <time>2018-03-22T16:20:34Z</time>
      </trkpt>
      <trkpt lat="46.58478" lon="-1.64798">
        <ele>41</ele>
        <time>2018-03-22T16:21:34Z</time>
      </trkpt>
      <trkpt lat="46.58489" lon="-1.64795">
        <ele>41</ele>
        <time>2018-03-22T16:22:34Z</time>
      </trkpt>
      <trkpt lat="46.58531" lon="-1.64782">
        <ele>40</ele>
        <time>2018-03-22T16:23:34Z</time>
      </trkpt>
      <trkpt lat="46.58557" lon="-1.64773">
        <ele>39</ele>
        <time>2018-03-22T16:24:34Z</time>
      </trkpt>
      <trkpt lat="46.58588" lon="-1.64763">
        <ele>38</ele>
        <time>2018-03-22T16:25:34Z</time>
      </trkpt>
      <trkpt lat="46.58612" lon="-1.64757">
        <ele>38</ele>
        <time>2018-03-22T16:26:34Z</time>
      </trkpt>
      <trkpt lat="46.58631" lon="-1.64751">
        <ele>37</ele>
        <time>2018-03-22T16:27:34Z</time>
      </trkpt>
      <trkpt lat="46.58659" lon="-1.64742">
        <ele>36</ele>
        <time>2018-03-22T16:28:34Z</time>
      </trkpt>
      <trkpt lat="46.58677" lon="-1.64735">
        <ele>36</ele>
        <time>2018-03-22T16:29:34Z</time>
      </trkpt>
      <trkpt lat="46.58691" lon="-1.64729">
        <ele>36</ele>
        <time>2018-03-22T16:30:34Z</time>
      </trkpt>
      <trkpt lat="46.58705" lon="-1.6472">
        <ele>36</ele>
        <time>2018-03-22T16:31:34Z</time>
      </trkpt>
      <trkpt lat="46.58705" lon="-1.6472">
        <ele>36</ele>
        <time>2018-03-22T16:32:34Z</time>
      </trkpt>
      <trkpt lat="46.58721" lon="-1.64743">
        <ele>36</ele>
        <time>2018-03-22T16:33:34Z</time>
      </trkpt>
      <trkpt lat="46.58734" lon="-1.64761">
        <ele>35</ele>
        <time>2018-03-22T16:34:34Z</time>
      </trkpt>
      <trkpt lat="46.58744" lon="-1.64773">
        <ele>34</ele>
        <time>2018-03-22T16:35:34Z</time>
      </trkpt>
      <trkpt lat="46.58751" lon="-1.64783">
        <ele>34</ele>
        <time>2018-03-22T16:36:34Z</time>
      </trkpt>
      <trkpt lat="46.58755" lon="-1.64786">
        <ele>34</ele>
        <time>2018-03-22T16:37:34Z</time>
      </trkpt>
      <trkpt lat="46.58765" lon="-1.64795">
        <ele>34</ele>
        <time>2018-03-22T16:38:34Z</time>
      </trkpt>
      <trkpt lat="46.58777" lon="-1.64803">
        <ele>34</ele>
        <time>2018-03-22T16:39:34Z</time>
      </trkpt>
      <trkpt lat="46.58786" lon="-1.64808">
        <ele>35</ele>
        <time>2018-03-22T16:40:34Z</time>
      </trkpt>
      <trkpt lat="46.58796" lon="-1.64812">
        <ele>35</ele>
        <time>2018-03-22T16:41:34Z</time>
      </trkpt>
      <trkpt lat="46.58808" lon="-1.64814">
        <ele>35</ele>
        <time>2018-03-22T16:42:34Z</time>
      </trkpt>
      <trkpt lat="46.5882" lon="-1.64815">
        <ele>36</ele>
        <time>2018-03-22T16:43:34Z</time>
      </trkpt>
      <trkpt lat="46.5885" lon="-1.64811">
        <ele>37</ele>
        <time>2018-03-22T16:44:34Z</time>
      </trkpt>
      <trkpt lat="46.5886" lon="-1.6481">
        <ele>37</ele>
        <time>2018-03-22T16:45:34Z</time>
      </trkpt>
      <trkpt lat="46.58883" lon="-1.64805">
        <ele>37</ele>
        <time>2018-03-22T16:46:34Z</time>
      </trkpt>
      <trkpt lat="46.58911" lon="-1.648">
        <ele>37</ele>
        <time>2018-03-22T16:47:34Z</time>
      </trkpt>
      <trkpt lat="46.58926" lon="-1.64798">
        <ele>37</ele>
        <time>2018-03-22T16:48:34Z</time>
      </trkpt>
      <trkpt lat="46.58965" lon="-1.64791">
        <ele>38</ele>
        <time>2018-03-22T16:49:34Z</time>
      </trkpt>
      <trkpt lat="46.58988" lon="-1.6479">
        <ele>39</ele>
        <time>2018-03-22T16:50:34Z</time>
      </trkpt>
      <trkpt lat="46.59001" lon="-1.64788">
        <ele>39</ele>
        <time>2018-03-22T16:51:34Z</time>
      </trkpt>
      <trkpt lat="46.59001" lon="-1.64787">
        <ele>39</ele>
        <time>2018-03-22T16:52:34Z</time>
      </trkpt>
      <trkpt lat="46.59001" lon="-1.64786">
        <ele>39</ele>
        <time>2018-03-22T16:53:34Z</time>
      </trkpt>
      <trkpt lat="46.59002" lon="-1.64786">
        <ele>39</ele>
        <time>2018-03-22T16:54:34Z</time>
      </trkpt>
      <trkpt lat="46.59002" lon="-1.64785">
        <ele>39</ele>
        <time>2018-03-22T16:55:34Z</time>
      </trkpt>
      <trkpt lat="46.59002" lon="-1.64784">
        <ele>39</ele>
        <time>2018-03-22T16:56:34Z</time>
      </trkpt>
      <trkpt lat="46.59002" lon="-1.64783">
        <ele>39</ele>
        <time>2018-03-22T16:57:34Z</time>
      </trkpt>
      <trkpt lat="46.59003" lon="-1.64783">
        <ele>39</ele>
        <time>2018-03-22T16:58:34Z</time>
      </trkpt>
      <trkpt lat="46.59003" lon="-1.64782">
        <ele>39</ele>
        <time>2018-03-22T16:59:34Z</time>
      </trkpt>
      <trkpt lat="46.59004" lon="-1.64782">
        <ele>39</ele>
        <time>2018-03-22T17:00:34Z</time>
      </trkpt>
      <trkpt lat="46.59004" lon="-1.64781">
        <ele>39</ele>
        <time>2018-03-22T17:01:34Z</time>
      </trkpt>
      <trkpt lat="46.59005" lon="-1.64781">
        <ele>39</ele>
        <time>2018-03-22T17:02:34Z</time>
      </trkpt>
      <trkpt lat="46.59006" lon="-1.64781">
        <ele>39</ele>
        <time>2018-03-22T17:03:34Z</time>
      </trkpt>
      <trkpt lat="46.59007" lon="-1.64781">
        <ele>39</ele>
        <time>2018-03-22T17:04:34Z</time>
      </trkpt>
      <trkpt lat="46.59008" lon="-1.64781">
        <ele>39</ele>
        <time>2018-03-22T17:05:34Z</time>
      </trkpt>
      <trkpt lat="46.59009" lon="-1.64781">
        <ele>39</ele>
        <time>2018-03-22T17:06:34Z</time>
      </trkpt>
      <trkpt lat="46.59009" lon="-1.64782">
        <ele>39</ele>
        <time>2018-03-22T17:07:34Z</time>
      </trkpt>
      <trkpt lat="46.5901" lon="-1.64782">
        <ele>39</ele>
        <time>2018-03-22T17:08:34Z</time>
      </trkpt>
      <trkpt lat="46.5901" lon="-1.64783">
        <ele>39</ele>
        <time>2018-03-22T17:09:34Z</time>
      </trkpt>
      <trkpt lat="46.5901" lon="-1.64784">
        <ele>39</ele>
        <time>2018-03-22T17:10:34Z</time>
      </trkpt>
      <trkpt lat="46.59011" lon="-1.64784">
        <ele>39</ele>
        <time>2018-03-22T17:11:34Z</time>
      </trkpt>
      <trkpt lat="46.59011" lon="-1.64785">
        <ele>39</ele>
        <time>2018-03-22T17:12:34Z</time>
      </trkpt>
      <trkpt lat="46.59011" lon="-1.64786">
        <ele>39</ele>
        <time>2018-03-22T17:13:34Z</time>
      </trkpt>
      <trkpt lat="46.59012" lon="-1.64786">
        <ele>39</ele>
        <time>2018-03-22T17:14:34Z</time>
      </trkpt>
      <trkpt lat="46.59029" lon="-1.64784">
        <ele>39</ele>
        <time>2018-03-22T17:15:34Z</time>
      </trkpt>
      <trkpt lat="46.59042" lon="-1.64783">
        <ele>39</ele>
        <time>2018-03-22T17:16:34Z</time>
      </trkpt>
      <trkpt lat="46.59053" lon="-1.64783">
        <ele>39</ele>
        <time>2018-03-22T17:17:34Z</time>
      </trkpt>
      <trkpt lat="46.59077" lon="-1.64785">
        <ele>38</ele>
        <time>2018-03-22T17:18:34Z</time>
      </trkpt>
      <trkpt lat="46.59091" lon="-1.64786">
        <ele>38</ele>
        <time>2018-03-22T17:19:34Z</time>
      </trkpt>
      <trkpt lat="46.5911" lon="-1.64789">
        <ele>38</ele>
        <time>2018-03-22T17:20:34Z</time>
      </trkpt>
      <trkpt lat="46.59114" lon="-1.6479">
        <ele>38</ele>
        <time>2018-03-22T17:21:34Z</time>
      </trkpt>
      <trkpt lat="46.59119" lon="-1.64792">
        <ele>38</ele>
        <time>2018-03-22T17:22:34Z</time>
      </trkpt>
      <trkpt lat="46.59121" lon="-1.64792">
        <ele>38</ele>
        <time>2018-03-22T17:23:34Z</time>
      </trkpt>
      <trkpt lat="46.59124" lon="-1.64793">
        <ele>38</ele>
        <time>2018-03-22T17:24:34Z</time>
      </trkpt>
      <trkpt lat="46.59129" lon="-1.64794">
        <ele>38</ele>
        <time>2018-03-22T17:25:34Z</time>
      </trkpt>
      <trkpt lat="46.59139" lon="-1.64797">
        <ele>38</ele>
        <time>2018-03-22T17:26:34Z</time>
      </trkpt>
      <trkpt lat="46.59152" lon="-1.64803">
        <ele>38</ele>
        <time>2018-03-22T17:27:34Z</time>
      </trkpt>
      <trkpt lat="46.59176" lon="-1.64811">
        <ele>38</ele>
        <time>2018-03-22T17:28:34Z</time>
      </trkpt>
      <trkpt lat="46.592" lon="-1.64827">
        <ele>39</ele>
        <time>2018-03-22T17:29:34Z</time>
      </trkpt>
      <trkpt lat="46.59208" lon="-1.64832">
        <ele>39</ele>
        <time>2018-03-22T17:30:34Z</time>
      </trkpt>
      <trkpt lat="46.59216" lon="-1.64836">
        <ele>40</ele>
        <time>2018-03-22T17:31:34Z</time>
      </trkpt>
      <trkpt lat="46.59247" lon="-1.64847">
        <ele>41</ele>
        <time>2018-03-22T17:32:34Z</time>
      </trkpt>
      <trkpt lat="46.59275" lon="-1.64857">
        <ele>43</ele>
        <time>2018-03-22T17:33:34Z</time>
      </trkpt>
      <trkpt lat="46.59332" lon="-1.64879">
        <ele>46</ele>
        <time>2018-03-22T17:34:34Z</time>
      </trkpt>
      <trkpt lat="46.59343" lon="-1.64883">
        <ele>47</ele>
        <time>2018-03-22T17:35:34Z</time>
      </trkpt>
      <trkpt lat="46.59363" lon="-1.64895">
        <ele>47</ele>
        <time>2018-03-22T17:36:34Z</time>
      </trkpt>
      <trkpt lat="46.59396" lon="-1.64917">
        <ele>48</ele>
        <time>2018-03-22T17:37:34Z</time>
      </trkpt>
      <trkpt lat="46.59402" lon="-1.6492">
        <ele>48</ele>
        <time>2018-03-22T17:38:34Z</time>
      </trkpt>
      <trkpt lat="46.59413" lon="-1.64927">
        <ele>48</ele>
        <time>2018-03-22T17:39:34Z</time>
      </trkpt>
      <trkpt lat="46.59443" lon="-1.64944">
        <ele>48</ele>
        <time>2018-03-22T17:40:34Z</time>
      </trkpt>
      <trkpt lat="46.59467" lon="-1.64958">
        <ele>49</ele>
        <time>2018-03-22T17:41:34Z</time>
      </trkpt>
      <trkpt lat="46.59473" lon="-1.64963">
        <ele>49</ele>
        <time>2018-03-22T17:42:34Z</time>
      </trkpt>
      <trkpt lat="46.59495" lon="-1.64977">
        <ele>49</ele>
        <time>2018-03-22T17:43:34Z</time>
      </trkpt>
      <trkpt lat="46.59507" lon="-1.64983">
        <ele>49</ele>
        <time>2018-03-22T17:44:34Z</time>
      </trkpt>
      <trkpt lat="46.59536" lon="-1.65001">
        <ele>49</ele>
        <time>2018-03-22T17:45:34Z</time>
      </trkpt>
      <trkpt lat="46.59552" lon="-1.65011">
        <ele>49</ele>
        <time>2018-03-22T17:46:34Z</time>
      </trkpt>
      <trkpt lat="46.5959" lon="-1.65034">
        <ele>49</ele>
        <time>2018-03-22T17:47:34Z</time>
      </trkpt>
      <trkpt lat="46.59628" lon="-1.65059">
        <ele>48</ele>
        <time>2018-03-22T17:48:34Z</time>
      </trkpt>
      <trkpt lat="46.59645" lon="-1.65069">
        <ele>47</ele>
        <time>2018-03-22T17:49:34Z</time>
      </trkpt>
      <trkpt lat="46.59665" lon="-1.65084">
        <ele>46</ele>
        <time>2018-03-22T17:50:34Z</time>
      </trkpt>
      <trkpt lat="46.59667" lon="-1.65085">
        <ele>46</ele>
        <time>2018-03-22T17:51:34Z</time>
      </trkpt>
      <trkpt lat="46.5971" lon="-1.65111">
        <ele>45</ele>
        <time>2018-03-22T17:52:34Z</time>
      </trkpt>
      <trkpt lat="46.59737" lon="-1.65129">
        <ele>45</ele>
        <time>2018-03-22T17:53:34Z</time>
      </trkpt>
      <trkpt lat="46.59777" lon="-1.65154">
        <ele>44</ele>
        <time>2018-03-22T17:54:34Z</time>
      </trkpt>
      <trkpt lat="46.59811" lon="-1.65176">
        <ele>44</ele>
        <time>2018-03-22T17:55:34Z</time>
      </trkpt>
      <trkpt lat="46.59855" lon="-1.65204">
        <ele>45</ele>
        <time>2018-03-22T17:56:34Z</time>
      </trkpt>
      <trkpt lat="46.59904" lon="-1.65234">
        <ele>47</ele>
        <time>2018-03-22T17:57:34Z</time>
      </trkpt>
      <trkpt lat="46.59907" lon="-1.65237">
        <ele>47</ele>
        <time>2018-03-22T17:58:34Z</time>
      </trkpt>
      <trkpt lat="46.59953" lon="-1.65265">
        <ele>48</ele>
        <time>2018-03-22T17:59:34Z</time>
      </trkpt>
      <trkpt lat="46.60005" lon="-1.65298">
        <ele>49</ele>
        <time>2018-03-22T18:00:34Z</time>
      </trkpt>
      <trkpt lat="46.60017" lon="-1.65306">
        <ele>49</ele>
        <time>2018-03-22T18:01:34Z</time>
      </trkpt>
      <trkpt lat="46.60036" lon="-1.65318">
        <ele>49</ele>
        <time>2018-03-22T18:02:34Z</time>
      </trkpt>
      <trkpt lat="46.60041" lon="-1.65321">
        <ele>49</ele>
        <time>2018-03-22T18:03:34Z</time>
      </trkpt>
      <trkpt lat="46.60098" lon="-1.65358">
        <ele>49</ele>
        <time>2018-03-22T18:04:34Z</time>
      </trkpt>
      <trkpt lat="46.6011" lon="-1.65366">
        <ele>49</ele>
        <time>2018-03-22T18:05:34Z</time>
      </trkpt>
      <trkpt lat="46.60119" lon="-1.65373">
        <ele>49</ele>
        <time>2018-03-22T18:06:34Z</time>
      </trkpt>
      <trkpt lat="46.60128" lon="-1.65381">
        <ele>49</ele>
        <time>2018-03-22T18:07:34Z</time>
      </trkpt>
      <trkpt lat="46.60137" lon="-1.6539">
        <ele>49</ele>
        <time>2018-03-22T18:08:34Z</time>
      </trkpt>
      <trkpt lat="46.60146" lon="-1.654">
        <ele>49</ele>
        <time>2018-03-22T18:09:34Z</time>
      </trkpt>
      <trkpt lat="46.60149" lon="-1.65403">
        <ele>48</ele>
        <time>2018-03-22T18:10:34Z</time>
      </trkpt>
      <trkpt lat="46.60156" lon="-1.65411">
        <ele>48</ele>
        <time>2018-03-22T18:11:34Z</time>
      </trkpt>
      <trkpt lat="46.60157" lon="-1.65412">
        <ele>48</ele>
        <time>2018-03-22T18:12:34Z</time>
      </trkpt>
      <trkpt lat="46.60166" lon="-1.65426">
        <ele>48</ele>
        <time>2018-03-22T18:13:34Z</time>
      </trkpt>
      <trkpt lat="46.60178" lon="-1.65435">
        <ele>48</ele>
        <time>2018-03-22T18:14:34Z</time>
      </trkpt>
      <trkpt lat="46.60183" lon="-1.65439">
        <ele>48</ele>
        <time>2018-03-22T18:15:34Z</time>
      </trkpt>
      <trkpt lat="46.60186" lon="-1.65441">
        <ele>48</ele>
        <time>2018-03-22T18:16:34Z</time>
      </trkpt>
      <trkpt lat="46.60196" lon="-1.65444">
        <ele>48</ele>
        <time>2018-03-22T18:17:34Z</time>
      </trkpt>
      <trkpt lat="46.60196" lon="-1.65444">
        <ele>48</ele>
        <time>2018-03-22T18:18:34Z</time>
      </trkpt>
      <trkpt lat="46.60198" lon="-1.65443">
        <ele>48</ele>
        <time>2018-03-22T18:19:34Z</time>
      </trkpt>
      <trkpt lat="46.602" lon="-1.65442">
        <ele>48</ele>
        <time>2018-03-22T18:20:34Z</time>
      </trkpt>
      <trkpt lat="46.60202" lon="-1.65441">
        <ele>49</ele>
        <time>2018-03-22T18:21:34Z</time>
      </trkpt>
      <trkpt lat="46.60203" lon="-1.6544">
        <ele>49</ele>
        <time>2018-03-22T18:22:34Z</time>
      </trkpt>
      <trkpt lat="46.60205" lon="-1.6544">
        <ele>49</ele>
        <time>2018-03-22T18:23:34Z</time>
      </trkpt>
      <trkpt lat="46.60207" lon="-1.65439">
        <ele>49</ele>
        <time>2018-03-22T18:24:34Z</time>
      </trkpt>
      <trkpt lat="46.60209" lon="-1.65439">
        <ele>49</ele>
        <time>2018-03-22T18:25:34Z</time>
      </trkpt>
      <trkpt lat="46.6021" lon="-1.65439">
        <ele>49</ele>
        <time>2018-03-22T18:26:34Z</time>
      </trkpt>
      <trkpt lat="46.60212" lon="-1.65439">
        <ele>49</ele>
        <time>2018-03-22T18:27:34Z</time>
      </trkpt>
      <trkpt lat="46.60213" lon="-1.65439">
        <ele>49</ele>
        <time>2018-03-22T18:28:34Z</time>
      </trkpt>
      <trkpt lat="46.60215" lon="-1.65439">
        <ele>49</ele>
        <time>2018-03-22T18:29:34Z</time>
      </trkpt>
      <trkpt lat="46.60216" lon="-1.65439">
        <ele>49</ele>
        <time>2018-03-22T18:30:34Z</time>
      </trkpt>
      <trkpt lat="46.60218" lon="-1.6544">
        <ele>49</ele>
        <time>2018-03-22T18:31:34Z</time>
      </trkpt>
      <trkpt lat="46.60219" lon="-1.6544">
        <ele>49</ele>
        <time>2018-03-22T18:32:34Z</time>
      </trkpt>
      <trkpt lat="46.60221" lon="-1.65441">
        <ele>49</ele>
        <time>2018-03-22T18:33:34Z</time>
      </trkpt>
      <trkpt lat="46.60222" lon="-1.65442">
        <ele>49</ele>
        <time>2018-03-22T18:34:34Z</time>
      </trkpt>
      <trkpt lat="46.60223" lon="-1.65442">
        <ele>49</ele>
        <time>2018-03-22T18:35:34Z</time>
      </trkpt>
      <trkpt lat="46.60223" lon="-1.65443">
        <ele>49</ele>
        <time>2018-03-22T18:36:34Z</time>
      </trkpt>
      <trkpt lat="46.60224" lon="-1.65444">
        <ele>49</ele>
        <time>2018-03-22T18:37:34Z</time>
      </trkpt>
      <trkpt lat="46.60225" lon="-1.65444">
        <ele>49</ele>
        <time>2018-03-22T18:38:34Z</time>
      </trkpt>
      <trkpt lat="46.60225" lon="-1.65445">
        <ele>49</ele>
        <time>2018-03-22T18:39:34Z</time>
      </trkpt>
      <trkpt lat="46.60226" lon="-1.65446">
        <ele>49</ele>
        <time>2018-03-22T18:40:34Z</time>
      </trkpt>
      <trkpt lat="46.60227" lon="-1.65447">
        <ele>49</ele>
        <time>2018-03-22T18:41:34Z</time>
      </trkpt>
      <trkpt lat="46.60229" lon="-1.65451">
        <ele>49</ele>
        <time>2018-03-22T18:42:34Z</time>
      </trkpt>
      <trkpt lat="46.60231" lon="-1.65455">
        <ele>49</ele>
        <time>2018-03-22T18:43:34Z</time>
      </trkpt>
      <trkpt lat="46.60232" lon="-1.6546">
        <ele>49</ele>
        <time>2018-03-22T18:44:34Z</time>
      </trkpt>
      <trkpt lat="46.60234" lon="-1.65465">
        <ele>49</ele>
        <time>2018-03-22T18:45:34Z</time>
      </trkpt>
      <trkpt lat="46.60234" lon="-1.6547">
        <ele>49</ele>
        <time>2018-03-22T18:46:34Z</time>
      </trkpt>
      <trkpt lat="46.60235" lon="-1.65475">
        <ele>49</ele>
        <time>2018-03-22T18:47:34Z</time>
      </trkpt>
      <trkpt lat="46.60234" lon="-1.6548">
        <ele>49</ele>
        <time>2018-03-22T18:48:34Z</time>
      </trkpt>
      <trkpt lat="46.60234" lon="-1.65485">
        <ele>49</ele>
        <time>2018-03-22T18:49:34Z</time>
      </trkpt>
      <trkpt lat="46.60236" lon="-1.65495">
        <ele>49</ele>
        <time>2018-03-22T18:50:34Z</time>
      </trkpt>
      <trkpt lat="46.60237" lon="-1.655">
        <ele>49</ele>
        <time>2018-03-22T18:51:34Z</time>
      </trkpt>
      <trkpt lat="46.60239" lon="-1.65507">
        <ele>49</ele>
        <time>2018-03-22T18:52:34Z</time>
      </trkpt>
      <trkpt lat="46.60241" lon="-1.65513">
        <ele>48</ele>
        <time>2018-03-22T18:53:34Z</time>
      </trkpt>
      <trkpt lat="46.60246" lon="-1.65518">
        <ele>48</ele>
        <time>2018-03-22T18:54:34Z</time>
      </trkpt>
      <trkpt lat="46.60255" lon="-1.6553">
        <ele>48</ele>
        <time>2018-03-22T18:55:34Z</time>
      </trkpt>
      <trkpt lat="46.60256" lon="-1.65531">
        <ele>48</ele>
        <time>2018-03-22T18:56:34Z</time>
      </trkpt>
      <trkpt lat="46.60257" lon="-1.65532">
        <ele>48</ele>
        <time>2018-03-22T18:57:34Z</time>
      </trkpt>
      <trkpt lat="46.60264" lon="-1.6554">
        <ele>48</ele>
        <time>2018-03-22T18:58:34Z</time>
      </trkpt>
      <trkpt lat="46.60266" lon="-1.65542">
        <ele>48</ele>
        <time>2018-03-22T18:59:34Z</time>
      </trkpt>
      <trkpt lat="46.60269" lon="-1.65546">
        <ele>48</ele>
        <time>2018-03-22T19:00:34Z</time>
      </trkpt>
      <trkpt lat="46.6027" lon="-1.65548">
        <ele>48</ele>
        <time>2018-03-22T19:01:34Z</time>
      </trkpt>
      <trkpt lat="46.60274" lon="-1.65552">
        <ele>47</ele>
        <time>2018-03-22T19:02:34Z</time>
      </trkpt>
      <trkpt lat="46.60276" lon="-1.65554">
        <ele>47</ele>
        <time>2018-03-22T19:03:34Z</time>
      </trkpt>
      <trkpt lat="46.60278" lon="-1.65556">
        <ele>47</ele>
        <time>2018-03-22T19:04:34Z</time>
      </trkpt>
      <trkpt lat="46.60284" lon="-1.65562">
        <ele>47</ele>
        <time>2018-03-22T19:05:34Z</time>
      </trkpt>
      <trkpt lat="46.60289" lon="-1.65568">
        <ele>47</ele>
        <time>2018-03-22T19:06:34Z</time>
      </trkpt>
      <trkpt lat="46.60296" lon="-1.65577">
        <ele>47</ele>
        <time>2018-03-22T19:07:34Z</time>
      </trkpt>
      <trkpt lat="46.603" lon="-1.65584">
        <ele>47</ele>
        <time>2018-03-22T19:08:34Z</time>
      </trkpt>
      <trkpt lat="46.60305" lon="-1.65592">
        <ele>47</ele>
        <time>2018-03-22T19:09:34Z</time>
      </trkpt>
      <trkpt lat="46.6031" lon="-1.65601">
        <ele>47</ele>
        <time>2018-03-22T19:10:34Z</time>
      </trkpt>
      <trkpt lat="46.60313" lon="-1.65607">
        <ele>47</ele>
        <time>2018-03-22T19:11:34Z</time>
      </trkpt>
      <trkpt lat="46.60315" lon="-1.65613">
        <ele>47</ele>
        <time>2018-03-22T19:12:34Z</time>
      </trkpt>
      <trkpt lat="46.60322" lon="-1.6562">
        <ele>47</ele>
        <time>2018-03-22T19:13:34Z</time>
      </trkpt>
      <trkpt lat="46.60328" lon="-1.65634">
        <ele>47</ele>
        <time>2018-03-22T19:14:34Z</time>
      </trkpt>
      <trkpt lat="46.60333" lon="-1.65641">
        <ele>47</ele>
        <time>2018-03-22T19:15:34Z</time>
      </trkpt>
      <trkpt lat="46.6034" lon="-1.65647">
        <ele>47</ele>
        <time>2018-03-22T19:16:34Z</time>
      </trkpt>
      <trkpt lat="46.6034" lon="-1.65647">
        <ele>47</ele>
        <time>2018-03-22T19:17:34Z</time>
      </trkpt>
      <trkpt lat="46.60341" lon="-1.65647">
        <ele>47</ele>
        <time>2018-03-22T19:18:34Z</time>
      </trkpt>
      <trkpt lat="46.60342" lon="-1.65646">
        <ele>47</ele>
        <time>2018-03-22T19:19:34Z</time>
      </trkpt>
      <trkpt lat="46.60343" lon="-1.65646">
        <ele>47</ele>
        <time>2018-03-22T19:20:34Z</time>
      </trkpt>
      <trkpt lat="46.60344" lon="-1.65646">
        <ele>47</ele>
        <time>2018-03-22T19:21:34Z</time>
      </trkpt>
      <trkpt lat="46.60345" lon="-1.65645">
        <ele>47</ele>
        <time>2018-03-22T19:22:34Z</time>
      </trkpt>
      <trkpt lat="46.60346" lon="-1.65645">
        <ele>47</ele>
        <time>2018-03-22T19:23:34Z</time>
      </trkpt>
      <trkpt lat="46.60347" lon="-1.65645">
        <ele>47</ele>
        <time>2018-03-22T19:24:34Z</time>
      </trkpt>
      <trkpt lat="46.6035" lon="-1.65645">
        <ele>47</ele>
        <time>2018-03-22T19:25:34Z</time>
      </trkpt>
      <trkpt lat="46.60351" lon="-1.65646">
        <ele>47</ele>
        <time>2018-03-22T19:26:34Z</time>
      </trkpt>
      <trkpt lat="46.60353" lon="-1.65646">
        <ele>47</ele>
        <time>2018-03-22T19:27:34Z</time>
      </trkpt>
      <trkpt lat="46.60354" lon="-1.65647">
        <ele>47</ele>
        <time>2018-03-22T19:28:34Z</time>
      </trkpt>
      <trkpt lat="46.60356" lon="-1.65648">
        <ele>47</ele>
        <time>2018-03-22T19:29:34Z</time>
      </trkpt>
      <trkpt lat="46.60357" lon="-1.65649">
        <ele>47</ele>
        <time>2018-03-22T19:30:34Z</time>
      </trkpt>
      <trkpt lat="46.60359" lon="-1.6565">
        <ele>47</ele>
        <time>2018-03-22T19:31:34Z</time>
      </trkpt>
      <trkpt lat="46.6036" lon="-1.65652">
        <ele>47</ele>
        <time>2018-03-22T19:32:34Z</time>
      </trkpt>
      <trkpt lat="46.60361" lon="-1.65653">
        <ele>47</ele>
        <time>2018-03-22T19:33:34Z</time>
      </trkpt>
      <trkpt lat="46.60362" lon="-1.65655">
        <ele>47</ele>
        <time>2018-03-22T19:34:34Z</time>
      </trkpt>
      <trkpt lat="46.60363" lon="-1.65657">
        <ele>47</ele>
        <time>2018-03-22T19:35:34Z</time>
      </trkpt>
      <trkpt lat="46.60364" lon="-1.65659">
        <ele>47</ele>
        <time>2018-03-22T19:36:34Z</time>
      </trkpt>
      <trkpt lat="46.60365" lon="-1.65661">
        <ele>47</ele>
        <time>2018-03-22T19:37:34Z</time>
      </trkpt>
      <trkpt lat="46.60365" lon="-1.65663">
        <ele>47</ele>
        <time>2018-03-22T19:38:34Z</time>
      </trkpt>
      <trkpt lat="46.60366" lon="-1.65665">
        <ele>47</ele>
        <time>2018-03-22T19:39:34Z</time>
      </trkpt>
      <trkpt lat="46.60366" lon="-1.65667">
        <ele>47</ele>
        <time>2018-03-22T19:40:34Z</time>
      </trkpt>
      <trkpt lat="46.60376" lon="-1.65674">
        <ele>47</ele>
        <time>2018-03-22T19:41:34Z</time>
      </trkpt>
      <trkpt lat="46.60384" lon="-1.65678">
        <ele>48</ele>
        <time>2018-03-22T19:42:34Z</time>
      </trkpt>
      <trkpt lat="46.60405" lon="-1.65689">
        <ele>48</ele>
        <time>2018-03-22T19:43:34Z</time>
      </trkpt>
      <trkpt lat="46.60417" lon="-1.65698">
        <ele>48</ele>
        <time>2018-03-22T19:44:34Z</time>
      </trkpt>
      <trkpt lat="46.60431" lon="-1.65709">
        <ele>48</ele>
        <time>2018-03-22T19:45:34Z</time>
      </trkpt>
      <trkpt lat="46.60435" lon="-1.65712">
        <ele>48</ele>
        <time>2018-03-22T19:46:34Z</time>
      </trkpt>
      <trkpt lat="46.60439" lon="-1.65715">
        <ele>48</ele>
        <time>2018-03-22T19:47:34Z</time>
      </trkpt>
      <trkpt lat="46.60466" lon="-1.65736">
        <ele>48</ele>
        <time>2018-03-22T19:48:34Z</time>
      </trkpt>
      <trkpt lat="46.60472" lon="-1.6574">
        <ele>48</ele>
        <time>2018-03-22T19:49:34Z</time>
      </trkpt>
      <trkpt lat="46.60509" lon="-1.65764">
        <ele>48</ele>
        <time>2018-03-22T19:50:34Z</time>
      </trkpt>
      <trkpt lat="46.6051" lon="-1.65766">
        <ele>48</ele>
        <time>2018-03-22T19:51:34Z</time>
      </trkpt>
      <trkpt lat="46.60516" lon="-1.65774">
        <ele>48</ele>
        <time>2018-03-22T19:52:34Z</time>
      </trkpt>
      <trkpt lat="46.6052" lon="-1.65783">
        <ele>48</ele>
        <time>2018-03-22T19:53:34Z</time>
      </trkpt>
      <trkpt lat="46.60523" lon="-1.6579">
        <ele>48</ele>
        <time>2018-03-22T19:54:34Z</time>
      </trkpt>
      <trkpt lat="46.60523" lon="-1.65794">
        <ele>48</ele>
        <time>2018-03-22T19:55:34Z</time>
      </trkpt>
      <trkpt lat="46.60524" lon="-1.65805">
        <ele>48</ele>
        <time>2018-03-22T19:56:34Z</time>
      </trkpt>
      <trkpt lat="46.60524" lon="-1.65812">
        <ele>48</ele>
        <time>2018-03-22T19:57:34Z</time>
      </trkpt>
      <trkpt lat="46.60523" lon="-1.65815">
        <ele>47</ele>
        <time>2018-03-22T19:58:34Z</time>
      </trkpt>
      <trkpt lat="46.60523" lon="-1.65817">
        <ele>47</ele>
        <time>2018-03-22T19:59:34Z</time>
      </trkpt>
      <trkpt lat="46.60522" lon="-1.6582">
        <ele>47</ele>
        <time>2018-03-22T20:00:34Z</time>
      </trkpt>
      <trkpt lat="46.60519" lon="-1.6583">
        <ele>47</ele>
        <time>2018-03-22T20:01:34Z</time>
      </trkpt>
      <trkpt lat="46.60518" lon="-1.65832">
        <ele>47</ele>
        <time>2018-03-22T20:02:34Z</time>
      </trkpt>
      <trkpt lat="46.60518" lon="-1.65834">
        <ele>47</ele>
        <time>2018-03-22T20:03:34Z</time>
      </trkpt>
      <trkpt lat="46.60511" lon="-1.65857">
        <ele>47</ele>
        <time>2018-03-22T20:04:34Z</time>
      </trkpt>
      <trkpt lat="46.60508" lon="-1.65868">
        <ele>47</ele>
        <time>2018-03-22T20:05:34Z</time>
      </trkpt>
      <trkpt lat="46.60502" lon="-1.65888">
        <ele>47</ele>
        <time>2018-03-22T20:06:34Z</time>
      </trkpt>
      <trkpt lat="46.605" lon="-1.65894">
        <ele>47</ele>
        <time>2018-03-22T20:07:34Z</time>
      </trkpt>
      <trkpt lat="46.60488" lon="-1.6594">
        <ele>47</ele>
        <time>2018-03-22T20:08:34Z</time>
      </trkpt>
      <trkpt lat="46.60486" lon="-1.65951">
        <ele>47</ele>
        <time>2018-03-22T20:09:34Z</time>
      </trkpt>
      <trkpt lat="46.60482" lon="-1.65966">
        <ele>47</ele>
        <time>2018-03-22T20:10:34Z</time>
      </trkpt>
      <trkpt lat="46.6048" lon="-1.65975">
        <ele>47</ele>
        <time>2018-03-22T20:11:34Z</time>
      </trkpt>
      <trkpt lat="46.60472" lon="-1.66006">
        <ele>46</ele>
        <time>2018-03-22T20:12:34Z</time>
      </trkpt>
      <trkpt lat="46.60466" lon="-1.66029">
        <ele>46</ele>
        <time>2018-03-22T20:13:34Z</time>
      </trkpt>
      <trkpt lat="46.60457" lon="-1.66064">
        <ele>46</ele>
        <time>2018-03-22T20:14:34Z</time>
      </trkpt>
      <trkpt lat="46.6046" lon="-1.66066">
        <ele>46</ele>
        <time>2018-03-22T20:15:34Z</time>
      </trkpt>
      <trkpt lat="46.60462" lon="-1.66069">
        <ele>46</ele>
        <time>2018-03-22T20:16:34Z</time>
      </trkpt>
      <trkpt lat="46.60464" lon="-1.66072">
        <ele>46</ele>
        <time>2018-03-22T20:17:34Z</time>
      </trkpt>
      <trkpt lat="46.60465" lon="-1.66074">
        <ele>46</ele>
        <time>2018-03-22T20:18:34Z</time>
      </trkpt>
      <trkpt lat="46.60465" lon="-1.66081">
        <ele>46</ele>
        <time>2018-03-22T20:19:34Z</time>
      </trkpt>
      <trkpt lat="46.60465" lon="-1.66088">
        <ele>46</ele>
        <time>2018-03-22T20:20:34Z</time>
      </trkpt>
      <trkpt lat="46.60464" lon="-1.66091">
        <ele>46</ele>
        <time>2018-03-22T20:21:34Z</time>
      </trkpt>
      <trkpt lat="46.60463" lon="-1.66094">
        <ele>46</ele>
        <time>2018-03-22T20:22:34Z</time>
      </trkpt>
      <trkpt lat="46.60462" lon="-1.66097">
        <ele>46</ele>
        <time>2018-03-22T20:23:34Z</time>
      </trkpt>
      <trkpt lat="46.6046" lon="-1.66099">
        <ele>46</ele>
        <time>2018-03-22T20:24:34Z</time>
      </trkpt>
      <trkpt lat="46.60458" lon="-1.66102">
        <ele>46</ele>
        <time>2018-03-22T20:25:34Z</time>
      </trkpt>
      <trkpt lat="46.60456" lon="-1.66103">
        <ele>46</ele>
        <time>2018-03-22T20:26:34Z</time>
      </trkpt>
      <trkpt lat="46.60452" lon="-1.66104">
        <ele>46</ele>
        <time>2018-03-22T20:27:34Z</time>
      </trkpt>
      <trkpt lat="46.60448" lon="-1.66103">
        <ele>46</ele>
        <time>2018-03-22T20:28:34Z</time>
      </trkpt>
      <trkpt lat="46.60446" lon="-1.6612">
        <ele>46</ele>
        <time>2018-03-22T20:29:34Z</time>
      </trkpt>
      <trkpt lat="46.60446" lon="-1.66127">
        <ele>46</ele>
        <time>2018-03-22T20:30:34Z</time>
      </trkpt>
      <trkpt lat="46.60447" lon="-1.66137">
        <ele>46</ele>
        <time>2018-03-22T20:31:34Z</time>
      </trkpt>
      <trkpt lat="46.60448" lon="-1.66142">
        <ele>46</ele>
        <time>2018-03-22T20:32:34Z</time>
      </trkpt>
      <trkpt lat="46.60449" lon="-1.66147">
        <ele>46</ele>
        <time>2018-03-22T20:33:34Z</time>
      </trkpt>
      <trkpt lat="46.6045" lon="-1.6615">
        <ele>46</ele>
        <time>2018-03-22T20:34:34Z</time>
      </trkpt>
      <trkpt lat="46.60451" lon="-1.66152">
        <ele>46</ele>
        <time>2018-03-22T20:35:34Z</time>
      </trkpt>
      <trkpt lat="46.60452" lon="-1.66154">
        <ele>46</ele>
        <time>2018-03-22T20:36:34Z</time>
      </trkpt>
      <trkpt lat="46.60464" lon="-1.66177">
        <ele>47</ele>
        <time>2018-03-22T20:37:34Z</time>
      </trkpt>
      <trkpt lat="46.60466" lon="-1.66182">
        <ele>47</ele>
        <time>2018-03-22T20:38:34Z</time>
      </trkpt>
      <trkpt lat="46.60479" lon="-1.66205">
        <ele>47</ele>
        <time>2018-03-22T20:39:34Z</time>
      </trkpt>
      <trkpt lat="46.60489" lon="-1.66223">
        <ele>48</ele>
        <time>2018-03-22T20:40:34Z</time>
      </trkpt>
      <trkpt lat="46.60497" lon="-1.66236">
        <ele>48</ele>
        <time>2018-03-22T20:41:34Z</time>
      </trkpt>
      <trkpt lat="46.60504" lon="-1.66247">
        <ele>48</ele>
        <time>2018-03-22T20:42:34Z</time>
      </trkpt>
      <trkpt lat="46.60515" lon="-1.66265">
        <ele>48</ele>
        <time>2018-03-22T20:43:34Z</time>
      </trkpt>
      <trkpt lat="46.60521" lon="-1.66276">
        <ele>48</ele>
        <time>2018-03-22T20:44:34Z</time>
      </trkpt>
      <trkpt lat="46.60528" lon="-1.66287">
        <ele>49</ele>
        <time>2018-03-22T20:45:34Z</time>
      </trkpt>
      <trkpt lat="46.60537" lon="-1.66301">
        <ele>49</ele>
        <time>2018-03-22T20:46:34Z</time>
      </trkpt>
      <trkpt lat="46.60542" lon="-1.66314">
        <ele>49</ele>
        <time>2018-03-22T20:47:34Z</time>
      </trkpt>
      <trkpt lat="46.60547" lon="-1.66326">
        <ele>49</ele>
        <time>2018-03-22T20:48:34Z</time>
      </trkpt>
      <trkpt lat="46.60549" lon="-1.66334">
        <ele>49</ele>
        <time>2018-03-22T20:49:34Z</time>
      </trkpt>
      <trkpt lat="46.6055" lon="-1.66338">
        <ele>49</ele>
        <time>2018-03-22T20:50:34Z</time>
      </trkpt>
      <trkpt lat="46.60553" lon="-1.66347">
        <ele>49</ele>
        <time>2018-03-22T20:51:34Z</time>
      </trkpt>
      <trkpt lat="46.60554" lon="-1.66354">
        <ele>49</ele>
        <time>2018-03-22T20:52:34Z</time>
      </trkpt>
      <trkpt lat="46.60555" lon="-1.66364">
        <ele>49</ele>
        <time>2018-03-22T20:53:34Z</time>
      </trkpt>
      <trkpt lat="46.60556" lon="-1.66375">
        <ele>49</ele>
        <time>2018-03-22T20:54:34Z</time>
      </trkpt>
      <trkpt lat="46.60556" lon="-1.66381">
        <ele>49</ele>
        <time>2018-03-22T20:55:34Z</time>
      </trkpt>
      <trkpt lat="46.60556" lon="-1.66388">
        <ele>49</ele>
        <time>2018-03-22T20:56:34Z</time>
      </trkpt>
      <trkpt lat="46.60556" lon="-1.66396">
        <ele>49</ele>
        <time>2018-03-22T20:57:34Z</time>
      </trkpt>
      <trkpt lat="46.60555" lon="-1.66407">
        <ele>49</ele>
        <time>2018-03-22T20:58:34Z</time>
      </trkpt>
      <trkpt lat="46.60555" lon="-1.66427">
        <ele>49</ele>
        <time>2018-03-22T20:59:34Z</time>
      </trkpt>
      <trkpt lat="46.60555" lon="-1.66427">
        <ele>49</ele>
        <time>2018-03-22T21:00:34Z</time>
      </trkpt>
      <trkpt lat="46.60558" lon="-1.66433">
        <ele>49</ele>
        <time>2018-03-22T21:01:34Z</time>
      </trkpt>
      <trkpt lat="46.60559" lon="-1.66437">
        <ele>49</ele>
        <time>2018-03-22T21:02:34Z</time>
      </trkpt>
      <trkpt lat="46.6056" lon="-1.66441">
        <ele>49</ele>
        <time>2018-03-22T21:03:34Z</time>
      </trkpt>
      <trkpt lat="46.60559" lon="-1.66446">
        <ele>49</ele>
        <time>2018-03-22T21:04:34Z</time>
      </trkpt>
      <trkpt lat="46.6056" lon="-1.66447">
        <ele>49</ele>
        <time>2018-03-22T21:05:34Z</time>
      </trkpt>
      <trkpt lat="46.60562" lon="-1.66449">
        <ele>49</ele>
        <time>2018-03-22T21:06:34Z</time>
      </trkpt>
      <trkpt lat="46.60564" lon="-1.66451">
        <ele>49</ele>
        <time>2018-03-22T21:07:34Z</time>
      </trkpt>
      <trkpt lat="46.60566" lon="-1.66453">
        <ele>49</ele>
        <time>2018-03-22T21:08:34Z</time>
      </trkpt>
      <trkpt lat="46.60568" lon="-1.66455">
        <ele>49</ele>
        <time>2018-03-22T21:09:34Z</time>
      </trkpt>
      <trkpt lat="46.6057" lon="-1.66458">
        <ele>49</ele>
        <time>2018-03-22T21:10:34Z</time>
      </trkpt>
      <trkpt lat="46.60571" lon="-1.6646">
        <ele>49</ele>
        <time>2018-03-22T21:11:34Z</time>
      </trkpt>
      <trkpt lat="46.60597" lon="-1.66474">
        <ele>49</ele>
        <time>2018-03-22T21:12:34Z</time>
      </trkpt>
      <trkpt lat="46.60608" lon="-1.66479">
        <ele>49</ele>
        <time>2018-03-22T21:13:34Z</time>
      </trkpt>
      <trkpt lat="46.60614" lon="-1.66483">
        <ele>49</ele>
        <time>2018-03-22T21:14:34Z</time>
      </trkpt>
      <trkpt lat="46.60621" lon="-1.66487">
        <ele>49</ele>
        <time>2018-03-22T21:15:34Z</time>
      </trkpt>
      <trkpt lat="46.60629" lon="-1.66491">
        <ele>49</ele>
        <time>2018-03-22T21:16:34Z</time>
      </trkpt>
      <trkpt lat="46.60636" lon="-1.66494">
        <ele>50</ele>
        <time>2018-03-22T21:17:34Z</time>
      </trkpt>
      <trkpt lat="46.60643" lon="-1.66498">
        <ele>50</ele>
        <time>2018-03-22T21:18:34Z</time>
      </trkpt>
      <trkpt lat="46.60651" lon="-1.66502">
        <ele>50</ele>
        <time>2018-03-22T21:19:34Z</time>
      </trkpt>
      <trkpt lat="46.60659" lon="-1.66506">
        <ele>50</ele>
        <time>2018-03-22T21:20:34Z</time>
      </trkpt>
      <trkpt lat="46.60667" lon="-1.6651">
        <ele>50</ele>
        <time>2018-03-22T21:21:34Z</time>
      </trkpt>
      <trkpt lat="46.60675" lon="-1.66514">
        <ele>49</ele>
        <time>2018-03-22T21:22:34Z</time>
      </trkpt>
      <trkpt lat="46.6076" lon="-1.66564">
        <ele>46</ele>
        <time>2018-03-22T21:23:34Z</time>
      </trkpt>
      <trkpt lat="46.6076" lon="-1.66564">
        <ele>46</ele>
        <time>2018-03-22T21:24:34Z</time>
      </trkpt>
      <trkpt lat="46.60762" lon="-1.66557">
        <ele>46</ele>
        <time>2018-03-22T21:25:34Z</time>
      </trkpt>
      <trkpt lat="46.60765" lon="-1.66552">
        <ele>46</ele>
        <time>2018-03-22T21:26:34Z</time>
      </trkpt>
      <trkpt lat="46.60768" lon="-1.66548">
        <ele>46</ele>
        <time>2018-03-22T21:27:34Z</time>
      </trkpt>
      <trkpt lat="46.60771" lon="-1.66545">
        <ele>46</ele>
        <time>2018-03-22T21:28:34Z</time>
      </trkpt>
      <trkpt lat="46.60776" lon="-1.66543">
        <ele>46</ele>
        <time>2018-03-22T21:29:34Z</time>
      </trkpt>
      <trkpt lat="46.60781" lon="-1.66542">
        <ele>45</ele>
        <time>2018-03-22T21:30:34Z</time>
      </trkpt>
      <trkpt lat="46.60785" lon="-1.66542">
        <ele>45</ele>
        <time>2018-03-22T21:31:34Z</time>
      </trkpt>
      <trkpt lat="46.6079" lon="-1.66545">
        <ele>45</ele>
        <time>2018-03-22T21:32:34Z</time>
      </trkpt>
      <trkpt lat="46.60794" lon="-1.66548">
        <ele>45</ele>
        <time>2018-03-22T21:33:34Z</time>
      </trkpt>
      <trkpt lat="46.60798" lon="-1.66554">
        <ele>45</ele>
        <time>2018-03-22T21:34:34Z</time>
      </trkpt>
      <trkpt lat="46.60801" lon="-1.6656">
        <ele>45</ele>
        <time>2018-03-22T21:35:34Z</time>
      </trkpt>
      <trkpt lat="46.60843" lon="-1.66518">
        <ele>44</ele>
        <time>2018-03-22T21:36:34Z</time>
      </trkpt>
      <trkpt lat="46.60876" lon="-1.66481">
        <ele>41</ele>
        <time>2018-03-22T21:37:34Z</time>
      </trkpt>
      <trkpt lat="46.60924" lon="-1.66427">
        <ele>40</ele>
        <time>2018-03-22T21:38:34Z</time>
      </trkpt>
      <trkpt lat="46.60948" lon="-1.66399">
        <ele>40</ele>
        <time>2018-03-22T21:39:34Z</time>
      </trkpt>
      <trkpt lat="46.60951" lon="-1.66396">
        <ele>40</ele>
        <time>2018-03-22T21:40:34Z</time>
      </trkpt>
      <trkpt lat="46.60963" lon="-1.66381">
        <ele>40</ele>
        <time>2018-03-22T21:41:34Z</time>
      </trkpt>
      <trkpt lat="46.60966" lon="-1.66377">
        <ele>40</ele>
        <time>2018-03-22T21:42:34Z</time>
      </trkpt>
      <trkpt lat="46.60969" lon="-1.66371">
        <ele>40</ele>
        <time>2018-03-22T21:43:34Z</time>
      </trkpt>
      <trkpt lat="46.60976" lon="-1.66361">
        <ele>40</ele>
        <time>2018-03-22T21:44:34Z</time>
      </trkpt>
      <trkpt lat="46.60979" lon="-1.66356">
        <ele>40</ele>
        <time>2018-03-22T21:45:34Z</time>
      </trkpt>
      <trkpt lat="46.60986" lon="-1.66349">
        <ele>40</ele>
        <time>2018-03-22T21:46:34Z</time>
      </trkpt>
      <trkpt lat="46.60991" lon="-1.66342">
        <ele>40</ele>
        <time>2018-03-22T21:47:34Z</time>
      </trkpt>
      <trkpt lat="46.60993" lon="-1.6634">
        <ele>40</ele>
        <time>2018-03-22T21:48:34Z</time>
      </trkpt>
      <trkpt lat="46.61014" lon="-1.66316">
        <ele>40</ele>
        <time>2018-03-22T21:49:34Z</time>
      </trkpt>
      <trkpt lat="46.61023" lon="-1.66307">
        <ele>40</ele>
        <time>2018-03-22T21:50:34Z</time>
      </trkpt>
      <trkpt lat="46.61035" lon="-1.66294">
        <ele>41</ele>
        <time>2018-03-22T21:51:34Z</time>
      </trkpt>
      <trkpt lat="46.61047" lon="-1.66283">
        <ele>41</ele>
        <time>2018-03-22T21:52:34Z</time>
      </trkpt>
      <trkpt lat="46.61056" lon="-1.66274">
        <ele>41</ele>
        <time>2018-03-22T21:53:34Z</time>
      </trkpt>
      <trkpt lat="46.61078" lon="-1.66258">
        <ele>41</ele>
        <time>2018-03-22T21:54:34Z</time>
      </trkpt>
      <trkpt lat="46.61078" lon="-1.66257">
        <ele>41</ele>
        <time>2018-03-22T21:55:34Z</time>
      </trkpt>
      <trkpt lat="46.61092" lon="-1.66247">
        <ele>41</ele>
        <time>2018-03-22T21:56:34Z</time>
      </trkpt>
      <trkpt lat="46.6111" lon="-1.66233">
        <ele>41</ele>
        <time>2018-03-22T21:57:34Z</time>
      </trkpt>
      <trkpt lat="46.61115" lon="-1.66232">
        <ele>41</ele>
        <time>2018-03-22T21:58:34Z</time>
      </trkpt>
      <trkpt lat="46.61133" lon="-1.66216">
        <ele>40</ele>
        <time>2018-03-22T21:59:34Z</time>
      </trkpt>
      <trkpt lat="46.61147" lon="-1.66206">
        <ele>40</ele>
        <time>2018-03-22T22:00:34Z</time>
      </trkpt>
      <trkpt lat="46.61149" lon="-1.66205">
        <ele>40</ele>
        <time>2018-03-22T22:01:34Z</time>
      </trkpt>
      <trkpt lat="46.6116" lon="-1.66196">
        <ele>40</ele>
        <time>2018-03-22T22:02:34Z</time>
      </trkpt>
      <trkpt lat="46.6117" lon="-1.66188">
        <ele>40</ele>
        <time>2018-03-22T22:03:34Z</time>
      </trkpt>
      <trkpt lat="46.61182" lon="-1.66179">
        <ele>40</ele>
        <time>2018-03-22T22:04:34Z</time>
      </trkpt>
      <trkpt lat="46.61192" lon="-1.66171">
        <ele>40</ele>
        <time>2018-03-22T22:05:34Z</time>
      </trkpt>
      <trkpt lat="46.61204" lon="-1.66161">
        <ele>40</ele>
        <time>2018-03-22T22:06:34Z</time>
      </trkpt>
      <trkpt lat="46.61214" lon="-1.66153">
        <ele>39</ele>
        <time>2018-03-22T22:07:34Z</time>
      </trkpt>
      <trkpt lat="46.61225" lon="-1.66143">
        <ele>39</ele>
        <time>2018-03-22T22:08:34Z</time>
      </trkpt>
      <trkpt lat="46.61236" lon="-1.66132">
        <ele>39</ele>
        <time>2018-03-22T22:09:34Z</time>
      </trkpt>
      <trkpt lat="46.61246" lon="-1.66121">
        <ele>39</ele>
        <time>2018-03-22T22:10:34Z</time>
      </trkpt>
      <trkpt lat="46.6126" lon="-1.66105">
        <ele>38</ele>
        <time>2018-03-22T22:11:34Z</time>
      </trkpt>
      <trkpt lat="46.6127" lon="-1.66094">
        <ele>38</ele>
        <time>2018-03-22T22:12:34Z</time>
      </trkpt>
      <trkpt lat="46.61306" lon="-1.66051">
        <ele>38</ele>
        <time>2018-03-22T22:13:34Z</time>
      </trkpt>
      <trkpt lat="46.61309" lon="-1.66043">
        <ele>38</ele>
        <time>2018-03-22T22:14:34Z</time>
      </trkpt>
      <trkpt lat="46.61343" lon="-1.66001">
        <ele>38</ele>
        <time>2018-03-22T22:15:34Z</time>
      </trkpt>
      <trkpt lat="46.61354" lon="-1.65988">
        <ele>38</ele>
        <time>2018-03-22T22:16:34Z</time>
      </trkpt>
      <trkpt lat="46.61361" lon="-1.6598">
        <ele>39</ele>
        <time>2018-03-22T22:17:34Z</time>
      </trkpt>
      <trkpt lat="46.61366" lon="-1.65974">
        <ele>39</ele>
        <time>2018-03-22T22:18:34Z</time>
      </trkpt>
      <trkpt lat="46.61404" lon="-1.6594">
        <ele>40</ele>
        <time>2018-03-22T22:19:34Z</time>
      </trkpt>
      <trkpt lat="46.61415" lon="-1.65936">
        <ele>40</ele>
        <time>2018-03-22T22:20:34Z</time>
      </trkpt>
      <trkpt lat="46.61421" lon="-1.65934">
        <ele>40</ele>
        <time>2018-03-22T22:21:34Z</time>
      </trkpt>
      <trkpt lat="46.61433" lon="-1.6593">
        <ele>40</ele>
        <time>2018-03-22T22:22:34Z</time>
      </trkpt>
      <trkpt lat="46.61439" lon="-1.65928">
        <ele>40</ele>
        <time>2018-03-22T22:23:34Z</time>
      </trkpt>
      <trkpt lat="46.61444" lon="-1.65926">
        <ele>40</ele>
        <time>2018-03-22T22:24:34Z</time>
      </trkpt>
      <trkpt lat="46.61453" lon="-1.65927">
        <ele>40</ele>
        <time>2018-03-22T22:25:34Z</time>
      </trkpt>
      <trkpt lat="46.6147" lon="-1.65922">
        <ele>40</ele>
        <time>2018-03-22T22:26:34Z</time>
      </trkpt>
      <trkpt lat="46.61493" lon="-1.65916">
        <ele>40</ele>
        <time>2018-03-22T22:27:34Z</time>
      </trkpt>
      <trkpt lat="46.61511" lon="-1.6591">
        <ele>40</ele>
        <time>2018-03-22T22:28:34Z</time>
      </trkpt>
      <trkpt lat="46.61516" lon="-1.65909">
        <ele>39</ele>
        <time>2018-03-22T22:29:34Z</time>
      </trkpt>
      <trkpt lat="46.61525" lon="-1.65907">
        <ele>39</ele>
        <time>2018-03-22T22:30:34Z</time>
      </trkpt>
      <trkpt lat="46.61541" lon="-1.65901">
        <ele>39</ele>
        <time>2018-03-22T22:31:34Z</time>
      </trkpt>
      <trkpt lat="46.61574" lon="-1.65889">
        <ele>38</ele>
        <time>2018-03-22T22:32:34Z</time>
      </trkpt>
      <trkpt lat="46.61583" lon="-1.65886">
        <ele>37</ele>
        <time>2018-03-22T22:33:34Z</time>
      </trkpt>
      <trkpt lat="46.61586" lon="-1.65884">
        <ele>37</ele>
        <time>2018-03-22T22:34:34Z</time>
      </trkpt>
      <trkpt lat="46.61608" lon="-1.65875">
        <ele>38</ele>
        <time>2018-03-22T22:35:34Z</time>
      </trkpt>
      <trkpt lat="46.61613" lon="-1.65869">
        <ele>38</ele>
        <time>2018-03-22T22:36:34Z</time>
      </trkpt>
      <trkpt lat="46.61627" lon="-1.65864">
        <ele>38</ele>
        <time>2018-03-22T22:37:34Z</time>
      </trkpt>
      <trkpt lat="46.61662" lon="-1.65852">
        <ele>38</ele>
        <time>2018-03-22T22:38:34Z</time>
      </trkpt>
      <trkpt lat="46.61665" lon="-1.65851">
        <ele>38</ele>
        <time>2018-03-22T22:39:34Z</time>
      </trkpt>
      <trkpt lat="46.61674" lon="-1.65848">
        <ele>38</ele>
        <time>2018-03-22T22:40:34Z</time>
      </trkpt>
      <trkpt lat="46.61689" lon="-1.65842">
        <ele>37</ele>
        <time>2018-03-22T22:41:34Z</time>
      </trkpt>
      <trkpt lat="46.6171" lon="-1.65838">
        <ele>36</ele>
        <time>2018-03-22T22:42:34Z</time>
      </trkpt>
      <trkpt lat="46.6171" lon="-1.65836">
        <ele>36</ele>
        <time>2018-03-22T22:43:34Z</time>
      </trkpt>
      <trkpt lat="46.61711" lon="-1.65834">
        <ele>36</ele>
        <time>2018-03-22T22:44:34Z</time>
      </trkpt>
      <trkpt lat="46.61712" lon="-1.65833">
        <ele>36</ele>
        <time>2018-03-22T22:45:34Z</time>
      </trkpt>
      <trkpt lat="46.61713" lon="-1.65832">
        <ele>36</ele>
        <time>2018-03-22T22:46:34Z</time>
      </trkpt>
      <trkpt lat="46.61715" lon="-1.65831">
        <ele>36</ele>
        <time>2018-03-22T22:47:34Z</time>
      </trkpt>
      <trkpt lat="46.61717" lon="-1.65831">
        <ele>36</ele>
        <time>2018-03-22T22:48:34Z</time>
      </trkpt>
      <trkpt lat="46.61719" lon="-1.65832">
        <ele>35</ele>
        <time>2018-03-22T22:49:34Z</time>
      </trkpt>
      <trkpt lat="46.61722" lon="-1.65833">
        <ele>35</ele>
        <time>2018-03-22T22:50:34Z</time>
      </trkpt>
      <trkpt lat="46.61723" lon="-1.65834">
        <ele>35</ele>
        <time>2018-03-22T22:51:34Z</time>
      </trkpt>
      <trkpt lat="46.61741" lon="-1.65826">
        <ele>34</ele>
        <time>2018-03-22T22:52:34Z</time>
      </trkpt>
      <trkpt lat="46.61756" lon="-1.65817">
        <ele>34</ele>
        <time>2018-03-22T22:53:34Z</time>
      </trkpt>
      <trkpt lat="46.61776" lon="-1.65807">
        <ele>34</ele>
        <time>2018-03-22T22:54:34Z</time>
      </trkpt>
      <trkpt lat="46.61784" lon="-1.65804">
        <ele>34</ele>
        <time>2018-03-22T22:55:34Z</time>
      </trkpt>
      <trkpt lat="46.61795" lon="-1.65801">
        <ele>33</ele>
        <time>2018-03-22T22:56:34Z</time>
      </trkpt>
      <trkpt lat="46.6181" lon="-1.65797">
        <ele>33</ele>
        <time>2018-03-22T22:57:34Z</time>
      </trkpt>
      <trkpt lat="46.61814" lon="-1.65796">
        <ele>33</ele>
        <time>2018-03-22T22:58:34Z</time>
      </trkpt>
      <trkpt lat="46.61826" lon="-1.65793">
        <ele>33</ele>
        <time>2018-03-22T22:59:34Z</time>
      </trkpt>
      <trkpt lat="46.61837" lon="-1.6579">
        <ele>33</ele>
        <time>2018-03-22T23:00:34Z</time>
      </trkpt>
      <trkpt lat="46.61874" lon="-1.65781">
        <ele>33</ele>
        <time>2018-03-22T23:01:34Z</time>
      </trkpt>
      <trkpt lat="46.61883" lon="-1.65778">
        <ele>32</ele>
        <time>2018-03-22T23:02:34Z</time>
      </trkpt>
      <trkpt lat="46.61892" lon="-1.65776">
        <ele>32</ele>
        <time>2018-03-22T23:03:34Z</time>
      </trkpt>
      <trkpt lat="46.61899" lon="-1.65773">
        <ele>32</ele>
        <time>2018-03-22T23:04:34Z</time>
      </trkpt>
      <trkpt lat="46.61906" lon="-1.6577">
        <ele>32</ele>
        <time>2018-03-22T23:05:34Z</time>
      </trkpt>
      <trkpt lat="46.61922" lon="-1.65762">
        <ele>32</ele>
        <time>2018-03-22T23:06:34Z</time>
      </trkpt>
      <trkpt lat="46.61933" lon="-1.65755">
        <ele>32</ele>
        <time>2018-03-22T23:07:34Z</time>
      </trkpt>
      <trkpt lat="46.61944" lon="-1.65749">
        <ele>32</ele>
        <time>2018-03-22T23:08:34Z</time>
      </trkpt>
      <trkpt lat="46.61947" lon="-1.65747">
        <ele>32</ele>
        <time>2018-03-22T23:09:34Z</time>
      </trkpt>
      <trkpt lat="46.6195" lon="-1.65746">
        <ele>32</ele>
        <time>2018-03-22T23:10:34Z</time>
      </trkpt>
      <trkpt lat="46.61952" lon="-1.65745">
        <ele>32</ele>
        <time>2018-03-22T23:11:34Z</time>
      </trkpt>
      <trkpt lat="46.61957" lon="-1.65744">
        <ele>32</ele>
        <time>2018-03-22T23:12:34Z</time>
      </trkpt>
      <trkpt lat="46.61962" lon="-1.65744">
        <ele>32</ele>
        <time>2018-03-22T23:13:34Z</time>
      </trkpt>
      <trkpt lat="46.61966" lon="-1.65746">
        <ele>32</ele>
        <time>2018-03-22T23:14:34Z</time>
      </trkpt>
      <trkpt lat="46.61996" lon="-1.65759">
        <ele>32</ele>
        <time>2018-03-22T23:15:34Z</time>
      </trkpt>
      <trkpt lat="46.62024" lon="-1.65773">
        <ele>31</ele>
        <time>2018-03-22T23:16:34Z</time>
      </trkpt>
      <trkpt lat="46.62024" lon="-1.65773">
        <ele>31</ele>
        <time>2018-03-22T23:17:34Z</time>
      </trkpt>
      <trkpt lat="46.62024" lon="-1.65772">
        <ele>31</ele>
        <time>2018-03-22T23:18:34Z</time>
      </trkpt>
      <trkpt lat="46.62024" lon="-1.65771">
        <ele>31</ele>
        <time>2018-03-22T23:19:34Z</time>
      </trkpt>
      <trkpt lat="46.62024" lon="-1.6577">
        <ele>31</ele>
        <time>2018-03-22T23:20:34Z</time>
      </trkpt>
      <trkpt lat="46.62025" lon="-1.6577">
        <ele>31</ele>
        <time>2018-03-22T23:21:34Z</time>
      </trkpt>
      <trkpt lat="46.62025" lon="-1.65769">
        <ele>31</ele>
        <time>2018-03-22T23:22:34Z</time>
      </trkpt>
      <trkpt lat="46.62026" lon="-1.65769">
        <ele>31</ele>
        <time>2018-03-22T23:23:34Z</time>
      </trkpt>
      <trkpt lat="46.62026" lon="-1.65768">
        <ele>31</ele>
        <time>2018-03-22T23:24:34Z</time>
      </trkpt>
      <trkpt lat="46.62027" lon="-1.65768">
        <ele>31</ele>
        <time>2018-03-22T23:25:34Z</time>
      </trkpt>
      <trkpt lat="46.62028" lon="-1.65768">
        <ele>31</ele>
        <time>2018-03-22T23:26:34Z</time>
      </trkpt>
      <trkpt lat="46.62029" lon="-1.65768">
        <ele>31</ele>
        <time>2018-03-22T23:27:34Z</time>
      </trkpt>
      <trkpt lat="46.6203" lon="-1.65768">
        <ele>31</ele>
        <time>2018-03-22T23:28:34Z</time>
      </trkpt>
      <trkpt lat="46.6203" lon="-1.65769">
        <ele>31</ele>
        <time>2018-03-22T23:29:34Z</time>
      </trkpt>
      <trkpt lat="46.62031" lon="-1.65769">
        <ele>31</ele>
        <time>2018-03-22T23:30:34Z</time>
      </trkpt>
      <trkpt lat="46.62031" lon="-1.6577">
        <ele>31</ele>
        <time>2018-03-22T23:31:34Z</time>
      </trkpt>
      <trkpt lat="46.62031" lon="-1.65771">
        <ele>31</ele>
        <time>2018-03-22T23:32:34Z</time>
      </trkpt>
      <trkpt lat="46.62032" lon="-1.65771">
        <ele>31</ele>
        <time>2018-03-22T23:33:34Z</time>
      </trkpt>
      <trkpt lat="46.62032" lon="-1.65772">
        <ele>31</ele>
        <time>2018-03-22T23:34:34Z</time>
      </trkpt>
      <trkpt lat="46.62032" lon="-1.65773">
        <ele>31</ele>
        <time>2018-03-22T23:35:34Z</time>
      </trkpt>
      <trkpt lat="46.62032" lon="-1.65774">
        <ele>31</ele>
        <time>2018-03-22T23:36:34Z</time>
      </trkpt>
      <trkpt lat="46.62032" lon="-1.65775">
        <ele>31</ele>
        <time>2018-03-22T23:37:34Z</time>
      </trkpt>
      <trkpt lat="46.62032" lon="-1.65776">
        <ele>31</ele>
        <time>2018-03-22T23:38:34Z</time>
      </trkpt>
      <trkpt lat="46.62032" lon="-1.65777">
        <ele>31</ele>
        <time>2018-03-22T23:39:34Z</time>
      </trkpt>
      <trkpt lat="46.62055" lon="-1.65789">
        <ele>30</ele>
        <time>2018-03-22T23:40:34Z</time>
      </trkpt>
      <trkpt lat="46.62063" lon="-1.65793">
        <ele>30</ele>
        <time>2018-03-22T23:41:34Z</time>
      </trkpt>
      <trkpt lat="46.62068" lon="-1.65797">
        <ele>30</ele>
        <time>2018-03-22T23:42:34Z</time>
      </trkpt>
      <trkpt lat="46.62072" lon="-1.65801">
        <ele>30</ele>
        <time>2018-03-22T23:43:34Z</time>
      </trkpt>
      <trkpt lat="46.62076" lon="-1.65807">
        <ele>30</ele>
        <time>2018-03-22T23:44:34Z</time>
      </trkpt>
      <trkpt lat="46.62078" lon="-1.65812">
        <ele>30</ele>
        <time>2018-03-22T23:45:34Z</time>
      </trkpt>
      <trkpt lat="46.6208" lon="-1.65817">
        <ele>30</ele>
        <time>2018-03-22T23:46:34Z</time>
      </trkpt>
      <trkpt lat="46.62081" lon="-1.65824">
        <ele>30</ele>
        <time>2018-03-22T23:47:34Z</time>
      </trkpt>
      <trkpt lat="46.62081" lon="-1.65825">
        <ele>30</ele>
        <time>2018-03-22T23:48:34Z</time>
      </trkpt>
      <trkpt lat="46.62082" lon="-1.65838">
        <ele>30</ele>
        <time>2018-03-22T23:49:34Z</time>
      </trkpt>
      <trkpt lat="46.62082" lon="-1.65847">
        <ele>30</ele>
        <time>2018-03-22T23:50:34Z</time>
      </trkpt>
      <trkpt lat="46.62084" lon="-1.65852">
        <ele>30</ele>
        <time>2018-03-22T23:51:34Z</time>
      </trkpt>
      <trkpt lat="46.62085" lon="-1.65854">
        <ele>30</ele>
        <time>2018-03-22T23:52:34Z</time>
      </trkpt>
      <trkpt lat="46.62087" lon="-1.6586">
        <ele>29</ele>
        <time>2018-03-22T23:53:34Z</time>
      </trkpt>
      <trkpt lat="46.62098" lon="-1.65865">
        <ele>29</ele>
        <time>2018-03-22T23:54:34Z</time>
      </trkpt>
      <trkpt lat="46.62103" lon="-1.65867">
        <ele>28</ele>
        <time>2018-03-22T23:55:34Z</time>
      </trkpt>
      <trkpt lat="46.62106" lon="-1.65868">
        <ele>28</ele>
        <time>2018-03-22T23:56:34Z</time>
      </trkpt>
      <trkpt lat="46.62109" lon="-1.65869">
        <ele>28</ele>
        <time>2018-03-22T23:57:34Z</time>
      </trkpt>
      <trkpt lat="46.62113" lon="-1.65869">
        <ele>28</ele>
        <time>2018-03-22T23:58:34Z</time>
      </trkpt>
      <trkpt lat="46.62119" lon="-1.65869">
        <ele>27</ele>
        <time>2018-03-22T23:59:34Z</time>
      </trkpt>
      <trkpt lat="46.62127" lon="-1.65868">
        <ele>27</ele>
        <time>2018-03-23T00:00:34Z</time>
      </trkpt>
      <trkpt lat="46.62137" lon="-1.65866">
        <ele>26</ele>
        <time>2018-03-23T00:01:34Z</time>
      </trkpt>
      <trkpt lat="46.62137" lon="-1.65866">
        <ele>26</ele>
        <time>2018-03-23T00:02:34Z</time>
      </trkpt>
      <trkpt lat="46.62137" lon="-1.65876">
        <ele>26</ele>
        <time>2018-03-23T00:03:34Z</time>
      </trkpt>
      <trkpt lat="46.62135" lon="-1.6589">
        <ele>26</ele>
        <time>2018-03-23T00:04:34Z</time>
      </trkpt>
      <trkpt lat="46.62134" lon="-1.659">
        <ele>26</ele>
        <time>2018-03-23T00:05:34Z</time>
      </trkpt>
      <trkpt lat="46.62132" lon="-1.65908">
        <ele>26</ele>
        <time>2018-03-23T00:06:34Z</time>
      </trkpt>
      <trkpt lat="46.62129" lon="-1.65929">
        <ele>26</ele>
        <time>2018-03-23T00:07:34Z</time>
      </trkpt>
      <trkpt lat="46.62126" lon="-1.65943">
        <ele>26</ele>
        <time>2018-03-23T00:08:34Z</time>
      </trkpt>
      <trkpt lat="46.62121" lon="-1.65972">
        <ele>27</ele>
        <time>2018-03-23T00:09:34Z</time>
      </trkpt>
      <trkpt lat="46.62116" lon="-1.65996">
        <ele>27</ele>
        <time>2018-03-23T00:10:34Z</time>
      </trkpt>
      <trkpt lat="46.62114" lon="-1.6601">
        <ele>26</ele>
        <time>2018-03-23T00:11:34Z</time>
      </trkpt>
      <trkpt lat="46.62113" lon="-1.66017">
        <ele>26</ele>
        <time>2018-03-23T00:12:34Z</time>
      </trkpt>
      <trkpt lat="46.62112" lon="-1.66022">
        <ele>26</ele>
        <time>2018-03-23T00:13:34Z</time>
      </trkpt>
      <trkpt lat="46.6211" lon="-1.66028">
        <ele>26</ele>
        <time>2018-03-23T00:14:34Z</time>
      </trkpt>
      <trkpt lat="46.62108" lon="-1.66035">
        <ele>26</ele>
        <time>2018-03-23T00:15:34Z</time>
      </trkpt>
      <trkpt lat="46.62101" lon="-1.66051">
        <ele>26</ele>
        <time>2018-03-23T00:16:34Z</time>
      </trkpt>
      <trkpt lat="46.62097" lon="-1.66059">
        <ele>26</ele>
        <time>2018-03-23T00:17:34Z</time>
      </trkpt>
      <trkpt lat="46.6209" lon="-1.66068">
        <ele>25</ele>
        <time>2018-03-23T00:18:34Z</time>
      </trkpt>
      <trkpt lat="46.62081" lon="-1.6608">
        <ele>25</ele>
        <time>2018-03-23T00:19:34Z</time>
      </trkpt>
      <trkpt lat="46.62081" lon="-1.6608">
        <ele>25</ele>
        <time>2018-03-23T00:20:34Z</time>
      </trkpt>
      <trkpt lat="46.62085" lon="-1.66086">
        <ele>25</ele>
        <time>2018-03-23T00:21:34Z</time>
      </trkpt>
      <trkpt lat="46.62089" lon="-1.66097">
        <ele>25</ele>
        <time>2018-03-23T00:22:34Z</time>
      </trkpt>
      <trkpt lat="46.62093" lon="-1.6611">
        <ele>25</ele>
        <time>2018-03-23T00:23:34Z</time>
      </trkpt>
      <trkpt lat="46.62097" lon="-1.66124">
        <ele>24</ele>
        <time>2018-03-23T00:24:34Z</time>
      </trkpt>
      <trkpt lat="46.62097" lon="-1.66131">
        <ele>24</ele>
        <time>2018-03-23T00:25:34Z</time>
      </trkpt>
      <trkpt lat="46.62103" lon="-1.66155">
        <ele>24</ele>
        <time>2018-03-23T00:26:34Z</time>
      </trkpt>
      <trkpt lat="46.62105" lon="-1.66177">
        <ele>24</ele>
        <time>2018-03-23T00:27:34Z</time>
      </trkpt>
      <trkpt lat="46.62105" lon="-1.66198">
        <ele>24</ele>
        <time>2018-03-23T00:28:34Z</time>
      </trkpt>
      <trkpt lat="46.62104" lon="-1.6622">
        <ele>24</ele>
        <time>2018-03-23T00:29:34Z</time>
      </trkpt>
      <trkpt lat="46.62102" lon="-1.66254">
        <ele>24</ele>
        <time>2018-03-23T00:30:34Z</time>
      </trkpt>
      <trkpt lat="46.62098" lon="-1.66291">
        <ele>24</ele>
        <time>2018-03-23T00:31:34Z</time>
      </trkpt>
      <trkpt lat="46.62098" lon="-1.66293">
        <ele>24</ele>
        <time>2018-03-23T00:32:34Z</time>
      </trkpt>
      <trkpt lat="46.62098" lon="-1.66294">
        <ele>24</ele>
        <time>2018-03-23T00:33:34Z</time>
      </trkpt>
      <trkpt lat="46.62097" lon="-1.66297">
        <ele>24</ele>
        <time>2018-03-23T00:34:34Z</time>
      </trkpt>
      <trkpt lat="46.62097" lon="-1.663">
        <ele>24</ele>
        <time>2018-03-23T00:35:34Z</time>
      </trkpt>
      <trkpt lat="46.62095" lon="-1.66328">
        <ele>25</ele>
        <time>2018-03-23T00:36:34Z</time>
      </trkpt>
      <trkpt lat="46.62094" lon="-1.66348">
        <ele>24</ele>
        <time>2018-03-23T00:37:34Z</time>
      </trkpt>
      <trkpt lat="46.62091" lon="-1.66387">
        <ele>24</ele>
        <time>2018-03-23T00:38:34Z</time>
      </trkpt>
      <trkpt lat="46.6209" lon="-1.664">
        <ele>23</ele>
        <time>2018-03-23T00:39:34Z</time>
      </trkpt>
      <trkpt lat="46.62089" lon="-1.66409">
        <ele>23</ele>
        <time>2018-03-23T00:40:34Z</time>
      </trkpt>
      <trkpt lat="46.62089" lon="-1.66419">
        <ele>23</ele>
        <time>2018-03-23T00:41:34Z</time>
      </trkpt>
      <trkpt lat="46.62089" lon="-1.66427">
        <ele>23</ele>
        <time>2018-03-23T00:42:34Z</time>
      </trkpt>
      <trkpt lat="46.62089" lon="-1.66439">
        <ele>22</ele>
        <time>2018-03-23T00:43:34Z</time>
      </trkpt>
      <trkpt lat="46.62089" lon="-1.66449">
        <ele>22</ele>
        <time>2018-03-23T00:44:34Z</time>
      </trkpt>
      <trkpt lat="46.6209" lon="-1.66457">
        <ele>22</ele>
        <time>2018-03-23T00:45:34Z</time>
      </trkpt>
      <trkpt lat="46.62092" lon="-1.66479">
        <ele>22</ele>
        <time>2018-03-23T00:46:34Z</time>
      </trkpt>
      <trkpt lat="46.62101" lon="-1.66544">
        <ele>21</ele>
        <time>2018-03-23T00:47:34Z</time>
      </trkpt>
      <trkpt lat="46.62113" lon="-1.66632">
        <ele>20</ele>
        <time>2018-03-23T00:48:34Z</time>
      </trkpt>
      <trkpt lat="46.62113" lon="-1.66638">
        <ele>20</ele>
        <time>2018-03-23T00:49:34Z</time>
      </trkpt>
      <trkpt lat="46.62113" lon="-1.66644">
        <ele>20</ele>
        <time>2018-03-23T00:50:34Z</time>
      </trkpt>
      <trkpt lat="46.62114" lon="-1.6666">
        <ele>19</ele>
        <time>2018-03-23T00:51:34Z</time>
      </trkpt>
      <trkpt lat="46.62113" lon="-1.66678">
        <ele>19</ele>
        <time>2018-03-23T00:52:34Z</time>
      </trkpt>
      <trkpt lat="46.62112" lon="-1.66701">
        <ele>19</ele>
        <time>2018-03-23T00:53:34Z</time>
      </trkpt>
      <trkpt lat="46.62112" lon="-1.6672">
        <ele>19</ele>
        <time>2018-03-23T00:54:34Z</time>
      </trkpt>
      <trkpt lat="46.62111" lon="-1.66735">
        <ele>19</ele>
        <time>2018-03-23T00:55:34Z</time>
      </trkpt>
      <trkpt lat="46.62111" lon="-1.66737">
        <ele>19</ele>
        <time>2018-03-23T00:56:34Z</time>
      </trkpt>
      <trkpt lat="46.62111" lon="-1.66742">
        <ele>19</ele>
        <time>2018-03-23T00:57:34Z</time>
      </trkpt>
      <trkpt lat="46.6211" lon="-1.66749">
        <ele>19</ele>
        <time>2018-03-23T00:58:34Z</time>
      </trkpt>
      <trkpt lat="46.6211" lon="-1.66756">
        <ele>19</ele>
        <time>2018-03-23T00:59:34Z</time>
      </trkpt>
      <trkpt lat="46.6211" lon="-1.66772">
        <ele>19</ele>
        <time>2018-03-23T01:00:34Z</time>
      </trkpt>
      <trkpt lat="46.6211" lon="-1.66798">
        <ele>20</ele>
        <time>2018-03-23T01:01:34Z</time>
      </trkpt>
      <trkpt lat="46.62111" lon="-1.66837">
        <ele>20</ele>
        <time>2018-03-23T01:02:34Z</time>
      </trkpt>
      <trkpt lat="46.62113" lon="-1.66905">
        <ele>23</ele>
        <time>2018-03-23T01:03:34Z</time>
      </trkpt>
      <trkpt lat="46.62115" lon="-1.67004">
        <ele>27</ele>
        <time>2018-03-23T01:04:34Z</time>
      </trkpt>
      <trkpt lat="46.62116" lon="-1.6701">
        <ele>27</ele>
        <time>2018-03-23T01:05:34Z</time>
      </trkpt>
      <trkpt lat="46.62117" lon="-1.67052">
        <ele>28</ele>
        <time>2018-03-23T01:06:34Z</time>
      </trkpt>
      <trkpt lat="46.6212" lon="-1.67164">
        <ele>33</ele>
        <time>2018-03-23T01:07:34Z</time>
      </trkpt>
      <trkpt lat="46.6212" lon="-1.6717">
        <ele>33</ele>
        <time>2018-03-23T01:08:34Z</time>
      </trkpt>
      <trkpt lat="46.6212" lon="-1.67184">
        <ele>34</ele>
        <time>2018-03-23T01:09:34Z</time>
      </trkpt>
      <trkpt lat="46.62124" lon="-1.67269">
        <ele>36</ele>
        <time>2018-03-23T01:10:34Z</time>
      </trkpt>
      <trkpt lat="46.62125" lon="-1.67278">
        <ele>37</ele>
        <time>2018-03-23T01:11:34Z</time>
      </trkpt>
      <trkpt lat="46.62126" lon="-1.6729">
        <ele>37</ele>
        <time>2018-03-23T01:12:34Z</time>
      </trkpt>
      <trkpt lat="46.62127" lon="-1.673">
        <ele>37</ele>
        <time>2018-03-23T01:13:34Z</time>
      </trkpt>
      <trkpt lat="46.62129" lon="-1.67311">
        <ele>37</ele>
        <time>2018-03-23T01:14:34Z</time>
      </trkpt>
      <trkpt lat="46.62131" lon="-1.67322">
        <ele>38</ele>
        <time>2018-03-23T01:15:34Z</time>
      </trkpt>
      <trkpt lat="46.62133" lon="-1.6733">
        <ele>38</ele>
        <time>2018-03-23T01:16:34Z</time>
      </trkpt>
      <trkpt lat="46.62136" lon="-1.67341">
        <ele>38</ele>
        <time>2018-03-23T01:17:34Z</time>
      </trkpt>
      <trkpt lat="46.62143" lon="-1.67359">
        <ele>38</ele>
        <time>2018-03-23T01:18:34Z</time>
      </trkpt>
      <trkpt lat="46.62171" lon="-1.67424">
        <ele>39</ele>
        <time>2018-03-23T01:19:34Z</time>
      </trkpt>
      <trkpt lat="46.62172" lon="-1.67427">
        <ele>39</ele>
        <time>2018-03-23T01:20:34Z</time>
      </trkpt>
      <trkpt lat="46.6222" lon="-1.6754">
        <ele>40</ele>
        <time>2018-03-23T01:21:34Z</time>
      </trkpt>
      <trkpt lat="46.62227" lon="-1.67554">
        <ele>41</ele>
        <time>2018-03-23T01:22:34Z</time>
      </trkpt>
      <trkpt lat="46.62237" lon="-1.6758">
        <ele>42</ele>
        <time>2018-03-23T01:23:34Z</time>
      </trkpt>
      <trkpt lat="46.62248" lon="-1.67604">
        <ele>43</ele>
        <time>2018-03-23T01:24:34Z</time>
      </trkpt>
      <trkpt lat="46.62276" lon="-1.67668">
        <ele>41</ele>
        <time>2018-03-23T01:25:34Z</time>
      </trkpt>
      <trkpt lat="46.62278" lon="-1.67674">
        <ele>41</ele>
        <time>2018-03-23T01:26:34Z</time>
      </trkpt>
      <trkpt lat="46.6229" lon="-1.67698">
        <ele>40</ele>
        <time>2018-03-23T01:27:34Z</time>
      </trkpt>
      <trkpt lat="46.62301" lon="-1.67722">
        <ele>40</ele>
        <time>2018-03-23T01:28:34Z</time>
      </trkpt>
      <trkpt lat="46.62344" lon="-1.67808">
        <ele>38</ele>
        <time>2018-03-23T01:29:34Z</time>
      </trkpt>
      <trkpt lat="46.62362" lon="-1.67844">
        <ele>36</ele>
        <time>2018-03-23T01:30:34Z</time>
      </trkpt>
      <trkpt lat="46.62363" lon="-1.67846">
        <ele>36</ele>
        <time>2018-03-23T01:31:34Z</time>
      </trkpt>
      <trkpt lat="46.62393" lon="-1.67907">
        <ele>34</ele>
        <time>2018-03-23T01:32:34Z</time>
      </trkpt>
      <trkpt lat="46.62443" lon="-1.68008">
        <ele>35</ele>
        <time>2018-03-23T01:33:34Z</time>
      </trkpt>
      <trkpt lat="46.62484" lon="-1.6809">
        <ele>36</ele>
        <time>2018-03-23T01:34:34Z</time>
      </trkpt>
      <trkpt lat="46.62486" lon="-1.68095">
        <ele>36</ele>
        <time>2018-03-23T01:35:34Z</time>
      </trkpt>
      <trkpt lat="46.62545" lon="-1.68212">
        <ele>36</ele>
        <time>2018-03-23T01:36:34Z</time>
      </trkpt>
      <trkpt lat="46.62573" lon="-1.68267">
        <ele>37</ele>
        <time>2018-03-23T01:37:34Z</time>
      </trkpt>
      <trkpt lat="46.62604" lon="-1.68328">
        <ele>40</ele>
        <time>2018-03-23T01:38:34Z</time>
      </trkpt>
      <trkpt lat="46.62671" lon="-1.68461">
        <ele>41</ele>
        <time>2018-03-23T01:39:34Z</time>
      </trkpt>
      <trkpt lat="46.62682" lon="-1.68484">
        <ele>42</ele>
        <time>2018-03-23T01:40:34Z</time>
      </trkpt>
      <trkpt lat="46.62713" lon="-1.68545">
        <ele>45</ele>
        <time>2018-03-23T01:41:34Z</time>
      </trkpt>
      <trkpt lat="46.62758" lon="-1.68633">
        <ele>49</ele>
        <time>2018-03-23T01:42:34Z</time>
      </trkpt>
      <trkpt lat="46.62808" lon="-1.68732">
        <ele>54</ele>
        <time>2018-03-23T01:43:34Z</time>
      </trkpt>
      <trkpt lat="46.62841" lon="-1.688">
        <ele>54</ele>
        <time>2018-03-23T01:44:34Z</time>
      </trkpt>
      <trkpt lat="46.62905" lon="-1.6893">
        <ele>55</ele>
        <time>2018-03-23T01:45:34Z</time>
      </trkpt>
      <trkpt lat="46.62913" lon="-1.68944">
        <ele>55</ele>
        <time>2018-03-23T01:46:34Z</time>
      </trkpt>
      <trkpt lat="46.62919" lon="-1.68956">
        <ele>55</ele>
        <time>2018-03-23T01:47:34Z</time>
      </trkpt>
      <trkpt lat="46.62923" lon="-1.68964">
        <ele>55</ele>
        <time>2018-03-23T01:48:34Z</time>
      </trkpt>
      <trkpt lat="46.62965" lon="-1.6905">
        <ele>57</ele>
        <time>2018-03-23T01:49:34Z</time>
      </trkpt>
      <trkpt lat="46.63023" lon="-1.69167">
        <ele>60</ele>
        <time>2018-03-23T01:50:34Z</time>
      </trkpt>
      <trkpt lat="46.63067" lon="-1.69255">
        <ele>62</ele>
        <time>2018-03-23T01:51:34Z</time>
      </trkpt>
      <trkpt lat="46.63108" lon="-1.69336">
        <ele>61</ele>
        <time>2018-03-23T01:52:34Z</time>
      </trkpt>
      <trkpt lat="46.63127" lon="-1.69375">
        <ele>60</ele>
        <time>2018-03-23T01:53:34Z</time>
      </trkpt>
      <trkpt lat="46.63142" lon="-1.69406">
        <ele>60</ele>
        <time>2018-03-23T01:54:34Z</time>
      </trkpt>
      <trkpt lat="46.63148" lon="-1.69418">
        <ele>60</ele>
        <time>2018-03-23T01:55:34Z</time>
      </trkpt>
      <trkpt lat="46.63154" lon="-1.6943">
        <ele>60</ele>
        <time>2018-03-23T01:56:34Z</time>
      </trkpt>
      <trkpt lat="46.63179" lon="-1.69479">
        <ele>60</ele>
        <time>2018-03-23T01:57:34Z</time>
      </trkpt>
      <trkpt lat="46.63205" lon="-1.69534">
        <ele>61</ele>
        <time>2018-03-23T01:58:34Z</time>
      </trkpt>
      <trkpt lat="46.63215" lon="-1.69553">
        <ele>61</ele>
        <time>2018-03-23T01:59:34Z</time>
      </trkpt>
      <trkpt lat="46.63225" lon="-1.69574">
        <ele>61</ele>
        <time>2018-03-23T02:00:34Z</time>
      </trkpt>
      <trkpt lat="46.63232" lon="-1.69587">
        <ele>61</ele>
        <time>2018-03-23T02:01:34Z</time>
      </trkpt>
      <trkpt lat="46.63239" lon="-1.69602">
        <ele>61</ele>
        <time>2018-03-23T02:02:34Z</time>
      </trkpt>
      <trkpt lat="46.63243" lon="-1.69609">
        <ele>61</ele>
        <time>2018-03-23T02:03:34Z</time>
      </trkpt>
      <trkpt lat="46.63265" lon="-1.69653">
        <ele>60</ele>
        <time>2018-03-23T02:04:34Z</time>
      </trkpt>
      <trkpt lat="46.63287" lon="-1.69698">
        <ele>60</ele>
        <time>2018-03-23T02:05:34Z</time>
      </trkpt>
      <trkpt lat="46.63297" lon="-1.69718">
        <ele>60</ele>
        <time>2018-03-23T02:06:34Z</time>
      </trkpt>
      <trkpt lat="46.6331" lon="-1.69743">
        <ele>60</ele>
        <time>2018-03-23T02:07:34Z</time>
      </trkpt>
      <trkpt lat="46.63351" lon="-1.69824">
        <ele>60</ele>
        <time>2018-03-23T02:08:34Z</time>
      </trkpt>
      <trkpt lat="46.63379" lon="-1.69881">
        <ele>60</ele>
        <time>2018-03-23T02:09:34Z</time>
      </trkpt>
      <trkpt lat="46.63399" lon="-1.69921">
        <ele>61</ele>
        <time>2018-03-23T02:10:34Z</time>
      </trkpt>
      <trkpt lat="46.63403" lon="-1.6993">
        <ele>61</ele>
        <time>2018-03-23T02:11:34Z</time>
      </trkpt>
      <trkpt lat="46.63417" lon="-1.69958">
        <ele>61</ele>
        <time>2018-03-23T02:12:34Z</time>
      </trkpt>
      <trkpt lat="46.63437" lon="-1.69997">
        <ele>61</ele>
        <time>2018-03-23T02:13:34Z</time>
      </trkpt>
      <trkpt lat="46.63455" lon="-1.70034">
        <ele>62</ele>
        <time>2018-03-23T02:14:34Z</time>
      </trkpt>
      <trkpt lat="46.63459" lon="-1.70042">
        <ele>62</ele>
        <time>2018-03-23T02:15:34Z</time>
      </trkpt>
      <trkpt lat="46.63477" lon="-1.70077">
        <ele>62</ele>
        <time>2018-03-23T02:16:34Z</time>
      </trkpt>
      <trkpt lat="46.63501" lon="-1.70125">
        <ele>63</ele>
        <time>2018-03-23T02:17:34Z</time>
      </trkpt>
      <trkpt lat="46.6352" lon="-1.70163">
        <ele>63</ele>
        <time>2018-03-23T02:18:34Z</time>
      </trkpt>
      <trkpt lat="46.63523" lon="-1.70169">
        <ele>62</ele>
        <time>2018-03-23T02:19:34Z</time>
      </trkpt>
      <trkpt lat="46.63543" lon="-1.70208">
        <ele>62</ele>
        <time>2018-03-23T02:20:34Z</time>
      </trkpt>
      <trkpt lat="46.63551" lon="-1.70223">
        <ele>62</ele>
        <time>2018-03-23T02:21:34Z</time>
      </trkpt>
      <trkpt lat="46.63569" lon="-1.7026">
        <ele>62</ele>
        <time>2018-03-23T02:22:34Z</time>
      </trkpt>
      <trkpt lat="46.63589" lon="-1.70299">
        <ele>61</ele>
        <time>2018-03-23T02:23:34Z</time>
      </trkpt>
      <trkpt lat="46.63591" lon="-1.70304">
        <ele>61</ele>
        <time>2018-03-23T02:24:34Z</time>
      </trkpt>
      <trkpt lat="46.6361" lon="-1.70342">
        <ele>61</ele>
        <time>2018-03-23T02:25:34Z</time>
      </trkpt>
      <trkpt lat="46.63622" lon="-1.70366">
        <ele>61</ele>
        <time>2018-03-23T02:26:34Z</time>
      </trkpt>
      <trkpt lat="46.63623" lon="-1.70368">
        <ele>61</ele>
        <time>2018-03-23T02:27:34Z</time>
      </trkpt>
      <trkpt lat="46.63644" lon="-1.70409">
        <ele>61</ele>
        <time>2018-03-23T02:28:34Z</time>
      </trkpt>
      <trkpt lat="46.63645" lon="-1.70411">
        <ele>61</ele>
        <time>2018-03-23T02:29:34Z</time>
      </trkpt>
      <trkpt lat="46.63659" lon="-1.70438">
        <ele>60</ele>
        <time>2018-03-23T02:30:34Z</time>
      </trkpt>
      <trkpt lat="46.63669" lon="-1.70459">
        <ele>59</ele>
        <time>2018-03-23T02:31:34Z</time>
      </trkpt>
      <trkpt lat="46.6369" lon="-1.70499">
        <ele>59</ele>
        <time>2018-03-23T02:32:34Z</time>
      </trkpt>
      <trkpt lat="46.63694" lon="-1.70508">
        <ele>59</ele>
        <time>2018-03-23T02:33:34Z</time>
      </trkpt>
      <trkpt lat="46.63696" lon="-1.70512">
        <ele>59</ele>
        <time>2018-03-23T02:34:34Z</time>
      </trkpt>
      <trkpt lat="46.63701" lon="-1.70522">
        <ele>59</ele>
        <time>2018-03-23T02:35:34Z</time>
      </trkpt>
      <trkpt lat="46.63715" lon="-1.70549">
        <ele>59</ele>
        <time>2018-03-23T02:36:34Z</time>
      </trkpt>
      <trkpt lat="46.63719" lon="-1.70557">
        <ele>59</ele>
        <time>2018-03-23T02:37:34Z</time>
      </trkpt>
      <trkpt lat="46.63729" lon="-1.70578">
        <ele>60</ele>
        <time>2018-03-23T02:38:34Z</time>
      </trkpt>
      <trkpt lat="46.63731" lon="-1.70582">
        <ele>60</ele>
        <time>2018-03-23T02:39:34Z</time>
      </trkpt>
      <trkpt lat="46.6375" lon="-1.70619">
        <ele>60</ele>
        <time>2018-03-23T02:40:34Z</time>
      </trkpt>
      <trkpt lat="46.63782" lon="-1.70683">
        <ele>59</ele>
        <time>2018-03-23T02:41:34Z</time>
      </trkpt>
      <trkpt lat="46.63802" lon="-1.70723">
        <ele>58</ele>
        <time>2018-03-23T02:42:34Z</time>
      </trkpt>
      <trkpt lat="46.63838" lon="-1.70796">
        <ele>57</ele>
        <time>2018-03-23T02:43:34Z</time>
      </trkpt>
      <trkpt lat="46.63839" lon="-1.70799">
        <ele>57</ele>
        <time>2018-03-23T02:44:34Z</time>
      </trkpt>
      <trkpt lat="46.63865" lon="-1.70847">
        <ele>57</ele>
        <time>2018-03-23T02:45:34Z</time>
      </trkpt>
      <trkpt lat="46.63874" lon="-1.70866">
        <ele>58</ele>
        <time>2018-03-23T02:46:34Z</time>
      </trkpt>
      <trkpt lat="46.63883" lon="-1.70884">
        <ele>58</ele>
        <time>2018-03-23T02:47:34Z</time>
      </trkpt>
      <trkpt lat="46.63903" lon="-1.70924">
        <ele>58</ele>
        <time>2018-03-23T02:48:34Z</time>
      </trkpt>
      <trkpt lat="46.63919" lon="-1.70953">
        <ele>58</ele>
        <time>2018-03-23T02:49:34Z</time>
      </trkpt>
      <trkpt lat="46.63936" lon="-1.70987">
        <ele>57</ele>
        <time>2018-03-23T02:50:34Z</time>
      </trkpt>
      <trkpt lat="46.6394" lon="-1.70994">
        <ele>57</ele>
        <time>2018-03-23T02:51:34Z</time>
      </trkpt>
      <trkpt lat="46.63953" lon="-1.71018">
        <ele>57</ele>
        <time>2018-03-23T02:52:34Z</time>
      </trkpt>
      <trkpt lat="46.6396" lon="-1.71029">
        <ele>57</ele>
        <time>2018-03-23T02:53:34Z</time>
      </trkpt>
      <trkpt lat="46.63975" lon="-1.71057">
        <ele>58</ele>
        <time>2018-03-23T02:54:34Z</time>
      </trkpt>
      <trkpt lat="46.63989" lon="-1.71086">
        <ele>58</ele>
        <time>2018-03-23T02:55:34Z</time>
      </trkpt>
      <trkpt lat="46.63991" lon="-1.71089">
        <ele>58</ele>
        <time>2018-03-23T02:56:34Z</time>
      </trkpt>
      <trkpt lat="46.63993" lon="-1.71093">
        <ele>58</ele>
        <time>2018-03-23T02:57:34Z</time>
      </trkpt>
      <trkpt lat="46.64003" lon="-1.71111">
        <ele>58</ele>
        <time>2018-03-23T02:58:34Z</time>
      </trkpt>
      <trkpt lat="46.64023" lon="-1.7115">
        <ele>57</ele>
        <time>2018-03-23T02:59:34Z</time>
      </trkpt>
      <trkpt lat="46.64024" lon="-1.71152">
        <ele>57</ele>
        <time>2018-03-23T03:00:34Z</time>
      </trkpt>
      <trkpt lat="46.64043" lon="-1.71189">
        <ele>57</ele>
        <time>2018-03-23T03:01:34Z</time>
      </trkpt>
      <trkpt lat="46.64056" lon="-1.71214">
        <ele>57</ele>
        <time>2018-03-23T03:02:34Z</time>
      </trkpt>
      <trkpt lat="46.64059" lon="-1.71221">
        <ele>57</ele>
        <time>2018-03-23T03:03:34Z</time>
      </trkpt>
      <trkpt lat="46.64062" lon="-1.71228">
        <ele>57</ele>
        <time>2018-03-23T03:04:34Z</time>
      </trkpt>
      <trkpt lat="46.64064" lon="-1.71233">
        <ele>57</ele>
        <time>2018-03-23T03:05:34Z</time>
      </trkpt>
      <trkpt lat="46.64064" lon="-1.71239">
        <ele>57</ele>
        <time>2018-03-23T03:06:34Z</time>
      </trkpt>
      <trkpt lat="46.64064" lon="-1.71254">
        <ele>57</ele>
        <time>2018-03-23T03:07:34Z</time>
      </trkpt>
      <trkpt lat="46.64061" lon="-1.71278">
        <ele>58</ele>
        <time>2018-03-23T03:08:34Z</time>
      </trkpt>
      <trkpt lat="46.64059" lon="-1.71295">
        <ele>58</ele>
        <time>2018-03-23T03:09:34Z</time>
      </trkpt>
      <trkpt lat="46.64057" lon="-1.71319">
        <ele>59</ele>
        <time>2018-03-23T03:10:34Z</time>
      </trkpt>
      <trkpt lat="46.64055" lon="-1.71334">
        <ele>59</ele>
        <time>2018-03-23T03:11:34Z</time>
      </trkpt>
      <trkpt lat="46.64053" lon="-1.71355">
        <ele>59</ele>
        <time>2018-03-23T03:12:34Z</time>
      </trkpt>
      <trkpt lat="46.64052" lon="-1.71356">
        <ele>59</ele>
        <time>2018-03-23T03:13:34Z</time>
      </trkpt>
      <trkpt lat="46.64052" lon="-1.7136">
        <ele>59</ele>
        <time>2018-03-23T03:14:34Z</time>
      </trkpt>
      <trkpt lat="46.64052" lon="-1.71362">
        <ele>59</ele>
        <time>2018-03-23T03:15:34Z</time>
      </trkpt>
      <trkpt lat="46.64049" lon="-1.71392">
        <ele>59</ele>
        <time>2018-03-23T03:16:34Z</time>
      </trkpt>
      <trkpt lat="46.64048" lon="-1.71403">
        <ele>59</ele>
        <time>2018-03-23T03:17:34Z</time>
      </trkpt>
      <trkpt lat="46.64048" lon="-1.71407">
        <ele>59</ele>
        <time>2018-03-23T03:18:34Z</time>
      </trkpt>
      <trkpt lat="46.6405" lon="-1.7142">
        <ele>59</ele>
        <time>2018-03-23T03:19:34Z</time>
      </trkpt>
      <trkpt lat="46.64051" lon="-1.71425">
        <ele>59</ele>
        <time>2018-03-23T03:20:34Z</time>
      </trkpt>
      <trkpt lat="46.64054" lon="-1.71435">
        <ele>59</ele>
        <time>2018-03-23T03:21:34Z</time>
      </trkpt>
      <trkpt lat="46.64057" lon="-1.71443">
        <ele>58</ele>
        <time>2018-03-23T03:22:34Z</time>
      </trkpt>
      <trkpt lat="46.64064" lon="-1.71458">
        <ele>58</ele>
        <time>2018-03-23T03:23:34Z</time>
      </trkpt>
      <trkpt lat="46.64068" lon="-1.71467">
        <ele>58</ele>
        <time>2018-03-23T03:24:34Z</time>
      </trkpt>
      <trkpt lat="46.64081" lon="-1.71491">
        <ele>57</ele>
        <time>2018-03-23T03:25:34Z</time>
      </trkpt>
      <trkpt lat="46.64089" lon="-1.7151">
        <ele>57</ele>
        <time>2018-03-23T03:26:34Z</time>
      </trkpt>
      <trkpt lat="46.64092" lon="-1.71525">
        <ele>57</ele>
        <time>2018-03-23T03:27:34Z</time>
      </trkpt>
      <trkpt lat="46.64092" lon="-1.71525">
        <ele>57</ele>
        <time>2018-03-23T03:28:34Z</time>
      </trkpt>
      <trkpt lat="46.641" lon="-1.71521">
        <ele>57</ele>
        <time>2018-03-23T03:29:34Z</time>
      </trkpt>
      <trkpt lat="46.64116" lon="-1.71515">
        <ele>57</ele>
        <time>2018-03-23T03:30:34Z</time>
      </trkpt>
      <trkpt lat="46.64124" lon="-1.71513">
        <ele>57</ele>
        <time>2018-03-23T03:31:34Z</time>
      </trkpt>
      <trkpt lat="46.64129" lon="-1.71512">
        <ele>57</ele>
        <time>2018-03-23T03:32:34Z</time>
      </trkpt>
      <trkpt lat="46.64135" lon="-1.71511">
        <ele>57</ele>
        <time>2018-03-23T03:33:34Z</time>
      </trkpt>
      <trkpt lat="46.64145" lon="-1.71512">
        <ele>57</ele>
        <time>2018-03-23T03:34:34Z</time>
      </trkpt>
      <trkpt lat="46.64182" lon="-1.71514">
        <ele>56</ele>
        <time>2018-03-23T03:35:34Z</time>
      </trkpt>
      <trkpt lat="46.64202" lon="-1.71514">
        <ele>56</ele>
        <time>2018-03-23T03:36:34Z</time>
      </trkpt>
      <trkpt lat="46.64204" lon="-1.71514">
        <ele>56</ele>
        <time>2018-03-23T03:37:34Z</time>
      </trkpt>
      <trkpt lat="46.64224" lon="-1.71514">
        <ele>55</ele>
        <time>2018-03-23T03:38:34Z</time>
      </trkpt>
      <trkpt lat="46.64262" lon="-1.71516">
        <ele>54</ele>
        <time>2018-03-23T03:39:34Z</time>
      </trkpt>
      <trkpt lat="46.64305" lon="-1.71518">
        <ele>52</ele>
        <time>2018-03-23T03:40:34Z</time>
      </trkpt>
      <trkpt lat="46.64315" lon="-1.71518">
        <ele>52</ele>
        <time>2018-03-23T03:41:34Z</time>
      </trkpt>
      <trkpt lat="46.64334" lon="-1.71519">
        <ele>51</ele>
        <time>2018-03-23T03:42:34Z</time>
      </trkpt>
      <trkpt lat="46.64362" lon="-1.7152">
        <ele>52</ele>
        <time>2018-03-23T03:43:34Z</time>
      </trkpt>
      <trkpt lat="46.64387" lon="-1.71521">
        <ele>52</ele>
        <time>2018-03-23T03:44:34Z</time>
      </trkpt>
      <trkpt lat="46.64397" lon="-1.71522">
        <ele>52</ele>
        <time>2018-03-23T03:45:34Z</time>
      </trkpt>
      <trkpt lat="46.64397" lon="-1.71522">
        <ele>52</ele>
        <time>2018-03-23T03:46:34Z</time>
      </trkpt>
      <trkpt lat="46.64404" lon="-1.71589">
        <ele>53</ele>
        <time>2018-03-23T03:47:34Z</time>
      </trkpt>
      <trkpt lat="46.64405" lon="-1.71606">
        <ele>53</ele>
        <time>2018-03-23T03:48:34Z</time>
      </trkpt>
      <trkpt lat="46.6441" lon="-1.71649">
        <ele>55</ele>
        <time>2018-03-23T03:49:34Z</time>
      </trkpt>
      <trkpt lat="46.64413" lon="-1.71677">
        <ele>55</ele>
        <time>2018-03-23T03:50:34Z</time>
      </trkpt>
      <trkpt lat="46.64418" lon="-1.71712">
        <ele>56</ele>
        <time>2018-03-23T03:51:34Z</time>
      </trkpt>
      <trkpt lat="46.6442" lon="-1.71724">
        <ele>56</ele>
        <time>2018-03-23T03:52:34Z</time>
      </trkpt>
      <trkpt lat="46.64422" lon="-1.71734">
        <ele>56</ele>
        <time>2018-03-23T03:53:34Z</time>
      </trkpt>
      <trkpt lat="46.64424" lon="-1.71742">
        <ele>56</ele>
        <time>2018-03-23T03:54:34Z</time>
      </trkpt>
      <trkpt lat="46.64428" lon="-1.71755">
        <ele>56</ele>
        <time>2018-03-23T03:55:34Z</time>
      </trkpt>
      <trkpt lat="46.64431" lon="-1.71761">
        <ele>56</ele>
        <time>2018-03-23T03:56:34Z</time>
      </trkpt>
      <trkpt lat="46.64435" lon="-1.7177">
        <ele>56</ele>
        <time>2018-03-23T03:57:34Z</time>
      </trkpt>
      <trkpt lat="46.64441" lon="-1.71783">
        <ele>56</ele>
        <time>2018-03-23T03:58:34Z</time>
      </trkpt>
      <trkpt lat="46.64449" lon="-1.71799">
        <ele>56</ele>
        <time>2018-03-23T03:59:34Z</time>
      </trkpt>
      <trkpt lat="46.64456" lon="-1.71815">
        <ele>56</ele>
        <time>2018-03-23T04:00:34Z</time>
      </trkpt>
      <trkpt lat="46.64457" lon="-1.71818">
        <ele>56</ele>
        <time>2018-03-23T04:01:34Z</time>
      </trkpt>
      <trkpt lat="46.64463" lon="-1.71834">
        <ele>56</ele>
        <time>2018-03-23T04:02:34Z</time>
      </trkpt>
      <trkpt lat="46.64467" lon="-1.71846">
        <ele>57</ele>
        <time>2018-03-23T04:03:34Z</time>
      </trkpt>
      <trkpt lat="46.64471" lon="-1.71863">
        <ele>57</ele>
        <time>2018-03-23T04:04:34Z</time>
      </trkpt>
      <trkpt lat="46.64478" lon="-1.71891">
        <ele>57</ele>
        <time>2018-03-23T04:05:34Z</time>
      </trkpt>
      <trkpt lat="46.64484" lon="-1.71921">
        <ele>57</ele>
        <time>2018-03-23T04:06:34Z</time>
      </trkpt>
      <trkpt lat="46.64484" lon="-1.71923">
        <ele>57</ele>
        <time>2018-03-23T04:07:34Z</time>
      </trkpt>
      <trkpt lat="46.6449" lon="-1.71955">
        <ele>57</ele>
        <time>2018-03-23T04:08:34Z</time>
      </trkpt>
      <trkpt lat="46.64493" lon="-1.71979">
        <ele>57</ele>
        <time>2018-03-23T04:09:34Z</time>
      </trkpt>
      <trkpt lat="46.64498" lon="-1.72014">
        <ele>57</ele>
        <time>2018-03-23T04:10:34Z</time>
      </trkpt>
      <trkpt lat="46.64502" lon="-1.7205">
        <ele>57</ele>
        <time>2018-03-23T04:11:34Z</time>
      </trkpt>
      <trkpt lat="46.64504" lon="-1.72083">
        <ele>57</ele>
        <time>2018-03-23T04:12:34Z</time>
      </trkpt>
      <trkpt lat="46.64507" lon="-1.72123">
        <ele>57</ele>
        <time>2018-03-23T04:13:34Z</time>
      </trkpt>
      <trkpt lat="46.6451" lon="-1.7216">
        <ele>58</ele>
        <time>2018-03-23T04:14:34Z</time>
      </trkpt>
      <trkpt lat="46.64511" lon="-1.72163">
        <ele>58</ele>
        <time>2018-03-23T04:15:34Z</time>
      </trkpt>
      <trkpt lat="46.64512" lon="-1.72175">
        <ele>58</ele>
        <time>2018-03-23T04:16:34Z</time>
      </trkpt>
      <trkpt lat="46.64514" lon="-1.72199">
        <ele>58</ele>
        <time>2018-03-23T04:17:34Z</time>
      </trkpt>
      <trkpt lat="46.64518" lon="-1.72235">
        <ele>59</ele>
        <time>2018-03-23T04:18:34Z</time>
      </trkpt>
      <trkpt lat="46.64523" lon="-1.72277">
        <ele>59</ele>
        <time>2018-03-23T04:19:34Z</time>
      </trkpt>
      <trkpt lat="46.64523" lon="-1.72279">
        <ele>59</ele>
        <time>2018-03-23T04:20:34Z</time>
      </trkpt>
      <trkpt lat="46.64529" lon="-1.72327">
        <ele>59</ele>
        <time>2018-03-23T04:21:34Z</time>
      </trkpt>
      <trkpt lat="46.64529" lon="-1.72327">
        <ele>59</ele>
        <time>2018-03-23T04:22:34Z</time>
      </trkpt>
      <trkpt lat="46.64534" lon="-1.72366">
        <ele>59</ele>
        <time>2018-03-23T04:23:34Z</time>
      </trkpt>
      <trkpt lat="46.64539" lon="-1.72405">
        <ele>58</ele>
        <time>2018-03-23T04:24:34Z</time>
      </trkpt>
      <trkpt lat="46.64544" lon="-1.72437">
        <ele>58</ele>
        <time>2018-03-23T04:25:34Z</time>
      </trkpt>
      <trkpt lat="46.64547" lon="-1.72462">
        <ele>58</ele>
        <time>2018-03-23T04:26:34Z</time>
      </trkpt>
      <trkpt lat="46.64548" lon="-1.72463">
        <ele>58</ele>
        <time>2018-03-23T04:27:34Z</time>
      </trkpt>
      <trkpt lat="46.64553" lon="-1.72488">
        <ele>58</ele>
        <time>2018-03-23T04:28:34Z</time>
      </trkpt>
      <trkpt lat="46.64561" lon="-1.72518">
        <ele>59</ele>
        <time>2018-03-23T04:29:34Z</time>
      </trkpt>
      <trkpt lat="46.64572" lon="-1.72555">
        <ele>59</ele>
        <time>2018-03-23T04:30:34Z</time>
      </trkpt>
      <trkpt lat="46.64581" lon="-1.72583">
        <ele>59</ele>
        <time>2018-03-23T04:31:34Z</time>
      </trkpt>
      <trkpt lat="46.64593" lon="-1.72615">
        <ele>59</ele>
        <time>2018-03-23T04:32:34Z</time>
      </trkpt>
      <trkpt lat="46.64599" lon="-1.7263">
        <ele>59</ele>
        <time>2018-03-23T04:33:34Z</time>
      </trkpt>
      <trkpt lat="46.64602" lon="-1.72637">
        <ele>59</ele>
        <time>2018-03-23T04:34:34Z</time>
      </trkpt>
      <trkpt lat="46.64611" lon="-1.72664">
        <ele>59</ele>
        <time>2018-03-23T04:35:34Z</time>
      </trkpt>
      <trkpt lat="46.64613" lon="-1.72671">
        <ele>59</ele>
        <time>2018-03-23T04:36:34Z</time>
      </trkpt>
      <trkpt lat="46.64614" lon="-1.72678">
        <ele>59</ele>
        <time>2018-03-23T04:37:34Z</time>
      </trkpt>
      <trkpt lat="46.64616" lon="-1.72687">
        <ele>58</ele>
        <time>2018-03-23T04:38:34Z</time>
      </trkpt>
      <trkpt lat="46.64617" lon="-1.72696">
        <ele>58</ele>
        <time>2018-03-23T04:39:34Z</time>
      </trkpt>
      <trkpt lat="46.64619" lon="-1.72709">
        <ele>58</ele>
        <time>2018-03-23T04:40:34Z</time>
      </trkpt>
      <trkpt lat="46.64622" lon="-1.72744">
        <ele>58</ele>
        <time>2018-03-23T04:41:34Z</time>
      </trkpt>
      <trkpt lat="46.64626" lon="-1.72794">
        <ele>58</ele>
        <time>2018-03-23T04:42:34Z</time>
      </trkpt>
      <trkpt lat="46.64629" lon="-1.72836">
        <ele>58</ele>
        <time>2018-03-23T04:43:34Z</time>
      </trkpt>
      <trkpt lat="46.64631" lon="-1.7287">
        <ele>58</ele>
        <time>2018-03-23T04:44:34Z</time>
      </trkpt>
      <trkpt lat="46.64633" lon="-1.72894">
        <ele>58</ele>
        <time>2018-03-23T04:45:34Z</time>
      </trkpt>
      <trkpt lat="46.64635" lon="-1.7291">
        <ele>58</ele>
        <time>2018-03-23T04:46:34Z</time>
      </trkpt>
      <trkpt lat="46.64637" lon="-1.7292">
        <ele>58</ele>
        <time>2018-03-23T04:47:34Z</time>
      </trkpt>
      <trkpt lat="46.64639" lon="-1.72927">
        <ele>58</ele>
        <time>2018-03-23T04:48:34Z</time>
      </trkpt>
      <trkpt lat="46.64642" lon="-1.72936">
        <ele>58</ele>
        <time>2018-03-23T04:49:34Z</time>
      </trkpt>
      <trkpt lat="46.64646" lon="-1.72948">
        <ele>58</ele>
        <time>2018-03-23T04:50:34Z</time>
      </trkpt>
      <trkpt lat="46.64651" lon="-1.72959">
        <ele>58</ele>
        <time>2018-03-23T04:51:34Z</time>
      </trkpt>
      <trkpt lat="46.64661" lon="-1.72982">
        <ele>58</ele>
        <time>2018-03-23T04:52:34Z</time>
      </trkpt>
      <trkpt lat="46.64676" lon="-1.73011">
        <ele>58</ele>
        <time>2018-03-23T04:53:34Z</time>
      </trkpt>
      <trkpt lat="46.64681" lon="-1.73022">
        <ele>57</ele>
        <time>2018-03-23T04:54:34Z</time>
      </trkpt>
      <trkpt lat="46.64691" lon="-1.73042">
        <ele>57</ele>
        <time>2018-03-23T04:55:34Z</time>
      </trkpt>
      <trkpt lat="46.64704" lon="-1.73071">
        <ele>57</ele>
        <time>2018-03-23T04:56:34Z</time>
      </trkpt>
      <trkpt lat="46.64718" lon="-1.73098">
        <ele>57</ele>
        <time>2018-03-23T04:57:34Z</time>
      </trkpt>
      <trkpt lat="46.64723" lon="-1.73109">
        <ele>57</ele>
        <time>2018-03-23T04:58:34Z</time>
      </trkpt>
      <trkpt lat="46.64731" lon="-1.73126">
        <ele>58</ele>
        <time>2018-03-23T04:59:34Z</time>
      </trkpt>
      <trkpt lat="46.6475" lon="-1.73169">
        <ele>58</ele>
        <time>2018-03-23T05:00:34Z</time>
      </trkpt>
      <trkpt lat="46.64773" lon="-1.73221">
        <ele>57</ele>
        <time>2018-03-23T05:01:34Z</time>
      </trkpt>
      <trkpt lat="46.64776" lon="-1.73225">
        <ele>57</ele>
        <time>2018-03-23T05:02:34Z</time>
      </trkpt>
      <trkpt lat="46.648" lon="-1.73275">
        <ele>56</ele>
        <time>2018-03-23T05:03:34Z</time>
      </trkpt>
      <trkpt lat="46.64816" lon="-1.73307">
        <ele>55</ele>
        <time>2018-03-23T05:04:34Z</time>
      </trkpt>
      <trkpt lat="46.64826" lon="-1.73327">
        <ele>55</ele>
        <time>2018-03-23T05:05:34Z</time>
      </trkpt>
      <trkpt lat="46.64835" lon="-1.73343">
        <ele>55</ele>
        <time>2018-03-23T05:06:34Z</time>
      </trkpt>
      <trkpt lat="46.64857" lon="-1.73384">
        <ele>56</ele>
        <time>2018-03-23T05:07:34Z</time>
      </trkpt>
      <trkpt lat="46.64878" lon="-1.73422">
        <ele>56</ele>
        <time>2018-03-23T05:08:34Z</time>
      </trkpt>
      <trkpt lat="46.64879" lon="-1.73423">
        <ele>56</ele>
        <time>2018-03-23T05:09:34Z</time>
      </trkpt>
      <trkpt lat="46.64879" lon="-1.73423">
        <ele>56</ele>
        <time>2018-03-23T05:10:34Z</time>
      </trkpt>
      <trkpt lat="46.64891" lon="-1.73442">
        <ele>56</ele>
        <time>2018-03-23T05:11:34Z</time>
      </trkpt>
      <trkpt lat="46.64908" lon="-1.73471">
        <ele>55</ele>
        <time>2018-03-23T05:12:34Z</time>
      </trkpt>
      <trkpt lat="46.64935" lon="-1.73517">
        <ele>55</ele>
        <time>2018-03-23T05:13:34Z</time>
      </trkpt>
      <trkpt lat="46.64946" lon="-1.73536">
        <ele>55</ele>
        <time>2018-03-23T05:14:34Z</time>
      </trkpt>
      <trkpt lat="46.64959" lon="-1.73555">
        <ele>55</ele>
        <time>2018-03-23T05:15:34Z</time>
      </trkpt>
      <trkpt lat="46.64967" lon="-1.73565">
        <ele>55</ele>
        <time>2018-03-23T05:16:34Z</time>
      </trkpt>
      <trkpt lat="46.64997" lon="-1.73597">
        <ele>55</ele>
        <time>2018-03-23T05:17:34Z</time>
      </trkpt>
      <trkpt lat="46.65016" lon="-1.73618">
        <ele>55</ele>
        <time>2018-03-23T05:18:34Z</time>
      </trkpt>
      <trkpt lat="46.65028" lon="-1.73632">
        <ele>55</ele>
        <time>2018-03-23T05:19:34Z</time>
      </trkpt>
      <trkpt lat="46.6504" lon="-1.73647">
        <ele>55</ele>
        <time>2018-03-23T05:20:34Z</time>
      </trkpt>
      <trkpt lat="46.65049" lon="-1.7366">
        <ele>54</ele>
        <time>2018-03-23T05:21:34Z</time>
      </trkpt>
      <trkpt lat="46.65062" lon="-1.73677">
        <ele>54</ele>
        <time>2018-03-23T05:22:34Z</time>
      </trkpt>
      <trkpt lat="46.65083" lon="-1.73705">
        <ele>54</ele>
        <time>2018-03-23T05:23:34Z</time>
      </trkpt>
      <trkpt lat="46.651" lon="-1.73728">
        <ele>55</ele>
        <time>2018-03-23T05:24:34Z</time>
      </trkpt>
      <trkpt lat="46.65106" lon="-1.73734">
        <ele>55</ele>
        <time>2018-03-23T05:25:34Z</time>
      </trkpt>
      <trkpt lat="46.65134" lon="-1.73765">
        <ele>55</ele>
        <time>2018-03-23T05:26:34Z</time>
      </trkpt>
      <trkpt lat="46.65146" lon="-1.73777">
        <ele>55</ele>
        <time>2018-03-23T05:27:34Z</time>
      </trkpt>
      <trkpt lat="46.6516" lon="-1.73793">
        <ele>55</ele>
        <time>2018-03-23T05:28:34Z</time>
      </trkpt>
      <trkpt lat="46.65188" lon="-1.73827">
        <ele>55</ele>
        <time>2018-03-23T05:29:34Z</time>
      </trkpt>
      <trkpt lat="46.65221" lon="-1.73866">
        <ele>54</ele>
        <time>2018-03-23T05:30:34Z</time>
      </trkpt>
      <trkpt lat="46.65225" lon="-1.7387">
        <ele>54</ele>
        <time>2018-03-23T05:31:34Z</time>
      </trkpt>
      <trkpt lat="46.65254" lon="-1.73903">
        <ele>53</ele>
        <time>2018-03-23T05:32:34Z</time>
      </trkpt>
      <trkpt lat="46.65256" lon="-1.73904">
        <ele>53</ele>
        <time>2018-03-23T05:33:34Z</time>
      </trkpt>
      <trkpt lat="46.65273" lon="-1.73923">
        <ele>53</ele>
        <time>2018-03-23T05:34:34Z</time>
      </trkpt>
      <trkpt lat="46.65283" lon="-1.73934">
        <ele>53</ele>
        <time>2018-03-23T05:35:34Z</time>
      </trkpt>
      <trkpt lat="46.65295" lon="-1.73949">
        <ele>53</ele>
        <time>2018-03-23T05:36:34Z</time>
      </trkpt>
      <trkpt lat="46.65306" lon="-1.73963">
        <ele>54</ele>
        <time>2018-03-23T05:37:34Z</time>
      </trkpt>
      <trkpt lat="46.65321" lon="-1.73986">
        <ele>54</ele>
        <time>2018-03-23T05:38:34Z</time>
      </trkpt>
      <trkpt lat="46.65331" lon="-1.74002">
        <ele>54</ele>
        <time>2018-03-23T05:39:34Z</time>
      </trkpt>
      <trkpt lat="46.65343" lon="-1.74021">
        <ele>54</ele>
        <time>2018-03-23T05:40:34Z</time>
      </trkpt>
      <trkpt lat="46.65348" lon="-1.74029">
        <ele>54</ele>
        <time>2018-03-23T05:41:34Z</time>
      </trkpt>
      <trkpt lat="46.65368" lon="-1.74059">
        <ele>54</ele>
        <time>2018-03-23T05:42:34Z</time>
      </trkpt>
      <trkpt lat="46.65381" lon="-1.74079">
        <ele>54</ele>
        <time>2018-03-23T05:43:34Z</time>
      </trkpt>
      <trkpt lat="46.65395" lon="-1.741">
        <ele>54</ele>
        <time>2018-03-23T05:44:34Z</time>
      </trkpt>
      <trkpt lat="46.65402" lon="-1.74111">
        <ele>55</ele>
        <time>2018-03-23T05:45:34Z</time>
      </trkpt>
      <trkpt lat="46.65405" lon="-1.74116">
        <ele>55</ele>
        <time>2018-03-23T05:46:34Z</time>
      </trkpt>
      <trkpt lat="46.65419" lon="-1.74142">
        <ele>55</ele>
        <time>2018-03-23T05:47:34Z</time>
      </trkpt>
      <trkpt lat="46.65443" lon="-1.74187">
        <ele>54</ele>
        <time>2018-03-23T05:48:34Z</time>
      </trkpt>
      <trkpt lat="46.65464" lon="-1.74227">
        <ele>54</ele>
        <time>2018-03-23T05:49:34Z</time>
      </trkpt>
      <trkpt lat="46.65484" lon="-1.74266">
        <ele>53</ele>
        <time>2018-03-23T05:50:34Z</time>
      </trkpt>
      <trkpt lat="46.65488" lon="-1.74273">
        <ele>53</ele>
        <time>2018-03-23T05:51:34Z</time>
      </trkpt>
      <trkpt lat="46.65494" lon="-1.74282">
        <ele>53</ele>
        <time>2018-03-23T05:52:34Z</time>
      </trkpt>
      <trkpt lat="46.655" lon="-1.74292">
        <ele>53</ele>
        <time>2018-03-23T05:53:34Z</time>
      </trkpt>
      <trkpt lat="46.65512" lon="-1.7431">
        <ele>53</ele>
        <time>2018-03-23T05:54:34Z</time>
      </trkpt>
      <trkpt lat="46.65517" lon="-1.74319">
        <ele>53</ele>
        <time>2018-03-23T05:55:34Z</time>
      </trkpt>
      <trkpt lat="46.65522" lon="-1.74324">
        <ele>53</ele>
        <time>2018-03-23T05:56:34Z</time>
      </trkpt>
      <trkpt lat="46.65524" lon="-1.74328">
        <ele>53</ele>
        <time>2018-03-23T05:57:34Z</time>
      </trkpt>
      <trkpt lat="46.65528" lon="-1.74332">
        <ele>53</ele>
        <time>2018-03-23T05:58:34Z</time>
      </trkpt>
      <trkpt lat="46.65539" lon="-1.74342">
        <ele>53</ele>
        <time>2018-03-23T05:59:34Z</time>
      </trkpt>
      <trkpt lat="46.65542" lon="-1.74345">
        <ele>53</ele>
        <time>2018-03-23T06:00:34Z</time>
      </trkpt>
      <trkpt lat="46.65544" lon="-1.74347">
        <ele>53</ele>
        <time>2018-03-23T06:01:34Z</time>
      </trkpt>
      <trkpt lat="46.65574" lon="-1.74368">
        <ele>53</ele>
        <time>2018-03-23T06:02:34Z</time>
      </trkpt>
      <trkpt lat="46.65576" lon="-1.74369">
        <ele>53</ele>
        <time>2018-03-23T06:03:34Z</time>
      </trkpt>
      <trkpt lat="46.65608" lon="-1.7439">
        <ele>51</ele>
        <time>2018-03-23T06:04:34Z</time>
      </trkpt>
      <trkpt lat="46.65608" lon="-1.7439">
        <ele>51</ele>
        <time>2018-03-23T06:05:34Z</time>
      </trkpt>
      <trkpt lat="46.65646" lon="-1.74417">
        <ele>50</ele>
        <time>2018-03-23T06:06:34Z</time>
      </trkpt>
      <trkpt lat="46.65679" lon="-1.7444">
        <ele>48</ele>
        <time>2018-03-23T06:07:34Z</time>
      </trkpt>
      <trkpt lat="46.65683" lon="-1.74443">
        <ele>48</ele>
        <time>2018-03-23T06:08:34Z</time>
      </trkpt>
      <trkpt lat="46.65712" lon="-1.74463">
        <ele>47</ele>
        <time>2018-03-23T06:09:34Z</time>
      </trkpt>
      <trkpt lat="46.65731" lon="-1.74478">
        <ele>47</ele>
        <time>2018-03-23T06:10:34Z</time>
      </trkpt>
      <trkpt lat="46.65735" lon="-1.74481">
        <ele>47</ele>
        <time>2018-03-23T06:11:34Z</time>
      </trkpt>
      <trkpt lat="46.65741" lon="-1.74484">
        <ele>47</ele>
        <time>2018-03-23T06:12:34Z</time>
      </trkpt>
      <trkpt lat="46.65748" lon="-1.7449">
        <ele>47</ele>
        <time>2018-03-23T06:13:34Z</time>
      </trkpt>
      <trkpt lat="46.65752" lon="-1.74493">
        <ele>47</ele>
        <time>2018-03-23T06:14:34Z</time>
      </trkpt>
      <trkpt lat="46.65756" lon="-1.74497">
        <ele>47</ele>
        <time>2018-03-23T06:15:34Z</time>
      </trkpt>
      <trkpt lat="46.65764" lon="-1.74505">
        <ele>46</ele>
        <time>2018-03-23T06:16:34Z</time>
      </trkpt>
      <trkpt lat="46.65772" lon="-1.74512">
        <ele>46</ele>
        <time>2018-03-23T06:17:34Z</time>
      </trkpt>
      <trkpt lat="46.65777" lon="-1.74517">
        <ele>46</ele>
        <time>2018-03-23T06:18:34Z</time>
      </trkpt>
      <trkpt lat="46.65781" lon="-1.74522">
        <ele>45</ele>
        <time>2018-03-23T06:19:34Z</time>
      </trkpt>
      <trkpt lat="46.65786" lon="-1.74528">
        <ele>45</ele>
        <time>2018-03-23T06:20:34Z</time>
      </trkpt>
      <trkpt lat="46.6579" lon="-1.74533">
        <ele>45</ele>
        <time>2018-03-23T06:21:34Z</time>
      </trkpt>
      <trkpt lat="46.65796" lon="-1.74542">
        <ele>45</ele>
        <time>2018-03-23T06:22:34Z</time>
      </trkpt>
      <trkpt lat="46.65799" lon="-1.74547">
        <ele>45</ele>
        <time>2018-03-23T06:23:34Z</time>
      </trkpt>
      <trkpt lat="46.65802" lon="-1.74551">
        <ele>45</ele>
        <time>2018-03-23T06:24:34Z</time>
      </trkpt>
      <trkpt lat="46.65808" lon="-1.74561">
        <ele>45</ele>
        <time>2018-03-23T06:25:34Z</time>
      </trkpt>
      <trkpt lat="46.65814" lon="-1.7457">
        <ele>44</ele>
        <time>2018-03-23T06:26:34Z</time>
      </trkpt>
      <trkpt lat="46.65825" lon="-1.74588">
        <ele>44</ele>
        <time>2018-03-23T06:27:34Z</time>
      </trkpt>
      <trkpt lat="46.6583" lon="-1.74597">
        <ele>44</ele>
        <time>2018-03-23T06:28:34Z</time>
      </trkpt>
      <trkpt lat="46.65847" lon="-1.74625">
        <ele>43</ele>
        <time>2018-03-23T06:29:34Z</time>
      </trkpt>
      <trkpt lat="46.6586" lon="-1.74649">
        <ele>42</ele>
        <time>2018-03-23T06:30:34Z</time>
      </trkpt>
      <trkpt lat="46.6587" lon="-1.74664">
        <ele>41</ele>
        <time>2018-03-23T06:31:34Z</time>
      </trkpt>
      <trkpt lat="46.65876" lon="-1.74672">
        <ele>41</ele>
        <time>2018-03-23T06:32:34Z</time>
      </trkpt>
      <trkpt lat="46.65884" lon="-1.74682">
        <ele>40</ele>
        <time>2018-03-23T06:33:34Z</time>
      </trkpt>
      <trkpt lat="46.65893" lon="-1.74694">
        <ele>40</ele>
        <time>2018-03-23T06:34:34Z</time>
      </trkpt>
      <trkpt lat="46.65899" lon="-1.74701">
        <ele>39</ele>
        <time>2018-03-23T06:35:34Z</time>
      </trkpt>
      <trkpt lat="46.65905" lon="-1.74707">
        <ele>39</ele>
        <time>2018-03-23T06:36:34Z</time>
      </trkpt>
      <trkpt lat="46.65917" lon="-1.74719">
        <ele>38</ele>
        <time>2018-03-23T06:37:34Z</time>
      </trkpt>
      <trkpt lat="46.65934" lon="-1.74734">
        <ele>37</ele>
        <time>2018-03-23T06:38:34Z</time>
      </trkpt>
      <trkpt lat="46.65942" lon="-1.74741">
        <ele>36</ele>
        <time>2018-03-23T06:39:34Z</time>
      </trkpt>
      <trkpt lat="46.65952" lon="-1.74748">
        <ele>36</ele>
        <time>2018-03-23T06:40:34Z</time>
      </trkpt>
      <trkpt lat="46.65961" lon="-1.74753">
        <ele>35</ele>
        <time>2018-03-23T06:41:34Z</time>
      </trkpt>
      <trkpt lat="46.65978" lon="-1.74761">
        <ele>33</ele>
        <time>2018-03-23T06:42:34Z</time>
      </trkpt>
      <trkpt lat="46.65994" lon="-1.74768">
        <ele>31</ele>
        <time>2018-03-23T06:43:34Z</time>
      </trkpt>
      <trkpt lat="46.66019" lon="-1.74779">
        <ele>29</ele>
        <time>2018-03-23T06:44:34Z</time>
      </trkpt>
      <trkpt lat="46.66039" lon="-1.74789">
        <ele>27</ele>
        <time>2018-03-23T06:45:34Z</time>
      </trkpt>
      <trkpt lat="46.66049" lon="-1.74794">
        <ele>27</ele>
        <time>2018-03-23T06:46:34Z</time>
      </trkpt>
      <trkpt lat="46.66059" lon="-1.74798">
        <ele>26</ele>
        <time>2018-03-23T06:47:34Z</time>
      </trkpt>
      <trkpt lat="46.66079" lon="-1.74808">
        <ele>25</ele>
        <time>2018-03-23T06:48:34Z</time>
      </trkpt>
      <trkpt lat="46.66082" lon="-1.7481">
        <ele>25</ele>
        <time>2018-03-23T06:49:34Z</time>
      </trkpt>
      <trkpt lat="46.66102" lon="-1.74817">
        <ele>24</ele>
        <time>2018-03-23T06:50:34Z</time>
      </trkpt>
      <trkpt lat="46.66133" lon="-1.74826">
        <ele>22</ele>
        <time>2018-03-23T06:51:34Z</time>
      </trkpt>
      <trkpt lat="46.66154" lon="-1.74831">
        <ele>21</ele>
        <time>2018-03-23T06:52:34Z</time>
      </trkpt>
      <trkpt lat="46.66157" lon="-1.74827">
        <ele>20</ele>
        <time>2018-03-23T06:53:34Z</time>
      </trkpt>
      <trkpt lat="46.6616" lon="-1.74825">
        <ele>20</ele>
        <time>2018-03-23T06:54:34Z</time>
      </trkpt>
      <trkpt lat="46.66161" lon="-1.74824">
        <ele>20</ele>
        <time>2018-03-23T06:55:34Z</time>
      </trkpt>
      <trkpt lat="46.6619" lon="-1.74816">
        <ele>18</ele>
        <time>2018-03-23T06:56:34Z</time>
      </trkpt>
      <trkpt lat="46.6619" lon="-1.74816">
        <ele>18</ele>
        <time>2018-03-23T06:57:34Z</time>
      </trkpt>
      <trkpt lat="46.66192" lon="-1.74828">
        <ele>18</ele>
        <time>2018-03-23T06:58:34Z</time>
      </trkpt>
      <trkpt lat="46.66188" lon="-1.74854">
        <ele>18</ele>
        <time>2018-03-23T06:59:34Z</time>
      </trkpt>
      <trkpt lat="46.66194" lon="-1.74866">
        <ele>18</ele>
        <time>2018-03-23T07:00:34Z</time>
      </trkpt>
      <trkpt lat="46.66198" lon="-1.74881">
        <ele>18</ele>
        <time>2018-03-23T07:01:34Z</time>
      </trkpt>
      <trkpt lat="46.66209" lon="-1.74917">
        <ele>17</ele>
        <time>2018-03-23T07:02:34Z</time>
      </trkpt>
      <trkpt lat="46.66209" lon="-1.74918">
        <ele>17</ele>
        <time>2018-03-23T07:03:34Z</time>
      </trkpt>
      <trkpt lat="46.6621" lon="-1.7492">
        <ele>17</ele>
        <time>2018-03-23T07:04:34Z</time>
      </trkpt>
      <trkpt lat="46.6621" lon="-1.74922">
        <ele>17</ele>
        <time>2018-03-23T07:05:34Z</time>
      </trkpt>
      <trkpt lat="46.6621" lon="-1.74924">
        <ele>17</ele>
        <time>2018-03-23T07:06:34Z</time>
      </trkpt>
      <trkpt lat="46.6621" lon="-1.74928">
        <ele>17</ele>
        <time>2018-03-23T07:07:34Z</time>
      </trkpt>
      <trkpt lat="46.6621" lon="-1.74935">
        <ele>16</ele>
        <time>2018-03-23T07:08:34Z</time>
      </trkpt>
      <trkpt lat="46.66209" lon="-1.74939">
        <ele>16</ele>
        <time>2018-03-23T07:09:34Z</time>
      </trkpt>
      <trkpt lat="46.66209" lon="-1.74942">
        <ele>16</ele>
        <time>2018-03-23T07:10:34Z</time>
      </trkpt>
      <trkpt lat="46.66208" lon="-1.74945">
        <ele>16</ele>
        <time>2018-03-23T07:11:34Z</time>
      </trkpt>
      <trkpt lat="46.66207" lon="-1.74949">
        <ele>16</ele>
        <time>2018-03-23T07:12:34Z</time>
      </trkpt>
      <trkpt lat="46.66206" lon="-1.74952">
        <ele>16</ele>
        <time>2018-03-23T07:13:34Z</time>
      </trkpt>
      <trkpt lat="46.66204" lon="-1.74956">
        <ele>16</ele>
        <time>2018-03-23T07:14:34Z</time>
      </trkpt>
      <trkpt lat="46.66202" lon="-1.74961">
        <ele>16</ele>
        <time>2018-03-23T07:15:34Z</time>
      </trkpt>
      <trkpt lat="46.662" lon="-1.74967">
        <ele>16</ele>
        <time>2018-03-23T07:16:34Z</time>
      </trkpt>
      <trkpt lat="46.66197" lon="-1.74972">
        <ele>16</ele>
        <time>2018-03-23T07:17:34Z</time>
      </trkpt>
      <trkpt lat="46.66194" lon="-1.74977">
        <ele>16</ele>
        <time>2018-03-23T07:18:34Z</time>
      </trkpt>
      <trkpt lat="46.66183" lon="-1.74997">
        <ele>16</ele>
        <time>2018-03-23T07:19:34Z</time>
      </trkpt>
      <trkpt lat="46.6617" lon="-1.75019">
        <ele>15</ele>
        <time>2018-03-23T07:20:34Z</time>
      </trkpt>
      <trkpt lat="46.66157" lon="-1.7504">
        <ele>15</ele>
        <time>2018-03-23T07:21:34Z</time>
      </trkpt>
      <trkpt lat="46.66147" lon="-1.75058">
        <ele>14</ele>
        <time>2018-03-23T07:22:34Z</time>
      </trkpt>
      <trkpt lat="46.6611" lon="-1.75122">
        <ele>13</ele>
        <time>2018-03-23T07:23:34Z</time>
      </trkpt>
      <trkpt lat="46.66073" lon="-1.75183">
        <ele>12</ele>
        <time>2018-03-23T07:24:34Z</time>
      </trkpt>
      <trkpt lat="46.66069" lon="-1.7519">
        <ele>13</ele>
        <time>2018-03-23T07:25:34Z</time>
      </trkpt>
      <trkpt lat="46.66065" lon="-1.75197">
        <ele>13</ele>
        <time>2018-03-23T07:26:34Z</time>
      </trkpt>
      <trkpt lat="46.66032" lon="-1.75257">
        <ele>15</ele>
        <time>2018-03-23T07:27:34Z</time>
      </trkpt>
      <trkpt lat="46.66012" lon="-1.75292">
        <ele>16</ele>
        <time>2018-03-23T07:28:34Z</time>
      </trkpt>
      <trkpt lat="46.6601" lon="-1.75297">
        <ele>15</ele>
        <time>2018-03-23T07:29:34Z</time>
      </trkpt>
      <trkpt lat="46.66008" lon="-1.75302">
        <ele>15</ele>
        <time>2018-03-23T07:30:34Z</time>
      </trkpt>
      <trkpt lat="46.66007" lon="-1.75308">
        <ele>15</ele>
        <time>2018-03-23T07:31:34Z</time>
      </trkpt>
      <trkpt lat="46.66006" lon="-1.75314">
        <ele>15</ele>
        <time>2018-03-23T07:32:34Z</time>
      </trkpt>
      <trkpt lat="46.66007" lon="-1.75321">
        <ele>16</ele>
        <time>2018-03-23T07:33:34Z</time>
      </trkpt>
      <trkpt lat="46.66007" lon="-1.75326">
        <ele>16</ele>
        <time>2018-03-23T07:34:34Z</time>
      </trkpt>
      <trkpt lat="46.66008" lon="-1.75331">
        <ele>16</ele>
        <time>2018-03-23T07:35:34Z</time>
      </trkpt>
      <trkpt lat="46.6601" lon="-1.75336">
        <ele>16</ele>
        <time>2018-03-23T07:36:34Z</time>
      </trkpt>
      <trkpt lat="46.66011" lon="-1.7534">
        <ele>16</ele>
        <time>2018-03-23T07:37:34Z</time>
      </trkpt>
      <trkpt lat="46.66014" lon="-1.75343">
        <ele>16</ele>
        <time>2018-03-23T07:38:34Z</time>
      </trkpt>
      <trkpt lat="46.66018" lon="-1.75349">
        <ele>16</ele>
        <time>2018-03-23T07:39:34Z</time>
      </trkpt>
      <trkpt lat="46.66024" lon="-1.75353">
        <ele>17</ele>
        <time>2018-03-23T07:40:34Z</time>
      </trkpt>
      <trkpt lat="46.66028" lon="-1.75355">
        <ele>17</ele>
        <time>2018-03-23T07:41:34Z</time>
      </trkpt>
      <trkpt lat="46.66032" lon="-1.75357">
        <ele>17</ele>
        <time>2018-03-23T07:42:34Z</time>
      </trkpt>
      <trkpt lat="46.66037" lon="-1.75359">
        <ele>17</ele>
        <time>2018-03-23T07:43:34Z</time>
      </trkpt>
      <trkpt lat="46.66068" lon="-1.75366">
        <ele>20</ele>
        <time>2018-03-23T07:44:34Z</time>
      </trkpt>
      <trkpt lat="46.66083" lon="-1.75369">
        <ele>21</ele>
        <time>2018-03-23T07:45:34Z</time>
      </trkpt>
      <trkpt lat="46.66093" lon="-1.75372">
        <ele>22</ele>
        <time>2018-03-23T07:46:34Z</time>
      </trkpt>
      <trkpt lat="46.66105" lon="-1.75375">
        <ele>23</ele>
        <time>2018-03-23T07:47:34Z</time>
      </trkpt>
      <trkpt lat="46.66129" lon="-1.75381">
        <ele>24</ele>
        <time>2018-03-23T07:48:34Z</time>
      </trkpt>
      <trkpt lat="46.66148" lon="-1.75385">
        <ele>26</ele>
        <time>2018-03-23T07:49:34Z</time>
      </trkpt>
      <trkpt lat="46.66153" lon="-1.75386">
        <ele>26</ele>
        <time>2018-03-23T07:50:34Z</time>
      </trkpt>
      <trkpt lat="46.66157" lon="-1.75387">
        <ele>26</ele>
        <time>2018-03-23T07:51:34Z</time>
      </trkpt>
      <trkpt lat="46.66175" lon="-1.75389">
        <ele>27</ele>
        <time>2018-03-23T07:52:34Z</time>
      </trkpt>
      <trkpt lat="46.66205" lon="-1.75391">
        <ele>28</ele>
        <time>2018-03-23T07:53:34Z</time>
      </trkpt>
      <trkpt lat="46.66221" lon="-1.75392">
        <ele>28</ele>
        <time>2018-03-23T07:54:34Z</time>
      </trkpt>
      <trkpt lat="46.66249" lon="-1.75393">
        <ele>29</ele>
        <time>2018-03-23T07:55:34Z</time>
      </trkpt>
      <trkpt lat="46.66276" lon="-1.75393">
        <ele>29</ele>
        <time>2018-03-23T07:56:34Z</time>
      </trkpt>
      <trkpt lat="46.66281" lon="-1.75393">
        <ele>29</ele>
        <time>2018-03-23T07:57:34Z</time>
      </trkpt>
      <trkpt lat="46.66292" lon="-1.75394">
        <ele>29</ele>
        <time>2018-03-23T07:58:34Z</time>
      </trkpt>
      <trkpt lat="46.663" lon="-1.75394">
        <ele>30</ele>
        <time>2018-03-23T07:59:34Z</time>
      </trkpt>
      <trkpt lat="46.66305" lon="-1.75395">
        <ele>30</ele>
        <time>2018-03-23T08:00:34Z</time>
      </trkpt>
      <trkpt lat="46.66312" lon="-1.75396">
        <ele>30</ele>
        <time>2018-03-23T08:01:34Z</time>
      </trkpt>
      <trkpt lat="46.66317" lon="-1.75397">
        <ele>30</ele>
        <time>2018-03-23T08:02:34Z</time>
      </trkpt>
      <trkpt lat="46.66321" lon="-1.75399">
        <ele>30</ele>
        <time>2018-03-23T08:03:34Z</time>
      </trkpt>
      <trkpt lat="46.66325" lon="-1.754">
        <ele>30</ele>
        <time>2018-03-23T08:04:34Z</time>
      </trkpt>
      <trkpt lat="46.66326" lon="-1.75402">
        <ele>31</ele>
        <time>2018-03-23T08:05:34Z</time>
      </trkpt>
      <trkpt lat="46.66329" lon="-1.75404">
        <ele>31</ele>
        <time>2018-03-23T08:06:34Z</time>
      </trkpt>
      <trkpt lat="46.66332" lon="-1.75406">
        <ele>31</ele>
        <time>2018-03-23T08:07:34Z</time>
      </trkpt>
      <trkpt lat="46.66334" lon="-1.75411">
        <ele>32</ele>
        <time>2018-03-23T08:08:34Z</time>
      </trkpt>
      <trkpt lat="46.66337" lon="-1.75416">
        <ele>32</ele>
        <time>2018-03-23T08:09:34Z</time>
      </trkpt>
      <trkpt lat="46.6634" lon="-1.75423">
        <ele>32</ele>
        <time>2018-03-23T08:10:34Z</time>
      </trkpt>
      <trkpt lat="46.66345" lon="-1.75432">
        <ele>31</ele>
        <time>2018-03-23T08:11:34Z</time>
      </trkpt>
      <trkpt lat="46.66349" lon="-1.75437">
        <ele>31</ele>
        <time>2018-03-23T08:12:34Z</time>
      </trkpt>
      <trkpt lat="46.66351" lon="-1.7544">
        <ele>31</ele>
        <time>2018-03-23T08:13:34Z</time>
      </trkpt>
      <trkpt lat="46.66357" lon="-1.75446">
        <ele>31</ele>
        <time>2018-03-23T08:14:34Z</time>
      </trkpt>
      <trkpt lat="46.66364" lon="-1.75451">
        <ele>31</ele>
        <time>2018-03-23T08:15:34Z</time>
      </trkpt>
      <trkpt lat="46.66371" lon="-1.75455">
        <ele>31</ele>
        <time>2018-03-23T08:16:34Z</time>
      </trkpt>
      <trkpt lat="46.66379" lon="-1.75459">
        <ele>32</ele>
        <time>2018-03-23T08:17:34Z</time>
      </trkpt>
      <trkpt lat="46.66386" lon="-1.75462">
        <ele>32</ele>
        <time>2018-03-23T08:18:34Z</time>
      </trkpt>
      <trkpt lat="46.66401" lon="-1.75468">
        <ele>33</ele>
        <time>2018-03-23T08:19:34Z</time>
      </trkpt>
      <trkpt lat="46.66401" lon="-1.75468">
        <ele>33</ele>
        <time>2018-03-23T08:20:34Z</time>
      </trkpt>
      <trkpt lat="46.66407" lon="-1.7547">
        <ele>33</ele>
        <time>2018-03-23T08:21:34Z</time>
      </trkpt>
      <trkpt lat="46.66413" lon="-1.75471">
        <ele>34</ele>
        <time>2018-03-23T08:22:34Z</time>
      </trkpt>
      <trkpt lat="46.6642" lon="-1.75473">
        <ele>34</ele>
        <time>2018-03-23T08:23:34Z</time>
      </trkpt>
      <trkpt lat="46.66427" lon="-1.75474">
        <ele>35</ele>
        <time>2018-03-23T08:24:34Z</time>
      </trkpt>
      <trkpt lat="46.66432" lon="-1.75475">
        <ele>36</ele>
        <time>2018-03-23T08:25:34Z</time>
      </trkpt>
      <trkpt lat="46.66439" lon="-1.75477">
        <ele>37</ele>
        <time>2018-03-23T08:26:34Z</time>
      </trkpt>
      <trkpt lat="46.6645" lon="-1.75476">
        <ele>38</ele>
        <time>2018-03-23T08:27:34Z</time>
      </trkpt>
      <trkpt lat="46.66458" lon="-1.75475">
        <ele>39</ele>
        <time>2018-03-23T08:28:34Z</time>
      </trkpt>
      <trkpt lat="46.66471" lon="-1.75473">
        <ele>41</ele>
        <time>2018-03-23T08:29:34Z</time>
      </trkpt>
      <trkpt lat="46.66484" lon="-1.7547">
        <ele>43</ele>
        <time>2018-03-23T08:30:34Z</time>
      </trkpt>
      <trkpt lat="46.66494" lon="-1.75467">
        <ele>44</ele>
        <time>2018-03-23T08:31:34Z</time>
      </trkpt>
      <trkpt lat="46.66503" lon="-1.75465">
        <ele>45</ele>
        <time>2018-03-23T08:32:34Z</time>
      </trkpt>
      <trkpt lat="46.66511" lon="-1.75463">
        <ele>46</ele>
        <time>2018-03-23T08:33:34Z</time>
      </trkpt>
      <trkpt lat="46.66521" lon="-1.75462">
        <ele>47</ele>
        <time>2018-03-23T08:34:34Z</time>
      </trkpt>
      <trkpt lat="46.66531" lon="-1.75462">
        <ele>47</ele>
        <time>2018-03-23T08:35:34Z</time>
      </trkpt>
      <trkpt lat="46.6654" lon="-1.75463">
        <ele>48</ele>
        <time>2018-03-23T08:36:34Z</time>
      </trkpt>
      <trkpt lat="46.66548" lon="-1.75464">
        <ele>48</ele>
        <time>2018-03-23T08:37:34Z</time>
      </trkpt>
      <trkpt lat="46.66555" lon="-1.75466">
        <ele>48</ele>
        <time>2018-03-23T08:38:34Z</time>
      </trkpt>
      <trkpt lat="46.66562" lon="-1.75468">
        <ele>49</ele>
        <time>2018-03-23T08:39:34Z</time>
      </trkpt>
      <trkpt lat="46.66571" lon="-1.75472">
        <ele>49</ele>
        <time>2018-03-23T08:40:34Z</time>
      </trkpt>
      <trkpt lat="46.66577" lon="-1.75476">
        <ele>50</ele>
        <time>2018-03-23T08:41:34Z</time>
      </trkpt>
      <trkpt lat="46.66592" lon="-1.75484">
        <ele>50</ele>
        <time>2018-03-23T08:42:34Z</time>
      </trkpt>
      <trkpt lat="46.666" lon="-1.75488">
        <ele>50</ele>
        <time>2018-03-23T08:43:34Z</time>
      </trkpt>
      <trkpt lat="46.66606" lon="-1.75491">
        <ele>50</ele>
        <time>2018-03-23T08:44:34Z</time>
      </trkpt>
      <trkpt lat="46.66615" lon="-1.75493">
        <ele>50</ele>
        <time>2018-03-23T08:45:34Z</time>
      </trkpt>
      <trkpt lat="46.66623" lon="-1.75493">
        <ele>50</ele>
        <time>2018-03-23T08:46:34Z</time>
      </trkpt>
      <trkpt lat="46.6663" lon="-1.75492">
        <ele>50</ele>
        <time>2018-03-23T08:47:34Z</time>
      </trkpt>
      <trkpt lat="46.66651" lon="-1.75488">
        <ele>50</ele>
        <time>2018-03-23T08:48:34Z</time>
      </trkpt>
      <trkpt lat="46.66669" lon="-1.75485">
        <ele>50</ele>
        <time>2018-03-23T08:49:34Z</time>
      </trkpt>
      <trkpt lat="46.66678" lon="-1.75484">
        <ele>49</ele>
        <time>2018-03-23T08:50:34Z</time>
      </trkpt>
      <trkpt lat="46.66686" lon="-1.75483">
        <ele>49</ele>
        <time>2018-03-23T08:51:34Z</time>
      </trkpt>
      <trkpt lat="46.66698" lon="-1.75484">
        <ele>48</ele>
        <time>2018-03-23T08:52:34Z</time>
      </trkpt>
      <trkpt lat="46.66715" lon="-1.75487">
        <ele>48</ele>
        <time>2018-03-23T08:53:34Z</time>
      </trkpt>
      <trkpt lat="46.66737" lon="-1.75493">
        <ele>47</ele>
        <time>2018-03-23T08:54:34Z</time>
      </trkpt>
      <trkpt lat="46.6676" lon="-1.75499">
        <ele>46</ele>
        <time>2018-03-23T08:55:34Z</time>
      </trkpt>
      <trkpt lat="46.66775" lon="-1.75504">
        <ele>46</ele>
        <time>2018-03-23T08:56:34Z</time>
      </trkpt>
      <trkpt lat="46.66786" lon="-1.75508">
        <ele>46</ele>
        <time>2018-03-23T08:57:34Z</time>
      </trkpt>
      <trkpt lat="46.66797" lon="-1.75513">
        <ele>45</ele>
        <time>2018-03-23T08:58:34Z</time>
      </trkpt>
      <trkpt lat="46.66803" lon="-1.75517">
        <ele>45</ele>
        <time>2018-03-23T08:59:34Z</time>
      </trkpt>
      <trkpt lat="46.66808" lon="-1.75521">
        <ele>45</ele>
        <time>2018-03-23T09:00:34Z</time>
      </trkpt>
      <trkpt lat="46.66819" lon="-1.7553">
        <ele>45</ele>
        <time>2018-03-23T09:01:34Z</time>
      </trkpt>
      <trkpt lat="46.66831" lon="-1.75542">
        <ele>45</ele>
        <time>2018-03-23T09:02:34Z</time>
      </trkpt>
      <trkpt lat="46.66839" lon="-1.75552">
        <ele>45</ele>
        <time>2018-03-23T09:03:34Z</time>
      </trkpt>
      <trkpt lat="46.66854" lon="-1.75568">
        <ele>46</ele>
        <time>2018-03-23T09:04:34Z</time>
      </trkpt>
      <trkpt lat="46.66859" lon="-1.75573">
        <ele>46</ele>
        <time>2018-03-23T09:05:34Z</time>
      </trkpt>
      <trkpt lat="46.66864" lon="-1.75578">
        <ele>47</ele>
        <time>2018-03-23T09:06:34Z</time>
      </trkpt>
      <trkpt lat="46.66872" lon="-1.75583">
        <ele>47</ele>
        <time>2018-03-23T09:07:34Z</time>
      </trkpt>
      <trkpt lat="46.66876" lon="-1.75587">
        <ele>47</ele>
        <time>2018-03-23T09:08:34Z</time>
      </trkpt>
      <trkpt lat="46.66879" lon="-1.75589">
        <ele>47</ele>
        <time>2018-03-23T09:09:34Z</time>
      </trkpt>
      <trkpt lat="46.66884" lon="-1.75591">
        <ele>47</ele>
        <time>2018-03-23T09:10:34Z</time>
      </trkpt>
      <trkpt lat="46.6689" lon="-1.75594">
        <ele>47</ele>
        <time>2018-03-23T09:11:34Z</time>
      </trkpt>
      <trkpt lat="46.66895" lon="-1.75596">
        <ele>47</ele>
        <time>2018-03-23T09:12:34Z</time>
      </trkpt>
      <trkpt lat="46.669" lon="-1.75598">
        <ele>47</ele>
        <time>2018-03-23T09:13:34Z</time>
      </trkpt>
      <trkpt lat="46.66911" lon="-1.75601">
        <ele>47</ele>
        <time>2018-03-23T09:14:34Z</time>
      </trkpt>
      <trkpt lat="46.66921" lon="-1.75604">
        <ele>48</ele>
        <time>2018-03-23T09:15:34Z</time>
      </trkpt>
      <trkpt lat="46.66934" lon="-1.75606">
        <ele>48</ele>
        <time>2018-03-23T09:16:34Z</time>
      </trkpt>
      <trkpt lat="46.6696" lon="-1.75611">
        <ele>48</ele>
        <time>2018-03-23T09:17:34Z</time>
      </trkpt>
      <trkpt lat="46.66973" lon="-1.75615">
        <ele>48</ele>
        <time>2018-03-23T09:18:34Z</time>
      </trkpt>
      <trkpt lat="46.66978" lon="-1.75616">
        <ele>48</ele>
        <time>2018-03-23T09:19:34Z</time>
      </trkpt>
      <trkpt lat="46.66981" lon="-1.75618">
        <ele>48</ele>
        <time>2018-03-23T09:20:34Z</time>
      </trkpt>
      <trkpt lat="46.66993" lon="-1.75625">
        <ele>49</ele>
        <time>2018-03-23T09:21:34Z</time>
      </trkpt>
      <trkpt lat="46.66994" lon="-1.75627">
        <ele>49</ele>
        <time>2018-03-23T09:22:34Z</time>
      </trkpt>
      <trkpt lat="46.66996" lon="-1.75628">
        <ele>49</ele>
        <time>2018-03-23T09:23:34Z</time>
      </trkpt>
      <trkpt lat="46.66998" lon="-1.75631">
        <ele>49</ele>
        <time>2018-03-23T09:24:34Z</time>
      </trkpt>
      <trkpt lat="46.67001" lon="-1.75635">
        <ele>49</ele>
        <time>2018-03-23T09:25:34Z</time>
      </trkpt>
      <trkpt lat="46.67004" lon="-1.7564">
        <ele>50</ele>
        <time>2018-03-23T09:26:34Z</time>
      </trkpt>
      <trkpt lat="46.67008" lon="-1.75646">
        <ele>50</ele>
        <time>2018-03-23T09:27:34Z</time>
      </trkpt>
      <trkpt lat="46.6701" lon="-1.75651">
        <ele>50</ele>
        <time>2018-03-23T09:28:34Z</time>
      </trkpt>
      <trkpt lat="46.67013" lon="-1.75658">
        <ele>50</ele>
        <time>2018-03-23T09:29:34Z</time>
      </trkpt>
      <trkpt lat="46.67015" lon="-1.75662">
        <ele>50</ele>
        <time>2018-03-23T09:30:34Z</time>
      </trkpt>
      <trkpt lat="46.67017" lon="-1.75667">
        <ele>51</ele>
        <time>2018-03-23T09:31:34Z</time>
      </trkpt>
      <trkpt lat="46.67018" lon="-1.75673">
        <ele>51</ele>
        <time>2018-03-23T09:32:34Z</time>
      </trkpt>
      <trkpt lat="46.67021" lon="-1.75683">
        <ele>51</ele>
        <time>2018-03-23T09:33:34Z</time>
      </trkpt>
      <trkpt lat="46.67023" lon="-1.7569">
        <ele>51</ele>
        <time>2018-03-23T09:34:34Z</time>
      </trkpt>
      <trkpt lat="46.67026" lon="-1.75699">
        <ele>51</ele>
        <time>2018-03-23T09:35:34Z</time>
      </trkpt>
      <trkpt lat="46.67036" lon="-1.75731">
        <ele>51</ele>
        <time>2018-03-23T09:36:34Z</time>
      </trkpt>
      <trkpt lat="46.67037" lon="-1.75737">
        <ele>51</ele>
        <time>2018-03-23T09:37:34Z</time>
      </trkpt>
      <trkpt lat="46.67048" lon="-1.75765">
        <ele>51</ele>
        <time>2018-03-23T09:38:34Z</time>
      </trkpt>
      <trkpt lat="46.67053" lon="-1.75777">
        <ele>51</ele>
        <time>2018-03-23T09:39:34Z</time>
      </trkpt>
      <trkpt lat="46.67055" lon="-1.75783">
        <ele>51</ele>
        <time>2018-03-23T09:40:34Z</time>
      </trkpt>
      <trkpt lat="46.67057" lon="-1.7579">
        <ele>51</ele>
        <time>2018-03-23T09:41:34Z</time>
      </trkpt>
      <trkpt lat="46.67058" lon="-1.75795">
        <ele>51</ele>
        <time>2018-03-23T09:42:34Z</time>
      </trkpt>
      <trkpt lat="46.67059" lon="-1.75797">
        <ele>51</ele>
        <time>2018-03-23T09:43:34Z</time>
      </trkpt>
      <trkpt lat="46.6706" lon="-1.758">
        <ele>51</ele>
        <time>2018-03-23T09:44:34Z</time>
      </trkpt>
      <trkpt lat="46.6706" lon="-1.75803">
        <ele>51</ele>
        <time>2018-03-23T09:45:34Z</time>
      </trkpt>
      <trkpt lat="46.67061" lon="-1.75808">
        <ele>51</ele>
        <time>2018-03-23T09:46:34Z</time>
      </trkpt>
      <trkpt lat="46.67063" lon="-1.75815">
        <ele>51</ele>
        <time>2018-03-23T09:47:34Z</time>
      </trkpt>
      <trkpt lat="46.67065" lon="-1.75828">
        <ele>51</ele>
        <time>2018-03-23T09:48:34Z</time>
      </trkpt>
      <trkpt lat="46.67067" lon="-1.75837">
        <ele>51</ele>
        <time>2018-03-23T09:49:34Z</time>
      </trkpt>
      <trkpt lat="46.67069" lon="-1.75843">
        <ele>51</ele>
        <time>2018-03-23T09:50:34Z</time>
      </trkpt>
      <trkpt lat="46.6707" lon="-1.75846">
        <ele>51</ele>
        <time>2018-03-23T09:51:34Z</time>
      </trkpt>
      <trkpt lat="46.67073" lon="-1.75856">
        <ele>51</ele>
        <time>2018-03-23T09:52:34Z</time>
      </trkpt>
      <trkpt lat="46.67081" lon="-1.75878">
        <ele>51</ele>
        <time>2018-03-23T09:53:34Z</time>
      </trkpt>
      <trkpt lat="46.67084" lon="-1.75884">
        <ele>51</ele>
        <time>2018-03-23T09:54:34Z</time>
      </trkpt>
      <trkpt lat="46.67104" lon="-1.75932">
        <ele>51</ele>
        <time>2018-03-23T09:55:34Z</time>
      </trkpt>
      <trkpt lat="46.67109" lon="-1.75944">
        <ele>52</ele>
        <time>2018-03-23T09:56:34Z</time>
      </trkpt>
      <trkpt lat="46.67112" lon="-1.75949">
        <ele>52</ele>
        <time>2018-03-23T09:57:34Z</time>
      </trkpt>
      <trkpt lat="46.67114" lon="-1.75952">
        <ele>52</ele>
        <time>2018-03-23T09:58:34Z</time>
      </trkpt>
      <trkpt lat="46.67117" lon="-1.75955">
        <ele>52</ele>
        <time>2018-03-23T09:59:34Z</time>
      </trkpt>
      <trkpt lat="46.6712" lon="-1.75958">
        <ele>52</ele>
        <time>2018-03-23T10:00:34Z</time>
      </trkpt>
      <trkpt lat="46.67123" lon="-1.7596">
        <ele>52</ele>
        <time>2018-03-23T10:01:34Z</time>
      </trkpt>
      <trkpt lat="46.67127" lon="-1.75962">
        <ele>52</ele>
        <time>2018-03-23T10:02:34Z</time>
      </trkpt>
      <trkpt lat="46.67132" lon="-1.75964">
        <ele>52</ele>
        <time>2018-03-23T10:03:34Z</time>
      </trkpt>
      <trkpt lat="46.67137" lon="-1.75963">
        <ele>52</ele>
        <time>2018-03-23T10:04:34Z</time>
      </trkpt>
      <trkpt lat="46.67141" lon="-1.75963">
        <ele>52</ele>
        <time>2018-03-23T10:05:34Z</time>
      </trkpt>
      <trkpt lat="46.67148" lon="-1.7596">
        <ele>52</ele>
        <time>2018-03-23T10:06:34Z</time>
      </trkpt>
      <trkpt lat="46.67154" lon="-1.75957">
        <ele>52</ele>
        <time>2018-03-23T10:07:34Z</time>
      </trkpt>
      <trkpt lat="46.67171" lon="-1.75946">
        <ele>51</ele>
        <time>2018-03-23T10:08:34Z</time>
      </trkpt>
      <trkpt lat="46.67193" lon="-1.75932">
        <ele>51</ele>
        <time>2018-03-23T10:09:34Z</time>
      </trkpt>
      <trkpt lat="46.67229" lon="-1.75909">
        <ele>51</ele>
        <time>2018-03-23T10:10:34Z</time>
      </trkpt>
      <trkpt lat="46.67263" lon="-1.75887">
        <ele>51</ele>
        <time>2018-03-23T10:11:34Z</time>
      </trkpt>
      <trkpt lat="46.67279" lon="-1.75877">
        <ele>52</ele>
        <time>2018-03-23T10:12:34Z</time>
      </trkpt>
      <trkpt lat="46.67281" lon="-1.75872">
        <ele>52</ele>
        <time>2018-03-23T10:13:34Z</time>
      </trkpt>
      <trkpt lat="46.67296" lon="-1.75864">
        <ele>52</ele>
        <time>2018-03-23T10:14:34Z</time>
      </trkpt>
      <trkpt lat="46.67296" lon="-1.75864">
        <ele>52</ele>
        <time>2018-03-23T10:15:34Z</time>
      </trkpt>
      <trkpt lat="46.67303" lon="-1.75862">
        <ele>52</ele>
        <time>2018-03-23T10:16:34Z</time>
      </trkpt>
      <trkpt lat="46.67304" lon="-1.75869">
        <ele>52</ele>
        <time>2018-03-23T10:17:34Z</time>
      </trkpt>
      <trkpt lat="46.67304" lon="-1.75875">
        <ele>52</ele>
        <time>2018-03-23T10:18:34Z</time>
      </trkpt>
      <trkpt lat="46.67301" lon="-1.75912">
        <ele>52</ele>
        <time>2018-03-23T10:19:34Z</time>
      </trkpt>
      <trkpt lat="46.67298" lon="-1.75924">
        <ele>52</ele>
        <time>2018-03-23T10:20:34Z</time>
      </trkpt>
      <trkpt lat="46.67295" lon="-1.75945">
        <ele>52</ele>
        <time>2018-03-23T10:21:34Z</time>
      </trkpt>
      <trkpt lat="46.67292" lon="-1.75975">
        <ele>52</ele>
        <time>2018-03-23T10:22:34Z</time>
      </trkpt>
      <trkpt lat="46.67289" lon="-1.76008">
        <ele>52</ele>
        <time>2018-03-23T10:23:34Z</time>
      </trkpt>
      <trkpt lat="46.67285" lon="-1.76045">
        <ele>52</ele>
        <time>2018-03-23T10:24:34Z</time>
      </trkpt>
      <trkpt lat="46.67281" lon="-1.7608">
        <ele>52</ele>
        <time>2018-03-23T10:25:34Z</time>
      </trkpt>
      <trkpt lat="46.67277" lon="-1.76114">
        <ele>52</ele>
        <time>2018-03-23T10:26:34Z</time>
      </trkpt>
      <trkpt lat="46.67274" lon="-1.76138">
        <ele>52</ele>
        <time>2018-03-23T10:27:34Z</time>
      </trkpt>
      <trkpt lat="46.67272" lon="-1.76156">
        <ele>52</ele>
        <time>2018-03-23T10:28:34Z</time>
      </trkpt>
      <trkpt lat="46.6727" lon="-1.76168">
        <ele>52</ele>
        <time>2018-03-23T10:29:34Z</time>
      </trkpt>
      <trkpt lat="46.67269" lon="-1.76175">
        <ele>52</ele>
        <time>2018-03-23T10:30:34Z</time>
      </trkpt>
      <trkpt lat="46.67267" lon="-1.76183">
        <ele>52</ele>
        <time>2018-03-23T10:31:34Z</time>
      </trkpt>
      <trkpt lat="46.67262" lon="-1.76199">
        <ele>52</ele>
        <time>2018-03-23T10:32:34Z</time>
      </trkpt>
      <trkpt lat="46.67255" lon="-1.76217">
        <ele>51</ele>
        <time>2018-03-23T10:33:34Z</time>
      </trkpt>
      <trkpt lat="46.67249" lon="-1.76231">
        <ele>51</ele>
        <time>2018-03-23T10:34:34Z</time>
      </trkpt>
      <trkpt lat="46.67244" lon="-1.76243">
        <ele>51</ele>
        <time>2018-03-23T10:35:34Z</time>
      </trkpt>
      <trkpt lat="46.67234" lon="-1.76268">
        <ele>51</ele>
        <time>2018-03-23T10:36:34Z</time>
      </trkpt>
      <trkpt lat="46.67226" lon="-1.76284">
        <ele>51</ele>
        <time>2018-03-23T10:37:34Z</time>
      </trkpt>
      <trkpt lat="46.67214" lon="-1.76309">
        <ele>51</ele>
        <time>2018-03-23T10:38:34Z</time>
      </trkpt>
      <trkpt lat="46.67207" lon="-1.76324">
        <ele>51</ele>
        <time>2018-03-23T10:39:34Z</time>
      </trkpt>
      <trkpt lat="46.672" lon="-1.76338">
        <ele>51</ele>
        <time>2018-03-23T10:40:34Z</time>
      </trkpt>
      <trkpt lat="46.67187" lon="-1.76364">
        <ele>51</ele>
        <time>2018-03-23T10:41:34Z</time>
      </trkpt>
      <trkpt lat="46.67184" lon="-1.76371">
        <ele>51</ele>
        <time>2018-03-23T10:42:34Z</time>
      </trkpt>
      <trkpt lat="46.67182" lon="-1.76374">
        <ele>51</ele>
        <time>2018-03-23T10:43:34Z</time>
      </trkpt>
      <trkpt lat="46.6718" lon="-1.7638">
        <ele>51</ele>
        <time>2018-03-23T10:44:34Z</time>
      </trkpt>
      <trkpt lat="46.67176" lon="-1.76389">
        <ele>51</ele>
        <time>2018-03-23T10:45:34Z</time>
      </trkpt>
      <trkpt lat="46.67171" lon="-1.76406">
        <ele>50</ele>
        <time>2018-03-23T10:46:34Z</time>
      </trkpt>
      <trkpt lat="46.67166" lon="-1.76425">
        <ele>50</ele>
        <time>2018-03-23T10:47:34Z</time>
      </trkpt>
      <trkpt lat="46.6715" lon="-1.76484">
        <ele>50</ele>
        <time>2018-03-23T10:48:34Z</time>
      </trkpt>
      <trkpt lat="46.6714" lon="-1.76523">
        <ele>50</ele>
        <time>2018-03-23T10:49:34Z</time>
      </trkpt>
      <trkpt lat="46.67133" lon="-1.76546">
        <ele>50</ele>
        <time>2018-03-23T10:50:34Z</time>
      </trkpt>
      <trkpt lat="46.6713" lon="-1.7656">
        <ele>50</ele>
        <time>2018-03-23T10:51:34Z</time>
      </trkpt>
      <trkpt lat="46.67126" lon="-1.76576">
        <ele>50</ele>
        <time>2018-03-23T10:52:34Z</time>
      </trkpt>
      <trkpt lat="46.67125" lon="-1.76581">
        <ele>50</ele>
        <time>2018-03-23T10:53:34Z</time>
      </trkpt>
      <trkpt lat="46.67123" lon="-1.76589">
        <ele>50</ele>
        <time>2018-03-23T10:54:34Z</time>
      </trkpt>
      <trkpt lat="46.67121" lon="-1.76598">
        <ele>50</ele>
        <time>2018-03-23T10:55:34Z</time>
      </trkpt>
      <trkpt lat="46.67121" lon="-1.76604">
        <ele>50</ele>
        <time>2018-03-23T10:56:34Z</time>
      </trkpt>
      <trkpt lat="46.67119" lon="-1.76618">
        <ele>51</ele>
        <time>2018-03-23T10:57:34Z</time>
      </trkpt>
      <trkpt lat="46.67117" lon="-1.7664">
        <ele>51</ele>
        <time>2018-03-23T10:58:34Z</time>
      </trkpt>
      <trkpt lat="46.67115" lon="-1.76663">
        <ele>51</ele>
        <time>2018-03-23T10:59:34Z</time>
      </trkpt>
      <trkpt lat="46.67114" lon="-1.76683">
        <ele>51</ele>
        <time>2018-03-23T11:00:34Z</time>
      </trkpt>
      <trkpt lat="46.67112" lon="-1.76704">
        <ele>52</ele>
        <time>2018-03-23T11:01:34Z</time>
      </trkpt>
      <trkpt lat="46.6711" lon="-1.76721">
        <ele>52</ele>
        <time>2018-03-23T11:02:34Z</time>
      </trkpt>
      <trkpt lat="46.67109" lon="-1.76734">
        <ele>52</ele>
        <time>2018-03-23T11:03:34Z</time>
      </trkpt>
      <trkpt lat="46.67108" lon="-1.76743">
        <ele>52</ele>
        <time>2018-03-23T11:04:34Z</time>
      </trkpt>
      <trkpt lat="46.67107" lon="-1.76753">
        <ele>52</ele>
        <time>2018-03-23T11:05:34Z</time>
      </trkpt>
      <trkpt lat="46.67104" lon="-1.76764">
        <ele>52</ele>
        <time>2018-03-23T11:06:34Z</time>
      </trkpt>
      <trkpt lat="46.67103" lon="-1.76772">
        <ele>52</ele>
        <time>2018-03-23T11:07:34Z</time>
      </trkpt>
      <trkpt lat="46.67095" lon="-1.76807">
        <ele>52</ele>
        <time>2018-03-23T11:08:34Z</time>
      </trkpt>
      <trkpt lat="46.67084" lon="-1.76857">
        <ele>52</ele>
        <time>2018-03-23T11:09:34Z</time>
      </trkpt>
      <trkpt lat="46.67075" lon="-1.76904">
        <ele>52</ele>
        <time>2018-03-23T11:10:34Z</time>
      </trkpt>
      <trkpt lat="46.67073" lon="-1.76914">
        <ele>52</ele>
        <time>2018-03-23T11:11:34Z</time>
      </trkpt>
      <trkpt lat="46.6707" lon="-1.76927">
        <ele>52</ele>
        <time>2018-03-23T11:12:34Z</time>
      </trkpt>
      <trkpt lat="46.67067" lon="-1.76944">
        <ele>52</ele>
        <time>2018-03-23T11:13:34Z</time>
      </trkpt>
      <trkpt lat="46.67061" lon="-1.7699">
        <ele>52</ele>
        <time>2018-03-23T11:14:34Z</time>
      </trkpt>
      <trkpt lat="46.67055" lon="-1.77029">
        <ele>51</ele>
        <time>2018-03-23T11:15:34Z</time>
      </trkpt>
      <trkpt lat="46.67053" lon="-1.77046">
        <ele>51</ele>
        <time>2018-03-23T11:16:34Z</time>
      </trkpt>
      <trkpt lat="46.67052" lon="-1.77057">
        <ele>51</ele>
        <time>2018-03-23T11:17:34Z</time>
      </trkpt>
      <trkpt lat="46.6705" lon="-1.77066">
        <ele>51</ele>
        <time>2018-03-23T11:18:34Z</time>
      </trkpt>
      <trkpt lat="46.6705" lon="-1.77071">
        <ele>51</ele>
        <time>2018-03-23T11:19:34Z</time>
      </trkpt>
      <trkpt lat="46.67048" lon="-1.77084">
        <ele>51</ele>
        <time>2018-03-23T11:20:34Z</time>
      </trkpt>
      <trkpt lat="46.67044" lon="-1.77105">
        <ele>50</ele>
        <time>2018-03-23T11:21:34Z</time>
      </trkpt>
      <trkpt lat="46.67038" lon="-1.77144">
        <ele>50</ele>
        <time>2018-03-23T11:22:34Z</time>
      </trkpt>
      <trkpt lat="46.6703" lon="-1.77186">
        <ele>49</ele>
        <time>2018-03-23T11:23:34Z</time>
      </trkpt>
      <trkpt lat="46.67021" lon="-1.77237">
        <ele>49</ele>
        <time>2018-03-23T11:24:34Z</time>
      </trkpt>
      <trkpt lat="46.67015" lon="-1.77269">
        <ele>49</ele>
        <time>2018-03-23T11:25:34Z</time>
      </trkpt>
      <trkpt lat="46.6701" lon="-1.77298">
        <ele>48</ele>
        <time>2018-03-23T11:26:34Z</time>
      </trkpt>
      <trkpt lat="46.67008" lon="-1.77312">
        <ele>48</ele>
        <time>2018-03-23T11:27:34Z</time>
      </trkpt>
      <trkpt lat="46.67005" lon="-1.77325">
        <ele>48</ele>
        <time>2018-03-23T11:28:34Z</time>
      </trkpt>
      <trkpt lat="46.67001" lon="-1.77341">
        <ele>48</ele>
        <time>2018-03-23T11:29:34Z</time>
      </trkpt>
      <trkpt lat="46.66994" lon="-1.77369">
        <ele>47</ele>
        <time>2018-03-23T11:30:34Z</time>
      </trkpt>
      <trkpt lat="46.66988" lon="-1.77391">
        <ele>47</ele>
        <time>2018-03-23T11:31:34Z</time>
      </trkpt>
      <trkpt lat="46.6698" lon="-1.77417">
        <ele>47</ele>
        <time>2018-03-23T11:32:34Z</time>
      </trkpt>
      <trkpt lat="46.66971" lon="-1.77451">
        <ele>47</ele>
        <time>2018-03-23T11:33:34Z</time>
      </trkpt>
      <trkpt lat="46.66967" lon="-1.77465">
        <ele>47</ele>
        <time>2018-03-23T11:34:34Z</time>
      </trkpt>
      <trkpt lat="46.66964" lon="-1.77476">
        <ele>47</ele>
        <time>2018-03-23T11:35:34Z</time>
      </trkpt>
      <trkpt lat="46.66962" lon="-1.77484">
        <ele>47</ele>
        <time>2018-03-23T11:36:34Z</time>
      </trkpt>
      <trkpt lat="46.6696" lon="-1.77493">
        <ele>47</ele>
        <time>2018-03-23T11:37:34Z</time>
      </trkpt>
      <trkpt lat="46.66958" lon="-1.77501">
        <ele>47</ele>
        <time>2018-03-23T11:38:34Z</time>
      </trkpt>
      <trkpt lat="46.66957" lon="-1.7751">
        <ele>47</ele>
        <time>2018-03-23T11:39:34Z</time>
      </trkpt>
      <trkpt lat="46.66957" lon="-1.77515">
        <ele>47</ele>
        <time>2018-03-23T11:40:34Z</time>
      </trkpt>
      <trkpt lat="46.66957" lon="-1.7752">
        <ele>47</ele>
        <time>2018-03-23T11:41:34Z</time>
      </trkpt>
      <trkpt lat="46.66957" lon="-1.77528">
        <ele>47</ele>
        <time>2018-03-23T11:42:34Z</time>
      </trkpt>
      <trkpt lat="46.66958" lon="-1.77537">
        <ele>47</ele>
        <time>2018-03-23T11:43:34Z</time>
      </trkpt>
      <trkpt lat="46.66959" lon="-1.77544">
        <ele>46</ele>
        <time>2018-03-23T11:44:34Z</time>
      </trkpt>
      <trkpt lat="46.6696" lon="-1.77551">
        <ele>46</ele>
        <time>2018-03-23T11:45:34Z</time>
      </trkpt>
      <trkpt lat="46.66962" lon="-1.77558">
        <ele>46</ele>
        <time>2018-03-23T11:46:34Z</time>
      </trkpt>
      <trkpt lat="46.66971" lon="-1.77577">
        <ele>46</ele>
        <time>2018-03-23T11:47:34Z</time>
      </trkpt>
      <trkpt lat="46.66984" lon="-1.77605">
        <ele>46</ele>
        <time>2018-03-23T11:48:34Z</time>
      </trkpt>
      <trkpt lat="46.66998" lon="-1.77631">
        <ele>45</ele>
        <time>2018-03-23T11:49:34Z</time>
      </trkpt>
      <trkpt lat="46.67016" lon="-1.77669">
        <ele>45</ele>
        <time>2018-03-23T11:50:34Z</time>
      </trkpt>
      <trkpt lat="46.67033" lon="-1.77706">
        <ele>45</ele>
        <time>2018-03-23T11:51:34Z</time>
      </trkpt>
      <trkpt lat="46.67054" lon="-1.7775">
        <ele>44</ele>
        <time>2018-03-23T11:52:34Z</time>
      </trkpt>
      <trkpt lat="46.67055" lon="-1.77752">
        <ele>44</ele>
        <time>2018-03-23T11:53:34Z</time>
      </trkpt>
      <trkpt lat="46.6706" lon="-1.77764">
        <ele>44</ele>
        <time>2018-03-23T11:54:34Z</time>
      </trkpt>
      <trkpt lat="46.67069" lon="-1.77781">
        <ele>44</ele>
        <time>2018-03-23T11:55:34Z</time>
      </trkpt>
      <trkpt lat="46.67095" lon="-1.77835">
        <ele>43</ele>
        <time>2018-03-23T11:56:34Z</time>
      </trkpt>
      <trkpt lat="46.67116" lon="-1.77878">
        <ele>43</ele>
        <time>2018-03-23T11:57:34Z</time>
      </trkpt>
      <trkpt lat="46.67132" lon="-1.77911">
        <ele>43</ele>
        <time>2018-03-23T11:58:34Z</time>
      </trkpt>
      <trkpt lat="46.6714" lon="-1.77931">
        <ele>42</ele>
        <time>2018-03-23T11:59:34Z</time>
      </trkpt>
      <trkpt lat="46.67147" lon="-1.77951">
        <ele>42</ele>
        <time>2018-03-23T12:00:34Z</time>
      </trkpt>
      <trkpt lat="46.67152" lon="-1.77971">
        <ele>42</ele>
        <time>2018-03-23T12:01:34Z</time>
      </trkpt>
      <trkpt lat="46.67154" lon="-1.77993">
        <ele>41</ele>
        <time>2018-03-23T12:02:34Z</time>
      </trkpt>
      <trkpt lat="46.67155" lon="-1.78015">
        <ele>41</ele>
        <time>2018-03-23T12:03:34Z</time>
      </trkpt>
      <trkpt lat="46.67155" lon="-1.78038">
        <ele>41</ele>
        <time>2018-03-23T12:04:34Z</time>
      </trkpt>
      <trkpt lat="46.67157" lon="-1.7806">
        <ele>41</ele>
        <time>2018-03-23T12:05:34Z</time>
      </trkpt>
      <trkpt lat="46.67158" lon="-1.78077">
        <ele>41</ele>
        <time>2018-03-23T12:06:34Z</time>
      </trkpt>
      <trkpt lat="46.67161" lon="-1.78106">
        <ele>41</ele>
        <time>2018-03-23T12:07:34Z</time>
      </trkpt>
      <trkpt lat="46.67165" lon="-1.78136">
        <ele>40</ele>
        <time>2018-03-23T12:08:34Z</time>
      </trkpt>
      <trkpt lat="46.67169" lon="-1.78158">
        <ele>40</ele>
        <time>2018-03-23T12:09:34Z</time>
      </trkpt>
      <trkpt lat="46.67172" lon="-1.78177">
        <ele>40</ele>
        <time>2018-03-23T12:10:34Z</time>
      </trkpt>
      <trkpt lat="46.67174" lon="-1.78185">
        <ele>40</ele>
        <time>2018-03-23T12:11:34Z</time>
      </trkpt>
      <trkpt lat="46.67176" lon="-1.78192">
        <ele>39</ele>
        <time>2018-03-23T12:12:34Z</time>
      </trkpt>
      <trkpt lat="46.67181" lon="-1.78202">
        <ele>39</ele>
        <time>2018-03-23T12:13:34Z</time>
      </trkpt>
      <trkpt lat="46.67186" lon="-1.78212">
        <ele>39</ele>
        <time>2018-03-23T12:14:34Z</time>
      </trkpt>
      <trkpt lat="46.67196" lon="-1.78221">
        <ele>39</ele>
        <time>2018-03-23T12:15:34Z</time>
      </trkpt>
      <trkpt lat="46.67201" lon="-1.78226">
        <ele>38</ele>
        <time>2018-03-23T12:16:34Z</time>
      </trkpt>
      <trkpt lat="46.67208" lon="-1.7823">
        <ele>38</ele>
        <time>2018-03-23T12:17:34Z</time>
      </trkpt>
      <trkpt lat="46.67221" lon="-1.78237">
        <ele>38</ele>
        <time>2018-03-23T12:18:34Z</time>
      </trkpt>
      <trkpt lat="46.67251" lon="-1.78249">
        <ele>37</ele>
        <time>2018-03-23T12:19:34Z</time>
      </trkpt>
      <trkpt lat="46.67273" lon="-1.78259">
        <ele>37</ele>
        <time>2018-03-23T12:20:34Z</time>
      </trkpt>
      <trkpt lat="46.67307" lon="-1.78274">
        <ele>37</ele>
        <time>2018-03-23T12:21:34Z</time>
      </trkpt>
      <trkpt lat="46.67315" lon="-1.78278">
        <ele>37</ele>
        <time>2018-03-23T12:22:34Z</time>
      </trkpt>
      <trkpt lat="46.67324" lon="-1.78284">
        <ele>37</ele>
        <time>2018-03-23T12:23:34Z</time>
      </trkpt>
      <trkpt lat="46.6733" lon="-1.78289">
        <ele>37</ele>
        <time>2018-03-23T12:24:34Z</time>
      </trkpt>
      <trkpt lat="46.67336" lon="-1.78294">
        <ele>37</ele>
        <time>2018-03-23T12:25:34Z</time>
      </trkpt>
      <trkpt lat="46.67341" lon="-1.78301">
        <ele>37</ele>
        <time>2018-03-23T12:26:34Z</time>
      </trkpt>
      <trkpt lat="46.67347" lon="-1.78309">
        <ele>37</ele>
        <time>2018-03-23T12:27:34Z</time>
      </trkpt>
      <trkpt lat="46.67351" lon="-1.78317">
        <ele>37</ele>
        <time>2018-03-23T12:28:34Z</time>
      </trkpt>
      <trkpt lat="46.67355" lon="-1.78325">
        <ele>37</ele>
        <time>2018-03-23T12:29:34Z</time>
      </trkpt>
      <trkpt lat="46.67362" lon="-1.78345">
        <ele>37</ele>
        <time>2018-03-23T12:30:34Z</time>
      </trkpt>
      <trkpt lat="46.67368" lon="-1.78363">
        <ele>37</ele>
        <time>2018-03-23T12:31:34Z</time>
      </trkpt>
      <trkpt lat="46.67373" lon="-1.78382">
        <ele>37</ele>
        <time>2018-03-23T12:32:34Z</time>
      </trkpt>
      <trkpt lat="46.67379" lon="-1.78401">
        <ele>37</ele>
        <time>2018-03-23T12:33:34Z</time>
      </trkpt>
      <trkpt lat="46.67389" lon="-1.78426">
        <ele>37</ele>
        <time>2018-03-23T12:34:34Z</time>
      </trkpt>
      <trkpt lat="46.67402" lon="-1.78457">
        <ele>37</ele>
        <time>2018-03-23T12:35:34Z</time>
      </trkpt>
      <trkpt lat="46.6741" lon="-1.78476">
        <ele>36</ele>
        <time>2018-03-23T12:36:34Z</time>
      </trkpt>
      <trkpt lat="46.67421" lon="-1.78499">
        <ele>36</ele>
        <time>2018-03-23T12:37:34Z</time>
      </trkpt>
      <trkpt lat="46.67431" lon="-1.78524">
        <ele>36</ele>
        <time>2018-03-23T12:38:34Z</time>
      </trkpt>
      <trkpt lat="46.67437" lon="-1.78527">
        <ele>36</ele>
        <time>2018-03-23T12:39:34Z</time>
      </trkpt>
      <trkpt lat="46.67446" lon="-1.78538">
        <ele>36</ele>
        <time>2018-03-23T12:40:34Z</time>
      </trkpt>
      <trkpt lat="46.67451" lon="-1.78547">
        <ele>36</ele>
        <time>2018-03-23T12:41:34Z</time>
      </trkpt>
      <trkpt lat="46.67454" lon="-1.78553">
        <ele>36</ele>
        <time>2018-03-23T12:42:34Z</time>
      </trkpt>
      <trkpt lat="46.67455" lon="-1.78556">
        <ele>36</ele>
        <time>2018-03-23T12:43:34Z</time>
      </trkpt>
      <trkpt lat="46.67456" lon="-1.78562">
        <ele>36</ele>
        <time>2018-03-23T12:44:34Z</time>
      </trkpt>
      <trkpt lat="46.6746" lon="-1.78579">
        <ele>36</ele>
        <time>2018-03-23T12:45:34Z</time>
      </trkpt>
      <trkpt lat="46.67462" lon="-1.78591">
        <ele>35</ele>
        <time>2018-03-23T12:46:34Z</time>
      </trkpt>
      <trkpt lat="46.67465" lon="-1.78601">
        <ele>35</ele>
        <time>2018-03-23T12:47:34Z</time>
      </trkpt>
      <trkpt lat="46.67471" lon="-1.78619">
        <ele>35</ele>
        <time>2018-03-23T12:48:34Z</time>
      </trkpt>
      <trkpt lat="46.67481" lon="-1.78658">
        <ele>36</ele>
        <time>2018-03-23T12:49:34Z</time>
      </trkpt>
      <trkpt lat="46.67491" lon="-1.78695">
        <ele>36</ele>
        <time>2018-03-23T12:50:34Z</time>
      </trkpt>
      <trkpt lat="46.67499" lon="-1.78726">
        <ele>36</ele>
        <time>2018-03-23T12:51:34Z</time>
      </trkpt>
      <trkpt lat="46.67506" lon="-1.78755">
        <ele>36</ele>
        <time>2018-03-23T12:52:34Z</time>
      </trkpt>
      <trkpt lat="46.67513" lon="-1.78783">
        <ele>36</ele>
        <time>2018-03-23T12:53:34Z</time>
      </trkpt>
      <trkpt lat="46.67515" lon="-1.78791">
        <ele>36</ele>
        <time>2018-03-23T12:54:34Z</time>
      </trkpt>
      <trkpt lat="46.67523" lon="-1.78821">
        <ele>36</ele>
        <time>2018-03-23T12:55:34Z</time>
      </trkpt>
      <trkpt lat="46.67527" lon="-1.78838">
        <ele>36</ele>
        <time>2018-03-23T12:56:34Z</time>
      </trkpt>
      <trkpt lat="46.67532" lon="-1.7886">
        <ele>36</ele>
        <time>2018-03-23T12:57:34Z</time>
      </trkpt>
      <trkpt lat="46.6754" lon="-1.78889">
        <ele>36</ele>
        <time>2018-03-23T12:58:34Z</time>
      </trkpt>
      <trkpt lat="46.67545" lon="-1.78909">
        <ele>36</ele>
        <time>2018-03-23T12:59:34Z</time>
      </trkpt>
      <trkpt lat="46.67551" lon="-1.78936">
        <ele>37</ele>
        <time>2018-03-23T13:00:34Z</time>
      </trkpt>
      <trkpt lat="46.67556" lon="-1.78967">
        <ele>39</ele>
        <time>2018-03-23T13:01:34Z</time>
      </trkpt>
      <trkpt lat="46.67559" lon="-1.7899">
        <ele>40</ele>
        <time>2018-03-23T13:02:34Z</time>
      </trkpt>
      <trkpt lat="46.67565" lon="-1.79025">
        <ele>41</ele>
        <time>2018-03-23T13:03:34Z</time>
      </trkpt>
      <trkpt lat="46.67569" lon="-1.79056">
        <ele>41</ele>
        <time>2018-03-23T13:04:34Z</time>
      </trkpt>
      <trkpt lat="46.67572" lon="-1.79082">
        <ele>42</ele>
        <time>2018-03-23T13:05:34Z</time>
      </trkpt>
      <trkpt lat="46.67575" lon="-1.79106">
        <ele>42</ele>
        <time>2018-03-23T13:06:34Z</time>
      </trkpt>
      <trkpt lat="46.67576" lon="-1.79128">
        <ele>42</ele>
        <time>2018-03-23T13:07:34Z</time>
      </trkpt>
      <trkpt lat="46.67576" lon="-1.79159">
        <ele>43</ele>
        <time>2018-03-23T13:08:34Z</time>
      </trkpt>
      <trkpt lat="46.67576" lon="-1.79175">
        <ele>43</ele>
        <time>2018-03-23T13:09:34Z</time>
      </trkpt>
      <trkpt lat="46.67577" lon="-1.79214">
        <ele>43</ele>
        <time>2018-03-23T13:10:34Z</time>
      </trkpt>
      <trkpt lat="46.67578" lon="-1.79253">
        <ele>43</ele>
        <time>2018-03-23T13:11:34Z</time>
      </trkpt>
      <trkpt lat="46.67579" lon="-1.79279">
        <ele>43</ele>
        <time>2018-03-23T13:12:34Z</time>
      </trkpt>
      <trkpt lat="46.6758" lon="-1.79328">
        <ele>42</ele>
        <time>2018-03-23T13:13:34Z</time>
      </trkpt>
      <trkpt lat="46.6758" lon="-1.7934">
        <ele>42</ele>
        <time>2018-03-23T13:14:34Z</time>
      </trkpt>
      <trkpt lat="46.67581" lon="-1.79355">
        <ele>42</ele>
        <time>2018-03-23T13:15:34Z</time>
      </trkpt>
      <trkpt lat="46.67583" lon="-1.79372">
        <ele>42</ele>
        <time>2018-03-23T13:16:34Z</time>
      </trkpt>
      <trkpt lat="46.67586" lon="-1.79387">
        <ele>41</ele>
        <time>2018-03-23T13:17:34Z</time>
      </trkpt>
      <trkpt lat="46.6759" lon="-1.79398">
        <ele>41</ele>
        <time>2018-03-23T13:18:34Z</time>
      </trkpt>
      <trkpt lat="46.67593" lon="-1.79407">
        <ele>41</ele>
        <time>2018-03-23T13:19:34Z</time>
      </trkpt>
      <trkpt lat="46.67596" lon="-1.79417">
        <ele>41</ele>
        <time>2018-03-23T13:20:34Z</time>
      </trkpt>
      <trkpt lat="46.67599" lon="-1.79426">
        <ele>41</ele>
        <time>2018-03-23T13:21:34Z</time>
      </trkpt>
      <trkpt lat="46.67609" lon="-1.7945">
        <ele>40</ele>
        <time>2018-03-23T13:22:34Z</time>
      </trkpt>
      <trkpt lat="46.6762" lon="-1.79477">
        <ele>40</ele>
        <time>2018-03-23T13:23:34Z</time>
      </trkpt>
      <trkpt lat="46.67623" lon="-1.79488">
        <ele>40</ele>
        <time>2018-03-23T13:24:34Z</time>
      </trkpt>
      <trkpt lat="46.67627" lon="-1.79499">
        <ele>39</ele>
        <time>2018-03-23T13:25:34Z</time>
      </trkpt>
      <trkpt lat="46.67629" lon="-1.79509">
        <ele>39</ele>
        <time>2018-03-23T13:26:34Z</time>
      </trkpt>
      <trkpt lat="46.67631" lon="-1.79521">
        <ele>39</ele>
        <time>2018-03-23T13:27:34Z</time>
      </trkpt>
      <trkpt lat="46.67634" lon="-1.79544">
        <ele>40</ele>
        <time>2018-03-23T13:28:34Z</time>
      </trkpt>
      <trkpt lat="46.67634" lon="-1.79556">
        <ele>40</ele>
        <time>2018-03-23T13:29:34Z</time>
      </trkpt>
      <trkpt lat="46.67634" lon="-1.79568">
        <ele>40</ele>
        <time>2018-03-23T13:30:34Z</time>
      </trkpt>
      <trkpt lat="46.67633" lon="-1.79592">
        <ele>40</ele>
        <time>2018-03-23T13:31:34Z</time>
      </trkpt>
      <trkpt lat="46.6763" lon="-1.79615">
        <ele>40</ele>
        <time>2018-03-23T13:32:34Z</time>
      </trkpt>
      <trkpt lat="46.67625" lon="-1.79639">
        <ele>40</ele>
        <time>2018-03-23T13:33:34Z</time>
      </trkpt>
      <trkpt lat="46.6762" lon="-1.79658">
        <ele>40</ele>
        <time>2018-03-23T13:34:34Z</time>
      </trkpt>
      <trkpt lat="46.67613" lon="-1.79687">
        <ele>41</ele>
        <time>2018-03-23T13:35:34Z</time>
      </trkpt>
      <trkpt lat="46.6761" lon="-1.79707">
        <ele>41</ele>
        <time>2018-03-23T13:36:34Z</time>
      </trkpt>
      <trkpt lat="46.67607" lon="-1.79732">
        <ele>41</ele>
        <time>2018-03-23T13:37:34Z</time>
      </trkpt>
      <trkpt lat="46.67605" lon="-1.79761">
        <ele>41</ele>
        <time>2018-03-23T13:38:34Z</time>
      </trkpt>
      <trkpt lat="46.67604" lon="-1.79787">
        <ele>42</ele>
        <time>2018-03-23T13:39:34Z</time>
      </trkpt>
      <trkpt lat="46.67603" lon="-1.79809">
        <ele>42</ele>
        <time>2018-03-23T13:40:34Z</time>
      </trkpt>
      <trkpt lat="46.67601" lon="-1.79826">
        <ele>42</ele>
        <time>2018-03-23T13:41:34Z</time>
      </trkpt>
      <trkpt lat="46.67599" lon="-1.79837">
        <ele>42</ele>
        <time>2018-03-23T13:42:34Z</time>
      </trkpt>
      <trkpt lat="46.67597" lon="-1.79849">
        <ele>42</ele>
        <time>2018-03-23T13:43:34Z</time>
      </trkpt>
      <trkpt lat="46.67594" lon="-1.79861">
        <ele>42</ele>
        <time>2018-03-23T13:44:34Z</time>
      </trkpt>
      <trkpt lat="46.67589" lon="-1.79878">
        <ele>42</ele>
        <time>2018-03-23T13:45:34Z</time>
      </trkpt>
      <trkpt lat="46.67583" lon="-1.79895">
        <ele>41</ele>
        <time>2018-03-23T13:46:34Z</time>
      </trkpt>
      <trkpt lat="46.67579" lon="-1.79906">
        <ele>41</ele>
        <time>2018-03-23T13:47:34Z</time>
      </trkpt>
      <trkpt lat="46.67575" lon="-1.79917">
        <ele>41</ele>
        <time>2018-03-23T13:48:34Z</time>
      </trkpt>
      <trkpt lat="46.67568" lon="-1.79939">
        <ele>40</ele>
        <time>2018-03-23T13:49:34Z</time>
      </trkpt>
      <trkpt lat="46.67561" lon="-1.79961">
        <ele>40</ele>
        <time>2018-03-23T13:50:34Z</time>
      </trkpt>
      <trkpt lat="46.6756" lon="-1.79973">
        <ele>39</ele>
        <time>2018-03-23T13:51:34Z</time>
      </trkpt>
      <trkpt lat="46.67558" lon="-1.79986">
        <ele>39</ele>
        <time>2018-03-23T13:52:34Z</time>
      </trkpt>
      <trkpt lat="46.67556" lon="-1.79998">
        <ele>39</ele>
        <time>2018-03-23T13:53:34Z</time>
      </trkpt>
      <trkpt lat="46.67553" lon="-1.80026">
        <ele>39</ele>
        <time>2018-03-23T13:54:34Z</time>
      </trkpt>
      <trkpt lat="46.67553" lon="-1.80032">
        <ele>39</ele>
        <time>2018-03-23T13:55:34Z</time>
      </trkpt>
      <trkpt lat="46.6755" lon="-1.80059">
        <ele>38</ele>
        <time>2018-03-23T13:56:34Z</time>
      </trkpt>
      <trkpt lat="46.67549" lon="-1.80084">
        <ele>38</ele>
        <time>2018-03-23T13:57:34Z</time>
      </trkpt>
      <trkpt lat="46.67548" lon="-1.80112">
        <ele>38</ele>
        <time>2018-03-23T13:58:34Z</time>
      </trkpt>
      <trkpt lat="46.67548" lon="-1.8014">
        <ele>37</ele>
        <time>2018-03-23T13:59:34Z</time>
      </trkpt>
      <trkpt lat="46.67549" lon="-1.80168">
        <ele>37</ele>
        <time>2018-03-23T14:00:34Z</time>
      </trkpt>
      <trkpt lat="46.67551" lon="-1.80193">
        <ele>36</ele>
        <time>2018-03-23T14:01:34Z</time>
      </trkpt>
      <trkpt lat="46.67555" lon="-1.80217">
        <ele>36</ele>
        <time>2018-03-23T14:02:34Z</time>
      </trkpt>
      <trkpt lat="46.67559" lon="-1.80243">
        <ele>36</ele>
        <time>2018-03-23T14:03:34Z</time>
      </trkpt>
      <trkpt lat="46.67564" lon="-1.80267">
        <ele>36</ele>
        <time>2018-03-23T14:04:34Z</time>
      </trkpt>
      <trkpt lat="46.67566" lon="-1.80289">
        <ele>36</ele>
        <time>2018-03-23T14:05:34Z</time>
      </trkpt>
      <trkpt lat="46.67569" lon="-1.8031">
        <ele>37</ele>
        <time>2018-03-23T14:06:34Z</time>
      </trkpt>
      <trkpt lat="46.67569" lon="-1.80328">
        <ele>37</ele>
        <time>2018-03-23T14:07:34Z</time>
      </trkpt>
      <trkpt lat="46.6757" lon="-1.80352">
        <ele>37</ele>
        <time>2018-03-23T14:08:34Z</time>
      </trkpt>
      <trkpt lat="46.6757" lon="-1.80378">
        <ele>37</ele>
        <time>2018-03-23T14:09:34Z</time>
      </trkpt>
      <trkpt lat="46.6757" lon="-1.80409">
        <ele>37</ele>
        <time>2018-03-23T14:10:34Z</time>
      </trkpt>
      <trkpt lat="46.67571" lon="-1.80439">
        <ele>37</ele>
        <time>2018-03-23T14:11:34Z</time>
      </trkpt>
      <trkpt lat="46.67571" lon="-1.80464">
        <ele>37</ele>
        <time>2018-03-23T14:12:34Z</time>
      </trkpt>
      <trkpt lat="46.67571" lon="-1.80495">
        <ele>37</ele>
        <time>2018-03-23T14:13:34Z</time>
      </trkpt>
      <trkpt lat="46.67572" lon="-1.80522">
        <ele>37</ele>
        <time>2018-03-23T14:14:34Z</time>
      </trkpt>
      <trkpt lat="46.67572" lon="-1.80542">
        <ele>37</ele>
        <time>2018-03-23T14:15:34Z</time>
      </trkpt>
      <trkpt lat="46.67571" lon="-1.80579">
        <ele>38</ele>
        <time>2018-03-23T14:16:34Z</time>
      </trkpt>
      <trkpt lat="46.67571" lon="-1.80611">
        <ele>38</ele>
        <time>2018-03-23T14:17:34Z</time>
      </trkpt>
      <trkpt lat="46.6757" lon="-1.80645">
        <ele>37</ele>
        <time>2018-03-23T14:18:34Z</time>
      </trkpt>
      <trkpt lat="46.67571" lon="-1.80684">
        <ele>37</ele>
        <time>2018-03-23T14:19:34Z</time>
      </trkpt>
      <trkpt lat="46.67572" lon="-1.80697">
        <ele>37</ele>
        <time>2018-03-23T14:20:34Z</time>
      </trkpt>
      <trkpt lat="46.67573" lon="-1.80715">
        <ele>36</ele>
        <time>2018-03-23T14:21:34Z</time>
      </trkpt>
      <trkpt lat="46.67573" lon="-1.80732">
        <ele>36</ele>
        <time>2018-03-23T14:22:34Z</time>
      </trkpt>
      <trkpt lat="46.67571" lon="-1.80759">
        <ele>36</ele>
        <time>2018-03-23T14:23:34Z</time>
      </trkpt>
      <trkpt lat="46.67569" lon="-1.80785">
        <ele>36</ele>
        <time>2018-03-23T14:24:34Z</time>
      </trkpt>
      <trkpt lat="46.67565" lon="-1.80813">
        <ele>36</ele>
        <time>2018-03-23T14:25:34Z</time>
      </trkpt>
      <trkpt lat="46.67562" lon="-1.80834">
        <ele>35</ele>
        <time>2018-03-23T14:26:34Z</time>
      </trkpt>
      <trkpt lat="46.67555" lon="-1.80865">
        <ele>35</ele>
        <time>2018-03-23T14:27:34Z</time>
      </trkpt>
      <trkpt lat="46.67545" lon="-1.80903">
        <ele>35</ele>
        <time>2018-03-23T14:28:34Z</time>
      </trkpt>
      <trkpt lat="46.67525" lon="-1.80989">
        <ele>33</ele>
        <time>2018-03-23T14:29:34Z</time>
      </trkpt>
      <trkpt lat="46.67521" lon="-1.81013">
        <ele>32</ele>
        <time>2018-03-23T14:30:34Z</time>
      </trkpt>
      <trkpt lat="46.67518" lon="-1.81026">
        <ele>32</ele>
        <time>2018-03-23T14:31:34Z</time>
      </trkpt>
      <trkpt lat="46.67514" lon="-1.81053">
        <ele>32</ele>
        <time>2018-03-23T14:32:34Z</time>
      </trkpt>
      <trkpt lat="46.67511" lon="-1.81078">
        <ele>31</ele>
        <time>2018-03-23T14:33:34Z</time>
      </trkpt>
      <trkpt lat="46.67508" lon="-1.81105">
        <ele>32</ele>
        <time>2018-03-23T14:34:34Z</time>
      </trkpt>
      <trkpt lat="46.67506" lon="-1.81131">
        <ele>33</ele>
        <time>2018-03-23T14:35:34Z</time>
      </trkpt>
      <trkpt lat="46.67506" lon="-1.81156">
        <ele>34</ele>
        <time>2018-03-23T14:36:34Z</time>
      </trkpt>
      <trkpt lat="46.67505" lon="-1.81181">
        <ele>34</ele>
        <time>2018-03-23T14:37:34Z</time>
      </trkpt>
      <trkpt lat="46.67505" lon="-1.81206">
        <ele>35</ele>
        <time>2018-03-23T14:38:34Z</time>
      </trkpt>
      <trkpt lat="46.67504" lon="-1.81229">
        <ele>36</ele>
        <time>2018-03-23T14:39:34Z</time>
      </trkpt>
      <trkpt lat="46.67504" lon="-1.81254">
        <ele>36</ele>
        <time>2018-03-23T14:40:34Z</time>
      </trkpt>
      <trkpt lat="46.67503" lon="-1.81276">
        <ele>36</ele>
        <time>2018-03-23T14:41:34Z</time>
      </trkpt>
      <trkpt lat="46.67501" lon="-1.81301">
        <ele>35</ele>
        <time>2018-03-23T14:42:34Z</time>
      </trkpt>
      <trkpt lat="46.67498" lon="-1.81323">
        <ele>35</ele>
        <time>2018-03-23T14:43:34Z</time>
      </trkpt>
      <trkpt lat="46.67493" lon="-1.81347">
        <ele>35</ele>
        <time>2018-03-23T14:44:34Z</time>
      </trkpt>
      <trkpt lat="46.67488" lon="-1.8137">
        <ele>35</ele>
        <time>2018-03-23T14:45:34Z</time>
      </trkpt>
      <trkpt lat="46.67481" lon="-1.81393">
        <ele>35</ele>
        <time>2018-03-23T14:46:34Z</time>
      </trkpt>
      <trkpt lat="46.67471" lon="-1.8142">
        <ele>35</ele>
        <time>2018-03-23T14:47:34Z</time>
      </trkpt>
      <trkpt lat="46.67465" lon="-1.81438">
        <ele>35</ele>
        <time>2018-03-23T14:48:34Z</time>
      </trkpt>
      <trkpt lat="46.67457" lon="-1.81468">
        <ele>35</ele>
        <time>2018-03-23T14:49:34Z</time>
      </trkpt>
      <trkpt lat="46.67449" lon="-1.81501">
        <ele>35</ele>
        <time>2018-03-23T14:50:34Z</time>
      </trkpt>
      <trkpt lat="46.67442" lon="-1.81528">
        <ele>34</ele>
        <time>2018-03-23T14:51:34Z</time>
      </trkpt>
      <trkpt lat="46.67432" lon="-1.81568">
        <ele>33</ele>
        <time>2018-03-23T14:52:34Z</time>
      </trkpt>
      <trkpt lat="46.67426" lon="-1.81595">
        <ele>32</ele>
        <time>2018-03-23T14:53:34Z</time>
      </trkpt>
      <trkpt lat="46.67422" lon="-1.81623">
        <ele>32</ele>
        <time>2018-03-23T14:54:34Z</time>
      </trkpt>
      <trkpt lat="46.67418" lon="-1.81652">
        <ele>32</ele>
        <time>2018-03-23T14:55:34Z</time>
      </trkpt>
      <trkpt lat="46.67416" lon="-1.81674">
        <ele>32</ele>
        <time>2018-03-23T14:56:34Z</time>
      </trkpt>
      <trkpt lat="46.67414" lon="-1.81695">
        <ele>32</ele>
        <time>2018-03-23T14:57:34Z</time>
      </trkpt>
      <trkpt lat="46.6741" lon="-1.8174">
        <ele>32</ele>
        <time>2018-03-23T14:58:34Z</time>
      </trkpt>
      <trkpt lat="46.67406" lon="-1.81783">
        <ele>32</ele>
        <time>2018-03-23T14:59:34Z</time>
      </trkpt>
      <trkpt lat="46.67402" lon="-1.81808">
        <ele>32</ele>
        <time>2018-03-23T15:00:34Z</time>
      </trkpt>
      <trkpt lat="46.67399" lon="-1.81824">
        <ele>32</ele>
        <time>2018-03-23T15:01:34Z</time>
      </trkpt>
      <trkpt lat="46.67395" lon="-1.81838">
        <ele>32</ele>
        <time>2018-03-23T15:02:34Z</time>
      </trkpt>
      <trkpt lat="46.67391" lon="-1.81851">
        <ele>32</ele>
        <time>2018-03-23T15:03:34Z</time>
      </trkpt>
      <trkpt lat="46.67386" lon="-1.81865">
        <ele>32</ele>
        <time>2018-03-23T15:04:34Z</time>
      </trkpt>
      <trkpt lat="46.67373" lon="-1.81897">
        <ele>32</ele>
        <time>2018-03-23T15:05:34Z</time>
      </trkpt>
      <trkpt lat="46.67364" lon="-1.81917">
        <ele>32</ele>
        <time>2018-03-23T15:06:34Z</time>
      </trkpt>
      <trkpt lat="46.67353" lon="-1.81943">
        <ele>33</ele>
        <time>2018-03-23T15:07:34Z</time>
      </trkpt>
      <trkpt lat="46.67347" lon="-1.8196">
        <ele>33</ele>
        <time>2018-03-23T15:08:34Z</time>
      </trkpt>
      <trkpt lat="46.67337" lon="-1.81992">
        <ele>33</ele>
        <time>2018-03-23T15:09:34Z</time>
      </trkpt>
      <trkpt lat="46.6733" lon="-1.82015">
        <ele>33</ele>
        <time>2018-03-23T15:10:34Z</time>
      </trkpt>
      <trkpt lat="46.67327" lon="-1.82026">
        <ele>33</ele>
        <time>2018-03-23T15:11:34Z</time>
      </trkpt>
      <trkpt lat="46.67317" lon="-1.82062">
        <ele>33</ele>
        <time>2018-03-23T15:12:34Z</time>
      </trkpt>
      <trkpt lat="46.6731" lon="-1.8209">
        <ele>32</ele>
        <time>2018-03-23T15:13:34Z</time>
      </trkpt>
      <trkpt lat="46.67305" lon="-1.82105">
        <ele>32</ele>
        <time>2018-03-23T15:14:34Z</time>
      </trkpt>
      <trkpt lat="46.6729" lon="-1.82148">
        <ele>32</ele>
        <time>2018-03-23T15:15:34Z</time>
      </trkpt>
      <trkpt lat="46.67285" lon="-1.82162">
        <ele>32</ele>
        <time>2018-03-23T15:16:34Z</time>
      </trkpt>
      <trkpt lat="46.6728" lon="-1.82178">
        <ele>32</ele>
        <time>2018-03-23T15:17:34Z</time>
      </trkpt>
      <trkpt lat="46.6727" lon="-1.82207">
        <ele>32</ele>
        <time>2018-03-23T15:18:34Z</time>
      </trkpt>
      <trkpt lat="46.67261" lon="-1.8223">
        <ele>32</ele>
        <time>2018-03-23T15:19:34Z</time>
      </trkpt>
      <trkpt lat="46.67251" lon="-1.82252">
        <ele>32</ele>
        <time>2018-03-23T15:20:34Z</time>
      </trkpt>
      <trkpt lat="46.67245" lon="-1.82267">
        <ele>32</ele>
        <time>2018-03-23T15:21:34Z</time>
      </trkpt>
      <trkpt lat="46.67235" lon="-1.82289">
        <ele>32</ele>
        <time>2018-03-23T15:22:34Z</time>
      </trkpt>
      <trkpt lat="46.67229" lon="-1.82304">
        <ele>32</ele>
        <time>2018-03-23T15:23:34Z</time>
      </trkpt>
      <trkpt lat="46.67223" lon="-1.82319">
        <ele>32</ele>
        <time>2018-03-23T15:24:34Z</time>
      </trkpt>
      <trkpt lat="46.67207" lon="-1.82355">
        <ele>32</ele>
        <time>2018-03-23T15:25:34Z</time>
      </trkpt>
      <trkpt lat="46.67192" lon="-1.8239">
        <ele>32</ele>
        <time>2018-03-23T15:26:34Z</time>
      </trkpt>
      <trkpt lat="46.67172" lon="-1.82433">
        <ele>31</ele>
        <time>2018-03-23T15:27:34Z</time>
      </trkpt>
      <trkpt lat="46.67158" lon="-1.82461">
        <ele>31</ele>
        <time>2018-03-23T15:28:34Z</time>
      </trkpt>
      <trkpt lat="46.67149" lon="-1.8248">
        <ele>31</ele>
        <time>2018-03-23T15:29:34Z</time>
      </trkpt>
      <trkpt lat="46.67143" lon="-1.82493">
        <ele>31</ele>
        <time>2018-03-23T15:30:34Z</time>
      </trkpt>
      <trkpt lat="46.67136" lon="-1.82506">
        <ele>31</ele>
        <time>2018-03-23T15:31:34Z</time>
      </trkpt>
      <trkpt lat="46.67128" lon="-1.82518">
        <ele>30</ele>
        <time>2018-03-23T15:32:34Z</time>
      </trkpt>
      <trkpt lat="46.67113" lon="-1.82541">
        <ele>29</ele>
        <time>2018-03-23T15:33:34Z</time>
      </trkpt>
      <trkpt lat="46.67106" lon="-1.82553">
        <ele>29</ele>
        <time>2018-03-23T15:34:34Z</time>
      </trkpt>
      <trkpt lat="46.67098" lon="-1.82565">
        <ele>28</ele>
        <time>2018-03-23T15:35:34Z</time>
      </trkpt>
      <trkpt lat="46.67092" lon="-1.82577">
        <ele>27</ele>
        <time>2018-03-23T15:36:34Z</time>
      </trkpt>
      <trkpt lat="46.67088" lon="-1.82583">
        <ele>27</ele>
        <time>2018-03-23T15:37:34Z</time>
      </trkpt>
      <trkpt lat="46.67086" lon="-1.82589">
        <ele>27</ele>
        <time>2018-03-23T15:38:34Z</time>
      </trkpt>
      <trkpt lat="46.67084" lon="-1.82595">
        <ele>26</ele>
        <time>2018-03-23T15:39:34Z</time>
      </trkpt>
      <trkpt lat="46.67082" lon="-1.82601">
        <ele>26</ele>
        <time>2018-03-23T15:40:34Z</time>
      </trkpt>
      <trkpt lat="46.6708" lon="-1.82607">
        <ele>26</ele>
        <time>2018-03-23T15:41:34Z</time>
      </trkpt>
      <trkpt lat="46.6708" lon="-1.82612">
        <ele>26</ele>
        <time>2018-03-23T15:42:34Z</time>
      </trkpt>
      <trkpt lat="46.67079" lon="-1.82617">
        <ele>25</ele>
        <time>2018-03-23T15:43:34Z</time>
      </trkpt>
      <trkpt lat="46.67078" lon="-1.82634">
        <ele>25</ele>
        <time>2018-03-23T15:44:34Z</time>
      </trkpt>
      <trkpt lat="46.67077" lon="-1.82641">
        <ele>24</ele>
        <time>2018-03-23T15:45:34Z</time>
      </trkpt>
      <trkpt lat="46.67078" lon="-1.8265">
        <ele>24</ele>
        <time>2018-03-23T15:46:34Z</time>
      </trkpt>
      <trkpt lat="46.67077" lon="-1.82664">
        <ele>23</ele>
        <time>2018-03-23T15:47:34Z</time>
      </trkpt>
      <trkpt lat="46.67077" lon="-1.82664">
        <ele>23</ele>
        <time>2018-03-23T15:48:34Z</time>
      </trkpt>
      <trkpt lat="46.67078" lon="-1.82665">
        <ele>23</ele>
        <time>2018-03-23T15:49:34Z</time>
      </trkpt>
      <trkpt lat="46.67079" lon="-1.82666">
        <ele>23</ele>
        <time>2018-03-23T15:50:34Z</time>
      </trkpt>
      <trkpt lat="46.67079" lon="-1.82667">
        <ele>23</ele>
        <time>2018-03-23T15:51:34Z</time>
      </trkpt>
      <trkpt lat="46.6708" lon="-1.82668">
        <ele>23</ele>
        <time>2018-03-23T15:52:34Z</time>
      </trkpt>
      <trkpt lat="46.6708" lon="-1.82669">
        <ele>23</ele>
        <time>2018-03-23T15:53:34Z</time>
      </trkpt>
      <trkpt lat="46.6708" lon="-1.8267">
        <ele>23</ele>
        <time>2018-03-23T15:54:34Z</time>
      </trkpt>
      <trkpt lat="46.67081" lon="-1.8267">
        <ele>23</ele>
        <time>2018-03-23T15:55:34Z</time>
      </trkpt>
      <trkpt lat="46.67081" lon="-1.82671">
        <ele>23</ele>
        <time>2018-03-23T15:56:34Z</time>
      </trkpt>
      <trkpt lat="46.67081" lon="-1.82672">
        <ele>23</ele>
        <time>2018-03-23T15:57:34Z</time>
      </trkpt>
      <trkpt lat="46.67081" lon="-1.82673">
        <ele>23</ele>
        <time>2018-03-23T15:58:34Z</time>
      </trkpt>
      <trkpt lat="46.67081" lon="-1.82674">
        <ele>23</ele>
        <time>2018-03-23T15:59:34Z</time>
      </trkpt>
      <trkpt lat="46.67082" lon="-1.82675">
        <ele>23</ele>
        <time>2018-03-23T16:00:34Z</time>
      </trkpt>
      <trkpt lat="46.67082" lon="-1.82676">
        <ele>23</ele>
        <time>2018-03-23T16:01:34Z</time>
      </trkpt>
      <trkpt lat="46.67082" lon="-1.82677">
        <ele>23</ele>
        <time>2018-03-23T16:02:34Z</time>
      </trkpt>
      <trkpt lat="46.67082" lon="-1.82678">
        <ele>23</ele>
        <time>2018-03-23T16:03:34Z</time>
      </trkpt>
      <trkpt lat="46.67082" lon="-1.82679">
        <ele>23</ele>
        <time>2018-03-23T16:04:34Z</time>
      </trkpt>
      <trkpt lat="46.67085" lon="-1.82681">
        <ele>22</ele>
        <time>2018-03-23T16:05:34Z</time>
      </trkpt>
      <trkpt lat="46.67087" lon="-1.82683">
        <ele>22</ele>
        <time>2018-03-23T16:06:34Z</time>
      </trkpt>
      <trkpt lat="46.67089" lon="-1.82686">
        <ele>22</ele>
        <time>2018-03-23T16:07:34Z</time>
      </trkpt>
      <trkpt lat="46.67092" lon="-1.82693">
        <ele>22</ele>
        <time>2018-03-23T16:08:34Z</time>
      </trkpt>
      <trkpt lat="46.671" lon="-1.82704">
        <ele>22</ele>
        <time>2018-03-23T16:09:34Z</time>
      </trkpt>
      <trkpt lat="46.67109" lon="-1.82715">
        <ele>21</ele>
        <time>2018-03-23T16:10:34Z</time>
      </trkpt>
      <trkpt lat="46.67113" lon="-1.82721">
        <ele>21</ele>
        <time>2018-03-23T16:11:34Z</time>
      </trkpt>
      <trkpt lat="46.67123" lon="-1.82736">
        <ele>21</ele>
        <time>2018-03-23T16:12:34Z</time>
      </trkpt>
      <trkpt lat="46.67125" lon="-1.82738">
        <ele>20</ele>
        <time>2018-03-23T16:13:34Z</time>
      </trkpt>
      <trkpt lat="46.67144" lon="-1.82764">
        <ele>20</ele>
        <time>2018-03-23T16:14:34Z</time>
      </trkpt>
      <trkpt lat="46.67149" lon="-1.82772">
        <ele>20</ele>
        <time>2018-03-23T16:15:34Z</time>
      </trkpt>
      <trkpt lat="46.67153" lon="-1.82777">
        <ele>20</ele>
        <time>2018-03-23T16:16:34Z</time>
      </trkpt>
      <trkpt lat="46.67163" lon="-1.82786">
        <ele>20</ele>
        <time>2018-03-23T16:17:34Z</time>
      </trkpt>
      <trkpt lat="46.67164" lon="-1.82789">
        <ele>20</ele>
        <time>2018-03-23T16:18:34Z</time>
      </trkpt>
      <trkpt lat="46.67169" lon="-1.82797">
        <ele>20</ele>
        <time>2018-03-23T16:19:34Z</time>
      </trkpt>
      <trkpt lat="46.6718" lon="-1.82811">
        <ele>20</ele>
        <time>2018-03-23T16:20:34Z</time>
      </trkpt>
      <trkpt lat="46.67189" lon="-1.82825">
        <ele>21</ele>
        <time>2018-03-23T16:21:34Z</time>
      </trkpt>
      <trkpt lat="46.67202" lon="-1.82842">
        <ele>21</ele>
        <time>2018-03-23T16:22:34Z</time>
      </trkpt>
      <trkpt lat="46.67205" lon="-1.82846">
        <ele>21</ele>
        <time>2018-03-23T16:23:34Z</time>
      </trkpt>
      <trkpt lat="46.67219" lon="-1.82865">
        <ele>22</ele>
        <time>2018-03-23T16:24:34Z</time>
      </trkpt>
      <trkpt lat="46.67224" lon="-1.82871">
        <ele>23</ele>
        <time>2018-03-23T16:25:34Z</time>
      </trkpt>
      <trkpt lat="46.67231" lon="-1.82882">
        <ele>23</ele>
        <time>2018-03-23T16:26:34Z</time>
      </trkpt>
      <trkpt lat="46.67233" lon="-1.82886">
        <ele>23</ele>
        <time>2018-03-23T16:27:34Z</time>
      </trkpt>
      <trkpt lat="46.6724" lon="-1.829">
        <ele>24</ele>
        <time>2018-03-23T16:28:34Z</time>
      </trkpt>
      <trkpt lat="46.67248" lon="-1.82911">
        <ele>25</ele>
        <time>2018-03-23T16:29:34Z</time>
      </trkpt>
      <trkpt lat="46.67253" lon="-1.82918">
        <ele>25</ele>
        <time>2018-03-23T16:30:34Z</time>
      </trkpt>
      <trkpt lat="46.67259" lon="-1.82927">
        <ele>25</ele>
        <time>2018-03-23T16:31:34Z</time>
      </trkpt>
      <trkpt lat="46.67265" lon="-1.82935">
        <ele>25</ele>
        <time>2018-03-23T16:32:34Z</time>
      </trkpt>
      <trkpt lat="46.6728" lon="-1.82956">
        <ele>26</ele>
        <time>2018-03-23T16:33:34Z</time>
      </trkpt>
      <trkpt lat="46.67307" lon="-1.82992">
        <ele>27</ele>
        <time>2018-03-23T16:34:34Z</time>
      </trkpt>
      <trkpt lat="46.67326" lon="-1.83019">
        <ele>27</ele>
        <time>2018-03-23T16:35:34Z</time>
      </trkpt>
      <trkpt lat="46.67345" lon="-1.83046">
        <ele>27</ele>
        <time>2018-03-23T16:36:34Z</time>
      </trkpt>
      <trkpt lat="46.67353" lon="-1.83058">
        <ele>27</ele>
        <time>2018-03-23T16:37:34Z</time>
      </trkpt>
      <trkpt lat="46.67381" lon="-1.83097">
        <ele>27</ele>
        <time>2018-03-23T16:38:34Z</time>
      </trkpt>
      <trkpt lat="46.67386" lon="-1.83104">
        <ele>27</ele>
        <time>2018-03-23T16:39:34Z</time>
      </trkpt>
      <trkpt lat="46.67409" lon="-1.83134">
        <ele>27</ele>
        <time>2018-03-23T16:40:34Z</time>
      </trkpt>
      <trkpt lat="46.67447" lon="-1.83186">
        <ele>27</ele>
        <time>2018-03-23T16:41:34Z</time>
      </trkpt>
      <trkpt lat="46.6745" lon="-1.83191">
        <ele>27</ele>
        <time>2018-03-23T16:42:34Z</time>
      </trkpt>
      <trkpt lat="46.67478" lon="-1.83232">
        <ele>26</ele>
        <time>2018-03-23T16:43:34Z</time>
      </trkpt>
      <trkpt lat="46.67478" lon="-1.83232">
        <ele>26</ele>
        <time>2018-03-23T16:44:34Z</time>
      </trkpt>
      <trkpt lat="46.67472" lon="-1.83243">
        <ele>26</ele>
        <time>2018-03-23T16:45:34Z</time>
      </trkpt>
      <trkpt lat="46.67463" lon="-1.83255">
        <ele>26</ele>
        <time>2018-03-23T16:46:34Z</time>
      </trkpt>
      <trkpt lat="46.67448" lon="-1.83276">
        <ele>26</ele>
        <time>2018-03-23T16:47:34Z</time>
      </trkpt>
      <trkpt lat="46.67432" lon="-1.83299">
        <ele>27</ele>
        <time>2018-03-23T16:48:34Z</time>
      </trkpt>
      <trkpt lat="46.67414" lon="-1.83326">
        <ele>27</ele>
        <time>2018-03-23T16:49:34Z</time>
      </trkpt>
      <trkpt lat="46.67399" lon="-1.8335">
        <ele>26</ele>
        <time>2018-03-23T16:50:34Z</time>
      </trkpt>
      <trkpt lat="46.67379" lon="-1.83379">
        <ele>25</ele>
        <time>2018-03-23T16:51:34Z</time>
      </trkpt>
      <trkpt lat="46.67367" lon="-1.83397">
        <ele>25</ele>
        <time>2018-03-23T16:52:34Z</time>
      </trkpt>
      <trkpt lat="46.67356" lon="-1.83413">
        <ele>24</ele>
        <time>2018-03-23T16:53:34Z</time>
      </trkpt>
      <trkpt lat="46.67348" lon="-1.83424">
        <ele>24</ele>
        <time>2018-03-23T16:54:34Z</time>
      </trkpt>
      <trkpt lat="46.6734" lon="-1.83434">
        <ele>24</ele>
        <time>2018-03-23T16:55:34Z</time>
      </trkpt>
      <trkpt lat="46.67331" lon="-1.83441">
        <ele>24</ele>
        <time>2018-03-23T16:56:34Z</time>
      </trkpt>
      <trkpt lat="46.6732" lon="-1.83446">
        <ele>23</ele>
        <time>2018-03-23T16:57:34Z</time>
      </trkpt>
      <trkpt lat="46.67309" lon="-1.83448">
        <ele>23</ele>
        <time>2018-03-23T16:58:34Z</time>
      </trkpt>
      <trkpt lat="46.67291" lon="-1.83452">
        <ele>23</ele>
        <time>2018-03-23T16:59:34Z</time>
      </trkpt>
      <trkpt lat="46.67267" lon="-1.83457">
        <ele>22</ele>
        <time>2018-03-23T17:00:34Z</time>
      </trkpt>
      <trkpt lat="46.67239" lon="-1.83464">
        <ele>22</ele>
        <time>2018-03-23T17:01:34Z</time>
      </trkpt>
      <trkpt lat="46.67221" lon="-1.83469">
        <ele>21</ele>
        <time>2018-03-23T17:02:34Z</time>
      </trkpt>
      <trkpt lat="46.67218" lon="-1.83469">
        <ele>21</ele>
        <time>2018-03-23T17:03:34Z</time>
      </trkpt>
      <trkpt lat="46.67216" lon="-1.8347">
        <ele>21</ele>
        <time>2018-03-23T17:04:34Z</time>
      </trkpt>
      <trkpt lat="46.67213" lon="-1.83472">
        <ele>21</ele>
        <time>2018-03-23T17:05:34Z</time>
      </trkpt>
      <trkpt lat="46.67207" lon="-1.83477">
        <ele>21</ele>
        <time>2018-03-23T17:06:34Z</time>
      </trkpt>
      <trkpt lat="46.67207" lon="-1.83477">
        <ele>21</ele>
        <time>2018-03-23T17:07:34Z</time>
      </trkpt>
      <trkpt lat="46.67214" lon="-1.83501">
        <ele>21</ele>
        <time>2018-03-23T17:08:34Z</time>
      </trkpt>
      <trkpt lat="46.67218" lon="-1.83519">
        <ele>20</ele>
        <time>2018-03-23T17:09:34Z</time>
      </trkpt>
      <trkpt lat="46.67223" lon="-1.8354">
        <ele>20</ele>
        <time>2018-03-23T17:10:34Z</time>
      </trkpt>
      <trkpt lat="46.67226" lon="-1.83557">
        <ele>20</ele>
        <time>2018-03-23T17:11:34Z</time>
      </trkpt>
      <trkpt lat="46.67229" lon="-1.83588">
        <ele>20</ele>
        <time>2018-03-23T17:12:34Z</time>
      </trkpt>
      <trkpt lat="46.67236" lon="-1.83657">
        <ele>21</ele>
        <time>2018-03-23T17:13:34Z</time>
      </trkpt>
      <trkpt lat="46.67241" lon="-1.83718">
        <ele>22</ele>
        <time>2018-03-23T17:14:34Z</time>
      </trkpt>
      <trkpt lat="46.67246" lon="-1.83765">
        <ele>23</ele>
        <time>2018-03-23T17:15:34Z</time>
      </trkpt>
      <trkpt lat="46.67251" lon="-1.83814">
        <ele>23</ele>
        <time>2018-03-23T17:16:34Z</time>
      </trkpt>
      <trkpt lat="46.67252" lon="-1.8382">
        <ele>23</ele>
        <time>2018-03-23T17:17:34Z</time>
      </trkpt>
      <trkpt lat="46.67252" lon="-1.83824">
        <ele>23</ele>
        <time>2018-03-23T17:18:34Z</time>
      </trkpt>
      <trkpt lat="46.67254" lon="-1.83845">
        <ele>23</ele>
        <time>2018-03-23T17:19:34Z</time>
      </trkpt>
      <trkpt lat="46.67256" lon="-1.83874">
        <ele>23</ele>
        <time>2018-03-23T17:20:34Z</time>
      </trkpt>
      <trkpt lat="46.67257" lon="-1.83897">
        <ele>23</ele>
        <time>2018-03-23T17:21:34Z</time>
      </trkpt>
      <trkpt lat="46.67257" lon="-1.83925">
        <ele>23</ele>
        <time>2018-03-23T17:22:34Z</time>
      </trkpt>
      <trkpt lat="46.67256" lon="-1.83985">
        <ele>22</ele>
        <time>2018-03-23T17:23:34Z</time>
      </trkpt>
      <trkpt lat="46.67254" lon="-1.84058">
        <ele>21</ele>
        <time>2018-03-23T17:24:34Z</time>
      </trkpt>
      <trkpt lat="46.67252" lon="-1.84121">
        <ele>20</ele>
        <time>2018-03-23T17:25:34Z</time>
      </trkpt>
      <trkpt lat="46.67251" lon="-1.84138">
        <ele>20</ele>
        <time>2018-03-23T17:26:34Z</time>
      </trkpt>
      <trkpt lat="46.6725" lon="-1.84185">
        <ele>20</ele>
        <time>2018-03-23T17:27:34Z</time>
      </trkpt>
      <trkpt lat="46.67248" lon="-1.84207">
        <ele>21</ele>
        <time>2018-03-23T17:28:34Z</time>
      </trkpt>
      <trkpt lat="46.67247" lon="-1.84225">
        <ele>21</ele>
        <time>2018-03-23T17:29:34Z</time>
      </trkpt>
      <trkpt lat="46.67245" lon="-1.84242">
        <ele>22</ele>
        <time>2018-03-23T17:30:34Z</time>
      </trkpt>
      <trkpt lat="46.67241" lon="-1.84276">
        <ele>22</ele>
        <time>2018-03-23T17:31:34Z</time>
      </trkpt>
      <trkpt lat="46.67237" lon="-1.84309">
        <ele>22</ele>
        <time>2018-03-23T17:32:34Z</time>
      </trkpt>
      <trkpt lat="46.6723" lon="-1.84361">
        <ele>21</ele>
        <time>2018-03-23T17:33:34Z</time>
      </trkpt>
      <trkpt lat="46.67226" lon="-1.84398">
        <ele>21</ele>
        <time>2018-03-23T17:34:34Z</time>
      </trkpt>
      <trkpt lat="46.67224" lon="-1.84411">
        <ele>21</ele>
        <time>2018-03-23T17:35:34Z</time>
      </trkpt>
      <trkpt lat="46.67219" lon="-1.84446">
        <ele>21</ele>
        <time>2018-03-23T17:36:34Z</time>
      </trkpt>
      <trkpt lat="46.67212" lon="-1.84497">
        <ele>21</ele>
        <time>2018-03-23T17:37:34Z</time>
      </trkpt>
      <trkpt lat="46.67205" lon="-1.84549">
        <ele>20</ele>
        <time>2018-03-23T17:38:34Z</time>
      </trkpt>
      <trkpt lat="46.67198" lon="-1.84599">
        <ele>20</ele>
        <time>2018-03-23T17:39:34Z</time>
      </trkpt>
      <trkpt lat="46.67191" lon="-1.84651">
        <ele>20</ele>
        <time>2018-03-23T17:40:34Z</time>
      </trkpt>
      <trkpt lat="46.67182" lon="-1.84714">
        <ele>20</ele>
        <time>2018-03-23T17:41:34Z</time>
      </trkpt>
      <trkpt lat="46.67175" lon="-1.84769">
        <ele>19</ele>
        <time>2018-03-23T17:42:34Z</time>
      </trkpt>
      <trkpt lat="46.67175" lon="-1.8478">
        <ele>19</ele>
        <time>2018-03-23T17:43:34Z</time>
      </trkpt>
      <trkpt lat="46.67171" lon="-1.84811">
        <ele>18</ele>
        <time>2018-03-23T17:44:34Z</time>
      </trkpt>
      <trkpt lat="46.67167" lon="-1.8484">
        <ele>18</ele>
        <time>2018-03-23T17:45:34Z</time>
      </trkpt>
      <trkpt lat="46.67165" lon="-1.84868">
        <ele>18</ele>
        <time>2018-03-23T17:46:34Z</time>
      </trkpt>
      <trkpt lat="46.67164" lon="-1.84883">
        <ele>18</ele>
        <time>2018-03-23T17:47:34Z</time>
      </trkpt>
      <trkpt lat="46.67164" lon="-1.84898">
        <ele>18</ele>
        <time>2018-03-23T17:48:34Z</time>
      </trkpt>
      <trkpt lat="46.67164" lon="-1.84926">
        <ele>18</ele>
        <time>2018-03-23T17:49:34Z</time>
      </trkpt>
      <trkpt lat="46.67165" lon="-1.84941">
        <ele>18</ele>
        <time>2018-03-23T17:50:34Z</time>
      </trkpt>
      <trkpt lat="46.67166" lon="-1.84956">
        <ele>18</ele>
        <time>2018-03-23T17:51:34Z</time>
      </trkpt>
      <trkpt lat="46.67168" lon="-1.84972">
        <ele>18</ele>
        <time>2018-03-23T17:52:34Z</time>
      </trkpt>
      <trkpt lat="46.67172" lon="-1.84999">
        <ele>18</ele>
        <time>2018-03-23T17:53:34Z</time>
      </trkpt>
      <trkpt lat="46.67175" lon="-1.85014">
        <ele>18</ele>
        <time>2018-03-23T17:54:34Z</time>
      </trkpt>
      <trkpt lat="46.67178" lon="-1.85027">
        <ele>19</ele>
        <time>2018-03-23T17:55:34Z</time>
      </trkpt>
      <trkpt lat="46.67185" lon="-1.85055">
        <ele>19</ele>
        <time>2018-03-23T17:56:34Z</time>
      </trkpt>
      <trkpt lat="46.6719" lon="-1.85073">
        <ele>19</ele>
        <time>2018-03-23T17:57:34Z</time>
      </trkpt>
      <trkpt lat="46.67201" lon="-1.85109">
        <ele>19</ele>
        <time>2018-03-23T17:58:34Z</time>
      </trkpt>
      <trkpt lat="46.67214" lon="-1.8515">
        <ele>19</ele>
        <time>2018-03-23T17:59:34Z</time>
      </trkpt>
      <trkpt lat="46.67224" lon="-1.85184">
        <ele>19</ele>
        <time>2018-03-23T18:00:34Z</time>
      </trkpt>
      <trkpt lat="46.67239" lon="-1.85237">
        <ele>19</ele>
        <time>2018-03-23T18:01:34Z</time>
      </trkpt>
      <trkpt lat="46.67248" lon="-1.85268">
        <ele>19</ele>
        <time>2018-03-23T18:02:34Z</time>
      </trkpt>
      <trkpt lat="46.67255" lon="-1.85296">
        <ele>19</ele>
        <time>2018-03-23T18:03:34Z</time>
      </trkpt>
      <trkpt lat="46.6726" lon="-1.85321">
        <ele>20</ele>
        <time>2018-03-23T18:04:34Z</time>
      </trkpt>
      <trkpt lat="46.67263" lon="-1.85339">
        <ele>20</ele>
        <time>2018-03-23T18:05:34Z</time>
      </trkpt>
      <trkpt lat="46.67266" lon="-1.85362">
        <ele>19</ele>
        <time>2018-03-23T18:06:34Z</time>
      </trkpt>
      <trkpt lat="46.67269" lon="-1.85388">
        <ele>19</ele>
        <time>2018-03-23T18:07:34Z</time>
      </trkpt>
      <trkpt lat="46.67271" lon="-1.85421">
        <ele>18</ele>
        <time>2018-03-23T18:08:34Z</time>
      </trkpt>
      <trkpt lat="46.67275" lon="-1.8548">
        <ele>18</ele>
        <time>2018-03-23T18:09:34Z</time>
      </trkpt>
      <trkpt lat="46.67279" lon="-1.85526">
        <ele>17</ele>
        <time>2018-03-23T18:10:34Z</time>
      </trkpt>
      <trkpt lat="46.67281" lon="-1.85556">
        <ele>17</ele>
        <time>2018-03-23T18:11:34Z</time>
      </trkpt>
      <trkpt lat="46.67285" lon="-1.85601">
        <ele>16</ele>
        <time>2018-03-23T18:12:34Z</time>
      </trkpt>
      <trkpt lat="46.67288" lon="-1.85647">
        <ele>15</ele>
        <time>2018-03-23T18:13:34Z</time>
      </trkpt>
      <trkpt lat="46.67291" lon="-1.85677">
        <ele>15</ele>
        <time>2018-03-23T18:14:34Z</time>
      </trkpt>
      <trkpt lat="46.67295" lon="-1.85721">
        <ele>15</ele>
        <time>2018-03-23T18:15:34Z</time>
      </trkpt>
      <trkpt lat="46.67299" lon="-1.85767">
        <ele>16</ele>
        <time>2018-03-23T18:16:34Z</time>
      </trkpt>
      <trkpt lat="46.67302" lon="-1.8581">
        <ele>16</ele>
        <time>2018-03-23T18:17:34Z</time>
      </trkpt>
      <trkpt lat="46.67304" lon="-1.8584">
        <ele>16</ele>
        <time>2018-03-23T18:18:34Z</time>
      </trkpt>
      <trkpt lat="46.67305" lon="-1.85869">
        <ele>16</ele>
        <time>2018-03-23T18:19:34Z</time>
      </trkpt>
      <trkpt lat="46.67306" lon="-1.859">
        <ele>15</ele>
        <time>2018-03-23T18:20:34Z</time>
      </trkpt>
      <trkpt lat="46.67306" lon="-1.8593">
        <ele>15</ele>
        <time>2018-03-23T18:21:34Z</time>
      </trkpt>
      <trkpt lat="46.67306" lon="-1.85959">
        <ele>15</ele>
        <time>2018-03-23T18:22:34Z</time>
      </trkpt>
      <trkpt lat="46.67305" lon="-1.85977">
        <ele>15</ele>
        <time>2018-03-23T18:23:34Z</time>
      </trkpt>
      <trkpt lat="46.67301" lon="-1.86022">
        <ele>14</ele>
        <time>2018-03-23T18:24:34Z</time>
      </trkpt>
      <trkpt lat="46.673" lon="-1.86038">
        <ele>13</ele>
        <time>2018-03-23T18:25:34Z</time>
      </trkpt>
      <trkpt lat="46.67298" lon="-1.86053">
        <ele>13</ele>
        <time>2018-03-23T18:26:34Z</time>
      </trkpt>
      <trkpt lat="46.67296" lon="-1.86068">
        <ele>13</ele>
        <time>2018-03-23T18:27:34Z</time>
      </trkpt>
      <trkpt lat="46.67295" lon="-1.86076">
        <ele>13</ele>
        <time>2018-03-23T18:28:34Z</time>
      </trkpt>
      <trkpt lat="46.67292" lon="-1.86098">
        <ele>12</ele>
        <time>2018-03-23T18:29:34Z</time>
      </trkpt>
      <trkpt lat="46.67288" lon="-1.8612">
        <ele>12</ele>
        <time>2018-03-23T18:30:34Z</time>
      </trkpt>
      <trkpt lat="46.67283" lon="-1.86141">
        <ele>12</ele>
        <time>2018-03-23T18:31:34Z</time>
      </trkpt>
      <trkpt lat="46.67277" lon="-1.86165">
        <ele>12</ele>
        <time>2018-03-23T18:32:34Z</time>
      </trkpt>
      <trkpt lat="46.67276" lon="-1.86168">
        <ele>12</ele>
        <time>2018-03-23T18:33:34Z</time>
      </trkpt>
      <trkpt lat="46.6727" lon="-1.86185">
        <ele>12</ele>
        <time>2018-03-23T18:34:34Z</time>
      </trkpt>
      <trkpt lat="46.67262" lon="-1.86208">
        <ele>11</ele>
        <time>2018-03-23T18:35:34Z</time>
      </trkpt>
      <trkpt lat="46.67255" lon="-1.86227">
        <ele>11</ele>
        <time>2018-03-23T18:36:34Z</time>
      </trkpt>
      <trkpt lat="46.67252" lon="-1.86237">
        <ele>11</ele>
        <time>2018-03-23T18:37:34Z</time>
      </trkpt>
      <trkpt lat="46.6725" lon="-1.86243">
        <ele>10</ele>
        <time>2018-03-23T18:38:34Z</time>
      </trkpt>
      <trkpt lat="46.67248" lon="-1.86257">
        <ele>10</ele>
        <time>2018-03-23T18:39:34Z</time>
      </trkpt>
      <trkpt lat="46.67246" lon="-1.86272">
        <ele>10</ele>
        <time>2018-03-23T18:40:34Z</time>
      </trkpt>
      <trkpt lat="46.67245" lon="-1.863">
        <ele>10</ele>
        <time>2018-03-23T18:41:34Z</time>
      </trkpt>
      <trkpt lat="46.67243" lon="-1.86336">
        <ele>10</ele>
        <time>2018-03-23T18:42:34Z</time>
      </trkpt>
      <trkpt lat="46.67241" lon="-1.8637">
        <ele>10</ele>
        <time>2018-03-23T18:43:34Z</time>
      </trkpt>
      <trkpt lat="46.67237" lon="-1.86399">
        <ele>10</ele>
        <time>2018-03-23T18:44:34Z</time>
      </trkpt>
      <trkpt lat="46.67235" lon="-1.86411">
        <ele>10</ele>
        <time>2018-03-23T18:45:34Z</time>
      </trkpt>
      <trkpt lat="46.67234" lon="-1.86421">
        <ele>10</ele>
        <time>2018-03-23T18:46:34Z</time>
      </trkpt>
      <trkpt lat="46.67229" lon="-1.86444">
        <ele>10</ele>
        <time>2018-03-23T18:47:34Z</time>
      </trkpt>
      <trkpt lat="46.67223" lon="-1.86467">
        <ele>10</ele>
        <time>2018-03-23T18:48:34Z</time>
      </trkpt>
      <trkpt lat="46.67214" lon="-1.86498">
        <ele>9</ele>
        <time>2018-03-23T18:49:34Z</time>
      </trkpt>
      <trkpt lat="46.67206" lon="-1.86523">
        <ele>9</ele>
        <time>2018-03-23T18:50:34Z</time>
      </trkpt>
      <trkpt lat="46.67202" lon="-1.86536">
        <ele>9</ele>
        <time>2018-03-23T18:51:34Z</time>
      </trkpt>
      <trkpt lat="46.67196" lon="-1.86553">
        <ele>8</ele>
        <time>2018-03-23T18:52:34Z</time>
      </trkpt>
      <trkpt lat="46.67196" lon="-1.86555">
        <ele>8</ele>
        <time>2018-03-23T18:53:34Z</time>
      </trkpt>
      <trkpt lat="46.6719" lon="-1.86574">
        <ele>8</ele>
        <time>2018-03-23T18:54:34Z</time>
      </trkpt>
      <trkpt lat="46.67183" lon="-1.86598">
        <ele>8</ele>
        <time>2018-03-23T18:55:34Z</time>
      </trkpt>
      <trkpt lat="46.67179" lon="-1.8661">
        <ele>8</ele>
        <time>2018-03-23T18:56:34Z</time>
      </trkpt>
      <trkpt lat="46.67176" lon="-1.86622">
        <ele>8</ele>
        <time>2018-03-23T18:57:34Z</time>
      </trkpt>
      <trkpt lat="46.67174" lon="-1.86635">
        <ele>8</ele>
        <time>2018-03-23T18:58:34Z</time>
      </trkpt>
      <trkpt lat="46.67172" lon="-1.86647">
        <ele>8</ele>
        <time>2018-03-23T18:59:34Z</time>
      </trkpt>
      <trkpt lat="46.67171" lon="-1.86648">
        <ele>8</ele>
        <time>2018-03-23T19:00:34Z</time>
      </trkpt>
      <trkpt lat="46.6717" lon="-1.86659">
        <ele>8</ele>
        <time>2018-03-23T19:01:34Z</time>
      </trkpt>
      <trkpt lat="46.67168" lon="-1.86671">
        <ele>8</ele>
        <time>2018-03-23T19:02:34Z</time>
      </trkpt>
      <trkpt lat="46.67168" lon="-1.86673">
        <ele>8</ele>
        <time>2018-03-23T19:03:34Z</time>
      </trkpt>
      <trkpt lat="46.67167" lon="-1.86684">
        <ele>7</ele>
        <time>2018-03-23T19:04:34Z</time>
      </trkpt>
      <trkpt lat="46.67166" lon="-1.86696">
        <ele>7</ele>
        <time>2018-03-23T19:05:34Z</time>
      </trkpt>
      <trkpt lat="46.67166" lon="-1.86704">
        <ele>7</ele>
        <time>2018-03-23T19:06:34Z</time>
      </trkpt>
      <trkpt lat="46.67166" lon="-1.86708">
        <ele>7</ele>
        <time>2018-03-23T19:07:34Z</time>
      </trkpt>
      <trkpt lat="46.67166" lon="-1.86732">
        <ele>6</ele>
        <time>2018-03-23T19:08:34Z</time>
      </trkpt>
      <trkpt lat="46.67166" lon="-1.86747">
        <ele>5</ele>
        <time>2018-03-23T19:09:34Z</time>
      </trkpt>
      <trkpt lat="46.67166" lon="-1.8675">
        <ele>5</ele>
        <time>2018-03-23T19:10:34Z</time>
      </trkpt>
      <trkpt lat="46.67167" lon="-1.86759">
        <ele>5</ele>
        <time>2018-03-23T19:11:34Z</time>
      </trkpt>
      <trkpt lat="46.67169" lon="-1.86772">
        <ele>5</ele>
        <time>2018-03-23T19:12:34Z</time>
      </trkpt>
      <trkpt lat="46.6717" lon="-1.86785">
        <ele>4</ele>
        <time>2018-03-23T19:13:34Z</time>
      </trkpt>
      <trkpt lat="46.67173" lon="-1.86797">
        <ele>4</ele>
        <time>2018-03-23T19:14:34Z</time>
      </trkpt>
      <trkpt lat="46.67177" lon="-1.86808">
        <ele>4</ele>
        <time>2018-03-23T19:15:34Z</time>
      </trkpt>
      <trkpt lat="46.67179" lon="-1.86815">
        <ele>4</ele>
        <time>2018-03-23T19:16:34Z</time>
      </trkpt>
      <trkpt lat="46.6718" lon="-1.86819">
        <ele>4</ele>
        <time>2018-03-23T19:17:34Z</time>
      </trkpt>
      <trkpt lat="46.67189" lon="-1.86841">
        <ele>3</ele>
        <time>2018-03-23T19:18:34Z</time>
      </trkpt>
      <trkpt lat="46.67202" lon="-1.86862">
        <ele>3</ele>
        <time>2018-03-23T19:19:34Z</time>
      </trkpt>
      <trkpt lat="46.67205" lon="-1.86869">
        <ele>3</ele>
        <time>2018-03-23T19:20:34Z</time>
      </trkpt>
      <trkpt lat="46.67209" lon="-1.86876">
        <ele>3</ele>
        <time>2018-03-23T19:21:34Z</time>
      </trkpt>
      <trkpt lat="46.67213" lon="-1.86883">
        <ele>3</ele>
        <time>2018-03-23T19:22:34Z</time>
      </trkpt>
      <trkpt lat="46.67228" lon="-1.8691">
        <ele>4</ele>
        <time>2018-03-23T19:23:34Z</time>
      </trkpt>
      <trkpt lat="46.67246" lon="-1.86946">
        <ele>5</ele>
        <time>2018-03-23T19:24:34Z</time>
      </trkpt>
      <trkpt lat="46.67251" lon="-1.86955">
        <ele>5</ele>
        <time>2018-03-23T19:25:34Z</time>
      </trkpt>
      <trkpt lat="46.67256" lon="-1.86965">
        <ele>5</ele>
        <time>2018-03-23T19:26:34Z</time>
      </trkpt>
      <trkpt lat="46.6726" lon="-1.86974">
        <ele>6</ele>
        <time>2018-03-23T19:27:34Z</time>
      </trkpt>
      <trkpt lat="46.67263" lon="-1.86983">
        <ele>6</ele>
        <time>2018-03-23T19:28:34Z</time>
      </trkpt>
      <trkpt lat="46.67267" lon="-1.86994">
        <ele>7</ele>
        <time>2018-03-23T19:29:34Z</time>
      </trkpt>
      <trkpt lat="46.67269" lon="-1.87004">
        <ele>7</ele>
        <time>2018-03-23T19:30:34Z</time>
      </trkpt>
      <trkpt lat="46.67271" lon="-1.87013">
        <ele>8</ele>
        <time>2018-03-23T19:31:34Z</time>
      </trkpt>
      <trkpt lat="46.67273" lon="-1.87028">
        <ele>8</ele>
        <time>2018-03-23T19:32:34Z</time>
      </trkpt>
      <trkpt lat="46.67273" lon="-1.87048">
        <ele>9</ele>
        <time>2018-03-23T19:33:34Z</time>
      </trkpt>
      <trkpt lat="46.67272" lon="-1.8707">
        <ele>9</ele>
        <time>2018-03-23T19:34:34Z</time>
      </trkpt>
      <trkpt lat="46.67272" lon="-1.87082">
        <ele>9</ele>
        <time>2018-03-23T19:35:34Z</time>
      </trkpt>
      <trkpt lat="46.67269" lon="-1.8713">
        <ele>9</ele>
        <time>2018-03-23T19:36:34Z</time>
      </trkpt>
      <trkpt lat="46.67267" lon="-1.87155">
        <ele>8</ele>
        <time>2018-03-23T19:37:34Z</time>
      </trkpt>
      <trkpt lat="46.67265" lon="-1.8718">
        <ele>8</ele>
        <time>2018-03-23T19:38:34Z</time>
      </trkpt>
      <trkpt lat="46.67264" lon="-1.87205">
        <ele>9</ele>
        <time>2018-03-23T19:39:34Z</time>
      </trkpt>
      <trkpt lat="46.67263" lon="-1.87218">
        <ele>9</ele>
        <time>2018-03-23T19:40:34Z</time>
      </trkpt>
      <trkpt lat="46.67261" lon="-1.87244">
        <ele>9</ele>
        <time>2018-03-23T19:41:34Z</time>
      </trkpt>
      <trkpt lat="46.6726" lon="-1.87256">
        <ele>10</ele>
        <time>2018-03-23T19:42:34Z</time>
      </trkpt>
      <trkpt lat="46.67256" lon="-1.87307">
        <ele>11</ele>
        <time>2018-03-23T19:43:34Z</time>
      </trkpt>
      <trkpt lat="46.67254" lon="-1.87333">
        <ele>11</ele>
        <time>2018-03-23T19:44:34Z</time>
      </trkpt>
      <trkpt lat="46.67251" lon="-1.87373">
        <ele>12</ele>
        <time>2018-03-23T19:45:34Z</time>
      </trkpt>
      <trkpt lat="46.6725" lon="-1.87377">
        <ele>12</ele>
        <time>2018-03-23T19:46:34Z</time>
      </trkpt>
      <trkpt lat="46.67247" lon="-1.87407">
        <ele>12</ele>
        <time>2018-03-23T19:47:34Z</time>
      </trkpt>
      <trkpt lat="46.67247" lon="-1.87411">
        <ele>12</ele>
        <time>2018-03-23T19:48:34Z</time>
      </trkpt>
      <trkpt lat="46.67243" lon="-1.87445">
        <ele>12</ele>
        <time>2018-03-23T19:49:34Z</time>
      </trkpt>
      <trkpt lat="46.67236" lon="-1.87498">
        <ele>12</ele>
        <time>2018-03-23T19:50:34Z</time>
      </trkpt>
      <trkpt lat="46.67232" lon="-1.87531">
        <ele>12</ele>
        <time>2018-03-23T19:51:34Z</time>
      </trkpt>
      <trkpt lat="46.6723" lon="-1.8755">
        <ele>12</ele>
        <time>2018-03-23T19:52:34Z</time>
      </trkpt>
      <trkpt lat="46.67226" lon="-1.8758">
        <ele>12</ele>
        <time>2018-03-23T19:53:34Z</time>
      </trkpt>
      <trkpt lat="46.67225" lon="-1.87591">
        <ele>12</ele>
        <time>2018-03-23T19:54:34Z</time>
      </trkpt>
      <trkpt lat="46.67224" lon="-1.87603">
        <ele>12</ele>
        <time>2018-03-23T19:55:34Z</time>
      </trkpt>
      <trkpt lat="46.67221" lon="-1.87616">
        <ele>11</ele>
        <time>2018-03-23T19:56:34Z</time>
      </trkpt>
      <trkpt lat="46.67219" lon="-1.87634">
        <ele>11</ele>
        <time>2018-03-23T19:57:34Z</time>
      </trkpt>
      <trkpt lat="46.67218" lon="-1.87652">
        <ele>11</ele>
        <time>2018-03-23T19:58:34Z</time>
      </trkpt>
      <trkpt lat="46.67217" lon="-1.87673">
        <ele>11</ele>
        <time>2018-03-23T19:59:34Z</time>
      </trkpt>
      <trkpt lat="46.67215" lon="-1.87698">
        <ele>11</ele>
        <time>2018-03-23T20:00:34Z</time>
      </trkpt>
      <trkpt lat="46.67214" lon="-1.87723">
        <ele>10</ele>
        <time>2018-03-23T20:01:34Z</time>
      </trkpt>
      <trkpt lat="46.67213" lon="-1.87744">
        <ele>10</ele>
        <time>2018-03-23T20:02:34Z</time>
      </trkpt>
      <trkpt lat="46.67212" lon="-1.87767">
        <ele>10</ele>
        <time>2018-03-23T20:03:34Z</time>
      </trkpt>
      <trkpt lat="46.67212" lon="-1.87783">
        <ele>10</ele>
        <time>2018-03-23T20:04:34Z</time>
      </trkpt>
      <trkpt lat="46.67212" lon="-1.878">
        <ele>10</ele>
        <time>2018-03-23T20:05:34Z</time>
      </trkpt>
      <trkpt lat="46.67213" lon="-1.87822">
        <ele>10</ele>
        <time>2018-03-23T20:06:34Z</time>
      </trkpt>
      <trkpt lat="46.67213" lon="-1.87839">
        <ele>10</ele>
        <time>2018-03-23T20:07:34Z</time>
      </trkpt>
      <trkpt lat="46.67213" lon="-1.87857">
        <ele>10</ele>
        <time>2018-03-23T20:08:34Z</time>
      </trkpt>
      <trkpt lat="46.67213" lon="-1.87872">
        <ele>10</ele>
        <time>2018-03-23T20:09:34Z</time>
      </trkpt>
      <trkpt lat="46.67213" lon="-1.87887">
        <ele>10</ele>
        <time>2018-03-23T20:10:34Z</time>
      </trkpt>
      <trkpt lat="46.67211" lon="-1.87909">
        <ele>10</ele>
        <time>2018-03-23T20:11:34Z</time>
      </trkpt>
      <trkpt lat="46.67208" lon="-1.87929">
        <ele>10</ele>
        <time>2018-03-23T20:12:34Z</time>
      </trkpt>
      <trkpt lat="46.67205" lon="-1.87955">
        <ele>10</ele>
        <time>2018-03-23T20:13:34Z</time>
      </trkpt>
      <trkpt lat="46.67202" lon="-1.87978">
        <ele>10</ele>
        <time>2018-03-23T20:14:34Z</time>
      </trkpt>
      <trkpt lat="46.67198" lon="-1.88006">
        <ele>10</ele>
        <time>2018-03-23T20:15:34Z</time>
      </trkpt>
      <trkpt lat="46.67193" lon="-1.88041">
        <ele>9</ele>
        <time>2018-03-23T20:16:34Z</time>
      </trkpt>
      <trkpt lat="46.67187" lon="-1.88081">
        <ele>9</ele>
        <time>2018-03-23T20:17:34Z</time>
      </trkpt>
      <trkpt lat="46.67183" lon="-1.88109">
        <ele>8</ele>
        <time>2018-03-23T20:18:34Z</time>
      </trkpt>
      <trkpt lat="46.67178" lon="-1.88145">
        <ele>8</ele>
        <time>2018-03-23T20:19:34Z</time>
      </trkpt>
      <trkpt lat="46.67174" lon="-1.8817">
        <ele>7</ele>
        <time>2018-03-23T20:20:34Z</time>
      </trkpt>
      <trkpt lat="46.67173" lon="-1.88176">
        <ele>7</ele>
        <time>2018-03-23T20:21:34Z</time>
      </trkpt>
      <trkpt lat="46.67172" lon="-1.88182">
        <ele>7</ele>
        <time>2018-03-23T20:22:34Z</time>
      </trkpt>
      <trkpt lat="46.67168" lon="-1.88195">
        <ele>7</ele>
        <time>2018-03-23T20:23:34Z</time>
      </trkpt>
      <trkpt lat="46.67169" lon="-1.88196">
        <ele>7</ele>
        <time>2018-03-23T20:24:34Z</time>
      </trkpt>
      <trkpt lat="46.6717" lon="-1.88196">
        <ele>7</ele>
        <time>2018-03-23T20:25:34Z</time>
      </trkpt>
      <trkpt lat="46.6717" lon="-1.88197">
        <ele>7</ele>
        <time>2018-03-23T20:26:34Z</time>
      </trkpt>
      <trkpt lat="46.67171" lon="-1.88197">
        <ele>7</ele>
        <time>2018-03-23T20:27:34Z</time>
      </trkpt>
      <trkpt lat="46.67172" lon="-1.88198">
        <ele>8</ele>
        <time>2018-03-23T20:28:34Z</time>
      </trkpt>
      <trkpt lat="46.67172" lon="-1.88199">
        <ele>8</ele>
        <time>2018-03-23T20:29:34Z</time>
      </trkpt>
      <trkpt lat="46.67173" lon="-1.88199">
        <ele>8</ele>
        <time>2018-03-23T20:30:34Z</time>
      </trkpt>
      <trkpt lat="46.67173" lon="-1.882">
        <ele>8</ele>
        <time>2018-03-23T20:31:34Z</time>
      </trkpt>
      <trkpt lat="46.67173" lon="-1.88201">
        <ele>8</ele>
        <time>2018-03-23T20:32:34Z</time>
      </trkpt>
      <trkpt lat="46.67174" lon="-1.88202">
        <ele>8</ele>
        <time>2018-03-23T20:33:34Z</time>
      </trkpt>
      <trkpt lat="46.67174" lon="-1.88203">
        <ele>8</ele>
        <time>2018-03-23T20:34:34Z</time>
      </trkpt>
      <trkpt lat="46.67174" lon="-1.88204">
        <ele>8</ele>
        <time>2018-03-23T20:35:34Z</time>
      </trkpt>
      <trkpt lat="46.67174" lon="-1.88205">
        <ele>8</ele>
        <time>2018-03-23T20:36:34Z</time>
      </trkpt>
      <trkpt lat="46.67175" lon="-1.88205">
        <ele>8</ele>
        <time>2018-03-23T20:37:34Z</time>
      </trkpt>
      <trkpt lat="46.67175" lon="-1.88206">
        <ele>8</ele>
        <time>2018-03-23T20:38:34Z</time>
      </trkpt>
      <trkpt lat="46.67175" lon="-1.88207">
        <ele>8</ele>
        <time>2018-03-23T20:39:34Z</time>
      </trkpt>
      <trkpt lat="46.67175" lon="-1.88208">
        <ele>8</ele>
        <time>2018-03-23T20:40:34Z</time>
      </trkpt>
      <trkpt lat="46.67175" lon="-1.88209">
        <ele>8</ele>
        <time>2018-03-23T20:41:34Z</time>
      </trkpt>
      <trkpt lat="46.67175" lon="-1.8821">
        <ele>8</ele>
        <time>2018-03-23T20:42:34Z</time>
      </trkpt>
      <trkpt lat="46.67175" lon="-1.88211">
        <ele>8</ele>
        <time>2018-03-23T20:43:34Z</time>
      </trkpt>
      <trkpt lat="46.67174" lon="-1.88212">
        <ele>8</ele>
        <time>2018-03-23T20:44:34Z</time>
      </trkpt>
      <trkpt lat="46.67174" lon="-1.88213">
        <ele>8</ele>
        <time>2018-03-23T20:45:34Z</time>
      </trkpt>
      <trkpt lat="46.67174" lon="-1.88214">
        <ele>8</ele>
        <time>2018-03-23T20:46:34Z</time>
      </trkpt>
      <trkpt lat="46.67174" lon="-1.88215">
        <ele>8</ele>
        <time>2018-03-23T20:47:34Z</time>
      </trkpt>
      <trkpt lat="46.67173" lon="-1.88215">
        <ele>8</ele>
        <time>2018-03-23T20:48:34Z</time>
      </trkpt>
      <trkpt lat="46.67173" lon="-1.88216">
        <ele>8</ele>
        <time>2018-03-23T20:49:34Z</time>
      </trkpt>
      <trkpt lat="46.67173" lon="-1.88217">
        <ele>8</ele>
        <time>2018-03-23T20:50:34Z</time>
      </trkpt>
      <trkpt lat="46.67172" lon="-1.88217">
        <ele>8</ele>
        <time>2018-03-23T20:51:34Z</time>
      </trkpt>
      <trkpt lat="46.67172" lon="-1.88218">
        <ele>8</ele>
        <time>2018-03-23T20:52:34Z</time>
      </trkpt>
      <trkpt lat="46.67171" lon="-1.88219">
        <ele>8</ele>
        <time>2018-03-23T20:53:34Z</time>
      </trkpt>
      <trkpt lat="46.6717" lon="-1.8822">
        <ele>8</ele>
        <time>2018-03-23T20:54:34Z</time>
      </trkpt>
      <trkpt lat="46.67169" lon="-1.8822">
        <ele>8</ele>
        <time>2018-03-23T20:55:34Z</time>
      </trkpt>
      <trkpt lat="46.67169" lon="-1.88221">
        <ele>8</ele>
        <time>2018-03-23T20:56:34Z</time>
      </trkpt>
      <trkpt lat="46.67168" lon="-1.88221">
        <ele>8</ele>
        <time>2018-03-23T20:57:34Z</time>
      </trkpt>
      <trkpt lat="46.67167" lon="-1.88221">
        <ele>8</ele>
        <time>2018-03-23T20:58:34Z</time>
      </trkpt>
      <trkpt lat="46.67166" lon="-1.88222">
        <ele>8</ele>
        <time>2018-03-23T20:59:34Z</time>
      </trkpt>
      <trkpt lat="46.67165" lon="-1.88222">
        <ele>8</ele>
        <time>2018-03-23T21:00:34Z</time>
      </trkpt>
      <trkpt lat="46.67165" lon="-1.88221">
        <ele>8</ele>
        <time>2018-03-23T21:01:34Z</time>
      </trkpt>
      <trkpt lat="46.67164" lon="-1.88221">
        <ele>8</ele>
        <time>2018-03-23T21:02:34Z</time>
      </trkpt>
      <trkpt lat="46.67163" lon="-1.88221">
        <ele>8</ele>
        <time>2018-03-23T21:03:34Z</time>
      </trkpt>
      <trkpt lat="46.67162" lon="-1.88221">
        <ele>8</ele>
        <time>2018-03-23T21:04:34Z</time>
      </trkpt>
      <trkpt lat="46.67162" lon="-1.8822">
        <ele>8</ele>
        <time>2018-03-23T21:05:34Z</time>
      </trkpt>
      <trkpt lat="46.67159" lon="-1.88229">
        <ele>8</ele>
        <time>2018-03-23T21:06:34Z</time>
      </trkpt>
      <trkpt lat="46.67159" lon="-1.8823">
        <ele>8</ele>
        <time>2018-03-23T21:07:34Z</time>
      </trkpt>
      <trkpt lat="46.67158" lon="-1.88235">
        <ele>8</ele>
        <time>2018-03-23T21:08:34Z</time>
      </trkpt>
      <trkpt lat="46.67156" lon="-1.88241">
        <ele>8</ele>
        <time>2018-03-23T21:09:34Z</time>
      </trkpt>
      <trkpt lat="46.67155" lon="-1.88246">
        <ele>8</ele>
        <time>2018-03-23T21:10:34Z</time>
      </trkpt>
      <trkpt lat="46.67152" lon="-1.88256">
        <ele>8</ele>
        <time>2018-03-23T21:11:34Z</time>
      </trkpt>
      <trkpt lat="46.67149" lon="-1.88266">
        <ele>8</ele>
        <time>2018-03-23T21:12:34Z</time>
      </trkpt>
      <trkpt lat="46.67148" lon="-1.8827">
        <ele>8</ele>
        <time>2018-03-23T21:13:34Z</time>
      </trkpt>
      <trkpt lat="46.67146" lon="-1.88277">
        <ele>8</ele>
        <time>2018-03-23T21:14:34Z</time>
      </trkpt>
      <trkpt lat="46.67143" lon="-1.88289">
        <ele>9</ele>
        <time>2018-03-23T21:15:34Z</time>
      </trkpt>
      <trkpt lat="46.67142" lon="-1.88295">
        <ele>9</ele>
        <time>2018-03-23T21:16:34Z</time>
      </trkpt>
      <trkpt lat="46.67141" lon="-1.88301">
        <ele>9</ele>
        <time>2018-03-23T21:17:34Z</time>
      </trkpt>
      <trkpt lat="46.67141" lon="-1.88306">
        <ele>9</ele>
        <time>2018-03-23T21:18:34Z</time>
      </trkpt>
      <trkpt lat="46.6714" lon="-1.88317">
        <ele>9</ele>
        <time>2018-03-23T21:19:34Z</time>
      </trkpt>
      <trkpt lat="46.67139" lon="-1.88324">
        <ele>9</ele>
        <time>2018-03-23T21:20:34Z</time>
      </trkpt>
      <trkpt lat="46.67139" lon="-1.8833">
        <ele>9</ele>
        <time>2018-03-23T21:21:34Z</time>
      </trkpt>
      <trkpt lat="46.67139" lon="-1.88336">
        <ele>9</ele>
        <time>2018-03-23T21:22:34Z</time>
      </trkpt>
      <trkpt lat="46.67139" lon="-1.88342">
        <ele>9</ele>
        <time>2018-03-23T21:23:34Z</time>
      </trkpt>
      <trkpt lat="46.67139" lon="-1.88356">
        <ele>9</ele>
        <time>2018-03-23T21:24:34Z</time>
      </trkpt>
      <trkpt lat="46.67139" lon="-1.88365">
        <ele>9</ele>
        <time>2018-03-23T21:25:34Z</time>
      </trkpt>
      <trkpt lat="46.67138" lon="-1.88369">
        <ele>9</ele>
        <time>2018-03-23T21:26:34Z</time>
      </trkpt>
      <trkpt lat="46.67138" lon="-1.88377">
        <ele>10</ele>
        <time>2018-03-23T21:27:34Z</time>
      </trkpt>
      <trkpt lat="46.67136" lon="-1.88388">
        <ele>10</ele>
        <time>2018-03-23T21:28:34Z</time>
      </trkpt>
      <trkpt lat="46.67135" lon="-1.88398">
        <ele>10</ele>
        <time>2018-03-23T21:29:34Z</time>
      </trkpt>
      <trkpt lat="46.67133" lon="-1.88408">
        <ele>10</ele>
        <time>2018-03-23T21:30:34Z</time>
      </trkpt>
      <trkpt lat="46.67128" lon="-1.88428">
        <ele>10</ele>
        <time>2018-03-23T21:31:34Z</time>
      </trkpt>
      <trkpt lat="46.6712" lon="-1.88468">
        <ele>11</ele>
        <time>2018-03-23T21:32:34Z</time>
      </trkpt>
      <trkpt lat="46.67113" lon="-1.88499">
        <ele>11</ele>
        <time>2018-03-23T21:33:34Z</time>
      </trkpt>
      <trkpt lat="46.67108" lon="-1.8852">
        <ele>12</ele>
        <time>2018-03-23T21:34:34Z</time>
      </trkpt>
      <trkpt lat="46.67103" lon="-1.88538">
        <ele>12</ele>
        <time>2018-03-23T21:35:34Z</time>
      </trkpt>
      <trkpt lat="46.67092" lon="-1.88586">
        <ele>12</ele>
        <time>2018-03-23T21:36:34Z</time>
      </trkpt>
      <trkpt lat="46.67091" lon="-1.8859">
        <ele>12</ele>
        <time>2018-03-23T21:37:34Z</time>
      </trkpt>
      <trkpt lat="46.67081" lon="-1.88634">
        <ele>12</ele>
        <time>2018-03-23T21:38:34Z</time>
      </trkpt>
      <trkpt lat="46.6708" lon="-1.88641">
        <ele>12</ele>
        <time>2018-03-23T21:39:34Z</time>
      </trkpt>
      <trkpt lat="46.67063" lon="-1.88716">
        <ele>11</ele>
        <time>2018-03-23T21:40:34Z</time>
      </trkpt>
      <trkpt lat="46.67061" lon="-1.88725">
        <ele>11</ele>
        <time>2018-03-23T21:41:34Z</time>
      </trkpt>
      <trkpt lat="46.67064" lon="-1.88728">
        <ele>11</ele>
        <time>2018-03-23T21:42:34Z</time>
      </trkpt>
      <trkpt lat="46.67065" lon="-1.88731">
        <ele>11</ele>
        <time>2018-03-23T21:43:34Z</time>
      </trkpt>
      <trkpt lat="46.67065" lon="-1.88734">
        <ele>11</ele>
        <time>2018-03-23T21:44:34Z</time>
      </trkpt>
      <trkpt lat="46.67065" lon="-1.88737">
        <ele>11</ele>
        <time>2018-03-23T21:45:34Z</time>
      </trkpt>
      <trkpt lat="46.67065" lon="-1.8874">
        <ele>11</ele>
        <time>2018-03-23T21:46:34Z</time>
      </trkpt>
      <trkpt lat="46.67065" lon="-1.88742">
        <ele>11</ele>
        <time>2018-03-23T21:47:34Z</time>
      </trkpt>
      <trkpt lat="46.67064" lon="-1.88743">
        <ele>11</ele>
        <time>2018-03-23T21:48:34Z</time>
      </trkpt>
      <trkpt lat="46.67062" lon="-1.88746">
        <ele>11</ele>
        <time>2018-03-23T21:49:34Z</time>
      </trkpt>
      <trkpt lat="46.6706" lon="-1.88747">
        <ele>11</ele>
        <time>2018-03-23T21:50:34Z</time>
      </trkpt>
      <trkpt lat="46.67058" lon="-1.88748">
        <ele>11</ele>
        <time>2018-03-23T21:51:34Z</time>
      </trkpt>
      <trkpt lat="46.67056" lon="-1.88749">
        <ele>11</ele>
        <time>2018-03-23T21:52:34Z</time>
      </trkpt>
      <trkpt lat="46.67051" lon="-1.88769">
        <ele>11</ele>
        <time>2018-03-23T21:53:34Z</time>
      </trkpt>
      <trkpt lat="46.67047" lon="-1.88789">
        <ele>10</ele>
        <time>2018-03-23T21:54:34Z</time>
      </trkpt>
      <trkpt lat="46.67041" lon="-1.88816">
        <ele>10</ele>
        <time>2018-03-23T21:55:34Z</time>
      </trkpt>
      <trkpt lat="46.67039" lon="-1.88825">
        <ele>10</ele>
        <time>2018-03-23T21:56:34Z</time>
      </trkpt>
      <trkpt lat="46.67033" lon="-1.88851">
        <ele>10</ele>
        <time>2018-03-23T21:57:34Z</time>
      </trkpt>
      <trkpt lat="46.67029" lon="-1.88866">
        <ele>9</ele>
        <time>2018-03-23T21:58:34Z</time>
      </trkpt>
      <trkpt lat="46.67023" lon="-1.88898">
        <ele>8</ele>
        <time>2018-03-23T21:59:34Z</time>
      </trkpt>
      <trkpt lat="46.67016" lon="-1.88929">
        <ele>8</ele>
        <time>2018-03-23T22:00:34Z</time>
      </trkpt>
      <trkpt lat="46.67013" lon="-1.88939">
        <ele>8</ele>
        <time>2018-03-23T22:01:34Z</time>
      </trkpt>
      <trkpt lat="46.6701" lon="-1.88956">
        <ele>7</ele>
        <time>2018-03-23T22:02:34Z</time>
      </trkpt>
      <trkpt lat="46.67008" lon="-1.88964">
        <ele>7</ele>
        <time>2018-03-23T22:03:34Z</time>
      </trkpt>
      <trkpt lat="46.67003" lon="-1.88989">
        <ele>7</ele>
        <time>2018-03-23T22:04:34Z</time>
      </trkpt>
      <trkpt lat="46.67001" lon="-1.88998">
        <ele>7</ele>
        <time>2018-03-23T22:05:34Z</time>
      </trkpt>
      <trkpt lat="46.66998" lon="-1.8901">
        <ele>7</ele>
        <time>2018-03-23T22:06:34Z</time>
      </trkpt>
      <trkpt lat="46.66995" lon="-1.89024">
        <ele>8</ele>
        <time>2018-03-23T22:07:34Z</time>
      </trkpt>
      <trkpt lat="46.66993" lon="-1.89033">
        <ele>8</ele>
        <time>2018-03-23T22:08:34Z</time>
      </trkpt>
      <trkpt lat="46.66991" lon="-1.89041">
        <ele>8</ele>
        <time>2018-03-23T22:09:34Z</time>
      </trkpt>
      <trkpt lat="46.6699" lon="-1.89048">
        <ele>8</ele>
        <time>2018-03-23T22:10:34Z</time>
      </trkpt>
      <trkpt lat="46.66988" lon="-1.89056">
        <ele>8</ele>
        <time>2018-03-23T22:11:34Z</time>
      </trkpt>
      <trkpt lat="46.66985" lon="-1.89069">
        <ele>9</ele>
        <time>2018-03-23T22:12:34Z</time>
      </trkpt>
      <trkpt lat="46.66982" lon="-1.89082">
        <ele>9</ele>
        <time>2018-03-23T22:13:34Z</time>
      </trkpt>
      <trkpt lat="46.66969" lon="-1.89126">
        <ele>10</ele>
        <time>2018-03-23T22:14:34Z</time>
      </trkpt>
      <trkpt lat="46.66961" lon="-1.89149">
        <ele>10</ele>
        <time>2018-03-23T22:15:34Z</time>
      </trkpt>
      <trkpt lat="46.66954" lon="-1.89171">
        <ele>10</ele>
        <time>2018-03-23T22:16:34Z</time>
      </trkpt>
      <trkpt lat="46.66945" lon="-1.89198">
        <ele>10</ele>
        <time>2018-03-23T22:17:34Z</time>
      </trkpt>
      <trkpt lat="46.66941" lon="-1.89208">
        <ele>10</ele>
        <time>2018-03-23T22:18:34Z</time>
      </trkpt>
      <trkpt lat="46.66929" lon="-1.89245">
        <ele>11</ele>
        <time>2018-03-23T22:19:34Z</time>
      </trkpt>
      <trkpt lat="46.66926" lon="-1.89253">
        <ele>11</ele>
        <time>2018-03-23T22:20:34Z</time>
      </trkpt>
      <trkpt lat="46.66922" lon="-1.89264">
        <ele>11</ele>
        <time>2018-03-23T22:21:34Z</time>
      </trkpt>
      <trkpt lat="46.66925" lon="-1.89268">
        <ele>11</ele>
        <time>2018-03-23T22:22:34Z</time>
      </trkpt>
      <trkpt lat="46.66926" lon="-1.89272">
        <ele>11</ele>
        <time>2018-03-23T22:23:34Z</time>
      </trkpt>
      <trkpt lat="46.66926" lon="-1.89277">
        <ele>11</ele>
        <time>2018-03-23T22:24:34Z</time>
      </trkpt>
      <trkpt lat="46.66926" lon="-1.8928">
        <ele>11</ele>
        <time>2018-03-23T22:25:34Z</time>
      </trkpt>
      <trkpt lat="46.66924" lon="-1.89284">
        <ele>11</ele>
        <time>2018-03-23T22:26:34Z</time>
      </trkpt>
      <trkpt lat="46.66921" lon="-1.89287">
        <ele>11</ele>
        <time>2018-03-23T22:27:34Z</time>
      </trkpt>
      <trkpt lat="46.66919" lon="-1.89288">
        <ele>11</ele>
        <time>2018-03-23T22:28:34Z</time>
      </trkpt>
      <trkpt lat="46.66917" lon="-1.89288">
        <ele>11</ele>
        <time>2018-03-23T22:29:34Z</time>
      </trkpt>
      <trkpt lat="46.66914" lon="-1.89286">
        <ele>11</ele>
        <time>2018-03-23T22:30:34Z</time>
      </trkpt>
      <trkpt lat="46.66909" lon="-1.89305">
        <ele>11</ele>
        <time>2018-03-23T22:31:34Z</time>
      </trkpt>
      <trkpt lat="46.66906" lon="-1.89314">
        <ele>11</ele>
        <time>2018-03-23T22:32:34Z</time>
      </trkpt>
      <trkpt lat="46.66901" lon="-1.89329">
        <ele>11</ele>
        <time>2018-03-23T22:33:34Z</time>
      </trkpt>
      <trkpt lat="46.66899" lon="-1.89335">
        <ele>11</ele>
        <time>2018-03-23T22:34:34Z</time>
      </trkpt>
      <trkpt lat="46.66896" lon="-1.89347">
        <ele>11</ele>
        <time>2018-03-23T22:35:34Z</time>
      </trkpt>
      <trkpt lat="46.66892" lon="-1.89362">
        <ele>12</ele>
        <time>2018-03-23T22:36:34Z</time>
      </trkpt>
      <trkpt lat="46.66889" lon="-1.89376">
        <ele>12</ele>
        <time>2018-03-23T22:37:34Z</time>
      </trkpt>
      <trkpt lat="46.66887" lon="-1.89385">
        <ele>12</ele>
        <time>2018-03-23T22:38:34Z</time>
      </trkpt>
      <trkpt lat="46.66885" lon="-1.89403">
        <ele>12</ele>
        <time>2018-03-23T22:39:34Z</time>
      </trkpt>
      <trkpt lat="46.66884" lon="-1.89421">
        <ele>12</ele>
        <time>2018-03-23T22:40:34Z</time>
      </trkpt>
      <trkpt lat="46.66884" lon="-1.89439">
        <ele>12</ele>
        <time>2018-03-23T22:41:34Z</time>
      </trkpt>
      <trkpt lat="46.66884" lon="-1.89451">
        <ele>12</ele>
        <time>2018-03-23T22:42:34Z</time>
      </trkpt>
      <trkpt lat="46.66885" lon="-1.8946">
        <ele>12</ele>
        <time>2018-03-23T22:43:34Z</time>
      </trkpt>
      <trkpt lat="46.66885" lon="-1.89467">
        <ele>12</ele>
        <time>2018-03-23T22:44:34Z</time>
      </trkpt>
      <trkpt lat="46.66886" lon="-1.89475">
        <ele>12</ele>
        <time>2018-03-23T22:45:34Z</time>
      </trkpt>
      <trkpt lat="46.66886" lon="-1.89484">
        <ele>12</ele>
        <time>2018-03-23T22:46:34Z</time>
      </trkpt>
      <trkpt lat="46.66887" lon="-1.89492">
        <ele>12</ele>
        <time>2018-03-23T22:47:34Z</time>
      </trkpt>
      <trkpt lat="46.66888" lon="-1.89499">
        <ele>12</ele>
        <time>2018-03-23T22:48:34Z</time>
      </trkpt>
      <trkpt lat="46.6689" lon="-1.89515">
        <ele>12</ele>
        <time>2018-03-23T22:49:34Z</time>
      </trkpt>
      <trkpt lat="46.66891" lon="-1.89517">
        <ele>12</ele>
        <time>2018-03-23T22:50:34Z</time>
      </trkpt>
      <trkpt lat="46.66894" lon="-1.89545">
        <ele>12</ele>
        <time>2018-03-23T22:51:34Z</time>
      </trkpt>
      <trkpt lat="46.66896" lon="-1.89555">
        <ele>12</ele>
        <time>2018-03-23T22:52:34Z</time>
      </trkpt>
      <trkpt lat="46.66897" lon="-1.89564">
        <ele>13</ele>
        <time>2018-03-23T22:53:34Z</time>
      </trkpt>
      <trkpt lat="46.66898" lon="-1.89575">
        <ele>13</ele>
        <time>2018-03-23T22:54:34Z</time>
      </trkpt>
      <trkpt lat="46.66904" lon="-1.89615">
        <ele>12</ele>
        <time>2018-03-23T22:55:34Z</time>
      </trkpt>
      <trkpt lat="46.66911" lon="-1.89664">
        <ele>12</ele>
        <time>2018-03-23T22:56:34Z</time>
      </trkpt>
      <trkpt lat="46.66911" lon="-1.89666">
        <ele>12</ele>
        <time>2018-03-23T22:57:34Z</time>
      </trkpt>
      <trkpt lat="46.66915" lon="-1.89697">
        <ele>12</ele>
        <time>2018-03-23T22:58:34Z</time>
      </trkpt>
      <trkpt lat="46.66917" lon="-1.89712">
        <ele>11</ele>
        <time>2018-03-23T22:59:34Z</time>
      </trkpt>
      <trkpt lat="46.6692" lon="-1.89738">
        <ele>11</ele>
        <time>2018-03-23T23:00:34Z</time>
      </trkpt>
      <trkpt lat="46.66922" lon="-1.89752">
        <ele>11</ele>
        <time>2018-03-23T23:01:34Z</time>
      </trkpt>
      <trkpt lat="46.66925" lon="-1.89768">
        <ele>11</ele>
        <time>2018-03-23T23:02:34Z</time>
      </trkpt>
      <trkpt lat="46.66928" lon="-1.89795">
        <ele>11</ele>
        <time>2018-03-23T23:03:34Z</time>
      </trkpt>
      <trkpt lat="46.66928" lon="-1.89797">
        <ele>11</ele>
        <time>2018-03-23T23:04:34Z</time>
      </trkpt>
      <trkpt lat="46.66931" lon="-1.8982">
        <ele>11</ele>
        <time>2018-03-23T23:05:34Z</time>
      </trkpt>
      <trkpt lat="46.66932" lon="-1.89826">
        <ele>11</ele>
        <time>2018-03-23T23:06:34Z</time>
      </trkpt>
      <trkpt lat="46.66938" lon="-1.89867">
        <ele>11</ele>
        <time>2018-03-23T23:07:34Z</time>
      </trkpt>
      <trkpt lat="46.6694" lon="-1.89885">
        <ele>11</ele>
        <time>2018-03-23T23:08:34Z</time>
      </trkpt>
      <trkpt lat="46.66944" lon="-1.89914">
        <ele>11</ele>
        <time>2018-03-23T23:09:34Z</time>
      </trkpt>
      <trkpt lat="46.66949" lon="-1.89948">
        <ele>11</ele>
        <time>2018-03-23T23:10:34Z</time>
      </trkpt>
      <trkpt lat="46.66951" lon="-1.8996">
        <ele>10</ele>
        <time>2018-03-23T23:11:34Z</time>
      </trkpt>
      <trkpt lat="46.66955" lon="-1.89998">
        <ele>10</ele>
        <time>2018-03-23T23:12:34Z</time>
      </trkpt>
      <trkpt lat="46.6696" lon="-1.90028">
        <ele>10</ele>
        <time>2018-03-23T23:13:34Z</time>
      </trkpt>
      <trkpt lat="46.66963" lon="-1.90055">
        <ele>10</ele>
        <time>2018-03-23T23:14:34Z</time>
      </trkpt>
      <trkpt lat="46.66964" lon="-1.9006">
        <ele>10</ele>
        <time>2018-03-23T23:15:34Z</time>
      </trkpt>
      <trkpt lat="46.66968" lon="-1.90096">
        <ele>9</ele>
        <time>2018-03-23T23:16:34Z</time>
      </trkpt>
      <trkpt lat="46.66972" lon="-1.9013">
        <ele>9</ele>
        <time>2018-03-23T23:17:34Z</time>
      </trkpt>
      <trkpt lat="46.66977" lon="-1.90166">
        <ele>8</ele>
        <time>2018-03-23T23:18:34Z</time>
      </trkpt>
      <trkpt lat="46.66981" lon="-1.90197">
        <ele>8</ele>
        <time>2018-03-23T23:19:34Z</time>
      </trkpt>
      <trkpt lat="46.66985" lon="-1.90224">
        <ele>7</ele>
        <time>2018-03-23T23:20:34Z</time>
      </trkpt>
      <trkpt lat="46.6699" lon="-1.90259">
        <ele>7</ele>
        <time>2018-03-23T23:21:34Z</time>
      </trkpt>
      <trkpt lat="46.66991" lon="-1.9027">
        <ele>7</ele>
        <time>2018-03-23T23:22:34Z</time>
      </trkpt>
      <trkpt lat="46.66993" lon="-1.90283">
        <ele>6</ele>
        <time>2018-03-23T23:23:34Z</time>
      </trkpt>
      <trkpt lat="46.66994" lon="-1.90299">
        <ele>6</ele>
        <time>2018-03-23T23:24:34Z</time>
      </trkpt>
      <trkpt lat="46.66995" lon="-1.90311">
        <ele>6</ele>
        <time>2018-03-23T23:25:34Z</time>
      </trkpt>
      <trkpt lat="46.66995" lon="-1.90311">
        <ele>6</ele>
        <time>2018-03-23T23:26:34Z</time>
      </trkpt>
      <trkpt lat="46.66996" lon="-1.90311">
        <ele>6</ele>
        <time>2018-03-23T23:27:34Z</time>
      </trkpt>
      <trkpt lat="46.66996" lon="-1.90312">
        <ele>6</ele>
        <time>2018-03-23T23:28:34Z</time>
      </trkpt>
      <trkpt lat="46.66997" lon="-1.90313">
        <ele>6</ele>
        <time>2018-03-23T23:29:34Z</time>
      </trkpt>
      <trkpt lat="46.66997" lon="-1.90314">
        <ele>6</ele>
        <time>2018-03-23T23:30:34Z</time>
      </trkpt>
      <trkpt lat="46.66998" lon="-1.90315">
        <ele>6</ele>
        <time>2018-03-23T23:31:34Z</time>
      </trkpt>
      <trkpt lat="46.66998" lon="-1.90316">
        <ele>6</ele>
        <time>2018-03-23T23:32:34Z</time>
      </trkpt>
      <trkpt lat="46.66999" lon="-1.90317">
        <ele>6</ele>
        <time>2018-03-23T23:33:34Z</time>
      </trkpt>
      <trkpt lat="46.66999" lon="-1.90318">
        <ele>6</ele>
        <time>2018-03-23T23:34:34Z</time>
      </trkpt>
      <trkpt lat="46.67" lon="-1.90319">
        <ele>6</ele>
        <time>2018-03-23T23:35:34Z</time>
      </trkpt>
      <trkpt lat="46.67001" lon="-1.90321">
        <ele>6</ele>
        <time>2018-03-23T23:36:34Z</time>
      </trkpt>
      <trkpt lat="46.67001" lon="-1.90322">
        <ele>6</ele>
        <time>2018-03-23T23:37:34Z</time>
      </trkpt>
      <trkpt lat="46.67001" lon="-1.90324">
        <ele>6</ele>
        <time>2018-03-23T23:38:34Z</time>
      </trkpt>
      <trkpt lat="46.67002" lon="-1.90326">
        <ele>6</ele>
        <time>2018-03-23T23:39:34Z</time>
      </trkpt>
      <trkpt lat="46.67002" lon="-1.90328">
        <ele>6</ele>
        <time>2018-03-23T23:40:34Z</time>
      </trkpt>
      <trkpt lat="46.67002" lon="-1.9033">
        <ele>6</ele>
        <time>2018-03-23T23:41:34Z</time>
      </trkpt>
      <trkpt lat="46.67002" lon="-1.90332">
        <ele>6</ele>
        <time>2018-03-23T23:42:34Z</time>
      </trkpt>
      <trkpt lat="46.67002" lon="-1.90333">
        <ele>6</ele>
        <time>2018-03-23T23:43:34Z</time>
      </trkpt>
      <trkpt lat="46.67002" lon="-1.90335">
        <ele>6</ele>
        <time>2018-03-23T23:44:34Z</time>
      </trkpt>
      <trkpt lat="46.67001" lon="-1.90337">
        <ele>6</ele>
        <time>2018-03-23T23:45:34Z</time>
      </trkpt>
      <trkpt lat="46.67001" lon="-1.90339">
        <ele>6</ele>
        <time>2018-03-23T23:46:34Z</time>
      </trkpt>
      <trkpt lat="46.67001" lon="-1.9034">
        <ele>6</ele>
        <time>2018-03-23T23:47:34Z</time>
      </trkpt>
      <trkpt lat="46.67001" lon="-1.90341">
        <ele>6</ele>
        <time>2018-03-23T23:48:34Z</time>
      </trkpt>
      <trkpt lat="46.67" lon="-1.90342">
        <ele>6</ele>
        <time>2018-03-23T23:49:34Z</time>
      </trkpt>
      <trkpt lat="46.67" lon="-1.90343">
        <ele>6</ele>
        <time>2018-03-23T23:50:34Z</time>
      </trkpt>
      <trkpt lat="46.67" lon="-1.90344">
        <ele>6</ele>
        <time>2018-03-23T23:51:34Z</time>
      </trkpt>
      <trkpt lat="46.67" lon="-1.90345">
        <ele>6</ele>
        <time>2018-03-23T23:52:34Z</time>
      </trkpt>
      <trkpt lat="46.67" lon="-1.90351">
        <ele>6</ele>
        <time>2018-03-23T23:53:34Z</time>
      </trkpt>
      <trkpt lat="46.67001" lon="-1.90365">
        <ele>6</ele>
        <time>2018-03-23T23:54:34Z</time>
      </trkpt>
      <trkpt lat="46.67001" lon="-1.90368">
        <ele>6</ele>
        <time>2018-03-23T23:55:34Z</time>
      </trkpt>
      <trkpt lat="46.67002" lon="-1.9037">
        <ele>6</ele>
        <time>2018-03-23T23:56:34Z</time>
      </trkpt>
      <trkpt lat="46.67002" lon="-1.90373">
        <ele>6</ele>
        <time>2018-03-23T23:57:34Z</time>
      </trkpt>
      <trkpt lat="46.67003" lon="-1.90375">
        <ele>6</ele>
        <time>2018-03-23T23:58:34Z</time>
      </trkpt>
      <trkpt lat="46.67004" lon="-1.90378">
        <ele>6</ele>
        <time>2018-03-23T23:59:34Z</time>
      </trkpt>
      <trkpt lat="46.67006" lon="-1.9038">
        <ele>6</ele>
        <time>2018-03-24T00:00:34Z</time>
      </trkpt>
      <trkpt lat="46.67007" lon="-1.90383">
        <ele>5</ele>
        <time>2018-03-24T00:01:34Z</time>
      </trkpt>
      <trkpt lat="46.67009" lon="-1.90386">
        <ele>5</ele>
        <time>2018-03-24T00:02:34Z</time>
      </trkpt>
      <trkpt lat="46.67012" lon="-1.9039">
        <ele>5</ele>
        <time>2018-03-24T00:03:34Z</time>
      </trkpt>
      <trkpt lat="46.67021" lon="-1.90401">
        <ele>5</ele>
        <time>2018-03-24T00:04:34Z</time>
      </trkpt>
      <trkpt lat="46.67034" lon="-1.90417">
        <ele>5</ele>
        <time>2018-03-24T00:05:34Z</time>
      </trkpt>
      <trkpt lat="46.67059" lon="-1.90451">
        <ele>5</ele>
        <time>2018-03-24T00:06:34Z</time>
      </trkpt>
      <trkpt lat="46.671" lon="-1.90508">
        <ele>5</ele>
        <time>2018-03-24T00:07:34Z</time>
      </trkpt>
      <trkpt lat="46.67105" lon="-1.90518">
        <ele>5</ele>
        <time>2018-03-24T00:08:34Z</time>
      </trkpt>
      <trkpt lat="46.67166" lon="-1.90604">
        <ele>5</ele>
        <time>2018-03-24T00:09:34Z</time>
      </trkpt>
      <trkpt lat="46.67205" lon="-1.90658">
        <ele>4</ele>
        <time>2018-03-24T00:10:34Z</time>
      </trkpt>
      <trkpt lat="46.67226" lon="-1.90688">
        <ele>4</ele>
        <time>2018-03-24T00:11:34Z</time>
      </trkpt>
      <trkpt lat="46.67255" lon="-1.90729">
        <ele>3</ele>
        <time>2018-03-24T00:12:34Z</time>
      </trkpt>
      <trkpt lat="46.67282" lon="-1.90767">
        <ele>3</ele>
        <time>2018-03-24T00:13:34Z</time>
      </trkpt>
      <trkpt lat="46.67301" lon="-1.90794">
        <ele>2</ele>
        <time>2018-03-24T00:14:34Z</time>
      </trkpt>
      <trkpt lat="46.67313" lon="-1.9081">
        <ele>2</ele>
        <time>2018-03-24T00:15:34Z</time>
      </trkpt>
      <trkpt lat="46.6732" lon="-1.90819">
        <ele>2</ele>
        <time>2018-03-24T00:16:34Z</time>
      </trkpt>
      <trkpt lat="46.67323" lon="-1.90824">
        <ele>2</ele>
        <time>2018-03-24T00:17:34Z</time>
      </trkpt>
      <trkpt lat="46.67327" lon="-1.90829">
        <ele>2</ele>
        <time>2018-03-24T00:18:34Z</time>
      </trkpt>
      <trkpt lat="46.6733" lon="-1.90833">
        <ele>2</ele>
        <time>2018-03-24T00:19:34Z</time>
      </trkpt>
      <trkpt lat="46.67333" lon="-1.90837">
        <ele>2</ele>
        <time>2018-03-24T00:20:34Z</time>
      </trkpt>
      <trkpt lat="46.67336" lon="-1.9084">
        <ele>2</ele>
        <time>2018-03-24T00:21:34Z</time>
      </trkpt>
      <trkpt lat="46.67339" lon="-1.90844">
        <ele>2</ele>
        <time>2018-03-24T00:22:34Z</time>
      </trkpt>
      <trkpt lat="46.67347" lon="-1.90849">
        <ele>2</ele>
        <time>2018-03-24T00:23:34Z</time>
      </trkpt>
      <trkpt lat="46.67361" lon="-1.90864">
        <ele>2</ele>
        <time>2018-03-24T00:24:34Z</time>
      </trkpt>
      <trkpt lat="46.67381" lon="-1.90883">
        <ele>3</ele>
        <time>2018-03-24T00:25:34Z</time>
      </trkpt>
      <trkpt lat="46.67397" lon="-1.90898">
        <ele>3</ele>
        <time>2018-03-24T00:26:34Z</time>
      </trkpt>
      <trkpt lat="46.674" lon="-1.90901">
        <ele>3</ele>
        <time>2018-03-24T00:27:34Z</time>
      </trkpt>
      <trkpt lat="46.67404" lon="-1.90904">
        <ele>3</ele>
        <time>2018-03-24T00:28:34Z</time>
      </trkpt>
      <trkpt lat="46.67406" lon="-1.90905">
        <ele>3</ele>
        <time>2018-03-24T00:29:34Z</time>
      </trkpt>
      <trkpt lat="46.67409" lon="-1.90906">
        <ele>3</ele>
        <time>2018-03-24T00:30:34Z</time>
      </trkpt>
      <trkpt lat="46.67412" lon="-1.90907">
        <ele>3</ele>
        <time>2018-03-24T00:31:34Z</time>
      </trkpt>
      <trkpt lat="46.67414" lon="-1.90908">
        <ele>3</ele>
        <time>2018-03-24T00:32:34Z</time>
      </trkpt>
      <trkpt lat="46.67417" lon="-1.90909">
        <ele>3</ele>
        <time>2018-03-24T00:33:34Z</time>
      </trkpt>
      <trkpt lat="46.67436" lon="-1.90914">
        <ele>3</ele>
        <time>2018-03-24T00:34:34Z</time>
      </trkpt>
      <trkpt lat="46.67436" lon="-1.90914">
        <ele>3</ele>
        <time>2018-03-24T00:35:34Z</time>
      </trkpt>
      <trkpt lat="46.67438" lon="-1.90914">
        <ele>3</ele>
        <time>2018-03-24T00:36:34Z</time>
      </trkpt>
      <trkpt lat="46.6744" lon="-1.90914">
        <ele>3</ele>
        <time>2018-03-24T00:37:34Z</time>
      </trkpt>
      <trkpt lat="46.67441" lon="-1.90914">
        <ele>3</ele>
        <time>2018-03-24T00:38:34Z</time>
      </trkpt>
      <trkpt lat="46.67443" lon="-1.90915">
        <ele>3</ele>
        <time>2018-03-24T00:39:34Z</time>
      </trkpt>
      <trkpt lat="46.67445" lon="-1.90915">
        <ele>3</ele>
        <time>2018-03-24T00:40:34Z</time>
      </trkpt>
      <trkpt lat="46.67446" lon="-1.90916">
        <ele>3</ele>
        <time>2018-03-24T00:41:34Z</time>
      </trkpt>
      <trkpt lat="46.67448" lon="-1.90917">
        <ele>3</ele>
        <time>2018-03-24T00:42:34Z</time>
      </trkpt>
      <trkpt lat="46.6745" lon="-1.90918">
        <ele>3</ele>
        <time>2018-03-24T00:43:34Z</time>
      </trkpt>
      <trkpt lat="46.67451" lon="-1.9092">
        <ele>3</ele>
        <time>2018-03-24T00:44:34Z</time>
      </trkpt>
      <trkpt lat="46.67452" lon="-1.90922">
        <ele>3</ele>
        <time>2018-03-24T00:45:34Z</time>
      </trkpt>
      <trkpt lat="46.67454" lon="-1.90923">
        <ele>3</ele>
        <time>2018-03-24T00:46:34Z</time>
      </trkpt>
      <trkpt lat="46.67455" lon="-1.90925">
        <ele>4</ele>
        <time>2018-03-24T00:47:34Z</time>
      </trkpt>
      <trkpt lat="46.67456" lon="-1.90927">
        <ele>4</ele>
        <time>2018-03-24T00:48:34Z</time>
      </trkpt>
      <trkpt lat="46.67457" lon="-1.9093">
        <ele>4</ele>
        <time>2018-03-24T00:49:34Z</time>
      </trkpt>
      <trkpt lat="46.67458" lon="-1.90933">
        <ele>4</ele>
        <time>2018-03-24T00:50:34Z</time>
      </trkpt>
      <trkpt lat="46.67458" lon="-1.90936">
        <ele>4</ele>
        <time>2018-03-24T00:51:34Z</time>
      </trkpt>
      <trkpt lat="46.67459" lon="-1.90938">
        <ele>4</ele>
        <time>2018-03-24T00:52:34Z</time>
      </trkpt>
      <trkpt lat="46.67459" lon="-1.90941">
        <ele>4</ele>
        <time>2018-03-24T00:53:34Z</time>
      </trkpt>
      <trkpt lat="46.67459" lon="-1.90943">
        <ele>4</ele>
        <time>2018-03-24T00:54:34Z</time>
      </trkpt>
      <trkpt lat="46.67459" lon="-1.90946">
        <ele>4</ele>
        <time>2018-03-24T00:55:34Z</time>
      </trkpt>
      <trkpt lat="46.67459" lon="-1.90948">
        <ele>4</ele>
        <time>2018-03-24T00:56:34Z</time>
      </trkpt>
      <trkpt lat="46.67458" lon="-1.9095">
        <ele>4</ele>
        <time>2018-03-24T00:57:34Z</time>
      </trkpt>
      <trkpt lat="46.67458" lon="-1.90953">
        <ele>4</ele>
        <time>2018-03-24T00:58:34Z</time>
      </trkpt>
      <trkpt lat="46.67457" lon="-1.90955">
        <ele>4</ele>
        <time>2018-03-24T00:59:34Z</time>
      </trkpt>
      <trkpt lat="46.67456" lon="-1.90957">
        <ele>4</ele>
        <time>2018-03-24T01:00:34Z</time>
      </trkpt>
      <trkpt lat="46.67455" lon="-1.9096">
        <ele>4</ele>
        <time>2018-03-24T01:01:34Z</time>
      </trkpt>
      <trkpt lat="46.67455" lon="-1.90961">
        <ele>4</ele>
        <time>2018-03-24T01:02:34Z</time>
      </trkpt>
      <trkpt lat="46.67454" lon="-1.90962">
        <ele>4</ele>
        <time>2018-03-24T01:03:34Z</time>
      </trkpt>
      <trkpt lat="46.67453" lon="-1.90963">
        <ele>4</ele>
        <time>2018-03-24T01:04:34Z</time>
      </trkpt>
      <trkpt lat="46.67453" lon="-1.90964">
        <ele>4</ele>
        <time>2018-03-24T01:05:34Z</time>
      </trkpt>
      <trkpt lat="46.67452" lon="-1.90965">
        <ele>4</ele>
        <time>2018-03-24T01:06:34Z</time>
      </trkpt>
      <trkpt lat="46.67451" lon="-1.90965">
        <ele>4</ele>
        <time>2018-03-24T01:07:34Z</time>
      </trkpt>
      <trkpt lat="46.67451" lon="-1.90966">
        <ele>4</ele>
        <time>2018-03-24T01:08:34Z</time>
      </trkpt>
      <trkpt lat="46.6745" lon="-1.90967">
        <ele>4</ele>
        <time>2018-03-24T01:09:34Z</time>
      </trkpt>
      <trkpt lat="46.6745" lon="-1.90984">
        <ele>4</ele>
        <time>2018-03-24T01:10:34Z</time>
      </trkpt>
      <trkpt lat="46.67451" lon="-1.90994">
        <ele>4</ele>
        <time>2018-03-24T01:11:34Z</time>
      </trkpt>
      <trkpt lat="46.67454" lon="-1.91004">
        <ele>4</ele>
        <time>2018-03-24T01:12:34Z</time>
      </trkpt>
      <trkpt lat="46.67456" lon="-1.9101">
        <ele>4</ele>
        <time>2018-03-24T01:13:34Z</time>
      </trkpt>
      <trkpt lat="46.67469" lon="-1.9103">
        <ele>4</ele>
        <time>2018-03-24T01:14:34Z</time>
      </trkpt>
      <trkpt lat="46.6749" lon="-1.9106">
        <ele>5</ele>
        <time>2018-03-24T01:15:34Z</time>
      </trkpt>
      <trkpt lat="46.67518" lon="-1.91097">
        <ele>5</ele>
        <time>2018-03-24T01:16:34Z</time>
      </trkpt>
      <trkpt lat="46.67546" lon="-1.91137">
        <ele>5</ele>
        <time>2018-03-24T01:17:34Z</time>
      </trkpt>
      <trkpt lat="46.67578" lon="-1.91181">
        <ele>6</ele>
        <time>2018-03-24T01:18:34Z</time>
      </trkpt>
      <trkpt lat="46.67587" lon="-1.91194">
        <ele>6</ele>
        <time>2018-03-24T01:19:34Z</time>
      </trkpt>
      <trkpt lat="46.67612" lon="-1.91228">
        <ele>5</ele>
        <time>2018-03-24T01:20:34Z</time>
      </trkpt>
      <trkpt lat="46.67634" lon="-1.91261">
        <ele>5</ele>
        <time>2018-03-24T01:21:34Z</time>
      </trkpt>
      <trkpt lat="46.67662" lon="-1.91298">
        <ele>5</ele>
        <time>2018-03-24T01:22:34Z</time>
      </trkpt>
      <trkpt lat="46.67704" lon="-1.91358">
        <ele>5</ele>
        <time>2018-03-24T01:23:34Z</time>
      </trkpt>
      <trkpt lat="46.67743" lon="-1.91414">
        <ele>6</ele>
        <time>2018-03-24T01:24:34Z</time>
      </trkpt>
      <trkpt lat="46.67747" lon="-1.9142">
        <ele>6</ele>
        <time>2018-03-24T01:25:34Z</time>
      </trkpt>
      <trkpt lat="46.67783" lon="-1.91471">
        <ele>6</ele>
        <time>2018-03-24T01:26:34Z</time>
      </trkpt>
      <trkpt lat="46.67831" lon="-1.91538">
        <ele>6</ele>
        <time>2018-03-24T01:27:34Z</time>
      </trkpt>
      <trkpt lat="46.6784" lon="-1.91552">
        <ele>6</ele>
        <time>2018-03-24T01:28:34Z</time>
      </trkpt>
      <trkpt lat="46.67864" lon="-1.91583">
        <ele>6</ele>
        <time>2018-03-24T01:29:34Z</time>
      </trkpt>
      <trkpt lat="46.67883" lon="-1.91611">
        <ele>6</ele>
        <time>2018-03-24T01:30:34Z</time>
      </trkpt>
      <trkpt lat="46.67898" lon="-1.91633">
        <ele>7</ele>
        <time>2018-03-24T01:31:34Z</time>
      </trkpt>
      <trkpt lat="46.67928" lon="-1.91675">
        <ele>7</ele>
        <time>2018-03-24T01:32:34Z</time>
      </trkpt>
      <trkpt lat="46.67947" lon="-1.91703">
        <ele>7</ele>
        <time>2018-03-24T01:33:34Z</time>
      </trkpt>
      <trkpt lat="46.67972" lon="-1.91737">
        <ele>7</ele>
        <time>2018-03-24T01:34:34Z</time>
      </trkpt>
      <trkpt lat="46.68" lon="-1.91776">
        <ele>8</ele>
        <time>2018-03-24T01:35:34Z</time>
      </trkpt>
      <trkpt lat="46.68022" lon="-1.91808">
        <ele>8</ele>
        <time>2018-03-24T01:36:34Z</time>
      </trkpt>
      <trkpt lat="46.68033" lon="-1.91825">
        <ele>8</ele>
        <time>2018-03-24T01:37:34Z</time>
      </trkpt>
      <trkpt lat="46.68041" lon="-1.91836">
        <ele>8</ele>
        <time>2018-03-24T01:38:34Z</time>
      </trkpt>
      <trkpt lat="46.68057" lon="-1.91858">
        <ele>8</ele>
        <time>2018-03-24T01:39:34Z</time>
      </trkpt>
      <trkpt lat="46.68083" lon="-1.91897">
        <ele>8</ele>
        <time>2018-03-24T01:40:34Z</time>
      </trkpt>
      <trkpt lat="46.68115" lon="-1.91941">
        <ele>8</ele>
        <time>2018-03-24T01:41:34Z</time>
      </trkpt>
      <trkpt lat="46.68158" lon="-1.92003">
        <ele>8</ele>
        <time>2018-03-24T01:42:34Z</time>
      </trkpt>
      <trkpt lat="46.68174" lon="-1.92025">
        <ele>8</ele>
        <time>2018-03-24T01:43:34Z</time>
      </trkpt>
      <trkpt lat="46.68198" lon="-1.92057">
        <ele>7</ele>
        <time>2018-03-24T01:44:34Z</time>
      </trkpt>
      <trkpt lat="46.68208" lon="-1.92073">
        <ele>7</ele>
        <time>2018-03-24T01:45:34Z</time>
      </trkpt>
      <trkpt lat="46.6822" lon="-1.92091">
        <ele>7</ele>
        <time>2018-03-24T01:46:34Z</time>
      </trkpt>
      <trkpt lat="46.68224" lon="-1.92097">
        <ele>7</ele>
        <time>2018-03-24T01:47:34Z</time>
      </trkpt>
      <trkpt lat="46.68224" lon="-1.92098">
        <ele>7</ele>
        <time>2018-03-24T01:48:34Z</time>
      </trkpt>
      <trkpt lat="46.68227" lon="-1.92103">
        <ele>7</ele>
        <time>2018-03-24T01:49:34Z</time>
      </trkpt>
      <trkpt lat="46.6823" lon="-1.92107">
        <ele>7</ele>
        <time>2018-03-24T01:50:34Z</time>
      </trkpt>
      <trkpt lat="46.68255" lon="-1.9214">
        <ele>7</ele>
        <time>2018-03-24T01:51:34Z</time>
      </trkpt>
      <trkpt lat="46.68267" lon="-1.92157">
        <ele>7</ele>
        <time>2018-03-24T01:52:34Z</time>
      </trkpt>
      <trkpt lat="46.68277" lon="-1.92172">
        <ele>8</ele>
        <time>2018-03-24T01:53:34Z</time>
      </trkpt>
      <trkpt lat="46.68286" lon="-1.92186">
        <ele>8</ele>
        <time>2018-03-24T01:54:34Z</time>
      </trkpt>
      <trkpt lat="46.68291" lon="-1.92193">
        <ele>8</ele>
        <time>2018-03-24T01:55:34Z</time>
      </trkpt>
      <trkpt lat="46.68306" lon="-1.92219">
        <ele>9</ele>
        <time>2018-03-24T01:56:34Z</time>
      </trkpt>
      <trkpt lat="46.6832" lon="-1.92245">
        <ele>9</ele>
        <time>2018-03-24T01:57:34Z</time>
      </trkpt>
      <trkpt lat="46.6833" lon="-1.92261">
        <ele>9</ele>
        <time>2018-03-24T01:58:34Z</time>
      </trkpt>
      <trkpt lat="46.68355" lon="-1.92305">
        <ele>10</ele>
        <time>2018-03-24T01:59:34Z</time>
      </trkpt>
      <trkpt lat="46.6837" lon="-1.92334">
        <ele>10</ele>
        <time>2018-03-24T02:00:34Z</time>
      </trkpt>
      <trkpt lat="46.68377" lon="-1.92346">
        <ele>10</ele>
        <time>2018-03-24T02:01:34Z</time>
      </trkpt>
      <trkpt lat="46.6838" lon="-1.92351">
        <ele>10</ele>
        <time>2018-03-24T02:02:34Z</time>
      </trkpt>
      <trkpt lat="46.68389" lon="-1.92363">
        <ele>10</ele>
        <time>2018-03-24T02:03:34Z</time>
      </trkpt>
      <trkpt lat="46.68403" lon="-1.9238">
        <ele>10</ele>
        <time>2018-03-24T02:04:34Z</time>
      </trkpt>
      <trkpt lat="46.68413" lon="-1.92388">
        <ele>10</ele>
        <time>2018-03-24T02:05:34Z</time>
      </trkpt>
      <trkpt lat="46.68426" lon="-1.92396">
        <ele>10</ele>
        <time>2018-03-24T02:06:34Z</time>
      </trkpt>
      <trkpt lat="46.68435" lon="-1.924">
        <ele>10</ele>
        <time>2018-03-24T02:07:34Z</time>
      </trkpt>
      <trkpt lat="46.68447" lon="-1.92403">
        <ele>10</ele>
        <time>2018-03-24T02:08:34Z</time>
      </trkpt>
      <trkpt lat="46.68454" lon="-1.92404">
        <ele>10</ele>
        <time>2018-03-24T02:09:34Z</time>
      </trkpt>
      <trkpt lat="46.68463" lon="-1.92406">
        <ele>10</ele>
        <time>2018-03-24T02:10:34Z</time>
      </trkpt>
      <trkpt lat="46.68472" lon="-1.92408">
        <ele>10</ele>
        <time>2018-03-24T02:11:34Z</time>
      </trkpt>
      <trkpt lat="46.68481" lon="-1.92411">
        <ele>10</ele>
        <time>2018-03-24T02:12:34Z</time>
      </trkpt>
      <trkpt lat="46.68487" lon="-1.92415">
        <ele>10</ele>
        <time>2018-03-24T02:13:34Z</time>
      </trkpt>
      <trkpt lat="46.68495" lon="-1.9242">
        <ele>10</ele>
        <time>2018-03-24T02:14:34Z</time>
      </trkpt>
      <trkpt lat="46.68505" lon="-1.92428">
        <ele>10</ele>
        <time>2018-03-24T02:15:34Z</time>
      </trkpt>
      <trkpt lat="46.68514" lon="-1.92436">
        <ele>10</ele>
        <time>2018-03-24T02:16:34Z</time>
      </trkpt>
      <trkpt lat="46.68528" lon="-1.9245">
        <ele>10</ele>
        <time>2018-03-24T02:17:34Z</time>
      </trkpt>
      <trkpt lat="46.68532" lon="-1.92456">
        <ele>10</ele>
        <time>2018-03-24T02:18:34Z</time>
      </trkpt>
      <trkpt lat="46.68538" lon="-1.92464">
        <ele>10</ele>
        <time>2018-03-24T02:19:34Z</time>
      </trkpt>
      <trkpt lat="46.68549" lon="-1.92476">
        <ele>10</ele>
        <time>2018-03-24T02:20:34Z</time>
      </trkpt>
      <trkpt lat="46.68567" lon="-1.925">
        <ele>10</ele>
        <time>2018-03-24T02:21:34Z</time>
      </trkpt>
      <trkpt lat="46.68589" lon="-1.92528">
        <ele>10</ele>
        <time>2018-03-24T02:22:34Z</time>
      </trkpt>
      <trkpt lat="46.68594" lon="-1.92534">
        <ele>10</ele>
        <time>2018-03-24T02:23:34Z</time>
      </trkpt>
      <trkpt lat="46.68605" lon="-1.92548">
        <ele>10</ele>
        <time>2018-03-24T02:24:34Z</time>
      </trkpt>
      <trkpt lat="46.68616" lon="-1.92563">
        <ele>10</ele>
        <time>2018-03-24T02:25:34Z</time>
      </trkpt>
      <trkpt lat="46.68625" lon="-1.92575">
        <ele>10</ele>
        <time>2018-03-24T02:26:34Z</time>
      </trkpt>
      <trkpt lat="46.68629" lon="-1.9258">
        <ele>10</ele>
        <time>2018-03-24T02:27:34Z</time>
      </trkpt>
      <trkpt lat="46.68634" lon="-1.92586">
        <ele>10</ele>
        <time>2018-03-24T02:28:34Z</time>
      </trkpt>
      <trkpt lat="46.68635" lon="-1.92588">
        <ele>10</ele>
        <time>2018-03-24T02:29:34Z</time>
      </trkpt>
      <trkpt lat="46.68644" lon="-1.92596">
        <ele>10</ele>
        <time>2018-03-24T02:30:34Z</time>
      </trkpt>
      <trkpt lat="46.68651" lon="-1.92602">
        <ele>10</ele>
        <time>2018-03-24T02:31:34Z</time>
      </trkpt>
      <trkpt lat="46.68669" lon="-1.92615">
        <ele>10</ele>
        <time>2018-03-24T02:32:34Z</time>
      </trkpt>
      <trkpt lat="46.68707" lon="-1.92638">
        <ele>9</ele>
        <time>2018-03-24T02:33:34Z</time>
      </trkpt>
      <trkpt lat="46.68732" lon="-1.92654">
        <ele>8</ele>
        <time>2018-03-24T02:34:34Z</time>
      </trkpt>
      <trkpt lat="46.68733" lon="-1.92654">
        <ele>8</ele>
        <time>2018-03-24T02:35:34Z</time>
      </trkpt>
      <trkpt lat="46.68759" lon="-1.92668">
        <ele>8</ele>
        <time>2018-03-24T02:36:34Z</time>
      </trkpt>
      <trkpt lat="46.6876" lon="-1.92669">
        <ele>8</ele>
        <time>2018-03-24T02:37:34Z</time>
      </trkpt>
      <trkpt lat="46.68776" lon="-1.92676">
        <ele>8</ele>
        <time>2018-03-24T02:38:34Z</time>
      </trkpt>
      <trkpt lat="46.68787" lon="-1.9268">
        <ele>8</ele>
        <time>2018-03-24T02:39:34Z</time>
      </trkpt>
      <trkpt lat="46.68804" lon="-1.92685">
        <ele>7</ele>
        <time>2018-03-24T02:40:34Z</time>
      </trkpt>
      <trkpt lat="46.68817" lon="-1.9269">
        <ele>7</ele>
        <time>2018-03-24T02:41:34Z</time>
      </trkpt>
      <trkpt lat="46.68817" lon="-1.92689">
        <ele>7</ele>
        <time>2018-03-24T02:42:34Z</time>
      </trkpt>
      <trkpt lat="46.68818" lon="-1.92689">
        <ele>7</ele>
        <time>2018-03-24T02:43:34Z</time>
      </trkpt>
      <trkpt lat="46.68818" lon="-1.92688">
        <ele>7</ele>
        <time>2018-03-24T02:44:34Z</time>
      </trkpt>
      <trkpt lat="46.68818" lon="-1.92687">
        <ele>7</ele>
        <time>2018-03-24T02:45:34Z</time>
      </trkpt>
      <trkpt lat="46.68819" lon="-1.92687">
        <ele>7</ele>
        <time>2018-03-24T02:46:34Z</time>
      </trkpt>
      <trkpt lat="46.68819" lon="-1.92686">
        <ele>7</ele>
        <time>2018-03-24T02:47:34Z</time>
      </trkpt>
      <trkpt lat="46.6882" lon="-1.92686">
        <ele>7</ele>
        <time>2018-03-24T02:48:34Z</time>
      </trkpt>
      <trkpt lat="46.6882" lon="-1.92685">
        <ele>7</ele>
        <time>2018-03-24T02:49:34Z</time>
      </trkpt>
      <trkpt lat="46.68821" lon="-1.92685">
        <ele>7</ele>
        <time>2018-03-24T02:50:34Z</time>
      </trkpt>
      <trkpt lat="46.68822" lon="-1.92685">
        <ele>7</ele>
        <time>2018-03-24T02:51:34Z</time>
      </trkpt>
      <trkpt lat="46.68823" lon="-1.92685">
        <ele>7</ele>
        <time>2018-03-24T02:52:34Z</time>
      </trkpt>
      <trkpt lat="46.68824" lon="-1.92685">
        <ele>7</ele>
        <time>2018-03-24T02:53:34Z</time>
      </trkpt>
      <trkpt lat="46.68825" lon="-1.92685">
        <ele>7</ele>
        <time>2018-03-24T02:54:34Z</time>
      </trkpt>
      <trkpt lat="46.68826" lon="-1.92686">
        <ele>7</ele>
        <time>2018-03-24T02:55:34Z</time>
      </trkpt>
      <trkpt lat="46.68827" lon="-1.92686">
        <ele>7</ele>
        <time>2018-03-24T02:56:34Z</time>
      </trkpt>
      <trkpt lat="46.68827" lon="-1.92687">
        <ele>7</ele>
        <time>2018-03-24T02:57:34Z</time>
      </trkpt>
      <trkpt lat="46.68827" lon="-1.92688">
        <ele>7</ele>
        <time>2018-03-24T02:58:34Z</time>
      </trkpt>
      <trkpt lat="46.68828" lon="-1.92688">
        <ele>7</ele>
        <time>2018-03-24T02:59:34Z</time>
      </trkpt>
      <trkpt lat="46.68841" lon="-1.92685">
        <ele>7</ele>
        <time>2018-03-24T03:00:34Z</time>
      </trkpt>
      <trkpt lat="46.68841" lon="-1.92685">
        <ele>7</ele>
        <time>2018-03-24T03:01:34Z</time>
      </trkpt>
      <trkpt lat="46.68841" lon="-1.92684">
        <ele>7</ele>
        <time>2018-03-24T03:02:34Z</time>
      </trkpt>
      <trkpt lat="46.68842" lon="-1.92684">
        <ele>7</ele>
        <time>2018-03-24T03:03:34Z</time>
      </trkpt>
      <trkpt lat="46.68842" lon="-1.92683">
        <ele>7</ele>
        <time>2018-03-24T03:04:34Z</time>
      </trkpt>
      <trkpt lat="46.68843" lon="-1.92682">
        <ele>7</ele>
        <time>2018-03-24T03:05:34Z</time>
      </trkpt>
      <trkpt lat="46.68844" lon="-1.92682">
        <ele>7</ele>
        <time>2018-03-24T03:06:34Z</time>
      </trkpt>
      <trkpt lat="46.68844" lon="-1.92681">
        <ele>7</ele>
        <time>2018-03-24T03:07:34Z</time>
      </trkpt>
      <trkpt lat="46.68845" lon="-1.92681">
        <ele>6</ele>
        <time>2018-03-24T03:08:34Z</time>
      </trkpt>
      <trkpt lat="46.68846" lon="-1.92681">
        <ele>6</ele>
        <time>2018-03-24T03:09:34Z</time>
      </trkpt>
      <trkpt lat="46.68847" lon="-1.92681">
        <ele>6</ele>
        <time>2018-03-24T03:10:34Z</time>
      </trkpt>
      <trkpt lat="46.68848" lon="-1.92681">
        <ele>6</ele>
        <time>2018-03-24T03:11:34Z</time>
      </trkpt>
      <trkpt lat="46.68849" lon="-1.92681">
        <ele>6</ele>
        <time>2018-03-24T03:12:34Z</time>
      </trkpt>
      <trkpt lat="46.68849" lon="-1.92682">
        <ele>6</ele>
        <time>2018-03-24T03:13:34Z</time>
      </trkpt>
      <trkpt lat="46.6885" lon="-1.92682">
        <ele>6</ele>
        <time>2018-03-24T03:14:34Z</time>
      </trkpt>
      <trkpt lat="46.6885" lon="-1.92683">
        <ele>6</ele>
        <time>2018-03-24T03:15:34Z</time>
      </trkpt>
      <trkpt lat="46.68851" lon="-1.92683">
        <ele>6</ele>
        <time>2018-03-24T03:16:34Z</time>
      </trkpt>
      <trkpt lat="46.68851" lon="-1.92684">
        <ele>6</ele>
        <time>2018-03-24T03:17:34Z</time>
      </trkpt>
      <trkpt lat="46.68852" lon="-1.92684">
        <ele>6</ele>
        <time>2018-03-24T03:18:34Z</time>
      </trkpt>
      <trkpt lat="46.68852" lon="-1.92685">
        <ele>6</ele>
        <time>2018-03-24T03:19:34Z</time>
      </trkpt>
      <trkpt lat="46.68852" lon="-1.92686">
        <ele>6</ele>
        <time>2018-03-24T03:20:34Z</time>
      </trkpt>
      <trkpt lat="46.68853" lon="-1.92687">
        <ele>6</ele>
        <time>2018-03-24T03:21:34Z</time>
      </trkpt>
      <trkpt lat="46.68853" lon="-1.92688">
        <ele>6</ele>
        <time>2018-03-24T03:22:34Z</time>
      </trkpt>
      <trkpt lat="46.68853" lon="-1.92689">
        <ele>6</ele>
        <time>2018-03-24T03:23:34Z</time>
      </trkpt>
      <trkpt lat="46.68853" lon="-1.9269">
        <ele>6</ele>
        <time>2018-03-24T03:24:34Z</time>
      </trkpt>
      <trkpt lat="46.68853" lon="-1.92691">
        <ele>6</ele>
        <time>2018-03-24T03:25:34Z</time>
      </trkpt>
      <trkpt lat="46.68853" lon="-1.92692">
        <ele>6</ele>
        <time>2018-03-24T03:26:34Z</time>
      </trkpt>
      <trkpt lat="46.68853" lon="-1.92693">
        <ele>6</ele>
        <time>2018-03-24T03:27:34Z</time>
      </trkpt>
      <trkpt lat="46.68853" lon="-1.92694">
        <ele>6</ele>
        <time>2018-03-24T03:28:34Z</time>
      </trkpt>
      <trkpt lat="46.68853" lon="-1.92695">
        <ele>6</ele>
        <time>2018-03-24T03:29:34Z</time>
      </trkpt>
      <trkpt lat="46.68852" lon="-1.92695">
        <ele>6</ele>
        <time>2018-03-24T03:30:34Z</time>
      </trkpt>
      <trkpt lat="46.68852" lon="-1.92696">
        <ele>6</ele>
        <time>2018-03-24T03:31:34Z</time>
      </trkpt>
      <trkpt lat="46.68852" lon="-1.92697">
        <ele>6</ele>
        <time>2018-03-24T03:32:34Z</time>
      </trkpt>
      <trkpt lat="46.68851" lon="-1.92697">
        <ele>6</ele>
        <time>2018-03-24T03:33:34Z</time>
      </trkpt>
      <trkpt lat="46.68851" lon="-1.92698">
        <ele>6</ele>
        <time>2018-03-24T03:34:34Z</time>
      </trkpt>
      <trkpt lat="46.68859" lon="-1.92704">
        <ele>6</ele>
        <time>2018-03-24T03:35:34Z</time>
      </trkpt>
      <trkpt lat="46.6886" lon="-1.92704">
        <ele>6</ele>
        <time>2018-03-24T03:36:34Z</time>
      </trkpt>
      <trkpt lat="46.68869" lon="-1.92706">
        <ele>5</ele>
        <time>2018-03-24T03:37:34Z</time>
      </trkpt>
      <trkpt lat="46.68881" lon="-1.92711">
        <ele>5</ele>
        <time>2018-03-24T03:38:34Z</time>
      </trkpt>
      <trkpt lat="46.68897" lon="-1.92716">
        <ele>4</ele>
        <time>2018-03-24T03:39:34Z</time>
      </trkpt>
      <trkpt lat="46.68913" lon="-1.92723">
        <ele>4</ele>
        <time>2018-03-24T03:40:34Z</time>
      </trkpt>
      <trkpt lat="46.68926" lon="-1.9273">
        <ele>4</ele>
        <time>2018-03-24T03:41:34Z</time>
      </trkpt>
      <trkpt lat="46.68936" lon="-1.92737">
        <ele>4</ele>
        <time>2018-03-24T03:42:34Z</time>
      </trkpt>
      <trkpt lat="46.68947" lon="-1.92747">
        <ele>4</ele>
        <time>2018-03-24T03:43:34Z</time>
      </trkpt>
      <trkpt lat="46.68955" lon="-1.92755">
        <ele>4</ele>
        <time>2018-03-24T03:44:34Z</time>
      </trkpt>
      <trkpt lat="46.68965" lon="-1.92769">
        <ele>4</ele>
        <time>2018-03-24T03:45:34Z</time>
      </trkpt>
      <trkpt lat="46.68969" lon="-1.92774">
        <ele>4</ele>
        <time>2018-03-24T03:46:34Z</time>
      </trkpt>
      <trkpt lat="46.68977" lon="-1.92784">
        <ele>4</ele>
        <time>2018-03-24T03:47:34Z</time>
      </trkpt>
      <trkpt lat="46.68992" lon="-1.92805">
        <ele>4</ele>
        <time>2018-03-24T03:48:34Z</time>
      </trkpt>
      <trkpt lat="46.68993" lon="-1.92806">
        <ele>4</ele>
        <time>2018-03-24T03:49:34Z</time>
      </trkpt>
      <trkpt lat="46.69014" lon="-1.92836">
        <ele>4</ele>
        <time>2018-03-24T03:50:34Z</time>
      </trkpt>
      <trkpt lat="46.69038" lon="-1.92867">
        <ele>4</ele>
        <time>2018-03-24T03:51:34Z</time>
      </trkpt>
      <trkpt lat="46.69055" lon="-1.9289">
        <ele>4</ele>
        <time>2018-03-24T03:52:34Z</time>
      </trkpt>
      <trkpt lat="46.69068" lon="-1.92907">
        <ele>4</ele>
        <time>2018-03-24T03:53:34Z</time>
      </trkpt>
      <trkpt lat="46.69095" lon="-1.92938">
        <ele>4</ele>
        <time>2018-03-24T03:54:34Z</time>
      </trkpt>
      <trkpt lat="46.69107" lon="-1.92948">
        <ele>4</ele>
        <time>2018-03-24T03:55:34Z</time>
      </trkpt>
      <trkpt lat="46.69133" lon="-1.92971">
        <ele>4</ele>
        <time>2018-03-24T03:56:34Z</time>
      </trkpt>
      <trkpt lat="46.69154" lon="-1.92991">
        <ele>4</ele>
        <time>2018-03-24T03:57:34Z</time>
      </trkpt>
      <trkpt lat="46.6917" lon="-1.93005">
        <ele>4</ele>
        <time>2018-03-24T03:58:34Z</time>
      </trkpt>
      <trkpt lat="46.69175" lon="-1.93009">
        <ele>4</ele>
        <time>2018-03-24T03:59:34Z</time>
      </trkpt>
      <trkpt lat="46.69194" lon="-1.93026">
        <ele>5</ele>
        <time>2018-03-24T04:00:34Z</time>
      </trkpt>
      <trkpt lat="46.69217" lon="-1.93046">
        <ele>5</ele>
        <time>2018-03-24T04:01:34Z</time>
      </trkpt>
      <trkpt lat="46.69224" lon="-1.93053">
        <ele>5</ele>
        <time>2018-03-24T04:02:34Z</time>
      </trkpt>
      <trkpt lat="46.69245" lon="-1.93071">
        <ele>5</ele>
        <time>2018-03-24T04:03:34Z</time>
      </trkpt>
      <trkpt lat="46.69255" lon="-1.9308">
        <ele>5</ele>
        <time>2018-03-24T04:04:34Z</time>
      </trkpt>
      <trkpt lat="46.69269" lon="-1.93094">
        <ele>5</ele>
        <time>2018-03-24T04:05:34Z</time>
      </trkpt>
      <trkpt lat="46.69287" lon="-1.9311">
        <ele>5</ele>
        <time>2018-03-24T04:06:34Z</time>
      </trkpt>
      <trkpt lat="46.69303" lon="-1.93127">
        <ele>5</ele>
        <time>2018-03-24T04:07:34Z</time>
      </trkpt>
      <trkpt lat="46.69314" lon="-1.93136">
        <ele>5</ele>
        <time>2018-03-24T04:08:34Z</time>
      </trkpt>
      <trkpt lat="46.69324" lon="-1.93151">
        <ele>5</ele>
        <time>2018-03-24T04:09:34Z</time>
      </trkpt>
      <trkpt lat="46.69333" lon="-1.93166">
        <ele>5</ele>
        <time>2018-03-24T04:10:34Z</time>
      </trkpt>
      <trkpt lat="46.69341" lon="-1.93186">
        <ele>5</ele>
        <time>2018-03-24T04:11:34Z</time>
      </trkpt>
      <trkpt lat="46.69348" lon="-1.93201">
        <ele>5</ele>
        <time>2018-03-24T04:12:34Z</time>
      </trkpt>
      <trkpt lat="46.69351" lon="-1.93212">
        <ele>5</ele>
        <time>2018-03-24T04:13:34Z</time>
      </trkpt>
      <trkpt lat="46.69355" lon="-1.93224">
        <ele>4</ele>
        <time>2018-03-24T04:14:34Z</time>
      </trkpt>
      <trkpt lat="46.6936" lon="-1.93244">
        <ele>4</ele>
        <time>2018-03-24T04:15:34Z</time>
      </trkpt>
      <trkpt lat="46.69365" lon="-1.93261">
        <ele>4</ele>
        <time>2018-03-24T04:16:34Z</time>
      </trkpt>
      <trkpt lat="46.69368" lon="-1.93273">
        <ele>4</ele>
        <time>2018-03-24T04:17:34Z</time>
      </trkpt>
      <trkpt lat="46.69372" lon="-1.93291">
        <ele>4</ele>
        <time>2018-03-24T04:18:34Z</time>
      </trkpt>
      <trkpt lat="46.69374" lon="-1.93299">
        <ele>4</ele>
        <time>2018-03-24T04:19:34Z</time>
      </trkpt>
      <trkpt lat="46.69376" lon="-1.93304">
        <ele>4</ele>
        <time>2018-03-24T04:20:34Z</time>
      </trkpt>
      <trkpt lat="46.69378" lon="-1.93307">
        <ele>4</ele>
        <time>2018-03-24T04:21:34Z</time>
      </trkpt>
      <trkpt lat="46.69379" lon="-1.93309">
        <ele>4</ele>
        <time>2018-03-24T04:22:34Z</time>
      </trkpt>
      <trkpt lat="46.69384" lon="-1.93312">
        <ele>4</ele>
        <time>2018-03-24T04:23:34Z</time>
      </trkpt>
      <trkpt lat="46.69385" lon="-1.93312">
        <ele>4</ele>
        <time>2018-03-24T04:24:34Z</time>
      </trkpt>
      <trkpt lat="46.69386" lon="-1.93311">
        <ele>4</ele>
        <time>2018-03-24T04:25:34Z</time>
      </trkpt>
      <trkpt lat="46.69387" lon="-1.93311">
        <ele>4</ele>
        <time>2018-03-24T04:26:34Z</time>
      </trkpt>
      <trkpt lat="46.69388" lon="-1.93311">
        <ele>4</ele>
        <time>2018-03-24T04:27:34Z</time>
      </trkpt>
      <trkpt lat="46.69389" lon="-1.93311">
        <ele>4</ele>
        <time>2018-03-24T04:28:34Z</time>
      </trkpt>
      <trkpt lat="46.69389" lon="-1.93312">
        <ele>4</ele>
        <time>2018-03-24T04:29:34Z</time>
      </trkpt>
      <trkpt lat="46.6939" lon="-1.93312">
        <ele>4</ele>
        <time>2018-03-24T04:30:34Z</time>
      </trkpt>
      <trkpt lat="46.69391" lon="-1.93312">
        <ele>4</ele>
        <time>2018-03-24T04:31:34Z</time>
      </trkpt>
      <trkpt lat="46.69391" lon="-1.93313">
        <ele>4</ele>
        <time>2018-03-24T04:32:34Z</time>
      </trkpt>
      <trkpt lat="46.69392" lon="-1.93313">
        <ele>4</ele>
        <time>2018-03-24T04:33:34Z</time>
      </trkpt>
      <trkpt lat="46.69393" lon="-1.93314">
        <ele>4</ele>
        <time>2018-03-24T04:34:34Z</time>
      </trkpt>
      <trkpt lat="46.69393" lon="-1.93315">
        <ele>4</ele>
        <time>2018-03-24T04:35:34Z</time>
      </trkpt>
      <trkpt lat="46.69394" lon="-1.93315">
        <ele>4</ele>
        <time>2018-03-24T04:36:34Z</time>
      </trkpt>
      <trkpt lat="46.69394" lon="-1.93316">
        <ele>4</ele>
        <time>2018-03-24T04:37:34Z</time>
      </trkpt>
      <trkpt lat="46.69395" lon="-1.93317">
        <ele>4</ele>
        <time>2018-03-24T04:38:34Z</time>
      </trkpt>
      <trkpt lat="46.69395" lon="-1.93318">
        <ele>4</ele>
        <time>2018-03-24T04:39:34Z</time>
      </trkpt>
      <trkpt lat="46.69396" lon="-1.93319">
        <ele>4</ele>
        <time>2018-03-24T04:40:34Z</time>
      </trkpt>
      <trkpt lat="46.69396" lon="-1.9332">
        <ele>4</ele>
        <time>2018-03-24T04:41:34Z</time>
      </trkpt>
      <trkpt lat="46.69396" lon="-1.93321">
        <ele>4</ele>
        <time>2018-03-24T04:42:34Z</time>
      </trkpt>
      <trkpt lat="46.69406" lon="-1.93325">
        <ele>4</ele>
        <time>2018-03-24T04:43:34Z</time>
      </trkpt>
      <trkpt lat="46.69416" lon="-1.93331">
        <ele>4</ele>
        <time>2018-03-24T04:44:34Z</time>
      </trkpt>
      <trkpt lat="46.69421" lon="-1.93333">
        <ele>4</ele>
        <time>2018-03-24T04:45:34Z</time>
      </trkpt>
      <trkpt lat="46.69426" lon="-1.93334">
        <ele>4</ele>
        <time>2018-03-24T04:46:34Z</time>
      </trkpt>
      <trkpt lat="46.69431" lon="-1.93336">
        <ele>4</ele>
        <time>2018-03-24T04:47:34Z</time>
      </trkpt>
      <trkpt lat="46.6946" lon="-1.93349">
        <ele>4</ele>
        <time>2018-03-24T04:48:34Z</time>
      </trkpt>
      <trkpt lat="46.69498" lon="-1.93366">
        <ele>4</ele>
        <time>2018-03-24T04:49:34Z</time>
      </trkpt>
      <trkpt lat="46.69503" lon="-1.93368">
        <ele>4</ele>
        <time>2018-03-24T04:50:34Z</time>
      </trkpt>
      <trkpt lat="46.69507" lon="-1.9337">
        <ele>4</ele>
        <time>2018-03-24T04:51:34Z</time>
      </trkpt>
      <trkpt lat="46.69518" lon="-1.93374">
        <ele>4</ele>
        <time>2018-03-24T04:52:34Z</time>
      </trkpt>
      <trkpt lat="46.69551" lon="-1.93388">
        <ele>4</ele>
        <time>2018-03-24T04:53:34Z</time>
      </trkpt>
      <trkpt lat="46.69587" lon="-1.93404">
        <ele>4</ele>
        <time>2018-03-24T04:54:34Z</time>
      </trkpt>
      <trkpt lat="46.69607" lon="-1.93416">
        <ele>4</ele>
        <time>2018-03-24T04:55:34Z</time>
      </trkpt>
      <trkpt lat="46.69617" lon="-1.9342">
        <ele>4</ele>
        <time>2018-03-24T04:56:34Z</time>
      </trkpt>
      <trkpt lat="46.69617" lon="-1.9342">
        <ele>4</ele>
        <time>2018-03-24T04:57:34Z</time>
      </trkpt>
      <trkpt lat="46.69617" lon="-1.93419">
        <ele>4</ele>
        <time>2018-03-24T04:58:34Z</time>
      </trkpt>
      <trkpt lat="46.69617" lon="-1.93418">
        <ele>4</ele>
        <time>2018-03-24T04:59:34Z</time>
      </trkpt>
      <trkpt lat="46.69618" lon="-1.93418">
        <ele>4</ele>
        <time>2018-03-24T05:00:34Z</time>
      </trkpt>
      <trkpt lat="46.69618" lon="-1.93417">
        <ele>4</ele>
        <time>2018-03-24T05:01:34Z</time>
      </trkpt>
      <trkpt lat="46.69618" lon="-1.93416">
        <ele>4</ele>
        <time>2018-03-24T05:02:34Z</time>
      </trkpt>
      <trkpt lat="46.69619" lon="-1.93416">
        <ele>4</ele>
        <time>2018-03-24T05:03:34Z</time>
      </trkpt>
      <trkpt lat="46.69619" lon="-1.93415">
        <ele>4</ele>
        <time>2018-03-24T05:04:34Z</time>
      </trkpt>
      <trkpt lat="46.6962" lon="-1.93415">
        <ele>4</ele>
        <time>2018-03-24T05:05:34Z</time>
      </trkpt>
      <trkpt lat="46.6962" lon="-1.93414">
        <ele>5</ele>
        <time>2018-03-24T05:06:34Z</time>
      </trkpt>
      <trkpt lat="46.69621" lon="-1.93414">
        <ele>5</ele>
        <time>2018-03-24T05:07:34Z</time>
      </trkpt>
      <trkpt lat="46.69621" lon="-1.93413">
        <ele>5</ele>
        <time>2018-03-24T05:08:34Z</time>
      </trkpt>
      <trkpt lat="46.69622" lon="-1.93413">
        <ele>5</ele>
        <time>2018-03-24T05:09:34Z</time>
      </trkpt>
      <trkpt lat="46.69623" lon="-1.93412">
        <ele>5</ele>
        <time>2018-03-24T05:10:34Z</time>
      </trkpt>
      <trkpt lat="46.69624" lon="-1.93412">
        <ele>5</ele>
        <time>2018-03-24T05:11:34Z</time>
      </trkpt>
      <trkpt lat="46.69625" lon="-1.93412">
        <ele>5</ele>
        <time>2018-03-24T05:12:34Z</time>
      </trkpt>
      <trkpt lat="46.69626" lon="-1.93412">
        <ele>5</ele>
        <time>2018-03-24T05:13:34Z</time>
      </trkpt>
      <trkpt lat="46.69627" lon="-1.93412">
        <ele>5</ele>
        <time>2018-03-24T05:14:34Z</time>
      </trkpt>
      <trkpt lat="46.69627" lon="-1.93413">
        <ele>5</ele>
        <time>2018-03-24T05:15:34Z</time>
      </trkpt>
      <trkpt lat="46.69628" lon="-1.93413">
        <ele>5</ele>
        <time>2018-03-24T05:16:34Z</time>
      </trkpt>
      <trkpt lat="46.69629" lon="-1.93413">
        <ele>5</ele>
        <time>2018-03-24T05:17:34Z</time>
      </trkpt>
      <trkpt lat="46.69629" lon="-1.93414">
        <ele>5</ele>
        <time>2018-03-24T05:18:34Z</time>
      </trkpt>
      <trkpt lat="46.6963" lon="-1.93414">
        <ele>5</ele>
        <time>2018-03-24T05:19:34Z</time>
      </trkpt>
      <trkpt lat="46.6963" lon="-1.93415">
        <ele>5</ele>
        <time>2018-03-24T05:20:34Z</time>
      </trkpt>
      <trkpt lat="46.69631" lon="-1.93416">
        <ele>5</ele>
        <time>2018-03-24T05:21:34Z</time>
      </trkpt>
      <trkpt lat="46.69631" lon="-1.93417">
        <ele>5</ele>
        <time>2018-03-24T05:22:34Z</time>
      </trkpt>
      <trkpt lat="46.69632" lon="-1.93417">
        <ele>5</ele>
        <time>2018-03-24T05:23:34Z</time>
      </trkpt>
      <trkpt lat="46.69632" lon="-1.93418">
        <ele>5</ele>
        <time>2018-03-24T05:24:34Z</time>
      </trkpt>
      <trkpt lat="46.69632" lon="-1.93419">
        <ele>5</ele>
        <time>2018-03-24T05:25:34Z</time>
      </trkpt>
      <trkpt lat="46.69633" lon="-1.93419">
        <ele>5</ele>
        <time>2018-03-24T05:26:34Z</time>
      </trkpt>
      <trkpt lat="46.69633" lon="-1.9342">
        <ele>5</ele>
        <time>2018-03-24T05:27:34Z</time>
      </trkpt>
      <trkpt lat="46.69633" lon="-1.93421">
        <ele>5</ele>
        <time>2018-03-24T05:28:34Z</time>
      </trkpt>
      <trkpt lat="46.69633" lon="-1.93422">
        <ele>5</ele>
        <time>2018-03-24T05:29:34Z</time>
      </trkpt>
      <trkpt lat="46.69633" lon="-1.93423">
        <ele>5</ele>
        <time>2018-03-24T05:30:34Z</time>
      </trkpt>
      <trkpt lat="46.69685" lon="-1.93435">
        <ele>5</ele>
        <time>2018-03-24T05:31:34Z</time>
      </trkpt>
      <trkpt lat="46.69697" lon="-1.93436">
        <ele>5</ele>
        <time>2018-03-24T05:32:34Z</time>
      </trkpt>
      <trkpt lat="46.69714" lon="-1.93435">
        <ele>5</ele>
        <time>2018-03-24T05:33:34Z</time>
      </trkpt>
      <trkpt lat="46.69721" lon="-1.93434">
        <ele>5</ele>
        <time>2018-03-24T05:34:34Z</time>
      </trkpt>
      <trkpt lat="46.69759" lon="-1.93424">
        <ele>5</ele>
        <time>2018-03-24T05:35:34Z</time>
      </trkpt>
      <trkpt lat="46.69762" lon="-1.93423">
        <ele>5</ele>
        <time>2018-03-24T05:36:34Z</time>
      </trkpt>
      <trkpt lat="46.69772" lon="-1.9342">
        <ele>5</ele>
        <time>2018-03-24T05:37:34Z</time>
      </trkpt>
      <trkpt lat="46.69776" lon="-1.9342">
        <ele>5</ele>
        <time>2018-03-24T05:38:34Z</time>
      </trkpt>
      <trkpt lat="46.69779" lon="-1.9342">
        <ele>5</ele>
        <time>2018-03-24T05:39:34Z</time>
      </trkpt>
      <trkpt lat="46.69785" lon="-1.93422">
        <ele>5</ele>
        <time>2018-03-24T05:40:34Z</time>
      </trkpt>
      <trkpt lat="46.69785" lon="-1.93421">
        <ele>5</ele>
        <time>2018-03-24T05:41:34Z</time>
      </trkpt>
      <trkpt lat="46.69786" lon="-1.93421">
        <ele>5</ele>
        <time>2018-03-24T05:42:34Z</time>
      </trkpt>
      <trkpt lat="46.69786" lon="-1.9342">
        <ele>5</ele>
        <time>2018-03-24T05:43:34Z</time>
      </trkpt>
      <trkpt lat="46.69786" lon="-1.93419">
        <ele>5</ele>
        <time>2018-03-24T05:44:34Z</time>
      </trkpt>
      <trkpt lat="46.69786" lon="-1.93418">
        <ele>5</ele>
        <time>2018-03-24T05:45:34Z</time>
      </trkpt>
      <trkpt lat="46.69787" lon="-1.93418">
        <ele>5</ele>
        <time>2018-03-24T05:46:34Z</time>
      </trkpt>
      <trkpt lat="46.69787" lon="-1.93417">
        <ele>5</ele>
        <time>2018-03-24T05:47:34Z</time>
      </trkpt>
      <trkpt lat="46.69788" lon="-1.93417">
        <ele>5</ele>
        <time>2018-03-24T05:48:34Z</time>
      </trkpt>
      <trkpt lat="46.69789" lon="-1.93417">
        <ele>5</ele>
        <time>2018-03-24T05:49:34Z</time>
      </trkpt>
      <trkpt lat="46.6979" lon="-1.93417">
        <ele>5</ele>
        <time>2018-03-24T05:50:34Z</time>
      </trkpt>
      <trkpt lat="46.69791" lon="-1.93417">
        <ele>5</ele>
        <time>2018-03-24T05:51:34Z</time>
      </trkpt>
      <trkpt lat="46.69791" lon="-1.93418">
        <ele>5</ele>
        <time>2018-03-24T05:52:34Z</time>
      </trkpt>
      <trkpt lat="46.69792" lon="-1.93418">
        <ele>5</ele>
        <time>2018-03-24T05:53:34Z</time>
      </trkpt>
      <trkpt lat="46.69792" lon="-1.93419">
        <ele>5</ele>
        <time>2018-03-24T05:54:34Z</time>
      </trkpt>
      <trkpt lat="46.69792" lon="-1.9342">
        <ele>5</ele>
        <time>2018-03-24T05:55:34Z</time>
      </trkpt>
      <trkpt lat="46.69793" lon="-1.9342">
        <ele>5</ele>
        <time>2018-03-24T05:56:34Z</time>
      </trkpt>
      <trkpt lat="46.69797" lon="-1.93421">
        <ele>5</ele>
        <time>2018-03-24T05:57:34Z</time>
      </trkpt>
      <trkpt lat="46.69798" lon="-1.93421">
        <ele>5</ele>
        <time>2018-03-24T05:58:34Z</time>
      </trkpt>
      <trkpt lat="46.69806" lon="-1.93419">
        <ele>5</ele>
        <time>2018-03-24T05:59:34Z</time>
      </trkpt>
      <trkpt lat="46.69824" lon="-1.93411">
        <ele>5</ele>
        <time>2018-03-24T06:00:34Z</time>
      </trkpt>
      <trkpt lat="46.69831" lon="-1.93408">
        <ele>5</ele>
        <time>2018-03-24T06:01:34Z</time>
      </trkpt>
    </trkseg>
  </trk>
</gpx>